<?xml version="1.0" encoding="utf-8"?>
<gpx xmlns:xsi="http://www.w3.org/2001/XMLSchema-instance" xmlns:xsd="http://www.w3.org/2001/XMLSchema" version="1.1" creator="Shapelink.com" xmlns="http://www.topografix.com/GPX/1/1" xmlns:gpxtpx="http://www.garmin.com/xmlschemas/TrackPointExtension/v1">
  <metadata>
    <name>Cykling 60.31 km, 2016-04-02</name>
    <desc></desc>
    <author><name>Alexander Engvall</name></author> 
    <time>2016-04-02T12:11:49Z</time>
  </metadata>
  <trk>
    <name>Cykling 60.31 km, 2016-04-02</name>
    <trkseg>
      <trkpt lat="59.219146846171" lon="17.907307329201">
        <ele>0</ele>
        <time>2016-04-02T12:11:49Z</time>
      </trkpt>
      <trkpt lat="59.219072666356" lon="17.907372205107">
        <ele>0</ele>
        <time>2016-04-02T12:11:50Z</time>
      </trkpt>
      <trkpt lat="59.219007958088" lon="17.907525174782">
        <ele>0</ele>
        <time>2016-04-02T12:11:52Z</time>
      </trkpt>
      <trkpt lat="59.218964707484" lon="17.907901354454">
        <ele>0</ele>
        <time>2016-04-02T12:11:55Z</time>
      </trkpt>
      <trkpt lat="59.21908658031" lon="17.908296644858">
        <ele>0</ele>
        <time>2016-04-02T12:11:58Z</time>
      </trkpt>
      <trkpt lat="59.21933719912" lon="17.909012375299">
        <ele>0</ele>
        <time>2016-04-02T12:12:04Z</time>
      </trkpt>
      <trkpt lat="59.219375001489" lon="17.909114131565">
        <ele>0</ele>
        <time>2016-04-02T12:12:05Z</time>
      </trkpt>
      <trkpt lat="59.219413055315" lon="17.909213540899">
        <ele>0</ele>
        <time>2016-04-02T12:12:06Z</time>
      </trkpt>
      <trkpt lat="59.219452366426" lon="17.909315464803">
        <ele>0</ele>
        <time>2016-04-02T12:12:07Z</time>
      </trkpt>
      <trkpt lat="59.21949729341" lon="17.90942216639">
        <ele>0</ele>
        <time>2016-04-02T12:12:08Z</time>
      </trkpt>
      <trkpt lat="59.219536269245" lon="17.909532388375">
        <ele>0</ele>
        <time>2016-04-02T12:12:09Z</time>
      </trkpt>
      <trkpt lat="59.219583794618" lon="17.909631546252">
        <ele>0</ele>
        <time>2016-04-02T12:12:10Z</time>
      </trkpt>
      <trkpt lat="59.219644311936" lon="17.909705139334">
        <ele>0.4</ele>
        <time>2016-04-02T12:12:11Z</time>
      </trkpt>
      <trkpt lat="59.219797868344" lon="17.909823240305">
        <ele>0.4</ele>
        <time>2016-04-02T12:12:13Z</time>
      </trkpt>
      <trkpt lat="59.219858301843" lon="17.909941928009">
        <ele>0.4</ele>
        <time>2016-04-02T12:12:14Z</time>
      </trkpt>
      <trkpt lat="59.219903647922" lon="17.910073356201">
        <ele>0.4</ele>
        <time>2016-04-02T12:12:15Z</time>
      </trkpt>
      <trkpt lat="59.220184860667" lon="17.910820770224">
        <ele>0.4</ele>
        <time>2016-04-02T12:12:21Z</time>
      </trkpt>
      <trkpt lat="59.220433216364" lon="17.911458548995">
        <ele>0.4</ele>
        <time>2016-04-02T12:12:26Z</time>
      </trkpt>
      <trkpt lat="59.220799086299" lon="17.912263462852">
        <ele>0.4</ele>
        <time>2016-04-02T12:12:33Z</time>
      </trkpt>
      <trkpt lat="59.221158837447" lon="17.913134174624">
        <ele>0.8</ele>
        <time>2016-04-02T12:12:41Z</time>
      </trkpt>
      <trkpt lat="59.221200244033" lon="17.913251269767">
        <ele>1.4</ele>
        <time>2016-04-02T12:12:42Z</time>
      </trkpt>
      <trkpt lat="59.221242237352" lon="17.913362749037">
        <ele>1.8</ele>
        <time>2016-04-02T12:12:43Z</time>
      </trkpt>
      <trkpt lat="59.221283224843" lon="17.913481185284">
        <ele>2.8</ele>
        <time>2016-04-02T12:12:44Z</time>
      </trkpt>
      <trkpt lat="59.221316752443" lon="17.91360808725">
        <ele>2.8</ele>
        <time>2016-04-02T12:12:45Z</time>
      </trkpt>
      <trkpt lat="59.221367127662" lon="17.91386541158">
        <ele>2.8</ele>
        <time>2016-04-02T12:12:47Z</time>
      </trkpt>
      <trkpt lat="59.221515403473" lon="17.914123657919">
        <ele>2.8</ele>
        <time>2016-04-02T12:12:50Z</time>
      </trkpt>
      <trkpt lat="59.221690669002" lon="17.914333205419">
        <ele>3.2</ele>
        <time>2016-04-02T12:12:53Z</time>
      </trkpt>
      <trkpt lat="59.221844560686" lon="17.914613999069">
        <ele>4.4</ele>
        <time>2016-04-02T12:12:54Z</time>
      </trkpt>
      <trkpt lat="59.221897366656" lon="17.914709133634">
        <ele>4.8</ele>
        <time>2016-04-02T12:12:56Z</time>
      </trkpt>
      <trkpt lat="59.222256698709" lon="17.915393934864">
        <ele>4.8</ele>
        <time>2016-04-02T12:13:03Z</time>
      </trkpt>
      <trkpt lat="59.222547802096" lon="17.915956863268">
        <ele>5.2</ele>
        <time>2016-04-02T12:13:09Z</time>
      </trkpt>
      <trkpt lat="59.222591136519" lon="17.916036994232">
        <ele>5.6</ele>
        <time>2016-04-02T12:13:10Z</time>
      </trkpt>
      <trkpt lat="59.222638661892" lon="17.916128440761">
        <ele>6</ele>
        <time>2016-04-02T12:13:11Z</time>
      </trkpt>
      <trkpt lat="59.222677050994" lon="17.916225251706">
        <ele>6.6</ele>
        <time>2016-04-02T12:13:12Z</time>
      </trkpt>
      <trkpt lat="59.222714182811" lon="17.916320553909">
        <ele>7</ele>
        <time>2016-04-02T12:13:13Z</time>
      </trkpt>
      <trkpt lat="59.222750476438" lon="17.916416191388">
        <ele>7.6</ele>
        <time>2016-04-02T12:13:14Z</time>
      </trkpt>
      <trkpt lat="59.22278802735" lon="17.916519288758">
        <ele>8</ele>
        <time>2016-04-02T12:13:15Z</time>
      </trkpt>
      <trkpt lat="59.222822728416" lon="17.91662389487">
        <ele>8.6</ele>
        <time>2016-04-02T12:13:16Z</time>
      </trkpt>
      <trkpt lat="59.222854747274" lon="17.916729087715">
        <ele>9</ele>
        <time>2016-04-02T12:13:17Z</time>
      </trkpt>
      <trkpt lat="59.223063121308" lon="17.917585634076">
        <ele>9</ele>
        <time>2016-04-02T12:13:24Z</time>
      </trkpt>
      <trkpt lat="59.223146353575" lon="17.917966926707">
        <ele>9</ele>
        <time>2016-04-02T12:13:27Z</time>
      </trkpt>
      <trkpt lat="59.22321885701" lon="17.918348219338">
        <ele>9</ele>
        <time>2016-04-02T12:13:30Z</time>
      </trkpt>
      <trkpt lat="59.22339655329" lon="17.919216584178">
        <ele>9</ele>
        <time>2016-04-02T12:13:37Z</time>
      </trkpt>
      <trkpt lat="59.22341331709" lon="17.919333595502">
        <ele>9</ele>
        <time>2016-04-02T12:13:38Z</time>
      </trkpt>
      <trkpt lat="59.223475762245" lon="17.919677253402">
        <ele>9.4</ele>
        <time>2016-04-02T12:13:41Z</time>
      </trkpt>
      <trkpt lat="59.223494956796" lon="17.91979141488">
        <ele>10</ele>
        <time>2016-04-02T12:13:42Z</time>
      </trkpt>
      <trkpt lat="59.223516330641" lon="17.919902391236">
        <ele>10.4</ele>
        <time>2016-04-02T12:13:43Z</time>
      </trkpt>
      <trkpt lat="59.22353485464" lon="17.920009092823">
        <ele>10.8</ele>
        <time>2016-04-02T12:13:44Z</time>
      </trkpt>
      <trkpt lat="59.223554384467" lon="17.920118560437">
        <ele>11.4</ele>
        <time>2016-04-02T12:13:45Z</time>
      </trkpt>
      <trkpt lat="59.22367902332" lon="17.920677549348">
        <ele>11.8</ele>
        <time>2016-04-02T12:13:50Z</time>
      </trkpt>
      <trkpt lat="59.223706348314" lon="17.920797326699">
        <ele>12.2</ele>
        <time>2016-04-02T12:13:51Z</time>
      </trkpt>
      <trkpt lat="59.223738031896" lon="17.920910901444">
        <ele>12.6</ele>
        <time>2016-04-02T12:13:52Z</time>
      </trkpt>
      <trkpt lat="59.223766781813" lon="17.921030594976">
        <ele>13</ele>
        <time>2016-04-02T12:13:53Z</time>
      </trkpt>
      <trkpt lat="59.223795196454" lon="17.921154982372">
        <ele>13.4</ele>
        <time>2016-04-02T12:13:54Z</time>
      </trkpt>
      <trkpt lat="59.223888738458" lon="17.921541639419">
        <ele>13.4</ele>
        <time>2016-04-02T12:13:57Z</time>
      </trkpt>
      <trkpt lat="59.224094933198" lon="17.922327191087">
        <ele>13.4</ele>
        <time>2016-04-02T12:14:03Z</time>
      </trkpt>
      <trkpt lat="59.224165257339" lon="17.922613516791">
        <ele>13</ele>
        <time>2016-04-02T12:14:05Z</time>
      </trkpt>
      <trkpt lat="59.224200293681" lon="17.922755087082">
        <ele>12.6</ele>
        <time>2016-04-02T12:14:06Z</time>
      </trkpt>
      <trkpt lat="59.224235749118" lon="17.922894729536">
        <ele>12.2</ele>
        <time>2016-04-02T12:14:07Z</time>
      </trkpt>
      <trkpt lat="59.224272378021" lon="17.923036216008">
        <ele>11.8</ele>
        <time>2016-04-02T12:14:08Z</time>
      </trkpt>
      <trkpt lat="59.224306576173" lon="17.923179881774">
        <ele>11.4</ele>
        <time>2016-04-02T12:14:09Z</time>
      </trkpt>
      <trkpt lat="59.224341947791" lon="17.923326984119">
        <ele>11.4</ele>
        <time>2016-04-02T12:14:10Z</time>
      </trkpt>
      <trkpt lat="59.224477064019" lon="17.92394129357">
        <ele>11.4</ele>
        <time>2016-04-02T12:14:14Z</time>
      </trkpt>
      <trkpt lat="59.224504221375" lon="17.924094933797">
        <ele>11.4</ele>
        <time>2016-04-02T12:14:15Z</time>
      </trkpt>
      <trkpt lat="59.224644115286" lon="17.924668339576">
        <ele>11.4</ele>
        <time>2016-04-02T12:14:19Z</time>
      </trkpt>
      <trkpt lat="59.22472592263" lon="17.92496220899">
        <ele>11.4</ele>
        <time>2016-04-02T12:14:21Z</time>
      </trkpt>
      <trkpt lat="59.224860619763" lon="17.92537543666">
        <ele>11.4</ele>
        <time>2016-04-02T12:14:24Z</time>
      </trkpt>
      <trkpt lat="59.224946618057" lon="17.925647513134">
        <ele>11.4</ele>
        <time>2016-04-02T12:14:26Z</time>
      </trkpt>
      <trkpt lat="59.225188687329" lon="17.926343629929">
        <ele>11.4</ele>
        <time>2016-04-02T12:14:32Z</time>
      </trkpt>
      <trkpt lat="59.225276781098" lon="17.926544292615">
        <ele>11.4</ele>
        <time>2016-04-02T12:14:34Z</time>
      </trkpt>
      <trkpt lat="59.225309973422" lon="17.926653424953">
        <ele>11.8</ele>
        <time>2016-04-02T12:14:35Z</time>
      </trkpt>
      <trkpt lat="59.225347943429" lon="17.926763898395">
        <ele>12.2</ele>
        <time>2016-04-02T12:14:36Z</time>
      </trkpt>
      <trkpt lat="59.225391110214" lon="17.926869845611">
        <ele>12.6</ele>
        <time>2016-04-02T12:14:37Z</time>
      </trkpt>
      <trkpt lat="59.225425727461" lon="17.926975960465">
        <ele>13</ele>
        <time>2016-04-02T12:14:38Z</time>
      </trkpt>
      <trkpt lat="59.225466714952" lon="17.927079728387">
        <ele>13.6</ele>
        <time>2016-04-02T12:14:39Z</time>
      </trkpt>
      <trkpt lat="59.225510636108" lon="17.927195398607">
        <ele>14</ele>
        <time>2016-04-02T12:14:40Z</time>
      </trkpt>
      <trkpt lat="59.225551204504" lon="17.927314756863">
        <ele>14.4</ele>
        <time>2016-04-02T12:14:41Z</time>
      </trkpt>
      <trkpt lat="59.225586492303" lon="17.927421206993">
        <ele>14.8</ele>
        <time>2016-04-02T12:14:42Z</time>
      </trkpt>
      <trkpt lat="59.225622450654" lon="17.927520867784">
        <ele>15.4</ele>
        <time>2016-04-02T12:14:43Z</time>
      </trkpt>
      <trkpt lat="59.225652290218" lon="17.927641650963">
        <ele>15.8</ele>
        <time>2016-04-02T12:14:44Z</time>
      </trkpt>
      <trkpt lat="59.22574013253" lon="17.928062589981">
        <ele>15.8</ele>
        <time>2016-04-02T12:14:47Z</time>
      </trkpt>
      <trkpt lat="59.225793692871" lon="17.9288170448">
        <ele>15.2</ele>
        <time>2016-04-02T12:14:52Z</time>
      </trkpt>
      <trkpt lat="59.225784724238" lon="17.928955429969">
        <ele>14.8</ele>
        <time>2016-04-02T12:14:53Z</time>
      </trkpt>
      <trkpt lat="59.225782964039" lon="17.92909280931">
        <ele>14.2</ele>
        <time>2016-04-02T12:14:54Z</time>
      </trkpt>
      <trkpt lat="59.225781371478" lon="17.929209233901">
        <ele>13.8</ele>
        <time>2016-04-02T12:14:55Z</time>
      </trkpt>
      <trkpt lat="59.225778018718" lon="17.929315348755">
        <ele>13.2</ele>
        <time>2016-04-02T12:14:56Z</time>
      </trkpt>
      <trkpt lat="59.225775587967" lon="17.929440322884">
        <ele>13.8</ele>
        <time>2016-04-02T12:14:57Z</time>
      </trkpt>
      <trkpt lat="59.22577114556" lon="17.929575103836">
        <ele>14.2</ele>
        <time>2016-04-02T12:14:58Z</time>
      </trkpt>
      <trkpt lat="59.22576946918" lon="17.929710471521">
        <ele>14.6</ele>
        <time>2016-04-02T12:14:59Z</time>
      </trkpt>
      <trkpt lat="59.225768128076" lon="17.929856735676">
        <ele>15</ele>
        <time>2016-04-02T12:15:00Z</time>
      </trkpt>
      <trkpt lat="59.225765864963" lon="17.929998473605">
        <ele>15.4</ele>
        <time>2016-04-02T12:15:01Z</time>
      </trkpt>
      <trkpt lat="59.225762931298" lon="17.930135266213">
        <ele>15.4</ele>
        <time>2016-04-02T12:15:02Z</time>
      </trkpt>
      <trkpt lat="59.225775923243" lon="17.930787461852">
        <ele>15.4</ele>
        <time>2016-04-02T12:15:07Z</time>
      </trkpt>
      <trkpt lat="59.225834428905" lon="17.931363801296">
        <ele>14.4</ele>
        <time>2016-04-02T12:15:11Z</time>
      </trkpt>
      <trkpt lat="59.225854042551" lon="17.931513585849">
        <ele>14</ele>
        <time>2016-04-02T12:15:12Z</time>
      </trkpt>
      <trkpt lat="59.225876422224" lon="17.931670914112">
        <ele>13.4</ele>
        <time>2016-04-02T12:15:13Z</time>
      </trkpt>
      <trkpt lat="59.225898466621" lon="17.931829248203">
        <ele>13</ele>
        <time>2016-04-02T12:15:14Z</time>
      </trkpt>
      <trkpt lat="59.225965102726" lon="17.932326881606">
        <ele>12.6</ele>
        <time>2016-04-02T12:15:17Z</time>
      </trkpt>
      <trkpt lat="59.22598823677" lon="17.932495609253">
        <ele>12.2</ele>
        <time>2016-04-02T12:15:18Z</time>
      </trkpt>
      <trkpt lat="59.226014053022" lon="17.932663079615">
        <ele>11.8</ele>
        <time>2016-04-02T12:15:19Z</time>
      </trkpt>
      <trkpt lat="59.226041964749" lon="17.932842452275">
        <ele>11.4</ele>
        <time>2016-04-02T12:15:20Z</time>
      </trkpt>
      <trkpt lat="59.226071971951" lon="17.933022746944">
        <ele>10.8</ele>
        <time>2016-04-02T12:15:21Z</time>
      </trkpt>
      <trkpt lat="59.22610558337" lon="17.933204047441">
        <ele>10.4</ele>
        <time>2016-04-02T12:15:22Z</time>
      </trkpt>
      <trkpt lat="59.226141122626" lon="17.933389119793">
        <ele>9.8</ele>
        <time>2016-04-02T12:15:23Z</time>
      </trkpt>
      <trkpt lat="59.226174398769" lon="17.933578718371">
        <ele>9.2</ele>
        <time>2016-04-02T12:15:24Z</time>
      </trkpt>
      <trkpt lat="59.226205495618" lon="17.933771082976">
        <ele>8.6</ele>
        <time>2016-04-02T12:15:25Z</time>
      </trkpt>
      <trkpt lat="59.226242878892" lon="17.933966716522">
        <ele>8.2</ele>
        <time>2016-04-02T12:15:26Z</time>
      </trkpt>
      <trkpt lat="59.226283614926" lon="17.934161847154">
        <ele>7.6</ele>
        <time>2016-04-02T12:15:27Z</time>
      </trkpt>
      <trkpt lat="59.226329715376" lon="17.934363934763">
        <ele>7</ele>
        <time>2016-04-02T12:15:28Z</time>
      </trkpt>
      <trkpt lat="59.22637380417" lon="17.93455529354">
        <ele>6.4</ele>
        <time>2016-04-02T12:15:29Z</time>
      </trkpt>
      <trkpt lat="59.226422586828" lon="17.934743802471">
        <ele>5.8</ele>
        <time>2016-04-02T12:15:30Z</time>
      </trkpt>
      <trkpt lat="59.226479080834" lon="17.934927282262">
        <ele>5.4</ele>
        <time>2016-04-02T12:15:31Z</time>
      </trkpt>
      <trkpt lat="59.226536915944" lon="17.935104559447">
        <ele>4.8</ele>
        <time>2016-04-02T12:15:32Z</time>
      </trkpt>
      <trkpt lat="59.226601875669" lon="17.935281082261">
        <ele>4.2</ele>
        <time>2016-04-02T12:15:33Z</time>
      </trkpt>
      <trkpt lat="59.226676642217" lon="17.935452073021">
        <ele>3.6</ele>
        <time>2016-04-02T12:15:34Z</time>
      </trkpt>
      <trkpt lat="59.226754090973" lon="17.935602611945">
        <ele>3</ele>
        <time>2016-04-02T12:15:35Z</time>
      </trkpt>
      <trkpt lat="59.226833299928" lon="17.93575222886">
        <ele>1.6</ele>
        <time>2016-04-02T12:15:36Z</time>
      </trkpt>
      <trkpt lat="59.226922231887" lon="17.935893799151">
        <ele>1</ele>
        <time>2016-04-02T12:15:37Z</time>
      </trkpt>
      <trkpt lat="59.227017366452" lon="17.936027406637">
        <ele>0.6</ele>
        <time>2016-04-02T12:15:38Z</time>
      </trkpt>
      <trkpt lat="59.227113590664" lon="17.936149279463">
        <ele>0</ele>
        <time>2016-04-02T12:15:39Z</time>
      </trkpt>
      <trkpt lat="59.227213922007" lon="17.936265033502">
        <ele>0</ele>
        <time>2016-04-02T12:15:40Z</time>
      </trkpt>
      <trkpt lat="59.227314840083" lon="17.936365113388">
        <ele>0</ele>
        <time>2016-04-02T12:15:41Z</time>
      </trkpt>
      <trkpt lat="59.227407879173" lon="17.936458068659">
        <ele>0</ele>
        <time>2016-04-02T12:15:42Z</time>
      </trkpt>
      <trkpt lat="59.227509886896" lon="17.936552113577">
        <ele>0</ele>
        <time>2016-04-02T12:15:43Z</time>
      </trkpt>
      <trkpt lat="59.22760175252" lon="17.936633334188">
        <ele>0</ele>
        <time>2016-04-02T12:15:44Z</time>
      </trkpt>
      <trkpt lat="59.227692109402" lon="17.936699718836">
        <ele>0</ele>
        <time>2016-04-02T12:15:45Z</time>
      </trkpt>
      <trkpt lat="59.227781208999" lon="17.936750345512">
        <ele>0</ele>
        <time>2016-04-02T12:15:46Z</time>
      </trkpt>
      <trkpt lat="59.227872655528" lon="17.936800385455">
        <ele>0</ele>
        <time>2016-04-02T12:15:47Z</time>
      </trkpt>
      <trkpt lat="59.228424268367" lon="17.937086208245">
        <ele>0</ele>
        <time>2016-04-02T12:15:53Z</time>
      </trkpt>
      <trkpt lat="59.228515128163" lon="17.937127111917">
        <ele>0</ele>
        <time>2016-04-02T12:15:54Z</time>
      </trkpt>
      <trkpt lat="59.228614453678" lon="17.937163657001">
        <ele>0</ele>
        <time>2016-04-02T12:15:55Z</time>
      </trkpt>
      <trkpt lat="59.228715204116" lon="17.937203387207">
        <ele>0</ele>
        <time>2016-04-02T12:15:56Z</time>
      </trkpt>
      <trkpt lat="59.2288104225" lon="17.937239010282">
        <ele>0</ele>
        <time>2016-04-02T12:15:57Z</time>
      </trkpt>
      <trkpt lat="59.228908658368" lon="17.937276645013">
        <ele>0</ele>
        <time>2016-04-02T12:15:58Z</time>
      </trkpt>
      <trkpt lat="59.22900488258" lon="17.937311681355">
        <ele>0</ele>
        <time>2016-04-02T12:15:59Z</time>
      </trkpt>
      <trkpt lat="59.229098676041" lon="17.937351830656">
        <ele>0</ele>
        <time>2016-04-02T12:16:00Z</time>
      </trkpt>
      <trkpt lat="59.229178890824" lon="17.937382340772">
        <ele>0</ele>
        <time>2016-04-02T12:16:01Z</time>
      </trkpt>
      <trkpt lat="59.229245778386" lon="17.937411677422">
        <ele>0</ele>
        <time>2016-04-02T12:16:02Z</time>
      </trkpt>
      <trkpt lat="59.229303529677" lon="17.937429530869">
        <ele>0</ele>
        <time>2016-04-02T12:16:03Z</time>
      </trkpt>
      <trkpt lat="59.229357425294" lon="17.937444115375">
        <ele>0</ele>
        <time>2016-04-02T12:16:04Z</time>
      </trkpt>
      <trkpt lat="59.229400089165" lon="17.937460376261">
        <ele>0</ele>
        <time>2016-04-02T12:16:05Z</time>
      </trkpt>
      <trkpt lat="59.229466641451" lon="17.937493065671">
        <ele>0</ele>
        <time>2016-04-02T12:16:07Z</time>
      </trkpt>
      <trkpt lat="59.229750452585" lon="17.937593899928">
        <ele>0</ele>
        <time>2016-04-02T12:16:13Z</time>
      </trkpt>
      <trkpt lat="59.229872660687" lon="17.937632875763">
        <ele>0</ele>
        <time>2016-04-02T12:16:15Z</time>
      </trkpt>
      <trkpt lat="59.229936782222" lon="17.937650226296">
        <ele>0</ele>
        <time>2016-04-02T12:16:16Z</time>
      </trkpt>
      <trkpt lat="59.230001825766" lon="17.937672019236">
        <ele>0</ele>
        <time>2016-04-02T12:16:17Z</time>
      </trkpt>
      <trkpt lat="59.230066617853" lon="17.937693141624">
        <ele>0</ele>
        <time>2016-04-02T12:16:18Z</time>
      </trkpt>
      <trkpt lat="59.230132751044" lon="17.937720801894">
        <ele>0</ele>
        <time>2016-04-02T12:16:19Z</time>
      </trkpt>
      <trkpt lat="59.23019259781" lon="17.937745193223">
        <ele>0</ele>
        <time>2016-04-02T12:16:20Z</time>
      </trkpt>
      <trkpt lat="59.230584116359" lon="17.937940491493">
        <ele>0</ele>
        <time>2016-04-02T12:16:26Z</time>
      </trkpt>
      <trkpt lat="59.230779582267" lon="17.938059430654">
        <ele>0</ele>
        <time>2016-04-02T12:16:29Z</time>
      </trkpt>
      <trkpt lat="59.230839931947" lon="17.938314491871">
        <ele>0</ele>
        <time>2016-04-02T12:16:31Z</time>
      </trkpt>
      <trkpt lat="59.230821072672" lon="17.938759906037">
        <ele>0</ele>
        <time>2016-04-02T12:16:34Z</time>
      </trkpt>
      <trkpt lat="59.230809002736" lon="17.938910444961">
        <ele>0</ele>
        <time>2016-04-02T12:16:35Z</time>
      </trkpt>
      <trkpt lat="59.230754268929" lon="17.939855755643">
        <ele>0</ele>
        <time>2016-04-02T12:16:41Z</time>
      </trkpt>
      <trkpt lat="59.230741360803" lon="17.940184996675">
        <ele>0</ele>
        <time>2016-04-02T12:16:43Z</time>
      </trkpt>
      <trkpt lat="59.23071479018" lon="17.94103366405">
        <ele>0</ele>
        <time>2016-04-02T12:16:48Z</time>
      </trkpt>
      <trkpt lat="59.230687297548" lon="17.94221467376">
        <ele>0</ele>
        <time>2016-04-02T12:16:55Z</time>
      </trkpt>
      <trkpt lat="59.230683106598" lon="17.942382144122">
        <ele>0</ele>
        <time>2016-04-02T12:16:56Z</time>
      </trkpt>
      <trkpt lat="59.230680256752" lon="17.942556571461">
        <ele>0</ele>
        <time>2016-04-02T12:16:57Z</time>
      </trkpt>
      <trkpt lat="59.230674054146" lon="17.942710798421">
        <ele>0</ele>
        <time>2016-04-02T12:16:58Z</time>
      </trkpt>
      <trkpt lat="59.230667683902" lon="17.942872149996">
        <ele>0</ele>
        <time>2016-04-02T12:16:59Z</time>
      </trkpt>
      <trkpt lat="59.230661565115" lon="17.943041632014">
        <ele>0</ele>
        <time>2016-04-02T12:17:00Z</time>
      </trkpt>
      <trkpt lat="59.230637844338" lon="17.943751243668">
        <ele>0</ele>
        <time>2016-04-02T12:17:04Z</time>
      </trkpt>
      <trkpt lat="59.230603562367" lon="17.944936611966">
        <ele>0</ele>
        <time>2016-04-02T12:17:11Z</time>
      </trkpt>
      <trkpt lat="59.230598197951" lon="17.945101903034">
        <ele>0</ele>
        <time>2016-04-02T12:17:12Z</time>
      </trkpt>
      <trkpt lat="59.230595348105" lon="17.945265517722">
        <ele>0</ele>
        <time>2016-04-02T12:17:13Z</time>
      </trkpt>
      <trkpt lat="59.230593420268" lon="17.945431311704">
        <ele>0</ele>
        <time>2016-04-02T12:17:14Z</time>
      </trkpt>
      <trkpt lat="59.230591408612" lon="17.945595177849">
        <ele>0</ele>
        <time>2016-04-02T12:17:15Z</time>
      </trkpt>
      <trkpt lat="59.230566933464" lon="17.946247289669">
        <ele>0</ele>
        <time>2016-04-02T12:17:19Z</time>
      </trkpt>
      <trkpt lat="59.230556707546" lon="17.947434753442">
        <ele>0</ele>
        <time>2016-04-02T12:17:26Z</time>
      </trkpt>
      <trkpt lat="59.230640107451" lon="17.948085607977">
        <ele>0</ele>
        <time>2016-04-02T12:17:30Z</time>
      </trkpt>
      <trkpt lat="59.230707162651" lon="17.948386853463">
        <ele>0</ele>
        <time>2016-04-02T12:17:32Z</time>
      </trkpt>
      <trkpt lat="59.230744462106" lon="17.94853714093">
        <ele>0</ele>
        <time>2016-04-02T12:17:33Z</time>
      </trkpt>
      <trkpt lat="59.230778744077" lon="17.94867795685">
        <ele>0</ele>
        <time>2016-04-02T12:17:34Z</time>
      </trkpt>
      <trkpt lat="59.230812606953" lon="17.948822628444">
        <ele>0</ele>
        <time>2016-04-02T12:17:35Z</time>
      </trkpt>
      <trkpt lat="59.230839764309" lon="17.948980040526">
        <ele>0</ele>
        <time>2016-04-02T12:17:36Z</time>
      </trkpt>
      <trkpt lat="59.230854935548" lon="17.949405421951">
        <ele>0</ele>
        <time>2016-04-02T12:17:39Z</time>
      </trkpt>
      <trkpt lat="59.230874213918" lon="17.949535341401">
        <ele>0</ele>
        <time>2016-04-02T12:17:40Z</time>
      </trkpt>
      <trkpt lat="59.2309394251" lon="17.949569455734">
        <ele>0</ele>
        <time>2016-04-02T12:17:41Z</time>
      </trkpt>
      <trkpt lat="59.230999104228" lon="17.949552356658">
        <ele>0</ele>
        <time>2016-04-02T12:17:42Z</time>
      </trkpt>
      <trkpt lat="59.231168083332" lon="17.949347083927">
        <ele>0</ele>
        <time>2016-04-02T12:17:45Z</time>
      </trkpt>
      <trkpt lat="59.231302109913" lon="17.949249937706">
        <ele>0</ele>
        <time>2016-04-02T12:17:47Z</time>
      </trkpt>
      <trkpt lat="59.23137360752" lon="17.949205513636">
        <ele>0</ele>
        <time>2016-04-02T12:17:48Z</time>
      </trkpt>
      <trkpt lat="59.2316937961" lon="17.949019435456">
        <ele>0</ele>
        <time>2016-04-02T12:17:52Z</time>
      </trkpt>
      <trkpt lat="59.232104006286" lon="17.948685584379">
        <ele>0</ele>
        <time>2016-04-02T12:17:57Z</time>
      </trkpt>
      <trkpt lat="59.232532489014" lon="17.948399929227">
        <ele>0</ele>
        <time>2016-04-02T12:18:02Z</time>
      </trkpt>
      <trkpt lat="59.232619912231" lon="17.948346536524">
        <ele>0</ele>
        <time>2016-04-02T12:18:03Z</time>
      </trkpt>
      <trkpt lat="59.233152581976" lon="17.948084853606">
        <ele>0</ele>
        <time>2016-04-02T12:18:09Z</time>
      </trkpt>
      <trkpt lat="59.233243022677" lon="17.948061551924">
        <ele>0</ele>
        <time>2016-04-02T12:18:10Z</time>
      </trkpt>
      <trkpt lat="59.233786337435" lon="17.948003968271">
        <ele>0</ele>
        <time>2016-04-02T12:18:16Z</time>
      </trkpt>
      <trkpt lat="59.233877616326" lon="17.948011009067">
        <ele>0</ele>
        <time>2016-04-02T12:18:17Z</time>
      </trkpt>
      <trkpt lat="59.234497122555" lon="17.948007572488">
        <ele>0</ele>
        <time>2016-04-02T12:18:24Z</time>
      </trkpt>
      <trkpt lat="59.235015710708" lon="17.947912773199">
        <ele>0</ele>
        <time>2016-04-02T12:18:30Z</time>
      </trkpt>
      <trkpt lat="59.235097518052" lon="17.947893578648">
        <ele>0</ele>
        <time>2016-04-02T12:18:31Z</time>
      </trkpt>
      <trkpt lat="59.235179493034" lon="17.947874048821">
        <ele>0</ele>
        <time>2016-04-02T12:18:32Z</time>
      </trkpt>
      <trkpt lat="59.235260210731" lon="17.947852926433">
        <ele>0</ele>
        <time>2016-04-02T12:18:33Z</time>
      </trkpt>
      <trkpt lat="59.235339503505" lon="17.947823422145">
        <ele>0</ele>
        <time>2016-04-02T12:18:34Z</time>
      </trkpt>
      <trkpt lat="59.235421562306" lon="17.947780590636">
        <ele>0</ele>
        <time>2016-04-02T12:18:35Z</time>
      </trkpt>
      <trkpt lat="59.23549750232" lon="17.947723342259">
        <ele>0</ele>
        <time>2016-04-02T12:18:36Z</time>
      </trkpt>
      <trkpt lat="59.235571011583" lon="17.947655448869">
        <ele>0</ele>
        <time>2016-04-02T12:18:37Z</time>
      </trkpt>
      <trkpt lat="59.235639240249" lon="17.947574479715">
        <ele>0</ele>
        <time>2016-04-02T12:18:38Z</time>
      </trkpt>
      <trkpt lat="59.23570537344" lon="17.947485631575">
        <ele>0</ele>
        <time>2016-04-02T12:18:39Z</time>
      </trkpt>
      <trkpt lat="59.235768656785" lon="17.947390161734">
        <ele>0</ele>
        <time>2016-04-02T12:18:40Z</time>
      </trkpt>
      <trkpt lat="59.23583110194" lon="17.947290333305">
        <ele>0</ele>
        <time>2016-04-02T12:18:41Z</time>
      </trkpt>
      <trkpt lat="59.23590234809" lon="17.947189582867">
        <ele>0</ele>
        <time>2016-04-02T12:18:42Z</time>
      </trkpt>
      <trkpt lat="59.235980970312" lon="17.947111631197">
        <ele>0</ele>
        <time>2016-04-02T12:18:43Z</time>
      </trkpt>
      <trkpt lat="59.236071913927" lon="17.94705186825">
        <ele>0</ele>
        <time>2016-04-02T12:18:44Z</time>
      </trkpt>
      <trkpt lat="59.236155565289" lon="17.947012305682">
        <ele>0</ele>
        <time>2016-04-02T12:18:45Z</time>
      </trkpt>
      <trkpt lat="59.236328316248" lon="17.946987998172">
        <ele>0</ele>
        <time>2016-04-02T12:18:47Z</time>
      </trkpt>
      <trkpt lat="59.23665671909" lon="17.94710048327">
        <ele>0</ele>
        <time>2016-04-02T12:18:51Z</time>
      </trkpt>
      <trkpt lat="59.236865763676" lon="17.947327548941">
        <ele>0</ele>
        <time>2016-04-02T12:18:54Z</time>
      </trkpt>
      <trkpt lat="59.23692661627" lon="17.9474164809">
        <ele>0</ele>
        <time>2016-04-02T12:18:55Z</time>
      </trkpt>
      <trkpt lat="59.237033234038" lon="17.947598954863">
        <ele>0</ele>
        <time>2016-04-02T12:18:57Z</time>
      </trkpt>
      <trkpt lat="59.237114119373" lon="17.947781764102">
        <ele>0</ele>
        <time>2016-04-02T12:18:59Z</time>
      </trkpt>
      <trkpt lat="59.237154352493" lon="17.947849489854">
        <ele>0</ele>
        <time>2016-04-02T12:19:00Z</time>
      </trkpt>
      <trkpt lat="59.237202967513" lon="17.947870109328">
        <ele>0</ele>
        <time>2016-04-02T12:19:01Z</time>
      </trkpt>
      <trkpt lat="59.23725434856" lon="17.94783222314">
        <ele>0</ele>
        <time>2016-04-02T12:19:02Z</time>
      </trkpt>
      <trkpt lat="59.237292737662" lon="17.947741447163">
        <ele>0</ele>
        <time>2016-04-02T12:19:03Z</time>
      </trkpt>
      <trkpt lat="59.23732559471" lon="17.947629297341">
        <ele>0</ele>
        <time>2016-04-02T12:19:04Z</time>
      </trkpt>
      <trkpt lat="59.237516618211" lon="17.947015155528">
        <ele>0</ele>
        <time>2016-04-02T12:19:09Z</time>
      </trkpt>
      <trkpt lat="59.237564059765" lon="17.946896719281">
        <ele>0</ele>
        <time>2016-04-02T12:19:10Z</time>
      </trkpt>
      <trkpt lat="59.237609824939" lon="17.946777444844">
        <ele>0</ele>
        <time>2016-04-02T12:19:11Z</time>
      </trkpt>
      <trkpt lat="59.237658104683" lon="17.946653979457">
        <ele>0</ele>
        <time>2016-04-02T12:19:12Z</time>
      </trkpt>
      <trkpt lat="59.23770529478" lon="17.946541913454">
        <ele>0</ele>
        <time>2016-04-02T12:19:13Z</time>
      </trkpt>
      <trkpt lat="59.237869831477" lon="17.946115190925">
        <ele>0</ele>
        <time>2016-04-02T12:19:17Z</time>
      </trkpt>
      <trkpt lat="59.237933366279" lon="17.945891897109">
        <ele>0</ele>
        <time>2016-04-02T12:19:19Z</time>
      </trkpt>
      <trkpt lat="59.237964546947" lon="17.945765581876">
        <ele>0</ele>
        <time>2016-04-02T12:19:20Z</time>
      </trkpt>
      <trkpt lat="59.237992039579" lon="17.945639769557">
        <ele>0</ele>
        <time>2016-04-02T12:19:21Z</time>
      </trkpt>
      <trkpt lat="59.238013916338" lon="17.945515382161">
        <ele>0</ele>
        <time>2016-04-02T12:19:22Z</time>
      </trkpt>
      <trkpt lat="59.238031183052" lon="17.945395856267">
        <ele>0</ele>
        <time>2016-04-02T12:19:23Z</time>
      </trkpt>
      <trkpt lat="59.23808415666" lon="17.945020766242">
        <ele>0</ele>
        <time>2016-04-02T12:19:26Z</time>
      </trkpt>
      <trkpt lat="59.238229498806" lon="17.944193975626">
        <ele>0</ele>
        <time>2016-04-02T12:19:32Z</time>
      </trkpt>
      <trkpt lat="59.238288255925" lon="17.943917289107">
        <ele>0</ele>
        <time>2016-04-02T12:19:34Z</time>
      </trkpt>
      <trkpt lat="59.238326812665" lon="17.943773790979">
        <ele>0</ele>
        <time>2016-04-02T12:19:35Z</time>
      </trkpt>
      <trkpt lat="59.238369644174" lon="17.943640854045">
        <ele>0</ele>
        <time>2016-04-02T12:19:36Z</time>
      </trkpt>
      <trkpt lat="59.238414906434" lon="17.943509593491">
        <ele>0</ele>
        <time>2016-04-02T12:19:37Z</time>
      </trkpt>
      <trkpt lat="59.238462431807" lon="17.943384116448">
        <ele>0</ele>
        <time>2016-04-02T12:19:38Z</time>
      </trkpt>
      <trkpt lat="59.238512304112" lon="17.943262746536">
        <ele>0</ele>
        <time>2016-04-02T12:19:39Z</time>
      </trkpt>
      <trkpt lat="59.238687485822" lon="17.94293048802">
        <ele>0</ele>
        <time>2016-04-02T12:19:42Z</time>
      </trkpt>
      <trkpt lat="59.238941876487" lon="17.942754132844">
        <ele>0</ele>
        <time>2016-04-02T12:19:45Z</time>
      </trkpt>
      <trkpt lat="59.239278661229" lon="17.942539304747">
        <ele>0</ele>
        <time>2016-04-02T12:19:49Z</time>
      </trkpt>
      <trkpt lat="59.239358373098" lon="17.942450456607">
        <ele>0</ele>
        <time>2016-04-02T12:19:50Z</time>
      </trkpt>
      <trkpt lat="59.239427020859" lon="17.942349706169">
        <ele>0</ele>
        <time>2016-04-02T12:19:51Z</time>
      </trkpt>
      <trkpt lat="59.239487621996" lon="17.942233281578">
        <ele>0</ele>
        <time>2016-04-02T12:19:52Z</time>
      </trkpt>
      <trkpt lat="59.23954009269" lon="17.942108475087">
        <ele>0</ele>
        <time>2016-04-02T12:19:53Z</time>
      </trkpt>
      <trkpt lat="59.239586025502" lon="17.941974783782">
        <ele>0</ele>
        <time>2016-04-02T12:19:54Z</time>
      </trkpt>
      <trkpt lat="59.239684596646" lon="17.941558790085">
        <ele>0</ele>
        <time>2016-04-02T12:19:57Z</time>
      </trkpt>
      <trkpt lat="59.239705635215" lon="17.941247318681">
        <ele>0</ele>
        <time>2016-04-02T12:19:59Z</time>
      </trkpt>
      <trkpt lat="59.239729439811" lon="17.940921681866">
        <ele>0</ele>
        <time>2016-04-02T12:20:01Z</time>
      </trkpt>
      <trkpt lat="59.239816863028" lon="17.940062872392">
        <ele>0</ele>
        <time>2016-04-02T12:20:06Z</time>
      </trkpt>
      <trkpt lat="59.239847876058" lon="17.939724243632">
        <ele>0</ele>
        <time>2016-04-02T12:20:08Z</time>
      </trkpt>
      <trkpt lat="59.23986111946" lon="17.939559036383">
        <ele>0</ele>
        <time>2016-04-02T12:20:09Z</time>
      </trkpt>
      <trkpt lat="59.239873189396" lon="17.939393577677">
        <ele>0</ele>
        <time>2016-04-02T12:20:10Z</time>
      </trkpt>
      <trkpt lat="59.239884756418" lon="17.939225939677">
        <ele>0</ele>
        <time>2016-04-02T12:20:11Z</time>
      </trkpt>
      <trkpt lat="59.239942842985" lon="17.938723109496">
        <ele>0</ele>
        <time>2016-04-02T12:20:14Z</time>
      </trkpt>
      <trkpt lat="59.239974107472" lon="17.938559159532">
        <ele>0</ele>
        <time>2016-04-02T12:20:15Z</time>
      </trkpt>
      <trkpt lat="59.24010335637" lon="17.938133778107">
        <ele>0</ele>
        <time>2016-04-02T12:20:18Z</time>
      </trkpt>
      <trkpt lat="59.240297481174" lon="17.937806045817">
        <ele>0</ele>
        <time>2016-04-02T12:20:21Z</time>
      </trkpt>
      <trkpt lat="59.240731747413" lon="17.937172457996">
        <ele>0</ele>
        <time>2016-04-02T12:20:27Z</time>
      </trkpt>
      <trkpt lat="59.240876586645" lon="17.936952265483">
        <ele>0</ele>
        <time>2016-04-02T12:20:29Z</time>
      </trkpt>
      <trkpt lat="59.241361647198" lon="17.936215915568">
        <ele>0</ele>
        <time>2016-04-02T12:20:36Z</time>
      </trkpt>
      <trkpt lat="59.241430043502" lon="17.936115081311">
        <ele>0</ele>
        <time>2016-04-02T12:20:37Z</time>
      </trkpt>
      <trkpt lat="59.241629532722" lon="17.935800927699">
        <ele>0</ele>
        <time>2016-04-02T12:20:40Z</time>
      </trkpt>
      <trkpt lat="59.241693318981" lon="17.935686430945">
        <ele>0</ele>
        <time>2016-04-02T12:20:41Z</time>
      </trkpt>
      <trkpt lat="59.241747298417" lon="17.935554080744">
        <ele>0</ele>
        <time>2016-04-02T12:20:42Z</time>
      </trkpt>
      <trkpt lat="59.241789040279" lon="17.935394070273">
        <ele>0</ele>
        <time>2016-04-02T12:20:43Z</time>
      </trkpt>
      <trkpt lat="59.241814437436" lon="17.9352208164">
        <ele>0</ele>
        <time>2016-04-02T12:20:44Z</time>
      </trkpt>
      <trkpt lat="59.241822986974" lon="17.934876907043">
        <ele>0</ele>
        <time>2016-04-02T12:20:46Z</time>
      </trkpt>
      <trkpt lat="59.241819718033" lon="17.934703820808">
        <ele>0</ele>
        <time>2016-04-02T12:20:47Z</time>
      </trkpt>
      <trkpt lat="59.241815024169" lon="17.934530315478">
        <ele>0</ele>
        <time>2016-04-02T12:20:48Z</time>
      </trkpt>
      <trkpt lat="59.241811084676" lon="17.934357313062">
        <ele>0</ele>
        <time>2016-04-02T12:20:49Z</time>
      </trkpt>
      <trkpt lat="59.241806809907" lon="17.93418816632">
        <ele>0</ele>
        <time>2016-04-02T12:20:50Z</time>
      </trkpt>
      <trkpt lat="59.241804462975" lon="17.934007368737">
        <ele>0</ele>
        <time>2016-04-02T12:20:51Z</time>
      </trkpt>
      <trkpt lat="59.241802451319" lon="17.933841742393">
        <ele>0</ele>
        <time>2016-04-02T12:20:52Z</time>
      </trkpt>
      <trkpt lat="59.241784346415" lon="17.933357771487">
        <ele>0</ele>
        <time>2016-04-02T12:20:55Z</time>
      </trkpt>
      <trkpt lat="59.241776886524" lon="17.933192564238">
        <ele>0</ele>
        <time>2016-04-02T12:20:56Z</time>
      </trkpt>
      <trkpt lat="59.241775713058" lon="17.933018639813">
        <ele>0</ele>
        <time>2016-04-02T12:20:57Z</time>
      </trkpt>
      <trkpt lat="59.241781496569" lon="17.932838848058">
        <ele>0</ele>
        <time>2016-04-02T12:20:58Z</time>
      </trkpt>
      <trkpt lat="59.241787866813" lon="17.932673305533">
        <ele>0</ele>
        <time>2016-04-02T12:20:59Z</time>
      </trkpt>
      <trkpt lat="59.241786693347" lon="17.932522431333">
        <ele>0</ele>
        <time>2016-04-02T12:21:00Z</time>
      </trkpt>
      <trkpt lat="59.241783592044" lon="17.932387566562">
        <ele>0</ele>
        <time>2016-04-02T12:21:01Z</time>
      </trkpt>
      <trkpt lat="59.241769929547" lon="17.932113813708">
        <ele>0</ele>
        <time>2016-04-02T12:21:03Z</time>
      </trkpt>
      <trkpt lat="59.241760541819" lon="17.93168784555">
        <ele>0</ele>
        <time>2016-04-02T12:21:06Z</time>
      </trkpt>
      <trkpt lat="59.241714273731" lon="17.931259781917">
        <ele>0</ele>
        <time>2016-04-02T12:21:09Z</time>
      </trkpt>
      <trkpt lat="59.241692648429" lon="17.931120893834">
        <ele>0</ele>
        <time>2016-04-02T12:21:10Z</time>
      </trkpt>
      <trkpt lat="59.241548982663" lon="17.930278261427">
        <ele>0</ele>
        <time>2016-04-02T12:21:16Z</time>
      </trkpt>
      <trkpt lat="59.241473377925" lon="17.929875930227">
        <ele>0</ele>
        <time>2016-04-02T12:21:19Z</time>
      </trkpt>
      <trkpt lat="59.24139919811" lon="17.929471503552">
        <ele>0</ele>
        <time>2016-04-02T12:21:22Z</time>
      </trkpt>
      <trkpt lat="59.241355528411" lon="17.92920931772">
        <ele>0</ele>
        <time>2016-04-02T12:21:24Z</time>
      </trkpt>
      <trkpt lat="59.24133633386" lon="17.929077973347">
        <ele>0</ele>
        <time>2016-04-02T12:21:25Z</time>
      </trkpt>
      <trkpt lat="59.241322000811" lon="17.928948053897">
        <ele>0</ele>
        <time>2016-04-02T12:21:26Z</time>
      </trkpt>
      <trkpt lat="59.241306745753" lon="17.928819224094">
        <ele>0</ele>
        <time>2016-04-02T12:21:27Z</time>
      </trkpt>
      <trkpt lat="59.241288221754" lon="17.928688466454">
        <ele>0</ele>
        <time>2016-04-02T12:21:28Z</time>
      </trkpt>
      <trkpt lat="59.241142209056" lon="17.927798392493">
        <ele>0</ele>
        <time>2016-04-02T12:21:35Z</time>
      </trkpt>
      <trkpt lat="59.241000387308" lon="17.927006386762">
        <ele>0</ele>
        <time>2016-04-02T12:21:41Z</time>
      </trkpt>
      <trkpt lat="59.240899972146" lon="17.92638377923">
        <ele>0</ele>
        <time>2016-04-02T12:21:45Z</time>
      </trkpt>
      <trkpt lat="59.24069428032" lon="17.925293713135">
        <ele>0</ele>
        <time>2016-04-02T12:21:53Z</time>
      </trkpt>
      <trkpt lat="59.240630158785" lon="17.924923484612">
        <ele>0</ele>
        <time>2016-04-02T12:21:56Z</time>
      </trkpt>
      <trkpt lat="59.240609036397" lon="17.924806138012">
        <ele>0</ele>
        <time>2016-04-02T12:21:57Z</time>
      </trkpt>
      <trkpt lat="59.240589422751" lon="17.924691389801">
        <ele>0</ele>
        <time>2016-04-02T12:21:58Z</time>
      </trkpt>
      <trkpt lat="59.240568887096" lon="17.924576893047">
        <ele>0</ele>
        <time>2016-04-02T12:21:59Z</time>
      </trkpt>
      <trkpt lat="59.240543909034" lon="17.924463905035">
        <ele>0</ele>
        <time>2016-04-02T12:22:00Z</time>
      </trkpt>
      <trkpt lat="59.240487582666" lon="17.924148242681">
        <ele>0</ele>
        <time>2016-04-02T12:22:03Z</time>
      </trkpt>
      <trkpt lat="59.240367972953" lon="17.923390938016">
        <ele>0</ele>
        <time>2016-04-02T12:22:09Z</time>
      </trkpt>
      <trkpt lat="59.240341067054" lon="17.923130344745">
        <ele>0</ele>
        <time>2016-04-02T12:22:11Z</time>
      </trkpt>
      <trkpt lat="59.240335367362" lon="17.922871595492">
        <ele>0</ele>
        <time>2016-04-02T12:22:13Z</time>
      </trkpt>
      <trkpt lat="59.240321034313" lon="17.922729019373">
        <ele>0</ele>
        <time>2016-04-02T12:22:14Z</time>
      </trkpt>
      <trkpt lat="59.240296391527" lon="17.922580324467">
        <ele>0</ele>
        <time>2016-04-02T12:22:15Z</time>
      </trkpt>
      <trkpt lat="59.240266719601" lon="17.922437664529">
        <ele>0</ele>
        <time>2016-04-02T12:22:16Z</time>
      </trkpt>
      <trkpt lat="59.240232856725" lon="17.922299614636">
        <ele>0</ele>
        <time>2016-04-02T12:22:17Z</time>
      </trkpt>
      <trkpt lat="59.240196898374" lon="17.922159133992">
        <ele>0</ele>
        <time>2016-04-02T12:22:18Z</time>
      </trkpt>
      <trkpt lat="59.239931443601" lon="17.921230838567">
        <ele>0</ele>
        <time>2016-04-02T12:22:25Z</time>
      </trkpt>
      <trkpt lat="59.23963396997" lon="17.920334645819">
        <ele>0</ele>
        <time>2016-04-02T12:22:32Z</time>
      </trkpt>
      <trkpt lat="59.239489885109" lon="17.919807172852">
        <ele>0</ele>
        <time>2016-04-02T12:22:36Z</time>
      </trkpt>
      <trkpt lat="59.239451663645" lon="17.919673816823">
        <ele>0</ele>
        <time>2016-04-02T12:22:37Z</time>
      </trkpt>
      <trkpt lat="59.239412520172" lon="17.919535096378">
        <ele>0</ele>
        <time>2016-04-02T12:22:38Z</time>
      </trkpt>
      <trkpt lat="59.239373711975" lon="17.919406518032">
        <ele>0</ele>
        <time>2016-04-02T12:22:39Z</time>
      </trkpt>
      <trkpt lat="59.239336244882" lon="17.919276850039">
        <ele>0</ele>
        <time>2016-04-02T12:22:40Z</time>
      </trkpt>
      <trkpt lat="59.239210264925" lon="17.918746862502">
        <ele>0</ele>
        <time>2016-04-02T12:22:44Z</time>
      </trkpt>
      <trkpt lat="59.239024857297" lon="17.917693509129">
        <ele>0</ele>
        <time>2016-04-02T12:22:51Z</time>
      </trkpt>
      <trkpt lat="59.238909187077" lon="17.916752473216">
        <ele>0</ele>
        <time>2016-04-02T12:22:57Z</time>
      </trkpt>
      <trkpt lat="59.238754038108" lon="17.915704651897">
        <ele>0</ele>
        <time>2016-04-02T12:23:04Z</time>
      </trkpt>
      <trkpt lat="59.238612383998" lon="17.914645012099">
        <ele>0</ele>
        <time>2016-04-02T12:23:11Z</time>
      </trkpt>
      <trkpt lat="59.238498054882" lon="17.914070600492">
        <ele>0</ele>
        <time>2016-04-02T12:23:15Z</time>
      </trkpt>
      <trkpt lat="59.238457402667" lon="17.913942692698">
        <ele>0</ele>
        <time>2016-04-02T12:23:16Z</time>
      </trkpt>
      <trkpt lat="59.238268307003" lon="17.9134697859">
        <ele>0</ele>
        <time>2016-04-02T12:23:20Z</time>
      </trkpt>
      <trkpt lat="59.238210639531" lon="17.913370795661">
        <ele>0</ele>
        <time>2016-04-02T12:23:21Z</time>
      </trkpt>
      <trkpt lat="59.237921296343" lon="17.912933931033">
        <ele>0</ele>
        <time>2016-04-02T12:23:26Z</time>
      </trkpt>
      <trkpt lat="59.237865891984" lon="17.912865031815">
        <ele>0</ele>
        <time>2016-04-02T12:23:27Z</time>
      </trkpt>
      <trkpt lat="59.237806380494" lon="17.912795713502">
        <ele>0</ele>
        <time>2016-04-02T12:23:28Z</time>
      </trkpt>
      <trkpt lat="59.237747707194" lon="17.912727317198">
        <ele>0</ele>
        <time>2016-04-02T12:23:29Z</time>
      </trkpt>
      <trkpt lat="59.237687357514" lon="17.912654478487">
        <ele>0</ele>
        <time>2016-04-02T12:23:30Z</time>
      </trkpt>
      <trkpt lat="59.237488706484" lon="17.912392879388">
        <ele>0</ele>
        <time>2016-04-02T12:23:34Z</time>
      </trkpt>
      <trkpt lat="59.237461046214" lon="17.912310485311">
        <ele>0</ele>
        <time>2016-04-02T12:23:35Z</time>
      </trkpt>
      <trkpt lat="59.237470266304" lon="17.912120132362">
        <ele>0</ele>
        <time>2016-04-02T12:23:37Z</time>
      </trkpt>
      <trkpt lat="59.237527430862" lon="17.911926091377">
        <ele>0</ele>
        <time>2016-04-02T12:23:39Z</time>
      </trkpt>
      <trkpt lat="59.237592809682" lon="17.911701624095">
        <ele>0</ele>
        <time>2016-04-02T12:23:41Z</time>
      </trkpt>
      <trkpt lat="59.237798752965" lon="17.910939625566">
        <ele>0</ele>
        <time>2016-04-02T12:23:47Z</time>
      </trkpt>
      <trkpt lat="59.238088096153" lon="17.909876130094">
        <ele>0</ele>
        <time>2016-04-02T12:23:55Z</time>
      </trkpt>
      <trkpt lat="59.238365956138" lon="17.908858315977">
        <ele>0</ele>
        <time>2016-04-02T12:24:02Z</time>
      </trkpt>
      <trkpt lat="59.238630405083" lon="17.907835556539">
        <ele>0</ele>
        <time>2016-04-02T12:24:09Z</time>
      </trkpt>
      <trkpt lat="59.238667620719" lon="17.907690633488">
        <ele>0</ele>
        <time>2016-04-02T12:24:10Z</time>
      </trkpt>
      <trkpt lat="59.2389189939" lon="17.906706514609">
        <ele>0</ele>
        <time>2016-04-02T12:24:17Z</time>
      </trkpt>
      <trkpt lat="59.238955119889" lon="17.906570895467">
        <ele>0</ele>
        <time>2016-04-02T12:24:18Z</time>
      </trkpt>
      <trkpt lat="59.239021085442" lon="17.906308793454">
        <ele>0</ele>
        <time>2016-04-02T12:24:20Z</time>
      </trkpt>
      <trkpt lat="59.239053523395" lon="17.906181388574">
        <ele>0</ele>
        <time>2016-04-02T12:24:21Z</time>
      </trkpt>
      <trkpt lat="59.239085123158" lon="17.906058174644">
        <ele>0</ele>
        <time>2016-04-02T12:24:22Z</time>
      </trkpt>
      <trkpt lat="59.239120243319" lon="17.905926578814">
        <ele>0</ele>
        <time>2016-04-02T12:24:23Z</time>
      </trkpt>
      <trkpt lat="59.239151759263" lon="17.905799844486">
        <ele>0</ele>
        <time>2016-04-02T12:24:24Z</time>
      </trkpt>
      <trkpt lat="59.239376394183" lon="17.904903065005">
        <ele>0</ele>
        <time>2016-04-02T12:24:31Z</time>
      </trkpt>
      <trkpt lat="59.239532381342" lon="17.904265118596">
        <ele>0</ele>
        <time>2016-04-02T12:24:36Z</time>
      </trkpt>
      <trkpt lat="59.239567250046" lon="17.90413821663">
        <ele>0</ele>
        <time>2016-04-02T12:24:37Z</time>
      </trkpt>
      <trkpt lat="59.239602537845" lon="17.904000082918">
        <ele>0</ele>
        <time>2016-04-02T12:24:38Z</time>
      </trkpt>
      <trkpt lat="59.239637574187" lon="17.903868151812">
        <ele>0</ele>
        <time>2016-04-02T12:24:39Z</time>
      </trkpt>
      <trkpt lat="59.239809067861" lon="17.903183937315">
        <ele>0</ele>
        <time>2016-04-02T12:24:44Z</time>
      </trkpt>
      <trkpt lat="59.240065051087" lon="17.902111137934">
        <ele>0</ele>
        <time>2016-04-02T12:24:52Z</time>
      </trkpt>
      <trkpt lat="59.240097237583" lon="17.901977865724">
        <ele>0</ele>
        <time>2016-04-02T12:24:53Z</time>
      </trkpt>
      <trkpt lat="59.240126658052" lon="17.901849538835">
        <ele>0</ele>
        <time>2016-04-02T12:24:54Z</time>
      </trkpt>
      <trkpt lat="59.240158090177" lon="17.901722720688">
        <ele>0</ele>
        <time>2016-04-02T12:24:55Z</time>
      </trkpt>
      <trkpt lat="59.240188265017" lon="17.901591879229">
        <ele>0</ele>
        <time>2016-04-02T12:24:56Z</time>
      </trkpt>
      <trkpt lat="59.240217601667" lon="17.901463133245">
        <ele>0</ele>
        <time>2016-04-02T12:24:57Z</time>
      </trkpt>
      <trkpt lat="59.240250458715" lon="17.901336315098">
        <ele>0</ele>
        <time>2016-04-02T12:24:58Z</time>
      </trkpt>
      <trkpt lat="59.240282226116" lon="17.901204803087">
        <ele>0</ele>
        <time>2016-04-02T12:24:59Z</time>
      </trkpt>
      <trkpt lat="59.240506777217" lon="17.900291846539">
        <ele>0</ele>
        <time>2016-04-02T12:25:06Z</time>
      </trkpt>
      <trkpt lat="59.240730238671" lon="17.899424319889">
        <ele>0</ele>
        <time>2016-04-02T12:25:13Z</time>
      </trkpt>
      <trkpt lat="59.240760329692" lon="17.899304039624">
        <ele>0</ele>
        <time>2016-04-02T12:25:14Z</time>
      </trkpt>
      <trkpt lat="59.240789163428" lon="17.899183759359">
        <ele>0</ele>
        <time>2016-04-02T12:25:15Z</time>
      </trkpt>
      <trkpt lat="59.240818667716" lon="17.899060796886">
        <ele>0</ele>
        <time>2016-04-02T12:25:16Z</time>
      </trkpt>
      <trkpt lat="59.240851105669" lon="17.898949569073">
        <ele>0</ele>
        <time>2016-04-02T12:25:17Z</time>
      </trkpt>
      <trkpt lat="59.240944731492" lon="17.89861035358">
        <ele>0</ele>
        <time>2016-04-02T12:25:20Z</time>
      </trkpt>
      <trkpt lat="59.24113433007" lon="17.897803344248">
        <ele>0</ele>
        <time>2016-04-02T12:25:27Z</time>
      </trkpt>
      <trkpt lat="59.241169953145" lon="17.897676442282">
        <ele>0</ele>
        <time>2016-04-02T12:25:28Z</time>
      </trkpt>
      <trkpt lat="59.241209515713" lon="17.897552641619">
        <ele>0</ele>
        <time>2016-04-02T12:25:29Z</time>
      </trkpt>
      <trkpt lat="59.241248240091" lon="17.897430433517">
        <ele>0</ele>
        <time>2016-04-02T12:25:30Z</time>
      </trkpt>
      <trkpt lat="59.241282773519" lon="17.897299843515">
        <ele>0</ele>
        <time>2016-04-02T12:25:31Z</time>
      </trkpt>
      <trkpt lat="59.241303225355" lon="17.897170846074">
        <ele>0</ele>
        <time>2016-04-02T12:25:32Z</time>
      </trkpt>
      <trkpt lat="59.241298196215" lon="17.896913773201">
        <ele>0</ele>
        <time>2016-04-02T12:25:34Z</time>
      </trkpt>
      <trkpt lat="59.241285539546" lon="17.896784859579">
        <ele>0</ele>
        <time>2016-04-02T12:25:35Z</time>
      </trkpt>
      <trkpt lat="59.241283611709" lon="17.896521165005">
        <ele>0</ele>
        <time>2016-04-02T12:25:37Z</time>
      </trkpt>
      <trkpt lat="59.241291574514" lon="17.896390994098">
        <ele>0</ele>
        <time>2016-04-02T12:25:38Z</time>
      </trkpt>
      <trkpt lat="59.241299872595" lon="17.896273898955">
        <ele>0</ele>
        <time>2016-04-02T12:25:39Z</time>
      </trkpt>
      <trkpt lat="59.241312948359" lon="17.896155881803">
        <ele>0</ele>
        <time>2016-04-02T12:25:40Z</time>
      </trkpt>
      <trkpt lat="59.241326024123" lon="17.896040714497">
        <ele>0</ele>
        <time>2016-04-02T12:25:41Z</time>
      </trkpt>
      <trkpt lat="59.241341195362" lon="17.895925882467">
        <ele>0</ele>
        <time>2016-04-02T12:25:42Z</time>
      </trkpt>
      <trkpt lat="59.24135477404" lon="17.895810966618">
        <ele>0.2</ele>
        <time>2016-04-02T12:25:43Z</time>
      </trkpt>
      <trkpt lat="59.241364916139" lon="17.895696218407">
        <ele>0.2</ele>
        <time>2016-04-02T12:25:44Z</time>
      </trkpt>
      <trkpt lat="59.241441861981" lon="17.894984092183">
        <ele>0.2</ele>
        <time>2016-04-02T12:25:50Z</time>
      </trkpt>
      <trkpt lat="59.241553508889" lon="17.893982287495">
        <ele>0.2</ele>
        <time>2016-04-02T12:25:58Z</time>
      </trkpt>
      <trkpt lat="59.241657863544" lon="17.89323923206">
        <ele>0.2</ele>
        <time>2016-04-02T12:26:04Z</time>
      </trkpt>
      <trkpt lat="59.241816113816" lon="17.892360222207">
        <ele>0.2</ele>
        <time>2016-04-02T12:26:11Z</time>
      </trkpt>
      <trkpt lat="59.241846540113" lon="17.892229716024">
        <ele>0.2</ele>
        <time>2016-04-02T12:26:12Z</time>
      </trkpt>
      <trkpt lat="59.241904459042" lon="17.891961327586">
        <ele>0.2</ele>
        <time>2016-04-02T12:26:14Z</time>
      </trkpt>
      <trkpt lat="59.241973777355" lon="17.891684641067">
        <ele>0.2</ele>
        <time>2016-04-02T12:26:16Z</time>
      </trkpt>
      <trkpt lat="59.242191371479" lon="17.890861957582">
        <ele>0.2</ele>
        <time>2016-04-02T12:26:22Z</time>
      </trkpt>
      <trkpt lat="59.242434111303" lon="17.889900553652">
        <ele>0.2</ele>
        <time>2016-04-02T12:26:29Z</time>
      </trkpt>
      <trkpt lat="59.242637288559" lon="17.889032859364">
        <ele>0</ele>
        <time>2016-04-02T12:26:35Z</time>
      </trkpt>
      <trkpt lat="59.242677270222" lon="17.888885002648">
        <ele>0</ele>
        <time>2016-04-02T12:26:36Z</time>
      </trkpt>
      <trkpt lat="59.242714904953" lon="17.888737481208">
        <ele>0</ele>
        <time>2016-04-02T12:26:37Z</time>
      </trkpt>
      <trkpt lat="59.242746672354" lon="17.888580404402">
        <ele>0</ele>
        <time>2016-04-02T12:26:38Z</time>
      </trkpt>
      <trkpt lat="59.242779529402" lon="17.888425255433">
        <ele>0</ele>
        <time>2016-04-02T12:26:39Z</time>
      </trkpt>
      <trkpt lat="59.242861420565" lon="17.887956791042">
        <ele>0</ele>
        <time>2016-04-02T12:26:42Z</time>
      </trkpt>
      <trkpt lat="59.242917914571" lon="17.88762922639">
        <ele>0</ele>
        <time>2016-04-02T12:26:44Z</time>
      </trkpt>
      <trkpt lat="59.242950268705" lon="17.887466366073">
        <ele>0</ele>
        <time>2016-04-02T12:26:45Z</time>
      </trkpt>
      <trkpt lat="59.242990250368" lon="17.887296129684">
        <ele>0</ele>
        <time>2016-04-02T12:26:46Z</time>
      </trkpt>
      <trkpt lat="59.243032076049" lon="17.887130670978">
        <ele>0</ele>
        <time>2016-04-02T12:26:47Z</time>
      </trkpt>
      <trkpt lat="59.243072476807" lon="17.886963787349">
        <ele>0</ele>
        <time>2016-04-02T12:26:48Z</time>
      </trkpt>
      <trkpt lat="59.243113883393" lon="17.88679187458">
        <ele>0</ele>
        <time>2016-04-02T12:26:49Z</time>
      </trkpt>
      <trkpt lat="59.24315939711" lon="17.886620632363">
        <ele>0</ele>
        <time>2016-04-02T12:26:50Z</time>
      </trkpt>
      <trkpt lat="59.243207090121" lon="17.88644402573">
        <ele>0</ele>
        <time>2016-04-02T12:26:51Z</time>
      </trkpt>
      <trkpt lat="59.243255118408" lon="17.886273118789">
        <ele>0</ele>
        <time>2016-04-02T12:26:52Z</time>
      </trkpt>
      <trkpt lat="59.243302308505" lon="17.886087459704">
        <ele>0</ele>
        <time>2016-04-02T12:26:53Z</time>
      </trkpt>
      <trkpt lat="59.24334379891" lon="17.885903896094">
        <ele>0</ele>
        <time>2016-04-02T12:26:54Z</time>
      </trkpt>
      <trkpt lat="59.243388390618" lon="17.885719326656">
        <ele>0</ele>
        <time>2016-04-02T12:26:55Z</time>
      </trkpt>
      <trkpt lat="59.243438849656" lon="17.885541881833">
        <ele>0</ele>
        <time>2016-04-02T12:26:56Z</time>
      </trkpt>
      <trkpt lat="59.24348880578" lon="17.885359743146">
        <ele>0</ele>
        <time>2016-04-02T12:26:57Z</time>
      </trkpt>
      <trkpt lat="59.243540354465" lon="17.885186070178">
        <ele>0</ele>
        <time>2016-04-02T12:26:58Z</time>
      </trkpt>
      <trkpt lat="59.243595591186" lon="17.88501658816">
        <ele>0</ele>
        <time>2016-04-02T12:26:59Z</time>
      </trkpt>
      <trkpt lat="59.243656192323" lon="17.884850123626">
        <ele>0</ele>
        <time>2016-04-02T12:27:00Z</time>
      </trkpt>
      <trkpt lat="59.243717296374" lon="17.884683072359">
        <ele>0</ele>
        <time>2016-04-02T12:27:01Z</time>
      </trkpt>
      <trkpt lat="59.243778148968" lon="17.884524822087">
        <ele>0</ele>
        <time>2016-04-02T12:27:02Z</time>
      </trkpt>
      <trkpt lat="59.243846209996" lon="17.884360536847">
        <ele>0</ele>
        <time>2016-04-02T12:27:03Z</time>
      </trkpt>
      <trkpt lat="59.243918378155" lon="17.884203040946">
        <ele>0</ele>
        <time>2016-04-02T12:27:04Z</time>
      </trkpt>
      <trkpt lat="59.24399423435" lon="17.884066499795">
        <ele>0</ele>
        <time>2016-04-02T12:27:05Z</time>
      </trkpt>
      <trkpt lat="59.244058942618" lon="17.883922498753">
        <ele>0</ele>
        <time>2016-04-02T12:27:06Z</time>
      </trkpt>
      <trkpt lat="59.244115268986" lon="17.883754106382">
        <ele>0</ele>
        <time>2016-04-02T12:27:07Z</time>
      </trkpt>
      <trkpt lat="59.244160028332" lon="17.88355562299">
        <ele>0</ele>
        <time>2016-04-02T12:27:08Z</time>
      </trkpt>
      <trkpt lat="59.244184922575" lon="17.883351607544">
        <ele>0</ele>
        <time>2016-04-02T12:27:09Z</time>
      </trkpt>
      <trkpt lat="59.244200261452" lon="17.883129487194">
        <ele>0</ele>
        <time>2016-04-02T12:27:10Z</time>
      </trkpt>
      <trkpt lat="59.244217360528" lon="17.882897560021">
        <ele>0</ele>
        <time>2016-04-02T12:27:11Z</time>
      </trkpt>
      <trkpt lat="59.244231358301" lon="17.882663285916">
        <ele>0</ele>
        <time>2016-04-02T12:27:12Z</time>
      </trkpt>
      <trkpt lat="59.244245356074" lon="17.882441165566">
        <ele>0</ele>
        <time>2016-04-02T12:27:13Z</time>
      </trkpt>
      <trkpt lat="59.244258767114" lon="17.882241843984">
        <ele>0</ele>
        <time>2016-04-02T12:27:14Z</time>
      </trkpt>
      <trkpt lat="59.244268657756" lon="17.882062555143">
        <ele>0</ele>
        <time>2016-04-02T12:27:15Z</time>
      </trkpt>
      <trkpt lat="59.244273519258" lon="17.88190857964">
        <ele>0</ele>
        <time>2016-04-02T12:27:16Z</time>
      </trkpt>
      <trkpt lat="59.244280308597" lon="17.881760639105">
        <ele>0</ele>
        <time>2016-04-02T12:27:17Z</time>
      </trkpt>
      <trkpt lat="59.244313417102" lon="17.88131765569">
        <ele>0</ele>
        <time>2016-04-02T12:27:20Z</time>
      </trkpt>
      <trkpt lat="59.244324313572" lon="17.88116761968">
        <ele>0</ele>
        <time>2016-04-02T12:27:21Z</time>
      </trkpt>
      <trkpt lat="59.244332611653" lon="17.881000987508">
        <ele>0</ele>
        <time>2016-04-02T12:27:22Z</time>
      </trkpt>
      <trkpt lat="59.244338311345" lon="17.880819603192">
        <ele>0</ele>
        <time>2016-04-02T12:27:23Z</time>
      </trkpt>
      <trkpt lat="59.244344933046" lon="17.880626400397">
        <ele>0</ele>
        <time>2016-04-02T12:27:24Z</time>
      </trkpt>
      <trkpt lat="59.244349291634" lon="17.880431102127">
        <ele>0</ele>
        <time>2016-04-02T12:27:25Z</time>
      </trkpt>
      <trkpt lat="59.244352644394" lon="17.880236558228">
        <ele>0</ele>
        <time>2016-04-02T12:27:26Z</time>
      </trkpt>
      <trkpt lat="59.244357086801" lon="17.880039080664">
        <ele>0</ele>
        <time>2016-04-02T12:27:27Z</time>
      </trkpt>
      <trkpt lat="59.244363121769" lon="17.879834562304">
        <ele>0</ele>
        <time>2016-04-02T12:27:28Z</time>
      </trkpt>
      <trkpt lat="59.244368821461" lon="17.879631636505">
        <ele>0</ele>
        <time>2016-04-02T12:27:29Z</time>
      </trkpt>
      <trkpt lat="59.244373263868" lon="17.879422005186">
        <ele>0</ele>
        <time>2016-04-02T12:27:30Z</time>
      </trkpt>
      <trkpt lat="59.244376197533" lon="17.879225114355">
        <ele>0</ele>
        <time>2016-04-02T12:27:31Z</time>
      </trkpt>
      <trkpt lat="59.244377538637" lon="17.879025038402">
        <ele>0</ele>
        <time>2016-04-02T12:27:32Z</time>
      </trkpt>
      <trkpt lat="59.244375275524" lon="17.878829237218">
        <ele>0</ele>
        <time>2016-04-02T12:27:33Z</time>
      </trkpt>
      <trkpt lat="59.244380220845" lon="17.878631508197">
        <ele>0</ele>
        <time>2016-04-02T12:27:34Z</time>
      </trkpt>
      <trkpt lat="59.244398577206" lon="17.878433779176">
        <ele>0</ele>
        <time>2016-04-02T12:27:35Z</time>
      </trkpt>
      <trkpt lat="59.24442171125" lon="17.878238564725">
        <ele>0</ele>
        <time>2016-04-02T12:27:36Z</time>
      </trkpt>
      <trkpt lat="59.24447703179" lon="17.878077883702">
        <ele>0</ele>
        <time>2016-04-02T12:27:37Z</time>
      </trkpt>
      <trkpt lat="59.244553977632" lon="17.877941007275">
        <ele>0</ele>
        <time>2016-04-02T12:27:38Z</time>
      </trkpt>
      <trkpt lat="59.244631007293" lon="17.877825672331">
        <ele>0</ele>
        <time>2016-04-02T12:27:39Z</time>
      </trkpt>
      <trkpt lat="59.244858743516" lon="17.877519062429">
        <ele>0</ele>
        <time>2016-04-02T12:27:42Z</time>
      </trkpt>
      <trkpt lat="59.244937617195" lon="17.877431639212">
        <ele>0</ele>
        <time>2016-04-02T12:27:43Z</time>
      </trkpt>
      <trkpt lat="59.245190666756" lon="17.87725578695">
        <ele>0</ele>
        <time>2016-04-02T12:27:46Z</time>
      </trkpt>
      <trkpt lat="59.245277587059" lon="17.877211027604">
        <ele>0</ele>
        <time>2016-04-02T12:27:47Z</time>
      </trkpt>
      <trkpt lat="59.245469616388" lon="17.877201723695">
        <ele>0</ele>
        <time>2016-04-02T12:27:49Z</time>
      </trkpt>
      <trkpt lat="59.245676816956" lon="17.877288811636">
        <ele>0</ele>
        <time>2016-04-02T12:27:51Z</time>
      </trkpt>
      <trkpt lat="59.245779243774" lon="17.877334995905">
        <ele>0</ele>
        <time>2016-04-02T12:27:52Z</time>
      </trkpt>
      <trkpt lat="59.245889046664" lon="17.877368858781">
        <ele>0</ele>
        <time>2016-04-02T12:27:53Z</time>
      </trkpt>
      <trkpt lat="59.245990970568" lon="17.877384700572">
        <ele>0</ele>
        <time>2016-04-02T12:27:54Z</time>
      </trkpt>
      <trkpt lat="59.246089374074" lon="17.87739492649">
        <ele>0</ele>
        <time>2016-04-02T12:27:55Z</time>
      </trkpt>
      <trkpt lat="59.246189956874" lon="17.877393333929">
        <ele>0</ele>
        <time>2016-04-02T12:27:56Z</time>
      </trkpt>
      <trkpt lat="59.246800326832" lon="17.877425604244">
        <ele>0</ele>
        <time>2016-04-02T12:28:02Z</time>
      </trkpt>
      <trkpt lat="59.247358812829" lon="17.87748377463">
        <ele>0</ele>
        <time>2016-04-02T12:28:08Z</time>
      </trkpt>
      <trkpt lat="59.247887207805" lon="17.877622662713">
        <ele>0</ele>
        <time>2016-04-02T12:28:14Z</time>
      </trkpt>
      <trkpt lat="59.247977480868" lon="17.877647808413">
        <ele>0</ele>
        <time>2016-04-02T12:28:15Z</time>
      </trkpt>
      <trkpt lat="59.248062138058" lon="17.877670104267">
        <ele>0</ele>
        <time>2016-04-02T12:28:16Z</time>
      </trkpt>
      <trkpt lat="59.248138580986" lon="17.877691813388">
        <ele>0</ele>
        <time>2016-04-02T12:28:17Z</time>
      </trkpt>
      <trkpt lat="59.248217538484" lon="17.877713857785">
        <ele>0</ele>
        <time>2016-04-02T12:28:18Z</time>
      </trkpt>
      <trkpt lat="59.248298591457" lon="17.877732381784">
        <ele>0</ele>
        <time>2016-04-02T12:28:19Z</time>
      </trkpt>
      <trkpt lat="59.248718524647" lon="17.877751660154">
        <ele>0</ele>
        <time>2016-04-02T12:28:24Z</time>
      </trkpt>
      <trkpt lat="59.249204926304" lon="17.877677228882">
        <ele>0</ele>
        <time>2016-04-02T12:28:30Z</time>
      </trkpt>
      <trkpt lat="59.249285308725" lon="17.877641605807">
        <ele>0</ele>
        <time>2016-04-02T12:28:31Z</time>
      </trkpt>
      <trkpt lat="59.249439787142" lon="17.877566671621">
        <ele>0</ele>
        <time>2016-04-02T12:28:33Z</time>
      </trkpt>
      <trkpt lat="59.249515140423" lon="17.877511518719">
        <ele>0</ele>
        <time>2016-04-02T12:28:34Z</time>
      </trkpt>
      <trkpt lat="59.249978156579" lon="17.877106170035">
        <ele>0</ele>
        <time>2016-04-02T12:28:40Z</time>
      </trkpt>
      <trkpt lat="59.250058036086" lon="17.877028553641">
        <ele>0</ele>
        <time>2016-04-02T12:28:41Z</time>
      </trkpt>
      <trkpt lat="59.250134562833" lon="17.876941046605">
        <ele>0</ele>
        <time>2016-04-02T12:28:42Z</time>
      </trkpt>
      <trkpt lat="59.250203042956" lon="17.876854880673">
        <ele>0</ele>
        <time>2016-04-02T12:28:43Z</time>
      </trkpt>
      <trkpt lat="59.250271271622" lon="17.876771061673">
        <ele>0</ele>
        <time>2016-04-02T12:28:44Z</time>
      </trkpt>
      <trkpt lat="59.250347043998" lon="17.876689757243">
        <ele>0</ele>
        <time>2016-04-02T12:28:45Z</time>
      </trkpt>
      <trkpt lat="59.250726827887" lon="17.876263034714">
        <ele>0</ele>
        <time>2016-04-02T12:28:50Z</time>
      </trkpt>
      <trkpt lat="59.250796900571" lon="17.876216347531">
        <ele>0</ele>
        <time>2016-04-02T12:28:51Z</time>
      </trkpt>
      <trkpt lat="59.250930843333" lon="17.876190196003">
        <ele>0</ele>
        <time>2016-04-02T12:28:53Z</time>
      </trkpt>
      <trkpt lat="59.251131003105" lon="17.876226657268">
        <ele>0</ele>
        <time>2016-04-02T12:28:56Z</time>
      </trkpt>
      <trkpt lat="59.251195627554" lon="17.87624157705">
        <ele>0</ele>
        <time>2016-04-02T12:28:57Z</time>
      </trkpt>
      <trkpt lat="59.25136779178" lon="17.876312320286">
        <ele>0</ele>
        <time>2016-04-02T12:29:00Z</time>
      </trkpt>
      <trkpt lat="59.251429482564" lon="17.876334867597">
        <ele>0</ele>
        <time>2016-04-02T12:29:01Z</time>
      </trkpt>
      <trkpt lat="59.251708180739" lon="17.87607896819">
        <ele>0</ele>
        <time>2016-04-02T12:29:17Z</time>
      </trkpt>
      <trkpt lat="59.251664594859" lon="17.875813429598">
        <ele>0</ele>
        <time>2016-04-02T12:29:20Z</time>
      </trkpt>
      <trkpt lat="59.25150441675" lon="17.875639421354">
        <ele>0</ele>
        <time>2016-04-02T12:29:23Z</time>
      </trkpt>
      <trkpt lat="59.251444653803" lon="17.875629949807">
        <ele>0</ele>
        <time>2016-04-02T12:29:24Z</time>
      </trkpt>
      <trkpt lat="59.251381454277" lon="17.8756255074">
        <ele>0</ele>
        <time>2016-04-02T12:29:25Z</time>
      </trkpt>
      <trkpt lat="59.251315237267" lon="17.875619556251">
        <ele>0</ele>
        <time>2016-04-02T12:29:26Z</time>
      </trkpt>
      <trkpt lat="59.251249187895" lon="17.875600445519">
        <ele>0</ele>
        <time>2016-04-02T12:29:27Z</time>
      </trkpt>
      <trkpt lat="59.251181378324" lon="17.875560212399">
        <ele>0</ele>
        <time>2016-04-02T12:29:28Z</time>
      </trkpt>
      <trkpt lat="59.251054141082" lon="17.875422162506">
        <ele>0</ele>
        <time>2016-04-02T12:29:30Z</time>
      </trkpt>
      <trkpt lat="59.250935537197" lon="17.875060986435">
        <ele>0</ele>
        <time>2016-04-02T12:29:33Z</time>
      </trkpt>
      <trkpt lat="59.250867057074" lon="17.874651865896">
        <ele>0</ele>
        <time>2016-04-02T12:29:36Z</time>
      </trkpt>
      <trkpt lat="59.250842581926" lon="17.874517001125">
        <ele>0</ele>
        <time>2016-04-02T12:29:37Z</time>
      </trkpt>
      <trkpt lat="59.250674860107" lon="17.873898165448">
        <ele>0</ele>
        <time>2016-04-02T12:29:42Z</time>
      </trkpt>
      <trkpt lat="59.250630687494" lon="17.873787859644">
        <ele>0</ele>
        <time>2016-04-02T12:29:43Z</time>
      </trkpt>
      <trkpt lat="59.250465647883" lon="17.873353090491">
        <ele>0</ele>
        <time>2016-04-02T12:29:47Z</time>
      </trkpt>
      <trkpt lat="59.250348217464" lon="17.873049414254">
        <ele>0</ele>
        <time>2016-04-02T12:29:50Z</time>
      </trkpt>
      <trkpt lat="59.250322820307" lon="17.872948412359">
        <ele>0</ele>
        <time>2016-04-02T12:29:51Z</time>
      </trkpt>
      <trkpt lat="59.250249227225" lon="17.872762417998">
        <ele>0</ele>
        <time>2016-04-02T12:29:53Z</time>
      </trkpt>
      <trkpt lat="59.250211005761" lon="17.872672228754">
        <ele>0</ele>
        <time>2016-04-02T12:29:54Z</time>
      </trkpt>
      <trkpt lat="59.250171778469" lon="17.872584134985">
        <ele>0</ele>
        <time>2016-04-02T12:29:55Z</time>
      </trkpt>
      <trkpt lat="59.250133808462" lon="17.872502662917">
        <ele>0</ele>
        <time>2016-04-02T12:29:56Z</time>
      </trkpt>
      <trkpt lat="59.250103633622" lon="17.872416161709">
        <ele>0</ele>
        <time>2016-04-02T12:29:57Z</time>
      </trkpt>
      <trkpt lat="59.250041942838" lon="17.872229077701">
        <ele>0</ele>
        <time>2016-04-02T12:29:59Z</time>
      </trkpt>
      <trkpt lat="59.249825773637" lon="17.871593897319">
        <ele>0</ele>
        <time>2016-04-02T12:30:05Z</time>
      </trkpt>
      <trkpt lat="59.249749917442" lon="17.871252167256">
        <ele>0</ele>
        <time>2016-04-02T12:30:08Z</time>
      </trkpt>
      <trkpt lat="59.249726364303" lon="17.87112777986">
        <ele>0</ele>
        <time>2016-04-02T12:30:09Z</time>
      </trkpt>
      <trkpt lat="59.249689819219" lon="17.870570802605">
        <ele>0</ele>
        <time>2016-04-02T12:30:13Z</time>
      </trkpt>
      <trkpt lat="59.249681940233" lon="17.870414312532">
        <ele>0</ele>
        <time>2016-04-02T12:30:14Z</time>
      </trkpt>
      <trkpt lat="59.249670876125" lon="17.870247428903">
        <ele>0</ele>
        <time>2016-04-02T12:30:15Z</time>
      </trkpt>
      <trkpt lat="59.249660314931" lon="17.87009177702">
        <ele>0</ele>
        <time>2016-04-02T12:30:16Z</time>
      </trkpt>
      <trkpt lat="59.24965536961" lon="17.869943920304">
        <ele>0</ele>
        <time>2016-04-02T12:30:17Z</time>
      </trkpt>
      <trkpt lat="59.249649669918" lon="17.869805702773">
        <ele>0</ele>
        <time>2016-04-02T12:30:18Z</time>
      </trkpt>
      <trkpt lat="59.249643299674" lon="17.869673939305">
        <ele>0</ele>
        <time>2016-04-02T12:30:19Z</time>
      </trkpt>
      <trkpt lat="59.249639276362" lon="17.869554161954">
        <ele>0</ele>
        <time>2016-04-02T12:30:20Z</time>
      </trkpt>
      <trkpt lat="59.249658303275" lon="17.86944972348">
        <ele>0</ele>
        <time>2016-04-02T12:30:21Z</time>
      </trkpt>
      <trkpt lat="59.249687388468" lon="17.869381159538">
        <ele>0</ele>
        <time>2016-04-02T12:30:22Z</time>
      </trkpt>
      <trkpt lat="59.24973667404" lon="17.869330616681">
        <ele>0</ele>
        <time>2016-04-02T12:30:23Z</time>
      </trkpt>
      <trkpt lat="59.249783445042" lon="17.869285605878">
        <ele>0</ele>
        <time>2016-04-02T12:30:24Z</time>
      </trkpt>
      <trkpt lat="59.249828623483" lon="17.869237409953">
        <ele>0</ele>
        <time>2016-04-02T12:30:25Z</time>
      </trkpt>
      <trkpt lat="59.24988084272" lon="17.869191141865">
        <ele>0</ele>
        <time>2016-04-02T12:30:26Z</time>
      </trkpt>
      <trkpt lat="59.249935492708" lon="17.869120650086">
        <ele>0</ele>
        <time>2016-04-02T12:30:27Z</time>
      </trkpt>
      <trkpt lat="59.24998980742" lon="17.869027443358">
        <ele>0</ele>
        <time>2016-04-02T12:30:28Z</time>
      </trkpt>
      <trkpt lat="59.250096928102" lon="17.868854021847">
        <ele>0</ele>
        <time>2016-04-02T12:30:30Z</time>
      </trkpt>
      <trkpt lat="59.250213939426" lon="17.868695603937">
        <ele>0</ele>
        <time>2016-04-02T12:30:32Z</time>
      </trkpt>
      <trkpt lat="59.25031334876" lon="17.868565768306">
        <ele>0</ele>
        <time>2016-04-02T12:30:34Z</time>
      </trkpt>
      <trkpt lat="59.250535385291" lon="17.868346330164">
        <ele>0</ele>
        <time>2016-04-02T12:30:38Z</time>
      </trkpt>
      <trkpt lat="59.250591292564" lon="17.868321268283">
        <ele>0</ele>
        <time>2016-04-02T12:30:39Z</time>
      </trkpt>
      <trkpt lat="59.250701766006" lon="17.868340714291">
        <ele>0</ele>
        <time>2016-04-02T12:30:41Z</time>
      </trkpt>
      <trkpt lat="59.250938387043" lon="17.868590914006">
        <ele>0</ele>
        <time>2016-04-02T12:30:45Z</time>
      </trkpt>
      <trkpt lat="59.25117668446" lon="17.868694011376">
        <ele>0</ele>
        <time>2016-04-02T12:30:49Z</time>
      </trkpt>
      <trkpt lat="59.251222281996" lon="17.868630225117">
        <ele>0</ele>
        <time>2016-04-02T12:30:50Z</time>
      </trkpt>
      <trkpt lat="59.251260419641" lon="17.868555039474">
        <ele>0</ele>
        <time>2016-04-02T12:30:51Z</time>
      </trkpt>
      <trkpt lat="59.251303418788" lon="17.868480189107">
        <ele>0</ele>
        <time>2016-04-02T12:30:52Z</time>
      </trkpt>
      <trkpt lat="59.251397798982" lon="17.868353538598">
        <ele>0</ele>
        <time>2016-04-02T12:30:54Z</time>
      </trkpt>
      <trkpt lat="59.251449012391" lon="17.868310204175">
        <ele>0</ele>
        <time>2016-04-02T12:30:55Z</time>
      </trkpt>
      <trkpt lat="59.251511373727" lon="17.868307186691">
        <ele>0</ele>
        <time>2016-04-02T12:30:56Z</time>
      </trkpt>
      <trkpt lat="59.25166199647" lon="17.868485637342">
        <ele>0</ele>
        <time>2016-04-02T12:30:59Z</time>
      </trkpt>
      <trkpt lat="59.25191848261" lon="17.868713457384">
        <ele>0</ele>
        <time>2016-04-02T12:31:03Z</time>
      </trkpt>
      <trkpt lat="59.252068434801" lon="17.868727874252">
        <ele>0</ele>
        <time>2016-04-02T12:31:05Z</time>
      </trkpt>
      <trkpt lat="59.252142195521" lon="17.868712367737">
        <ele>0</ele>
        <time>2016-04-02T12:31:06Z</time>
      </trkpt>
      <trkpt lat="59.252214698956" lon="17.868697447955">
        <ele>0</ele>
        <time>2016-04-02T12:31:07Z</time>
      </trkpt>
      <trkpt lat="59.252295919567" lon="17.868679510689">
        <ele>0</ele>
        <time>2016-04-02T12:31:08Z</time>
      </trkpt>
      <trkpt lat="59.25237948711" lon="17.86866517764">
        <ele>0</ele>
        <time>2016-04-02T12:31:09Z</time>
      </trkpt>
      <trkpt lat="59.252549807318" lon="17.86864757565">
        <ele>0</ele>
        <time>2016-04-02T12:31:11Z</time>
      </trkpt>
      <trkpt lat="59.252633039585" lon="17.868640199578">
        <ele>0</ele>
        <time>2016-04-02T12:31:12Z</time>
      </trkpt>
      <trkpt lat="59.252710236884" lon="17.86864254651">
        <ele>0</ele>
        <time>2016-04-02T12:31:13Z</time>
      </trkpt>
      <trkpt lat="59.252787769459" lon="17.86866098669">
        <ele>0</ele>
        <time>2016-04-02T12:31:14Z</time>
      </trkpt>
      <trkpt lat="59.253007710515" lon="17.868755953617">
        <ele>0</ele>
        <time>2016-04-02T12:31:17Z</time>
      </trkpt>
      <trkpt lat="59.253076777371" lon="17.868788307751">
        <ele>0</ele>
        <time>2016-04-02T12:31:18Z</time>
      </trkpt>
      <trkpt lat="59.253146011865" lon="17.868814710736">
        <ele>0</ele>
        <time>2016-04-02T12:31:19Z</time>
      </trkpt>
      <trkpt lat="59.253214994902" lon="17.868839269703">
        <ele>0</ele>
        <time>2016-04-02T12:31:20Z</time>
      </trkpt>
      <trkpt lat="59.253286827785" lon="17.868861397919">
        <ele>0</ele>
        <time>2016-04-02T12:31:21Z</time>
      </trkpt>
      <trkpt lat="59.253503835176" lon="17.868913784794">
        <ele>0</ele>
        <time>2016-04-02T12:31:24Z</time>
      </trkpt>
      <trkpt lat="59.253654793195" lon="17.868900289935">
        <ele>0</ele>
        <time>2016-04-02T12:31:26Z</time>
      </trkpt>
      <trkpt lat="59.253730146476" lon="17.868872378208">
        <ele>0</ele>
        <time>2016-04-02T12:31:27Z</time>
      </trkpt>
      <trkpt lat="59.253962157468" lon="17.868712283918">
        <ele>0</ele>
        <time>2016-04-02T12:31:30Z</time>
      </trkpt>
      <trkpt lat="59.254171118235" lon="17.868459904909">
        <ele>0</ele>
        <time>2016-04-02T12:31:33Z</time>
      </trkpt>
      <trkpt lat="59.25423859253" lon="17.868374074253">
        <ele>0</ele>
        <time>2016-04-02T12:31:34Z</time>
      </trkpt>
      <trkpt lat="59.254304893359" lon="17.868291093443">
        <ele>0</ele>
        <time>2016-04-02T12:31:35Z</time>
      </trkpt>
      <trkpt lat="59.254373038206" lon="17.868209872832">
        <ele>0</ele>
        <time>2016-04-02T12:31:36Z</time>
      </trkpt>
      <trkpt lat="59.254446379831" lon="17.868148517324">
        <ele>0</ele>
        <time>2016-04-02T12:31:37Z</time>
      </trkpt>
      <trkpt lat="59.254617035315" lon="17.86809772301">
        <ele>0</ele>
        <time>2016-04-02T12:31:39Z</time>
      </trkpt>
      <trkpt lat="59.254940911931" lon="17.868068805455">
        <ele>0</ele>
        <time>2016-04-02T12:31:43Z</time>
      </trkpt>
      <trkpt lat="59.255077453082" lon="17.868035194036">
        <ele>0</ele>
        <time>2016-04-02T12:31:45Z</time>
      </trkpt>
      <trkpt lat="59.255209048912" lon="17.867930252648">
        <ele>0</ele>
        <time>2016-04-02T12:31:47Z</time>
      </trkpt>
      <trkpt lat="59.25537769274" lon="17.867749455065">
        <ele>0</ele>
        <time>2016-04-02T12:31:50Z</time>
      </trkpt>
      <trkpt lat="59.255579109797" lon="17.867879039239">
        <ele>0</ele>
        <time>2016-04-02T12:31:53Z</time>
      </trkpt>
      <trkpt lat="59.255654043983" lon="17.867958164375">
        <ele>0</ele>
        <time>2016-04-02T12:31:54Z</time>
      </trkpt>
      <trkpt lat="59.255720344812" lon="17.8680482698">
        <ele>0</ele>
        <time>2016-04-02T12:31:55Z</time>
      </trkpt>
      <trkpt lat="59.255928635027" lon="17.86831146146">
        <ele>0</ele>
        <time>2016-04-02T12:31:58Z</time>
      </trkpt>
      <trkpt lat="59.256389807165" lon="17.868875647149">
        <ele>0</ele>
        <time>2016-04-02T12:32:05Z</time>
      </trkpt>
      <trkpt lat="59.256754419815" lon="17.869365820661">
        <ele>0</ele>
        <time>2016-04-02T12:32:11Z</time>
      </trkpt>
      <trkpt lat="59.256795407306" lon="17.869478641035">
        <ele>0</ele>
        <time>2016-04-02T12:32:12Z</time>
      </trkpt>
      <trkpt lat="59.256962542392" lon="17.869888515945">
        <ele>0</ele>
        <time>2016-04-02T12:32:16Z</time>
      </trkpt>
      <trkpt lat="59.257051641989" lon="17.870037965222">
        <ele>0</ele>
        <time>2016-04-02T12:32:18Z</time>
      </trkpt>
      <trkpt lat="59.257086426874" lon="17.87010602625">
        <ele>0</ele>
        <time>2016-04-02T12:32:19Z</time>
      </trkpt>
      <trkpt lat="59.257145686907" lon="17.870155982374">
        <ele>0</ele>
        <time>2016-04-02T12:32:21Z</time>
      </trkpt>
      <trkpt lat="59.257234618866" lon="17.870209626534">
        <ele>0</ele>
        <time>2016-04-02T12:32:24Z</time>
      </trkpt>
      <trkpt lat="59.25701719238" lon="17.86969698953">
        <ele>0</ele>
        <time>2016-04-02T12:34:21Z</time>
      </trkpt>
      <trkpt lat="59.25699120849" lon="17.869627838855">
        <ele>0</ele>
        <time>2016-04-02T12:34:22Z</time>
      </trkpt>
      <trkpt lat="59.256958435261" lon="17.869547540253">
        <ele>0</ele>
        <time>2016-04-02T12:34:23Z</time>
      </trkpt>
      <trkpt lat="59.256921806358" lon="17.869475036818">
        <ele>0</ele>
        <time>2016-04-02T12:34:24Z</time>
      </trkpt>
      <trkpt lat="59.256882327609" lon="17.86939524113">
        <ele>0</ele>
        <time>2016-04-02T12:34:25Z</time>
      </trkpt>
      <trkpt lat="59.256839244643" lon="17.869326677188">
        <ele>0</ele>
        <time>2016-04-02T12:34:26Z</time>
      </trkpt>
      <trkpt lat="59.256647299133" lon="17.869050828859">
        <ele>0</ele>
        <time>2016-04-02T12:34:30Z</time>
      </trkpt>
      <trkpt lat="59.25627623242" lon="17.868590411092">
        <ele>0</ele>
        <time>2016-04-02T12:34:37Z</time>
      </trkpt>
      <trkpt lat="59.255889743011" lon="17.86811783957">
        <ele>0</ele>
        <time>2016-04-02T12:34:44Z</time>
      </trkpt>
      <trkpt lat="59.255836769403" lon="17.868047515429">
        <ele>0</ele>
        <time>2016-04-02T12:34:45Z</time>
      </trkpt>
      <trkpt lat="59.255779604845" lon="17.867977191288">
        <ele>0</ele>
        <time>2016-04-02T12:34:46Z</time>
      </trkpt>
      <trkpt lat="59.255725290133" lon="17.867910136088">
        <ele>0</ele>
        <time>2016-04-02T12:34:47Z</time>
      </trkpt>
      <trkpt lat="59.255673657629" lon="17.867842829431">
        <ele>0</ele>
        <time>2016-04-02T12:34:48Z</time>
      </trkpt>
      <trkpt lat="59.255527477293" lon="17.867622134004">
        <ele>0</ele>
        <time>2016-04-02T12:34:51Z</time>
      </trkpt>
      <trkpt lat="59.255398898947" lon="17.867205302117">
        <ele>0</ele>
        <time>2016-04-02T12:34:55Z</time>
      </trkpt>
      <trkpt lat="59.255384146803" lon="17.867093655209">
        <ele>0</ele>
        <time>2016-04-02T12:34:56Z</time>
      </trkpt>
      <trkpt lat="59.255373753247" lon="17.866978990817">
        <ele>0</ele>
        <time>2016-04-02T12:34:57Z</time>
      </trkpt>
      <trkpt lat="59.255365371347" lon="17.866868182099">
        <ele>0</ele>
        <time>2016-04-02T12:34:58Z</time>
      </trkpt>
      <trkpt lat="59.255359839293" lon="17.866755864639">
        <ele>0</ele>
        <time>2016-04-02T12:34:59Z</time>
      </trkpt>
      <trkpt lat="59.255359001103" lon="17.866648324862">
        <ele>0</ele>
        <time>2016-04-02T12:35:00Z</time>
      </trkpt>
      <trkpt lat="59.255352463221" lon="17.866320005839">
        <ele>0</ele>
        <time>2016-04-02T12:35:03Z</time>
      </trkpt>
      <trkpt lat="59.255350200108" lon="17.866212214605">
        <ele>0</ele>
        <time>2016-04-02T12:35:04Z</time>
      </trkpt>
      <trkpt lat="59.255347685538" lon="17.866107105579">
        <ele>0</ele>
        <time>2016-04-02T12:35:05Z</time>
      </trkpt>
      <trkpt lat="59.255344416597" lon="17.865999398164">
        <ele>0</ele>
        <time>2016-04-02T12:35:06Z</time>
      </trkpt>
      <trkpt lat="59.255339471276" lon="17.86589328331">
        <ele>0</ele>
        <time>2016-04-02T12:35:07Z</time>
      </trkpt>
      <trkpt lat="59.255321114915" lon="17.865590193806">
        <ele>0</ele>
        <time>2016-04-02T12:35:10Z</time>
      </trkpt>
      <trkpt lat="59.255315331404" lon="17.865494053413">
        <ele>0</ele>
        <time>2016-04-02T12:35:11Z</time>
      </trkpt>
      <trkpt lat="59.255309883169" lon="17.865399757038">
        <ele>0</ele>
        <time>2016-04-02T12:35:12Z</time>
      </trkpt>
      <trkpt lat="59.255308290608" lon="17.865308981061">
        <ele>0</ele>
        <time>2016-04-02T12:35:13Z</time>
      </trkpt>
      <trkpt lat="59.255304602572" lon="17.8652151876">
        <ele>0</ele>
        <time>2016-04-02T12:35:14Z</time>
      </trkpt>
      <trkpt lat="59.255300243984" lon="17.865121980872">
        <ele>0</ele>
        <time>2016-04-02T12:35:15Z</time>
      </trkpt>
      <trkpt lat="59.255284737469" lon="17.864750746521">
        <ele>0</ele>
        <time>2016-04-02T12:35:19Z</time>
      </trkpt>
      <trkpt lat="59.255276020293" lon="17.864658294164">
        <ele>0</ele>
        <time>2016-04-02T12:35:20Z</time>
      </trkpt>
      <trkpt lat="59.255268979497" lon="17.864571541499">
        <ele>0</ele>
        <time>2016-04-02T12:35:21Z</time>
      </trkpt>
      <trkpt lat="59.255261351968" lon="17.864490823802">
        <ele>0</ele>
        <time>2016-04-02T12:35:22Z</time>
      </trkpt>
      <trkpt lat="59.255247270376" lon="17.864416141073">
        <ele>0</ele>
        <time>2016-04-02T12:35:23Z</time>
      </trkpt>
      <trkpt lat="59.25522849492" lon="17.864353193004">
        <ele>0</ele>
        <time>2016-04-02T12:35:24Z</time>
      </trkpt>
      <trkpt lat="59.255197314252" lon="17.864326287105">
        <ele>0</ele>
        <time>2016-04-02T12:35:25Z</time>
      </trkpt>
      <trkpt lat="59.255165379213" lon="17.864340452516">
        <ele>0</ele>
        <time>2016-04-02T12:35:26Z</time>
      </trkpt>
      <trkpt lat="59.255148531594" lon="17.864402059481">
        <ele>0</ele>
        <time>2016-04-02T12:35:27Z</time>
      </trkpt>
      <trkpt lat="59.255147274309" lon="17.864485878481">
        <ele>0</ele>
        <time>2016-04-02T12:35:28Z</time>
      </trkpt>
      <trkpt lat="59.255153225458" lon="17.864571709137">
        <ele>0</ele>
        <time>2016-04-02T12:35:29Z</time>
      </trkpt>
      <trkpt lat="59.25516143972" lon="17.864665083503">
        <ele>0</ele>
        <time>2016-04-02T12:35:30Z</time>
      </trkpt>
      <trkpt lat="59.255185411954" lon="17.865104043606">
        <ele>0</ele>
        <time>2016-04-02T12:35:34Z</time>
      </trkpt>
      <trkpt lat="59.255193039483" lon="17.86523027502">
        <ele>0</ele>
        <time>2016-04-02T12:35:35Z</time>
      </trkpt>
      <trkpt lat="59.255200415555" lon="17.865362457583">
        <ele>0</ele>
        <time>2016-04-02T12:35:36Z</time>
      </trkpt>
      <trkpt lat="59.255208126903" lon="17.865499082553">
        <ele>0</ele>
        <time>2016-04-02T12:35:37Z</time>
      </trkpt>
      <trkpt lat="59.255214916242" lon="17.865641239577">
        <ele>0</ele>
        <time>2016-04-02T12:35:38Z</time>
      </trkpt>
      <trkpt lat="59.255222543771" lon="17.865785743533">
        <ele>0</ele>
        <time>2016-04-02T12:35:39Z</time>
      </trkpt>
      <trkpt lat="59.255233188784" lon="17.865941563054">
        <ele>0</ele>
        <time>2016-04-02T12:35:40Z</time>
      </trkpt>
      <trkpt lat="59.255246851281" lon="17.866094365091">
        <ele>0</ele>
        <time>2016-04-02T12:35:41Z</time>
      </trkpt>
      <trkpt lat="59.255259675588" lon="17.866412709653">
        <ele>0</ele>
        <time>2016-04-02T12:35:43Z</time>
      </trkpt>
      <trkpt lat="59.255263531262" lon="17.866568361536">
        <ele>0</ele>
        <time>2016-04-02T12:35:44Z</time>
      </trkpt>
      <trkpt lat="59.255272248438" lon="17.866727533817">
        <ele>0</ele>
        <time>2016-04-02T12:35:45Z</time>
      </trkpt>
      <trkpt lat="59.255279540691" lon="17.866889555944">
        <ele>0</ele>
        <time>2016-04-02T12:35:46Z</time>
      </trkpt>
      <trkpt lat="59.255292700274" lon="17.867059457057">
        <ele>0</ele>
        <time>2016-04-02T12:35:47Z</time>
      </trkpt>
      <trkpt lat="59.255317091603" lon="17.867219132252">
        <ele>0</ele>
        <time>2016-04-02T12:35:48Z</time>
      </trkpt>
      <trkpt lat="59.255350535384" lon="17.867371096099">
        <ele>0</ele>
        <time>2016-04-02T12:35:49Z</time>
      </trkpt>
      <trkpt lat="59.255396803472" lon="17.867511492924">
        <ele>0</ele>
        <time>2016-04-02T12:35:50Z</time>
      </trkpt>
      <trkpt lat="59.255449860899" lon="17.867646357695">
        <ele>0</ele>
        <time>2016-04-02T12:35:51Z</time>
      </trkpt>
      <trkpt lat="59.255511886959" lon="17.867761189725">
        <ele>0</ele>
        <time>2016-04-02T12:35:52Z</time>
      </trkpt>
      <trkpt lat="59.255580283263" lon="17.867856408109">
        <ele>0</ele>
        <time>2016-04-02T12:35:53Z</time>
      </trkpt>
      <trkpt lat="59.255652702879" lon="17.86794014329">
        <ele>0</ele>
        <time>2016-04-02T12:35:54Z</time>
      </trkpt>
      <trkpt lat="59.255728223798" lon="17.868025051937">
        <ele>0</ele>
        <time>2016-04-02T12:35:55Z</time>
      </trkpt>
      <trkpt lat="59.256011867294" lon="17.868379438669">
        <ele>0</ele>
        <time>2016-04-02T12:35:59Z</time>
      </trkpt>
      <trkpt lat="59.256275142773" lon="17.868725694958">
        <ele>0</ele>
        <time>2016-04-02T12:36:03Z</time>
      </trkpt>
      <trkpt lat="59.256405984232" lon="17.868875311873">
        <ele>0</ele>
        <time>2016-04-02T12:36:05Z</time>
      </trkpt>
      <trkpt lat="59.256762550258" lon="17.869369508697">
        <ele>0</ele>
        <time>2016-04-02T12:36:11Z</time>
      </trkpt>
      <trkpt lat="59.256813260753" lon="17.869467744565">
        <ele>0</ele>
        <time>2016-04-02T12:36:12Z</time>
      </trkpt>
      <trkpt lat="59.256860031755" lon="17.869567405356">
        <ele>0</ele>
        <time>2016-04-02T12:36:13Z</time>
      </trkpt>
      <trkpt lat="59.256901605979" lon="17.869674861314">
        <ele>0</ele>
        <time>2016-04-02T12:36:14Z</time>
      </trkpt>
      <trkpt lat="59.256940330357" lon="17.869777539589">
        <ele>0</ele>
        <time>2016-04-02T12:36:15Z</time>
      </trkpt>
      <trkpt lat="59.257014174896" lon="17.869982896139">
        <ele>0</ele>
        <time>2016-04-02T12:36:17Z</time>
      </trkpt>
      <trkpt lat="59.257117858999" lon="17.870197556598">
        <ele>0</ele>
        <time>2016-04-02T12:36:20Z</time>
      </trkpt>
      <trkpt lat="59.271210179831" lon="17.846189196609">
        <ele>2.2</ele>
        <time>2016-04-02T12:57:04Z</time>
      </trkpt>
      <trkpt lat="59.271237253368" lon="17.846110658206">
        <ele>1.8</ele>
        <time>2016-04-02T12:57:05Z</time>
      </trkpt>
      <trkpt lat="59.271271786796" lon="17.846010913596">
        <ele>1.4</ele>
        <time>2016-04-02T12:57:06Z</time>
      </trkpt>
      <trkpt lat="59.271306739319" lon="17.845909492606">
        <ele>0.6</ele>
        <time>2016-04-02T12:57:07Z</time>
      </trkpt>
      <trkpt lat="59.271518549932" lon="17.845327034375">
        <ele>0.6</ele>
        <time>2016-04-02T12:57:12Z</time>
      </trkpt>
      <trkpt lat="59.271813173717" lon="17.844519103034">
        <ele>0.6</ele>
        <time>2016-04-02T12:57:19Z</time>
      </trkpt>
      <trkpt lat="59.271908978834" lon="17.84430150891">
        <ele>1</ele>
        <time>2016-04-02T12:57:21Z</time>
      </trkpt>
      <trkpt lat="59.271963880279" lon="17.844207883087">
        <ele>1.4</ele>
        <time>2016-04-02T12:57:22Z</time>
      </trkpt>
      <trkpt lat="59.272024565235" lon="17.844126997752">
        <ele>1.8</ele>
        <time>2016-04-02T12:57:23Z</time>
      </trkpt>
      <trkpt lat="59.272089860236" lon="17.844057344163">
        <ele>2.2</ele>
        <time>2016-04-02T12:57:24Z</time>
      </trkpt>
      <trkpt lat="59.272160016739" lon="17.844006968944">
        <ele>2.8</ele>
        <time>2016-04-02T12:57:25Z</time>
      </trkpt>
      <trkpt lat="59.27231751264" lon="17.843952905689">
        <ele>2.8</ele>
        <time>2016-04-02T12:57:27Z</time>
      </trkpt>
      <trkpt lat="59.272568299088" lon="17.844028678065">
        <ele>2.8</ele>
        <time>2016-04-02T12:57:30Z</time>
      </trkpt>
      <trkpt lat="59.272723028962" lon="17.844163039922">
        <ele>2.8</ele>
        <time>2016-04-02T12:57:32Z</time>
      </trkpt>
      <trkpt lat="59.272957135429" lon="17.844374263802">
        <ele>2.8</ele>
        <time>2016-04-02T12:57:35Z</time>
      </trkpt>
      <trkpt lat="59.273178585227" lon="17.844581799646">
        <ele>3.2</ele>
        <time>2016-04-02T12:57:38Z</time>
      </trkpt>
      <trkpt lat="59.27324790354" lon="17.844648687208">
        <ele>3.6</ele>
        <time>2016-04-02T12:57:39Z</time>
      </trkpt>
      <trkpt lat="59.273315713111" lon="17.844713982209">
        <ele>4</ele>
        <time>2016-04-02T12:57:40Z</time>
      </trkpt>
      <trkpt lat="59.2733853667" lon="17.844775589174">
        <ele>4.4</ele>
        <time>2016-04-02T12:57:41Z</time>
      </trkpt>
      <trkpt lat="59.273457199583" lon="17.844836609406">
        <ele>4.8</ele>
        <time>2016-04-02T12:57:42Z</time>
      </trkpt>
      <trkpt lat="59.273922897947" lon="17.845217734399">
        <ele>4.8</ele>
        <time>2016-04-02T12:57:48Z</time>
      </trkpt>
      <trkpt lat="59.274297149782" lon="17.845368943875">
        <ele>4.8</ele>
        <time>2016-04-02T12:57:52Z</time>
      </trkpt>
      <trkpt lat="59.274656314197" lon="17.845329800402">
        <ele>4.8</ele>
        <time>2016-04-02T12:57:56Z</time>
      </trkpt>
      <trkpt lat="59.274741222844" lon="17.845289818739">
        <ele>4.8</ele>
        <time>2016-04-02T12:57:57Z</time>
      </trkpt>
      <trkpt lat="59.2750114553" lon="17.845090748614">
        <ele>4.8</ele>
        <time>2016-04-02T12:58:00Z</time>
      </trkpt>
      <trkpt lat="59.275179847671" lon="17.844895534163">
        <ele>4.4</ele>
        <time>2016-04-02T12:58:02Z</time>
      </trkpt>
      <trkpt lat="59.275262409386" lon="17.84478430635">
        <ele>4</ele>
        <time>2016-04-02T12:58:03Z</time>
      </trkpt>
      <trkpt lat="59.275342959445" lon="17.844658326393">
        <ele>3.4</ele>
        <time>2016-04-02T12:58:04Z</time>
      </trkpt>
      <trkpt lat="59.275419150916" lon="17.844511224048">
        <ele>3</ele>
        <time>2016-04-02T12:58:05Z</time>
      </trkpt>
      <trkpt lat="59.275490397066" lon="17.844355236889">
        <ele>2.6</ele>
        <time>2016-04-02T12:58:06Z</time>
      </trkpt>
      <trkpt lat="59.275559296284" lon="17.844194807323">
        <ele>2</ele>
        <time>2016-04-02T12:58:07Z</time>
      </trkpt>
      <trkpt lat="59.275630542434" lon="17.844032198463">
        <ele>1.4</ele>
        <time>2016-04-02T12:58:08Z</time>
      </trkpt>
      <trkpt lat="59.275698519643" lon="17.843884174109">
        <ele>0.6</ele>
        <time>2016-04-02T12:58:09Z</time>
      </trkpt>
      <trkpt lat="59.275766999766" lon="17.84373740704">
        <ele>0</ele>
        <time>2016-04-02T12:58:10Z</time>
      </trkpt>
      <trkpt lat="59.275838162097" lon="17.843594411826">
        <ele>0</ele>
        <time>2016-04-02T12:58:11Z</time>
      </trkpt>
      <trkpt lat="59.275910414075" lon="17.843453009173">
        <ele>0</ele>
        <time>2016-04-02T12:58:12Z</time>
      </trkpt>
      <trkpt lat="59.276054666574" lon="17.843174310998">
        <ele>0</ele>
        <time>2016-04-02T12:58:14Z</time>
      </trkpt>
      <trkpt lat="59.276404778537" lon="17.84257316113">
        <ele>0</ele>
        <time>2016-04-02T12:58:19Z</time>
      </trkpt>
      <trkpt lat="59.276522041318" lon="17.842349783495">
        <ele>0</ele>
        <time>2016-04-02T12:58:21Z</time>
      </trkpt>
      <trkpt lat="59.276577278039" lon="17.842239477691">
        <ele>0</ele>
        <time>2016-04-02T12:58:22Z</time>
      </trkpt>
      <trkpt lat="59.276632011846" lon="17.842121292901">
        <ele>0.6</ele>
        <time>2016-04-02T12:58:23Z</time>
      </trkpt>
      <trkpt lat="59.276680794504" lon="17.842001767007">
        <ele>1.2</ele>
        <time>2016-04-02T12:58:24Z</time>
      </trkpt>
      <trkpt lat="59.276727733144" lon="17.841877295792">
        <ele>1.6</ele>
        <time>2016-04-02T12:58:25Z</time>
      </trkpt>
      <trkpt lat="59.276771570481" lon="17.841749304179">
        <ele>2.2</ele>
        <time>2016-04-02T12:58:26Z</time>
      </trkpt>
      <trkpt lat="59.276815323999" lon="17.841619803824">
        <ele>2.6</ele>
        <time>2016-04-02T12:58:27Z</time>
      </trkpt>
      <trkpt lat="59.276860250983" lon="17.841487537442">
        <ele>3.2</ele>
        <time>2016-04-02T12:58:28Z</time>
      </trkpt>
      <trkpt lat="59.277005425491" lon="17.841098533463">
        <ele>3.2</ele>
        <time>2016-04-02T12:58:31Z</time>
      </trkpt>
      <trkpt lat="59.277054711063" lon="17.840975403352">
        <ele>3.2</ele>
        <time>2016-04-02T12:58:32Z</time>
      </trkpt>
      <trkpt lat="59.277320836388" lon="17.840208543321">
        <ele>3.2</ele>
        <time>2016-04-02T12:58:38Z</time>
      </trkpt>
      <trkpt lat="59.277410103623" lon="17.839987093523">
        <ele>3.6</ele>
        <time>2016-04-02T12:58:40Z</time>
      </trkpt>
      <trkpt lat="59.277455952616" lon="17.839886678361">
        <ele>4</ele>
        <time>2016-04-02T12:58:41Z</time>
      </trkpt>
      <trkpt lat="59.277503561808" lon="17.839797997859">
        <ele>4.4</ele>
        <time>2016-04-02T12:58:42Z</time>
      </trkpt>
      <trkpt lat="59.277552679742" lon="17.839716358153">
        <ele>4.8</ele>
        <time>2016-04-02T12:58:43Z</time>
      </trkpt>
      <trkpt lat="59.277605401893" lon="17.83963781975">
        <ele>5.2</ele>
        <time>2016-04-02T12:58:44Z</time>
      </trkpt>
      <trkpt lat="59.277756946645" lon="17.8394324632">
        <ele>5.2</ele>
        <time>2016-04-02T12:58:47Z</time>
      </trkpt>
      <trkpt lat="59.277811680452" lon="17.839376975022">
        <ele>5.6</ele>
        <time>2016-04-02T12:58:48Z</time>
      </trkpt>
      <trkpt lat="59.277868425915" lon="17.839329198192">
        <ele>6.2</ele>
        <time>2016-04-02T12:58:49Z</time>
      </trkpt>
      <trkpt lat="59.277929949061" lon="17.83929080909">
        <ele>6.6</ele>
        <time>2016-04-02T12:58:50Z</time>
      </trkpt>
      <trkpt lat="59.277990131103" lon="17.839254934558">
        <ele>7</ele>
        <time>2016-04-02T12:58:51Z</time>
      </trkpt>
      <trkpt lat="59.278052073344" lon="17.839223167157">
        <ele>7.4</ele>
        <time>2016-04-02T12:58:52Z</time>
      </trkpt>
      <trkpt lat="59.278115943422" lon="17.839193327593">
        <ele>7.4</ele>
        <time>2016-04-02T12:58:53Z</time>
      </trkpt>
      <trkpt lat="59.278237145696" lon="17.839147394781">
        <ele>7.8</ele>
        <time>2016-04-02T12:58:55Z</time>
      </trkpt>
      <trkpt lat="59.278298165928" lon="17.839133899922">
        <ele>8.2</ele>
        <time>2016-04-02T12:58:56Z</time>
      </trkpt>
      <trkpt lat="59.278356587771" lon="17.839116130294">
        <ele>8.6</ele>
        <time>2016-04-02T12:58:57Z</time>
      </trkpt>
      <trkpt lat="59.278413919967" lon="17.839092074241">
        <ele>9.2</ele>
        <time>2016-04-02T12:58:58Z</time>
      </trkpt>
      <trkpt lat="59.278472593267" lon="17.839070532758">
        <ele>9.6</ele>
        <time>2016-04-02T12:58:59Z</time>
      </trkpt>
      <trkpt lat="59.278530847472" lon="17.839052679311">
        <ele>10</ele>
        <time>2016-04-02T12:59:00Z</time>
      </trkpt>
      <trkpt lat="59.278591700066" lon="17.839032059837">
        <ele>10.4</ele>
        <time>2016-04-02T12:59:01Z</time>
      </trkpt>
      <trkpt lat="59.278649702814" lon="17.839012697648">
        <ele>11</ele>
        <time>2016-04-02T12:59:02Z</time>
      </trkpt>
      <trkpt lat="59.2787078732" lon="17.838992329631">
        <ele>11.4</ele>
        <time>2016-04-02T12:59:03Z</time>
      </trkpt>
      <trkpt lat="59.2787665465" lon="17.838973302718">
        <ele>12</ele>
        <time>2016-04-02T12:59:04Z</time>
      </trkpt>
      <trkpt lat="59.27894340459" lon="17.838915467608">
        <ele>12</ele>
        <time>2016-04-02T12:59:07Z</time>
      </trkpt>
      <trkpt lat="59.279365600893" lon="17.838674571802">
        <ele>12</ele>
        <time>2016-04-02T12:59:14Z</time>
      </trkpt>
      <trkpt lat="59.279661901058" lon="17.838297302483">
        <ele>12</ele>
        <time>2016-04-02T12:59:19Z</time>
      </trkpt>
      <trkpt lat="59.279828449411" lon="17.837959595732">
        <ele>11.4</ele>
        <time>2016-04-02T12:59:22Z</time>
      </trkpt>
      <trkpt lat="59.279885613969" lon="17.837823306038">
        <ele>11</ele>
        <time>2016-04-02T12:59:23Z</time>
      </trkpt>
      <trkpt lat="59.279939425767" lon="17.837685004688">
        <ele>10.4</ele>
        <time>2016-04-02T12:59:24Z</time>
      </trkpt>
      <trkpt lat="59.279993321384" lon="17.837539327266">
        <ele>10</ele>
        <time>2016-04-02T12:59:25Z</time>
      </trkpt>
      <trkpt lat="59.28004646263" lon="17.837381579908">
        <ele>9.4</ele>
        <time>2016-04-02T12:59:26Z</time>
      </trkpt>
      <trkpt lat="59.280098262772" lon="17.837213606632">
        <ele>9</ele>
        <time>2016-04-02T12:59:27Z</time>
      </trkpt>
      <trkpt lat="59.280148637991" lon="17.837036832361">
        <ele>8.4</ele>
        <time>2016-04-02T12:59:28Z</time>
      </trkpt>
      <trkpt lat="59.28019482226" lon="17.836853939303">
        <ele>7.6</ele>
        <time>2016-04-02T12:59:29Z</time>
      </trkpt>
      <trkpt lat="59.280238240502" lon="17.836671213883">
        <ele>6.8</ele>
        <time>2016-04-02T12:59:30Z</time>
      </trkpt>
      <trkpt lat="59.280287106979" lon="17.836474658328">
        <ele>6</ele>
        <time>2016-04-02T12:59:31Z</time>
      </trkpt>
      <trkpt lat="59.280332369239" lon="17.836286903768">
        <ele>5.2</ele>
        <time>2016-04-02T12:59:32Z</time>
      </trkpt>
      <trkpt lat="59.280378972603" lon="17.836100406493">
        <ele>4.4</ele>
        <time>2016-04-02T12:59:33Z</time>
      </trkpt>
      <trkpt lat="59.280427252347" lon="17.83591625615">
        <ele>3.4</ele>
        <time>2016-04-02T12:59:34Z</time>
      </trkpt>
      <trkpt lat="59.280479639222" lon="17.835739230422">
        <ele>2</ele>
        <time>2016-04-02T12:59:35Z</time>
      </trkpt>
      <trkpt lat="59.28053680378" lon="17.835575615734">
        <ele>1.2</ele>
        <time>2016-04-02T12:59:36Z</time>
      </trkpt>
      <trkpt lat="59.280598494564" lon="17.835424992991">
        <ele>0.4</ele>
        <time>2016-04-02T12:59:37Z</time>
      </trkpt>
      <trkpt lat="59.280669405438" lon="17.835280572854">
        <ele>0</ele>
        <time>2016-04-02T12:59:38Z</time>
      </trkpt>
      <trkpt lat="59.28074216033" lon="17.835159622037">
        <ele>0</ele>
        <time>2016-04-02T12:59:39Z</time>
      </trkpt>
      <trkpt lat="59.280979703376" lon="17.834867931917">
        <ele>0</ele>
        <time>2016-04-02T12:59:42Z</time>
      </trkpt>
      <trkpt lat="59.281341801456" lon="17.834603985886">
        <ele>0</ele>
        <time>2016-04-02T12:59:46Z</time>
      </trkpt>
      <trkpt lat="59.281881176721" lon="17.834251107896">
        <ele>0</ele>
        <time>2016-04-02T12:59:52Z</time>
      </trkpt>
      <trkpt lat="59.282322232299" lon="17.833820864969">
        <ele>0</ele>
        <time>2016-04-02T12:59:57Z</time>
      </trkpt>
      <trkpt lat="59.282603696501" lon="17.833266402284">
        <ele>0</ele>
        <time>2016-04-02T13:00:01Z</time>
      </trkpt>
      <trkpt lat="59.28271023045" lon="17.832941603659">
        <ele>0</ele>
        <time>2016-04-02T13:00:03Z</time>
      </trkpt>
      <trkpt lat="59.282814668924" lon="17.832611105342">
        <ele>0</ele>
        <time>2016-04-02T13:00:05Z</time>
      </trkpt>
      <trkpt lat="59.282870240921" lon="17.832445730455">
        <ele>0</ele>
        <time>2016-04-02T13:00:06Z</time>
      </trkpt>
      <trkpt lat="59.282922711615" lon="17.832284127423">
        <ele>0.2</ele>
        <time>2016-04-02T13:00:07Z</time>
      </trkpt>
      <trkpt lat="59.282977445422" lon="17.832114393948">
        <ele>0.6</ele>
        <time>2016-04-02T13:00:08Z</time>
      </trkpt>
      <trkpt lat="59.28303125722" lon="17.831959496436">
        <ele>1</ele>
        <time>2016-04-02T13:00:09Z</time>
      </trkpt>
      <trkpt lat="59.283220352884" lon="17.831522883265">
        <ele>1</ele>
        <time>2016-04-02T13:00:12Z</time>
      </trkpt>
      <trkpt lat="59.283641040445" lon="17.830865993762">
        <ele>1</ele>
        <time>2016-04-02T13:00:18Z</time>
      </trkpt>
      <trkpt lat="59.284130291948" lon="17.830206170594">
        <ele>1</ele>
        <time>2016-04-02T13:00:24Z</time>
      </trkpt>
      <trkpt lat="59.284299690147" lon="17.829971896489">
        <ele>1</ele>
        <time>2016-04-02T13:00:26Z</time>
      </trkpt>
      <trkpt lat="59.284799167568" lon="17.829315845176">
        <ele>1</ele>
        <time>2016-04-02T13:00:32Z</time>
      </trkpt>
      <trkpt lat="59.284880974912" lon="17.829207299571">
        <ele>1</ele>
        <time>2016-04-02T13:00:33Z</time>
      </trkpt>
      <trkpt lat="59.285272325823" lon="17.82863992876">
        <ele>1</ele>
        <time>2016-04-02T13:00:38Z</time>
      </trkpt>
      <trkpt lat="59.285565021771" lon="17.828158388605">
        <ele>1.8</ele>
        <time>2016-04-02T13:00:42Z</time>
      </trkpt>
      <trkpt lat="59.285592514403" lon="17.827997120849">
        <ele>2.2</ele>
        <time>2016-04-02T13:00:43Z</time>
      </trkpt>
      <trkpt lat="59.285597459724" lon="17.827837026559">
        <ele>2.6</ele>
        <time>2016-04-02T13:00:44Z</time>
      </trkpt>
      <trkpt lat="59.285576924069" lon="17.827689337481">
        <ele>3</ele>
        <time>2016-04-02T13:00:45Z</time>
      </trkpt>
      <trkpt lat="59.285446166429" lon="17.827312319619">
        <ele>3</ele>
        <time>2016-04-02T13:00:48Z</time>
      </trkpt>
      <trkpt lat="59.285211808505" lon="17.826645371836">
        <ele>3.6</ele>
        <time>2016-04-02T13:00:54Z</time>
      </trkpt>
      <trkpt lat="59.285175933973" lon="17.82653523367">
        <ele>4</ele>
        <time>2016-04-02T13:00:55Z</time>
      </trkpt>
      <trkpt lat="59.285139807984" lon="17.826430879015">
        <ele>4.4</ele>
        <time>2016-04-02T13:00:56Z</time>
      </trkpt>
      <trkpt lat="59.285104436366" lon="17.826326691998">
        <ele>5</ele>
        <time>2016-04-02T13:00:57Z</time>
      </trkpt>
      <trkpt lat="59.285070405852" lon="17.826218230212">
        <ele>5.4</ele>
        <time>2016-04-02T13:00:58Z</time>
      </trkpt>
      <trkpt lat="59.285036040062" lon="17.82611194772">
        <ele>5.8</ele>
        <time>2016-04-02T13:00:59Z</time>
      </trkpt>
      <trkpt lat="59.285001925729" lon="17.826000300812">
        <ele>6.2</ele>
        <time>2016-04-02T13:01:00Z</time>
      </trkpt>
      <trkpt lat="59.284968984862" lon="17.825885384963">
        <ele>6.6</ele>
        <time>2016-04-02T13:01:01Z</time>
      </trkpt>
      <trkpt lat="59.284937804194" lon="17.825775665892">
        <ele>7</ele>
        <time>2016-04-02T13:01:02Z</time>
      </trkpt>
      <trkpt lat="59.284907461716" lon="17.825670137771">
        <ele>7.6</ele>
        <time>2016-04-02T13:01:03Z</time>
      </trkpt>
      <trkpt lat="59.284721802631" lon="17.825037555778">
        <ele>7.6</ele>
        <time>2016-04-02T13:01:09Z</time>
      </trkpt>
      <trkpt lat="59.284559864323" lon="17.824374296031">
        <ele>7.6</ele>
        <time>2016-04-02T13:01:15Z</time>
      </trkpt>
      <trkpt lat="59.284445786664" lon="17.823931228797">
        <ele>7.6</ele>
        <time>2016-04-02T13:01:19Z</time>
      </trkpt>
      <trkpt lat="59.284338079249" lon="17.823447509348">
        <ele>7.6</ele>
        <time>2016-04-02T13:01:23Z</time>
      </trkpt>
      <trkpt lat="59.284275466456" lon="17.823045429605">
        <ele>7.6</ele>
        <time>2016-04-02T13:01:26Z</time>
      </trkpt>
      <trkpt lat="59.28428016032" lon="17.822761786109">
        <ele>7.6</ele>
        <time>2016-04-02T13:01:28Z</time>
      </trkpt>
      <trkpt lat="59.284397590739" lon="17.822409075757">
        <ele>7.6</ele>
        <time>2016-04-02T13:01:31Z</time>
      </trkpt>
      <trkpt lat="59.284503621774" lon="17.822213358392">
        <ele>7.6</ele>
        <time>2016-04-02T13:01:33Z</time>
      </trkpt>
      <trkpt lat="59.284610574818" lon="17.822039853062">
        <ele>8</ele>
        <time>2016-04-02T13:01:35Z</time>
      </trkpt>
      <trkpt lat="59.284663716064" lon="17.821954776777">
        <ele>8.4</ele>
        <time>2016-04-02T13:01:36Z</time>
      </trkpt>
      <trkpt lat="59.284716186758" lon="17.821870287225">
        <ele>8.8</ele>
        <time>2016-04-02T13:01:37Z</time>
      </trkpt>
      <trkpt lat="59.284770920565" lon="17.821777331954">
        <ele>9.2</ele>
        <time>2016-04-02T13:01:38Z</time>
      </trkpt>
      <trkpt lat="59.284823642716" lon="17.821684125226">
        <ele>9.6</ele>
        <time>2016-04-02T13:01:39Z</time>
      </trkpt>
      <trkpt lat="59.285038386994" lon="17.821322781517">
        <ele>9.6</ele>
        <time>2016-04-02T13:01:43Z</time>
      </trkpt>
      <trkpt lat="59.285253047453" lon="17.820950289881">
        <ele>10</ele>
        <time>2016-04-02T13:01:47Z</time>
      </trkpt>
      <trkpt lat="59.285307278346" lon="17.820858340438">
        <ele>10.4</ele>
        <time>2016-04-02T13:01:48Z</time>
      </trkpt>
      <trkpt lat="59.285362850343" lon="17.820767564461">
        <ele>10.8</ele>
        <time>2016-04-02T13:01:49Z</time>
      </trkpt>
      <trkpt lat="59.285420601634" lon="17.820677626674">
        <ele>11.2</ele>
        <time>2016-04-02T13:01:50Z</time>
      </trkpt>
      <trkpt lat="59.285476508907" lon="17.820584168489">
        <ele>11.6</ele>
        <time>2016-04-02T13:01:51Z</time>
      </trkpt>
      <trkpt lat="59.285857047167" lon="17.819933481592">
        <ele>11.6</ele>
        <time>2016-04-02T13:01:58Z</time>
      </trkpt>
      <trkpt lat="59.286302796609" lon="17.819185313198">
        <ele>11.6</ele>
        <time>2016-04-02T13:02:06Z</time>
      </trkpt>
      <trkpt lat="59.286748881327" lon="17.818414765131">
        <ele>11.6</ele>
        <time>2016-04-02T13:02:14Z</time>
      </trkpt>
      <trkpt lat="59.28717862134" lon="17.817583615927">
        <ele>11.6</ele>
        <time>2016-04-02T13:02:22Z</time>
      </trkpt>
      <trkpt lat="59.28749378078" lon="17.816727153385">
        <ele>11.6</ele>
        <time>2016-04-02T13:02:29Z</time>
      </trkpt>
      <trkpt lat="59.287794439533" lon="17.815790140784">
        <ele>11.6</ele>
        <time>2016-04-02T13:02:36Z</time>
      </trkpt>
      <trkpt lat="59.287835007929" lon="17.81565385109">
        <ele>11.6</ele>
        <time>2016-04-02T13:02:37Z</time>
      </trkpt>
      <trkpt lat="59.288144132401" lon="17.814709127141">
        <ele>11.6</ele>
        <time>2016-04-02T13:02:44Z</time>
      </trkpt>
      <trkpt lat="59.288243457916" lon="17.814454149743">
        <ele>11.6</ele>
        <time>2016-04-02T13:02:46Z</time>
      </trkpt>
      <trkpt lat="59.288536908235" lon="17.813693240861">
        <ele>11.2</ele>
        <time>2016-04-02T13:02:52Z</time>
      </trkpt>
      <trkpt lat="59.288587199635" lon="17.813568350551">
        <ele>10.6</ele>
        <time>2016-04-02T13:02:53Z</time>
      </trkpt>
      <trkpt lat="59.288636066112" lon="17.813443124965">
        <ele>10.2</ele>
        <time>2016-04-02T13:02:54Z</time>
      </trkpt>
      <trkpt lat="59.288686692788" lon="17.813310942402">
        <ele>9.8</ele>
        <time>2016-04-02T13:02:55Z</time>
      </trkpt>
      <trkpt lat="59.288736732731" lon="17.813188482843">
        <ele>9.4</ele>
        <time>2016-04-02T13:02:56Z</time>
      </trkpt>
      <trkpt lat="59.289051640714" lon="17.812455988602">
        <ele>9.4</ele>
        <time>2016-04-02T13:03:02Z</time>
      </trkpt>
      <trkpt lat="59.289381803755" lon="17.81176884044">
        <ele>9</ele>
        <time>2016-04-02T13:03:08Z</time>
      </trkpt>
      <trkpt lat="59.289441650521" lon="17.811652583487">
        <ele>8.6</ele>
        <time>2016-04-02T13:03:09Z</time>
      </trkpt>
      <trkpt lat="59.289500575278" lon="17.811537919095">
        <ele>7.6</ele>
        <time>2016-04-02T13:03:10Z</time>
      </trkpt>
      <trkpt lat="59.289561260234" lon="17.811421075409">
        <ele>7.2</ele>
        <time>2016-04-02T13:03:11Z</time>
      </trkpt>
      <trkpt lat="59.289966022185" lon="17.81066829697">
        <ele>7.8</ele>
        <time>2016-04-02T13:03:18Z</time>
      </trkpt>
      <trkpt lat="59.290018576698" lon="17.810561679202">
        <ele>8.2</ele>
        <time>2016-04-02T13:03:19Z</time>
      </trkpt>
      <trkpt lat="59.290069203374" lon="17.810453217416">
        <ele>8.6</ele>
        <time>2016-04-02T13:03:20Z</time>
      </trkpt>
      <trkpt lat="59.290116644928" lon="17.810341235232">
        <ele>9</ele>
        <time>2016-04-02T13:03:21Z</time>
      </trkpt>
      <trkpt lat="59.290165679043" lon="17.810231264704">
        <ele>9.4</ele>
        <time>2016-04-02T13:03:22Z</time>
      </trkpt>
      <trkpt lat="59.290274224648" lon="17.810048539284">
        <ele>9.4</ele>
        <time>2016-04-02T13:03:24Z</time>
      </trkpt>
      <trkpt lat="59.290404144098" lon="17.809922726965">
        <ele>9.4</ele>
        <time>2016-04-02T13:03:27Z</time>
      </trkpt>
      <trkpt lat="59.290449741634" lon="17.809776295172">
        <ele>9.4</ele>
        <time>2016-04-02T13:03:29Z</time>
      </trkpt>
      <trkpt lat="59.290471115479" lon="17.80968426191">
        <ele>9.4</ele>
        <time>2016-04-02T13:03:30Z</time>
      </trkpt>
      <trkpt lat="59.290499278663" lon="17.809589043526">
        <ele>9.4</ele>
        <time>2016-04-02T13:03:31Z</time>
      </trkpt>
      <trkpt lat="59.290691307992" lon="17.808923436847">
        <ele>9.4</ele>
        <time>2016-04-02T13:03:37Z</time>
      </trkpt>
      <trkpt lat="59.290736318795" lon="17.808829056653">
        <ele>9</ele>
        <time>2016-04-02T13:03:38Z</time>
      </trkpt>
      <trkpt lat="59.290791471697" lon="17.808735347011">
        <ele>8.6</ele>
        <time>2016-04-02T13:03:39Z</time>
      </trkpt>
      <trkpt lat="59.290839499984" lon="17.80863820079">
        <ele>8</ele>
        <time>2016-04-02T13:03:40Z</time>
      </trkpt>
      <trkpt lat="59.290890461936" lon="17.808544742605">
        <ele>7.6</ele>
        <time>2016-04-02T13:03:41Z</time>
      </trkpt>
      <trkpt lat="59.290939412232" lon="17.808445752366">
        <ele>7</ele>
        <time>2016-04-02T13:03:42Z</time>
      </trkpt>
      <trkpt lat="59.290985093587" lon="17.80836662723">
        <ele>6.6</ele>
        <time>2016-04-02T13:03:43Z</time>
      </trkpt>
      <trkpt lat="59.291015268427" lon="17.808332093802">
        <ele>6</ele>
        <time>2016-04-02T13:03:44Z</time>
      </trkpt>
      <trkpt lat="59.291042425783" lon="17.808341565349">
        <ele>5.4</ele>
        <time>2016-04-02T13:03:45Z</time>
      </trkpt>
      <trkpt lat="59.291075282831" lon="17.808365118488">
        <ele>5</ele>
        <time>2016-04-02T13:03:46Z</time>
      </trkpt>
      <trkpt lat="59.291107720784" lon="17.808383977763">
        <ele>5.4</ele>
        <time>2016-04-02T13:03:47Z</time>
      </trkpt>
      <trkpt lat="59.291139655823" lon="17.8084026694">
        <ele>5.8</ele>
        <time>2016-04-02T13:03:48Z</time>
      </trkpt>
      <trkpt lat="59.291175362717" lon="17.808440220312">
        <ele>6.4</ele>
        <time>2016-04-02T13:03:49Z</time>
      </trkpt>
      <trkpt lat="59.291210650516" lon="17.808480453432">
        <ele>6.8</ele>
        <time>2016-04-02T13:03:50Z</time>
      </trkpt>
      <trkpt lat="59.291239735709" lon="17.808535773972">
        <ele>7.4</ele>
        <time>2016-04-02T13:03:51Z</time>
      </trkpt>
      <trkpt lat="59.291354064825" lon="17.808733670631">
        <ele>7.8</ele>
        <time>2016-04-02T13:03:54Z</time>
      </trkpt>
      <trkpt lat="59.291401338741" lon="17.808800642012">
        <ele>8.2</ele>
        <time>2016-04-02T13:03:55Z</time>
      </trkpt>
      <trkpt lat="59.291451043408" lon="17.808872642533">
        <ele>8.6</ele>
        <time>2016-04-02T13:03:56Z</time>
      </trkpt>
      <trkpt lat="59.291500748075" lon="17.808947660538">
        <ele>9</ele>
        <time>2016-04-02T13:03:57Z</time>
      </trkpt>
      <trkpt lat="59.291549530733" lon="17.809025528389">
        <ele>9.4</ele>
        <time>2016-04-02T13:03:58Z</time>
      </trkpt>
      <trkpt lat="59.291596972287" lon="17.809107084276">
        <ele>9.4</ele>
        <time>2016-04-02T13:03:59Z</time>
      </trkpt>
      <trkpt lat="59.291640725805" lon="17.809198530805">
        <ele>9.4</ele>
        <time>2016-04-02T13:04:00Z</time>
      </trkpt>
      <trkpt lat="59.291805262502" lon="17.809436409127">
        <ele>9.4</ele>
        <time>2016-04-02T13:04:03Z</time>
      </trkpt>
      <trkpt lat="59.292271966694" lon="17.809950051959">
        <ele>8.8</ele>
        <time>2016-04-02T13:04:10Z</time>
      </trkpt>
      <trkpt lat="59.292342542292" lon="17.810028255086">
        <ele>8.4</ele>
        <time>2016-04-02T13:04:11Z</time>
      </trkpt>
      <trkpt lat="59.292409681311" lon="17.810106961127">
        <ele>8</ele>
        <time>2016-04-02T13:04:12Z</time>
      </trkpt>
      <trkpt lat="59.292480256909" lon="17.810184577521">
        <ele>7.6</ele>
        <time>2016-04-02T13:04:13Z</time>
      </trkpt>
      <trkpt lat="59.292542702064" lon="17.810265881951">
        <ele>7.2</ele>
        <time>2016-04-02T13:04:14Z</time>
      </trkpt>
      <trkpt lat="59.292721487991" lon="17.810483140799">
        <ele>7.2</ele>
        <time>2016-04-02T13:04:17Z</time>
      </trkpt>
      <trkpt lat="59.293141002086" lon="17.810966441153">
        <ele>7.2</ele>
        <time>2016-04-02T13:04:24Z</time>
      </trkpt>
      <trkpt lat="59.293442582848" lon="17.811330886165">
        <ele>7.2</ele>
        <time>2016-04-02T13:04:29Z</time>
      </trkpt>
      <trkpt lat="59.293596725989" lon="17.811540936579">
        <ele>7.2</ele>
        <time>2016-04-02T13:04:32Z</time>
      </trkpt>
      <trkpt lat="59.293706025965" lon="17.811590976522">
        <ele>7.2</ele>
        <time>2016-04-02T13:04:34Z</time>
      </trkpt>
      <trkpt lat="59.293914399999" lon="17.811628527434">
        <ele>7.2</ele>
        <time>2016-04-02T13:04:38Z</time>
      </trkpt>
      <trkpt lat="59.294006349442" lon="17.811594329282">
        <ele>7.2</ele>
        <time>2016-04-02T13:04:40Z</time>
      </trkpt>
      <trkpt lat="59.294111374649" lon="17.811561388415">
        <ele>7.2</ele>
        <time>2016-04-02T13:04:42Z</time>
      </trkpt>
      <trkpt lat="59.294384708408" lon="17.811475222483">
        <ele>7.2</ele>
        <time>2016-04-02T13:04:46Z</time>
      </trkpt>
      <trkpt lat="59.294873792273" lon="17.811365754869">
        <ele>7.2</ele>
        <time>2016-04-02T13:04:52Z</time>
      </trkpt>
      <trkpt lat="59.295498076185" lon="17.811183364725">
        <ele>7.2</ele>
        <time>2016-04-02T13:04:59Z</time>
      </trkpt>
      <trkpt lat="59.295590863818" lon="17.811157548473">
        <ele>7.2</ele>
        <time>2016-04-02T13:05:00Z</time>
      </trkpt>
      <trkpt lat="59.29615731262" lon="17.810974487777">
        <ele>7.2</ele>
        <time>2016-04-02T13:05:06Z</time>
      </trkpt>
      <trkpt lat="59.296254375022" lon="17.810945234946">
        <ele>7.2</ele>
        <time>2016-04-02T13:05:07Z</time>
      </trkpt>
      <trkpt lat="59.296448499826" lon="17.810883292705">
        <ele>6.6</ele>
        <time>2016-04-02T13:05:09Z</time>
      </trkpt>
      <trkpt lat="59.296548160617" lon="17.810853788417">
        <ele>6.2</ele>
        <time>2016-04-02T13:05:10Z</time>
      </trkpt>
      <trkpt lat="59.296646145028" lon="17.8108250385">
        <ele>5.8</ele>
        <time>2016-04-02T13:05:11Z</time>
      </trkpt>
      <trkpt lat="59.296745386724" lon="17.810802239732">
        <ele>5.2</ele>
        <time>2016-04-02T13:05:12Z</time>
      </trkpt>
      <trkpt lat="59.296842784402" lon="17.810784721561">
        <ele>4.4</ele>
        <time>2016-04-02T13:05:13Z</time>
      </trkpt>
      <trkpt lat="59.296942361374" lon="17.810764856458">
        <ele>3.8</ele>
        <time>2016-04-02T13:05:14Z</time>
      </trkpt>
      <trkpt lat="59.29704914678" lon="17.810740968043">
        <ele>2.6</ele>
        <time>2016-04-02T13:05:15Z</time>
      </trkpt>
      <trkpt lat="59.297147131191" lon="17.810714145963">
        <ele>2</ele>
        <time>2016-04-02T13:05:16Z</time>
      </trkpt>
      <trkpt lat="59.297246289068" lon="17.810687156245">
        <ele>1.6</ele>
        <time>2016-04-02T13:05:17Z</time>
      </trkpt>
      <trkpt lat="59.297345279307" lon="17.810660082708">
        <ele>1</ele>
        <time>2016-04-02T13:05:18Z</time>
      </trkpt>
      <trkpt lat="59.297446616478" lon="17.810635523741">
        <ele>0.6</ele>
        <time>2016-04-02T13:05:19Z</time>
      </trkpt>
      <trkpt lat="59.297545103803" lon="17.810604343073">
        <ele>0</ele>
        <time>2016-04-02T13:05:20Z</time>
      </trkpt>
      <trkpt lat="59.297749119249" lon="17.810541981737">
        <ele>0</ele>
        <time>2016-04-02T13:05:22Z</time>
      </trkpt>
      <trkpt lat="59.297859425053" lon="17.810512896544">
        <ele>0</ele>
        <time>2016-04-02T13:05:23Z</time>
      </trkpt>
      <trkpt lat="59.297962522423" lon="17.810486745016">
        <ele>0</ele>
        <time>2016-04-02T13:05:24Z</time>
      </trkpt>
      <trkpt lat="59.298067044716" lon="17.81045707309">
        <ele>0</ele>
        <time>2016-04-02T13:05:25Z</time>
      </trkpt>
      <trkpt lat="59.298169303896" lon="17.810429915734">
        <ele>0</ele>
        <time>2016-04-02T13:05:26Z</time>
      </trkpt>
      <trkpt lat="59.298270473429" lon="17.810402339283">
        <ele>0</ele>
        <time>2016-04-02T13:05:27Z</time>
      </trkpt>
      <trkpt lat="59.298572808562" lon="17.81031458079">
        <ele>0</ele>
        <time>2016-04-02T13:05:30Z</time>
      </trkpt>
      <trkpt lat="59.298671966439" lon="17.810285830873">
        <ele>0</ele>
        <time>2016-04-02T13:05:31Z</time>
      </trkpt>
      <trkpt lat="59.29877078904" lon="17.810254901662">
        <ele>0</ele>
        <time>2016-04-02T13:05:32Z</time>
      </trkpt>
      <trkpt lat="59.298868270537" lon="17.810223720994">
        <ele>0</ele>
        <time>2016-04-02T13:05:33Z</time>
      </trkpt>
      <trkpt lat="59.298966254948" lon="17.810195054896">
        <ele>0</ele>
        <time>2016-04-02T13:05:34Z</time>
      </trkpt>
      <trkpt lat="59.299060048409" lon="17.81016873573">
        <ele>0.2</ele>
        <time>2016-04-02T13:05:35Z</time>
      </trkpt>
      <trkpt lat="59.299348804864" lon="17.810095729381">
        <ele>0.6</ele>
        <time>2016-04-02T13:05:38Z</time>
      </trkpt>
      <trkpt lat="59.299444861438" lon="17.810065051627">
        <ele>1</ele>
        <time>2016-04-02T13:05:39Z</time>
      </trkpt>
      <trkpt lat="59.299540498917" lon="17.810026075792">
        <ele>1.8</ele>
        <time>2016-04-02T13:05:40Z</time>
      </trkpt>
      <trkpt lat="59.299635214387" lon="17.809969330329">
        <ele>2.2</ele>
        <time>2016-04-02T13:05:41Z</time>
      </trkpt>
      <trkpt lat="59.300027152031" lon="17.809824407278">
        <ele>2.2</ele>
        <time>2016-04-02T13:05:45Z</time>
      </trkpt>
      <trkpt lat="59.300203507207" lon="17.809773361507">
        <ele>2.8</ele>
        <time>2016-04-02T13:05:47Z</time>
      </trkpt>
      <trkpt lat="59.300290176053" lon="17.809733631301">
        <ele>3.2</ele>
        <time>2016-04-02T13:05:48Z</time>
      </trkpt>
      <trkpt lat="59.300371648121" lon="17.809693733457">
        <ele>3.6</ele>
        <time>2016-04-02T13:05:49Z</time>
      </trkpt>
      <trkpt lat="59.300450689438" lon="17.809640089297">
        <ele>4.2</ele>
        <time>2016-04-02T13:05:50Z</time>
      </trkpt>
      <trkpt lat="59.300527383823" lon="17.809579069065">
        <ele>4.8</ele>
        <time>2016-04-02T13:05:51Z</time>
      </trkpt>
      <trkpt lat="59.300604245846" lon="17.809520060489">
        <ele>5.4</ele>
        <time>2016-04-02T13:05:52Z</time>
      </trkpt>
      <trkpt lat="59.30068018586" lon="17.809446886502">
        <ele>6</ele>
        <time>2016-04-02T13:05:53Z</time>
      </trkpt>
      <trkpt lat="59.300753359847" lon="17.809378657836">
        <ele>6.4</ele>
        <time>2016-04-02T13:05:54Z</time>
      </trkpt>
      <trkpt lat="59.300825947101" lon="17.809301795813">
        <ele>7</ele>
        <time>2016-04-02T13:05:55Z</time>
      </trkpt>
      <trkpt lat="59.300890906826" lon="17.809222754496">
        <ele>7.4</ele>
        <time>2016-04-02T13:05:56Z</time>
      </trkpt>
      <trkpt lat="59.300956369465" lon="17.809149999604">
        <ele>8</ele>
        <time>2016-04-02T13:05:57Z</time>
      </trkpt>
      <trkpt lat="59.301019820448" lon="17.809073137581">
        <ele>8.4</ele>
        <time>2016-04-02T13:05:58Z</time>
      </trkpt>
      <trkpt lat="59.30108335525" lon="17.808995018273">
        <ele>8.8</ele>
        <time>2016-04-02T13:05:59Z</time>
      </trkpt>
      <trkpt lat="59.301147225328" lon="17.808909439074">
        <ele>9.2</ele>
        <time>2016-04-02T13:06:00Z</time>
      </trkpt>
      <trkpt lat="59.301273959656" lon="17.808753368096">
        <ele>9.6</ele>
        <time>2016-04-02T13:06:02Z</time>
      </trkpt>
      <trkpt lat="59.30133397406" lon="17.808669884372">
        <ele>10</ele>
        <time>2016-04-02T13:06:03Z</time>
      </trkpt>
      <trkpt lat="59.301389462238" lon="17.808581371508">
        <ele>11</ele>
        <time>2016-04-02T13:06:04Z</time>
      </trkpt>
      <trkpt lat="59.301445872425" lon="17.808489673522">
        <ele>11.4</ele>
        <time>2016-04-02T13:06:05Z</time>
      </trkpt>
      <trkpt lat="59.301687019688" lon="17.80806320245">
        <ele>11.4</ele>
        <time>2016-04-02T13:06:09Z</time>
      </trkpt>
      <trkpt lat="59.301876366809" lon="17.80754939198">
        <ele>11.4</ele>
        <time>2016-04-02T13:06:13Z</time>
      </trkpt>
      <trkpt lat="59.301909559133" lon="17.807404049834">
        <ele>11.4</ele>
        <time>2016-04-02T13:06:14Z</time>
      </trkpt>
      <trkpt lat="59.301975776143" lon="17.806962407523">
        <ele>11.4</ele>
        <time>2016-04-02T13:06:17Z</time>
      </trkpt>
      <trkpt lat="59.302068060862" lon="17.806018354126">
        <ele>11.4</ele>
        <time>2016-04-02T13:06:24Z</time>
      </trkpt>
      <trkpt lat="59.302146431627" lon="17.805261552375">
        <ele>11.8</ele>
        <time>2016-04-02T13:06:30Z</time>
      </trkpt>
      <trkpt lat="59.30215959121" lon="17.805137332617">
        <ele>12.2</ele>
        <time>2016-04-02T13:06:31Z</time>
      </trkpt>
      <trkpt lat="59.302174091897" lon="17.805010933565">
        <ele>12.8</ele>
        <time>2016-04-02T13:06:32Z</time>
      </trkpt>
      <trkpt lat="59.302187586756" lon="17.804885791798">
        <ele>13.2</ele>
        <time>2016-04-02T13:06:33Z</time>
      </trkpt>
      <trkpt lat="59.302194711371" lon="17.804761404402">
        <ele>13.6</ele>
        <time>2016-04-02T13:06:34Z</time>
      </trkpt>
      <trkpt lat="59.302244080762" lon="17.804272236718">
        <ele>13.6</ele>
        <time>2016-04-02T13:06:38Z</time>
      </trkpt>
      <trkpt lat="59.302255480146" lon="17.804151537358">
        <ele>14</ele>
        <time>2016-04-02T13:06:39Z</time>
      </trkpt>
      <trkpt lat="59.302265370788" lon="17.804027485238">
        <ele>14.4</ele>
        <time>2016-04-02T13:06:40Z</time>
      </trkpt>
      <trkpt lat="59.302275848163" lon="17.803910138638">
        <ele>15</ele>
        <time>2016-04-02T13:06:41Z</time>
      </trkpt>
      <trkpt lat="59.302286576995" lon="17.803792372943">
        <ele>15.4</ele>
        <time>2016-04-02T13:06:42Z</time>
      </trkpt>
      <trkpt lat="59.302300323311" lon="17.803675864533">
        <ele>15.8</ele>
        <time>2016-04-02T13:06:43Z</time>
      </trkpt>
      <trkpt lat="59.30234147844" lon="17.803318376498">
        <ele>15.8</ele>
        <time>2016-04-02T13:06:46Z</time>
      </trkpt>
      <trkpt lat="59.30235908043" lon="17.803070691353">
        <ele>15.8</ele>
        <time>2016-04-02T13:06:48Z</time>
      </trkpt>
      <trkpt lat="59.302377604429" lon="17.802517150677">
        <ele>15.8</ele>
        <time>2016-04-02T13:06:52Z</time>
      </trkpt>
      <trkpt lat="59.302349105969" lon="17.801797816019">
        <ele>15.8</ele>
        <time>2016-04-02T13:06:57Z</time>
      </trkpt>
      <trkpt lat="59.302285990262" lon="17.80101234817">
        <ele>15.8</ele>
        <time>2016-04-02T13:07:02Z</time>
      </trkpt>
      <trkpt lat="59.302235615043" lon="17.800538351725">
        <ele>15.4</ele>
        <time>2016-04-02T13:07:05Z</time>
      </trkpt>
      <trkpt lat="59.302220527623" lon="17.800371887191">
        <ele>15</ele>
        <time>2016-04-02T13:07:06Z</time>
      </trkpt>
      <trkpt lat="59.302208625325" lon="17.800210703254">
        <ele>14.4</ele>
        <time>2016-04-02T13:07:07Z</time>
      </trkpt>
      <trkpt lat="59.30219311881" lon="17.800046585652">
        <ele>14</ele>
        <time>2016-04-02T13:07:08Z</time>
      </trkpt>
      <trkpt lat="59.302177696114" lon="17.799883976792">
        <ele>13.6</ele>
        <time>2016-04-02T13:07:09Z</time>
      </trkpt>
      <trkpt lat="59.302091027268" lon="17.798887955615">
        <ele>13.6</ele>
        <time>2016-04-02T13:07:15Z</time>
      </trkpt>
      <trkpt lat="59.302042328429" lon="17.798215224321">
        <ele>13.2</ele>
        <time>2016-04-02T13:07:19Z</time>
      </trkpt>
      <trkpt lat="59.302031515778" lon="17.798044987932">
        <ele>12.8</ele>
        <time>2016-04-02T13:07:20Z</time>
      </trkpt>
      <trkpt lat="59.302023133878" lon="17.797875925009">
        <ele>12.4</ele>
        <time>2016-04-02T13:07:21Z</time>
      </trkpt>
      <trkpt lat="59.302017518005" lon="17.797699988928">
        <ele>12</ele>
        <time>2016-04-02T13:07:22Z</time>
      </trkpt>
      <trkpt lat="59.302010561028" lon="17.797533272937">
        <ele>11.6</ele>
        <time>2016-04-02T13:07:23Z</time>
      </trkpt>
      <trkpt lat="59.302013075598" lon="17.79683397102">
        <ele>11.6</ele>
        <time>2016-04-02T13:07:27Z</time>
      </trkpt>
      <trkpt lat="59.302032605425" lon="17.796664824278">
        <ele>11.6</ele>
        <time>2016-04-02T13:07:28Z</time>
      </trkpt>
      <trkpt lat="59.302060517152" lon="17.796313790306">
        <ele>11.2</ele>
        <time>2016-04-02T13:07:30Z</time>
      </trkpt>
      <trkpt lat="59.302066635939" lon="17.796149253609">
        <ele>10.8</ele>
        <time>2016-04-02T13:07:31Z</time>
      </trkpt>
      <trkpt lat="59.302066971215" lon="17.795977257021">
        <ele>10.4</ele>
        <time>2016-04-02T13:07:32Z</time>
      </trkpt>
      <trkpt lat="59.302059930419" lon="17.795799476922">
        <ele>10</ele>
        <time>2016-04-02T13:07:33Z</time>
      </trkpt>
      <trkpt lat="59.302047357569" lon="17.795628318524">
        <ele>9.6</ele>
        <time>2016-04-02T13:07:34Z</time>
      </trkpt>
      <trkpt lat="59.302043166619" lon="17.79529170142">
        <ele>9.6</ele>
        <time>2016-04-02T13:07:36Z</time>
      </trkpt>
      <trkpt lat="59.302042412248" lon="17.794949887538">
        <ele>9.6</ele>
        <time>2016-04-02T13:07:38Z</time>
      </trkpt>
      <trkpt lat="59.302053895451" lon="17.793782205049">
        <ele>9.6</ele>
        <time>2016-04-02T13:07:45Z</time>
      </trkpt>
      <trkpt lat="59.302040400592" lon="17.793612303936">
        <ele>9.6</ele>
        <time>2016-04-02T13:07:46Z</time>
      </trkpt>
      <trkpt lat="59.30201206977" lon="17.793304688206">
        <ele>9.6</ele>
        <time>2016-04-02T13:07:48Z</time>
      </trkpt>
      <trkpt lat="59.301986672613" lon="17.79300931005">
        <ele>9.6</ele>
        <time>2016-04-02T13:07:50Z</time>
      </trkpt>
      <trkpt lat="59.301984577138" lon="17.792865895741">
        <ele>9.6</ele>
        <time>2016-04-02T13:07:51Z</time>
      </trkpt>
      <trkpt lat="59.301975440867" lon="17.791770549049">
        <ele>9.6</ele>
        <time>2016-04-02T13:07:58Z</time>
      </trkpt>
      <trkpt lat="59.30197770398" lon="17.791612969329">
        <ele>9</ele>
        <time>2016-04-02T13:07:59Z</time>
      </trkpt>
      <trkpt lat="59.301983236034" lon="17.791453210315">
        <ele>8.6</ele>
        <time>2016-04-02T13:08:00Z</time>
      </trkpt>
      <trkpt lat="59.301990109192" lon="17.791287248695">
        <ele>8.2</ele>
        <time>2016-04-02T13:08:01Z</time>
      </trkpt>
      <trkpt lat="59.30199865873" lon="17.791124136921">
        <ele>7.8</ele>
        <time>2016-04-02T13:08:02Z</time>
      </trkpt>
      <trkpt lat="59.302003855508" lon="17.790957923844">
        <ele>7.4</ele>
        <time>2016-04-02T13:08:03Z</time>
      </trkpt>
      <trkpt lat="59.302025899905" lon="17.790614349763">
        <ele>7</ele>
        <time>2016-04-02T13:08:05Z</time>
      </trkpt>
      <trkpt lat="59.302038808031" lon="17.790431624343">
        <ele>6.6</ele>
        <time>2016-04-02T13:08:06Z</time>
      </trkpt>
      <trkpt lat="59.302051632338" lon="17.790256945547">
        <ele>6</ele>
        <time>2016-04-02T13:08:07Z</time>
      </trkpt>
      <trkpt lat="59.302066049206" lon="17.790081260923">
        <ele>5.2</ele>
        <time>2016-04-02T13:08:08Z</time>
      </trkpt>
      <trkpt lat="59.302080968988" lon="17.789906917403">
        <ele>4.6</ele>
        <time>2016-04-02T13:08:09Z</time>
      </trkpt>
      <trkpt lat="59.302092452191" lon="17.78972360525">
        <ele>4</ele>
        <time>2016-04-02T13:08:10Z</time>
      </trkpt>
      <trkpt lat="59.302105779412" lon="17.789539035812">
        <ele>3.6</ele>
        <time>2016-04-02T13:08:11Z</time>
      </trkpt>
      <trkpt lat="59.302120447737" lon="17.789353712003">
        <ele>3</ele>
        <time>2016-04-02T13:08:12Z</time>
      </trkpt>
      <trkpt lat="59.302218767424" lon="17.788286193219">
        <ele>3</ele>
        <time>2016-04-02T13:08:18Z</time>
      </trkpt>
      <trkpt lat="59.302263862046" lon="17.787944714613">
        <ele>3</ele>
        <time>2016-04-02T13:08:20Z</time>
      </trkpt>
      <trkpt lat="59.302403588319" lon="17.786905526651">
        <ele>3</ele>
        <time>2016-04-02T13:08:26Z</time>
      </trkpt>
      <trkpt lat="59.302436613005" lon="17.786753227528">
        <ele>3</ele>
        <time>2016-04-02T13:08:27Z</time>
      </trkpt>
      <trkpt lat="59.302657895165" lon="17.786017715803">
        <ele>3</ele>
        <time>2016-04-02T13:08:32Z</time>
      </trkpt>
      <trkpt lat="59.302895941125" lon="17.785123702349">
        <ele>3</ele>
        <time>2016-04-02T13:08:38Z</time>
      </trkpt>
      <trkpt lat="59.303200874647" lon="17.784184258997">
        <ele>3</ele>
        <time>2016-04-02T13:08:45Z</time>
      </trkpt>
      <trkpt lat="59.303251417504" lon="17.784051657339">
        <ele>3</ele>
        <time>2016-04-02T13:08:46Z</time>
      </trkpt>
      <trkpt lat="59.30359876344" lon="17.783143227017">
        <ele>3</ele>
        <time>2016-04-02T13:08:53Z</time>
      </trkpt>
      <trkpt lat="59.3037529904" lon="17.782756737608">
        <ele>3</ele>
        <time>2016-04-02T13:08:56Z</time>
      </trkpt>
      <trkpt lat="59.304135288859" lon="17.781910500984">
        <ele>3</ele>
        <time>2016-04-02T13:09:03Z</time>
      </trkpt>
      <trkpt lat="59.304190609399" lon="17.781793908755">
        <ele>3</ele>
        <time>2016-04-02T13:09:04Z</time>
      </trkpt>
      <trkpt lat="59.304600484309" lon="17.780989246355">
        <ele>3</ele>
        <time>2016-04-02T13:09:11Z</time>
      </trkpt>
      <trkpt lat="59.304661253084" lon="17.780871396841">
        <ele>3</ele>
        <time>2016-04-02T13:09:12Z</time>
      </trkpt>
      <trkpt lat="59.305086047776" lon="17.780129263415">
        <ele>3</ele>
        <time>2016-04-02T13:09:19Z</time>
      </trkpt>
      <trkpt lat="59.305486199682" lon="17.779411018404">
        <ele>3</ele>
        <time>2016-04-02T13:09:26Z</time>
      </trkpt>
      <trkpt lat="59.305694322259" lon="17.779081023001">
        <ele>2.6</ele>
        <time>2016-04-02T13:09:29Z</time>
      </trkpt>
      <trkpt lat="59.305765316952" lon="17.778985301703">
        <ele>2.2</ele>
        <time>2016-04-02T13:09:30Z</time>
      </trkpt>
      <trkpt lat="59.305837988025" lon="17.778903913454">
        <ele>1.6</ele>
        <time>2016-04-02T13:09:31Z</time>
      </trkpt>
      <trkpt lat="59.305915939695" lon="17.77881875335">
        <ele>1.2</ele>
        <time>2016-04-02T13:09:32Z</time>
      </trkpt>
      <trkpt lat="59.305994394279" lon="17.778731330133">
        <ele>0.8</ele>
        <time>2016-04-02T13:09:33Z</time>
      </trkpt>
      <trkpt lat="59.30629941162" lon="17.778433437407">
        <ele>0.8</ele>
        <time>2016-04-02T13:09:37Z</time>
      </trkpt>
      <trkpt lat="59.306828560967" lon="17.777862546198">
        <ele>0.8</ele>
        <time>2016-04-02T13:09:44Z</time>
      </trkpt>
      <trkpt lat="59.306965269756" lon="17.777661129141">
        <ele>0.8</ele>
        <time>2016-04-02T13:09:46Z</time>
      </trkpt>
      <trkpt lat="59.30710323583" lon="17.777467926346">
        <ele>0.8</ele>
        <time>2016-04-02T13:09:48Z</time>
      </trkpt>
      <trkpt lat="59.307181522776" lon="17.777396093463">
        <ele>0.8</ele>
        <time>2016-04-02T13:09:49Z</time>
      </trkpt>
      <trkpt lat="59.307687286622" lon="17.776889742884">
        <ele>0.8</ele>
        <time>2016-04-02T13:09:56Z</time>
      </trkpt>
      <trkpt lat="59.30783078475" lon="17.776745155109">
        <ele>0.8</ele>
        <time>2016-04-02T13:09:58Z</time>
      </trkpt>
      <trkpt lat="59.308315677665" lon="17.776238553073">
        <ele>0.8</ele>
        <time>2016-04-02T13:10:05Z</time>
      </trkpt>
      <trkpt lat="59.308548023933" lon="17.776007799366">
        <ele>1.2</ele>
        <time>2016-04-02T13:10:09Z</time>
      </trkpt>
      <trkpt lat="59.30858515575" lon="17.775948874609">
        <ele>1.6</ele>
        <time>2016-04-02T13:10:10Z</time>
      </trkpt>
      <trkpt lat="59.308646259801" lon="17.775931104981">
        <ele>2.6</ele>
        <time>2016-04-02T13:10:11Z</time>
      </trkpt>
      <trkpt lat="59.308709124051" lon="17.775901181598">
        <ele>3</ele>
        <time>2016-04-02T13:10:12Z</time>
      </trkpt>
      <trkpt lat="59.308772575034" lon="17.775855584062">
        <ele>3</ele>
        <time>2016-04-02T13:10:13Z</time>
      </trkpt>
      <trkpt lat="59.308824710452" lon="17.77579204926">
        <ele>3</ele>
        <time>2016-04-02T13:10:14Z</time>
      </trkpt>
      <trkpt lat="59.309004083112" lon="17.775611335496">
        <ele>3</ele>
        <time>2016-04-02T13:10:17Z</time>
      </trkpt>
      <trkpt lat="59.309377999671" lon="17.775255942936">
        <ele>3</ele>
        <time>2016-04-02T13:10:23Z</time>
      </trkpt>
      <trkpt lat="59.30986842464" lon="17.774844978379">
        <ele>3</ele>
        <time>2016-04-02T13:10:30Z</time>
      </trkpt>
      <trkpt lat="59.310398076901" lon="17.774470475087">
        <ele>3</ele>
        <time>2016-04-02T13:10:37Z</time>
      </trkpt>
      <trkpt lat="59.310937535985" lon="17.774148861584">
        <ele>3</ele>
        <time>2016-04-02T13:10:44Z</time>
      </trkpt>
      <trkpt lat="59.311090002746" lon="17.774050541897">
        <ele>3</ele>
        <time>2016-04-02T13:10:46Z</time>
      </trkpt>
      <trkpt lat="59.3116487402" lon="17.77369741245">
        <ele>3</ele>
        <time>2016-04-02T13:10:53Z</time>
      </trkpt>
      <trkpt lat="59.31181051087" lon="17.77359850603">
        <ele>3</ele>
        <time>2016-04-02T13:10:55Z</time>
      </trkpt>
      <trkpt lat="59.312370086514" lon="17.773230792077">
        <ele>3</ele>
        <time>2016-04-02T13:11:02Z</time>
      </trkpt>
      <trkpt lat="59.312609389759" lon="17.773079498782">
        <ele>3</ele>
        <time>2016-04-02T13:11:05Z</time>
      </trkpt>
      <trkpt lat="59.312760347778" lon="17.772977826335">
        <ele>3.4</ele>
        <time>2016-04-02T13:11:07Z</time>
      </trkpt>
      <trkpt lat="59.312835449602" lon="17.772925020365">
        <ele>3.8</ele>
        <time>2016-04-02T13:11:08Z</time>
      </trkpt>
      <trkpt lat="59.312908372132" lon="17.772877494992">
        <ele>4.2</ele>
        <time>2016-04-02T13:11:09Z</time>
      </trkpt>
      <trkpt lat="59.312982887223" lon="17.772829131429">
        <ele>4.6</ele>
        <time>2016-04-02T13:11:10Z</time>
      </trkpt>
      <trkpt lat="59.313058072866" lon="17.772777582744">
        <ele>5</ele>
        <time>2016-04-02T13:11:11Z</time>
      </trkpt>
      <trkpt lat="59.313365520958" lon="17.772587229795">
        <ele>5</ele>
        <time>2016-04-02T13:11:15Z</time>
      </trkpt>
      <trkpt lat="59.313871452442" lon="17.772258324039">
        <ele>5</ele>
        <time>2016-04-02T13:11:22Z</time>
      </trkpt>
      <trkpt lat="59.313945967533" lon="17.772211636856">
        <ele>5</ele>
        <time>2016-04-02T13:11:23Z</time>
      </trkpt>
      <trkpt lat="59.314093991887" lon="17.772126309114">
        <ele>5.6</ele>
        <time>2016-04-02T13:11:25Z</time>
      </trkpt>
      <trkpt lat="59.314164651304" lon="17.772080711578">
        <ele>6.4</ele>
        <time>2016-04-02T13:11:26Z</time>
      </trkpt>
      <trkpt lat="59.314236568006" lon="17.772031677463">
        <ele>6.8</ele>
        <time>2016-04-02T13:11:27Z</time>
      </trkpt>
      <trkpt lat="59.314308400889" lon="17.771992701628">
        <ele>7.4</ele>
        <time>2016-04-02T13:11:28Z</time>
      </trkpt>
      <trkpt lat="59.314440331995" lon="17.771898237615">
        <ele>7.4</ele>
        <time>2016-04-02T13:11:30Z</time>
      </trkpt>
      <trkpt lat="59.314897899916" lon="17.771545611082">
        <ele>7.4</ele>
        <time>2016-04-02T13:11:37Z</time>
      </trkpt>
      <trkpt lat="59.314961937632" lon="17.771489787628">
        <ele>7.8</ele>
        <time>2016-04-02T13:11:38Z</time>
      </trkpt>
      <trkpt lat="59.315025137158" lon="17.771431701061">
        <ele>8.2</ele>
        <time>2016-04-02T13:11:39Z</time>
      </trkpt>
      <trkpt lat="59.315088755779" lon="17.771381912575">
        <ele>8.6</ele>
        <time>2016-04-02T13:11:40Z</time>
      </trkpt>
      <trkpt lat="59.315149943649" lon="17.771324580379">
        <ele>9</ele>
        <time>2016-04-02T13:11:41Z</time>
      </trkpt>
      <trkpt lat="59.315214987193" lon="17.771279737214">
        <ele>9.4</ele>
        <time>2016-04-02T13:11:42Z</time>
      </trkpt>
      <trkpt lat="59.315288328818" lon="17.771235229325">
        <ele>9.4</ele>
        <time>2016-04-02T13:11:43Z</time>
      </trkpt>
      <trkpt lat="59.315358066226" lon="17.771213604023">
        <ele>9.4</ele>
        <time>2016-04-02T13:11:44Z</time>
      </trkpt>
      <trkpt lat="59.31549938506" lon="17.771155601275">
        <ele>9.8</ele>
        <time>2016-04-02T13:11:46Z</time>
      </trkpt>
      <trkpt lat="59.315572894323" lon="17.771133221602">
        <ele>10.2</ele>
        <time>2016-04-02T13:11:47Z</time>
      </trkpt>
      <trkpt lat="59.31564355374" lon="17.771100113097">
        <ele>10.6</ele>
        <time>2016-04-02T13:11:48Z</time>
      </trkpt>
      <trkpt lat="59.315711279492" lon="17.771064070927">
        <ele>11</ele>
        <time>2016-04-02T13:11:49Z</time>
      </trkpt>
      <trkpt lat="59.315779256701" lon="17.771021742332">
        <ele>11.4</ele>
        <time>2016-04-02T13:11:50Z</time>
      </trkpt>
      <trkpt lat="59.316030965158" lon="17.770860642214">
        <ele>12</ele>
        <time>2016-04-02T13:11:54Z</time>
      </trkpt>
      <trkpt lat="59.316094080865" lon="17.77082158256">
        <ele>12.4</ele>
        <time>2016-04-02T13:11:55Z</time>
      </trkpt>
      <trkpt lat="59.316159543504" lon="17.770779924517">
        <ele>12.8</ele>
        <time>2016-04-02T13:11:56Z</time>
      </trkpt>
      <trkpt lat="59.316220982831" lon="17.770734159343">
        <ele>13.2</ele>
        <time>2016-04-02T13:11:57Z</time>
      </trkpt>
      <trkpt lat="59.316287954212" lon="17.770699709734">
        <ele>13.6</ele>
        <time>2016-04-02T13:11:58Z</time>
      </trkpt>
      <trkpt lat="59.316541674325" lon="17.770532071734">
        <ele>13.6</ele>
        <time>2016-04-02T13:12:02Z</time>
      </trkpt>
      <trkpt lat="59.317108290765" lon="17.770117000046">
        <ele>13.6</ele>
        <time>2016-04-02T13:12:11Z</time>
      </trkpt>
      <trkpt lat="59.317527050489" lon="17.769763535323">
        <ele>13.6</ele>
        <time>2016-04-02T13:12:17Z</time>
      </trkpt>
      <trkpt lat="59.318070532885" lon="17.769288616869">
        <ele>13.6</ele>
        <time>2016-04-02T13:12:24Z</time>
      </trkpt>
      <trkpt lat="59.3185889534" lon="17.768714456719">
        <ele>13.6</ele>
        <time>2016-04-02T13:12:31Z</time>
      </trkpt>
      <trkpt lat="59.318966557995" lon="17.768091430092">
        <ele>13.6</ele>
        <time>2016-04-02T13:12:37Z</time>
      </trkpt>
      <trkpt lat="59.319353550318" lon="17.76737159252">
        <ele>13.6</ele>
        <time>2016-04-02T13:12:44Z</time>
      </trkpt>
      <trkpt lat="59.31966435117" lon="17.766777818724">
        <ele>13.6</ele>
        <time>2016-04-02T13:12:50Z</time>
      </trkpt>
      <trkpt lat="59.319953107625" lon="17.766217237252">
        <ele>13.6</ele>
        <time>2016-04-02T13:12:56Z</time>
      </trkpt>
      <trkpt lat="59.320146813334" lon="17.765850529127">
        <ele>14.2</ele>
        <time>2016-04-02T13:13:00Z</time>
      </trkpt>
      <trkpt lat="59.32019324906" lon="17.765763357367">
        <ele>14.6</ele>
        <time>2016-04-02T13:13:01Z</time>
      </trkpt>
      <trkpt lat="59.320234823284" lon="17.765673587218">
        <ele>15</ele>
        <time>2016-04-02T13:13:02Z</time>
      </trkpt>
      <trkpt lat="59.32027622987" lon="17.765587169829">
        <ele>15.4</ele>
        <time>2016-04-02T13:13:03Z</time>
      </trkpt>
      <trkpt lat="59.320319312836" lon="17.765500417164">
        <ele>16</ele>
        <time>2016-04-02T13:13:04Z</time>
      </trkpt>
      <trkpt lat="59.320627850575" lon="17.764887867912">
        <ele>16</ele>
        <time>2016-04-02T13:13:11Z</time>
      </trkpt>
      <trkpt lat="59.320721141122" lon="17.764706232139">
        <ele>16.4</ele>
        <time>2016-04-02T13:13:13Z</time>
      </trkpt>
      <trkpt lat="59.320763637355" lon="17.764616042895">
        <ele>16.8</ele>
        <time>2016-04-02T13:13:14Z</time>
      </trkpt>
      <trkpt lat="59.320806720321" lon="17.764529709325">
        <ele>17.2</ele>
        <time>2016-04-02T13:13:15Z</time>
      </trkpt>
      <trkpt lat="59.320850054744" lon="17.76443876571">
        <ele>17.6</ele>
        <time>2016-04-02T13:13:16Z</time>
      </trkpt>
      <trkpt lat="59.320894981728" lon="17.764346480991">
        <ele>18</ele>
        <time>2016-04-02T13:13:17Z</time>
      </trkpt>
      <trkpt lat="59.320976705253" lon="17.764160821906">
        <ele>18</ele>
        <time>2016-04-02T13:13:19Z</time>
      </trkpt>
      <trkpt lat="59.321069660524" lon="17.763978515581">
        <ele>18</ele>
        <time>2016-04-02T13:13:21Z</time>
      </trkpt>
      <trkpt lat="59.3212124881" lon="17.763737033042">
        <ele>18.4</ele>
        <time>2016-04-02T13:13:24Z</time>
      </trkpt>
      <trkpt lat="59.321263114776" lon="17.763681712502">
        <ele>18.8</ele>
        <time>2016-04-02T13:13:25Z</time>
      </trkpt>
      <trkpt lat="59.321305024276" lon="17.763604682841">
        <ele>19.2</ele>
        <time>2016-04-02T13:13:26Z</time>
      </trkpt>
      <trkpt lat="59.321345257396" lon="17.763523294592">
        <ele>19.6</ele>
        <time>2016-04-02T13:13:27Z</time>
      </trkpt>
      <trkpt lat="59.321385658154" lon="17.763441403429">
        <ele>20</ele>
        <time>2016-04-02T13:13:28Z</time>
      </trkpt>
      <trkpt lat="59.321424214894" lon="17.763369822003">
        <ele>20.4</ele>
        <time>2016-04-02T13:13:29Z</time>
      </trkpt>
      <trkpt lat="59.321465370023" lon="17.763308382676">
        <ele>20.8</ele>
        <time>2016-04-02T13:13:30Z</time>
      </trkpt>
      <trkpt lat="59.321497556519" lon="17.763242417123">
        <ele>21.4</ele>
        <time>2016-04-02T13:13:31Z</time>
      </trkpt>
      <trkpt lat="59.321540639485" lon="17.763182905633">
        <ele>21.8</ele>
        <time>2016-04-02T13:13:32Z</time>
      </trkpt>
      <trkpt lat="59.321566623375" lon="17.763110905112">
        <ele>22.2</ele>
        <time>2016-04-02T13:13:33Z</time>
      </trkpt>
      <trkpt lat="59.321599228966" lon="17.763036892935">
        <ele>22.2</ele>
        <time>2016-04-02T13:13:34Z</time>
      </trkpt>
      <trkpt lat="59.321932744767" lon="17.762342703977">
        <ele>22.2</ele>
        <time>2016-04-02T13:13:42Z</time>
      </trkpt>
      <trkpt lat="59.321972894068" lon="17.762245557756">
        <ele>22.6</ele>
        <time>2016-04-02T13:13:43Z</time>
      </trkpt>
      <trkpt lat="59.322019162156" lon="17.762146818974">
        <ele>23</ele>
        <time>2016-04-02T13:13:44Z</time>
      </trkpt>
      <trkpt lat="59.32206660371" lon="17.762052606418">
        <ele>23.6</ele>
        <time>2016-04-02T13:13:45Z</time>
      </trkpt>
      <trkpt lat="59.322102562061" lon="17.761952610351">
        <ele>24</ele>
        <time>2016-04-02T13:13:46Z</time>
      </trkpt>
      <trkpt lat="59.32214874633" lon="17.761855380311">
        <ele>24.4</ele>
        <time>2016-04-02T13:13:47Z</time>
      </trkpt>
      <trkpt lat="59.322242372153" lon="17.76165178396">
        <ele>24.4</ele>
        <time>2016-04-02T13:13:49Z</time>
      </trkpt>
      <trkpt lat="59.322381092598" lon="17.761333942312">
        <ele>24.4</ele>
        <time>2016-04-02T13:13:52Z</time>
      </trkpt>
      <trkpt lat="59.3224278636" lon="17.761228665648">
        <ele>24</ele>
        <time>2016-04-02T13:13:53Z</time>
      </trkpt>
      <trkpt lat="59.322477149172" lon="17.761128082848">
        <ele>23.2</ele>
        <time>2016-04-02T13:13:54Z</time>
      </trkpt>
      <trkpt lat="59.322523920174" lon="17.761028086781">
        <ele>22.8</ele>
        <time>2016-04-02T13:13:55Z</time>
      </trkpt>
      <trkpt lat="59.322569433891" lon="17.760924486497">
        <ele>22.4</ele>
        <time>2016-04-02T13:13:56Z</time>
      </trkpt>
      <trkpt lat="59.322711088001" lon="17.760597927673">
        <ele>22.4</ele>
        <time>2016-04-02T13:13:59Z</time>
      </trkpt>
      <trkpt lat="59.322799433227" lon="17.760348649967">
        <ele>22</ele>
        <time>2016-04-02T13:14:01Z</time>
      </trkpt>
      <trkpt lat="59.322836732682" lon="17.76021596449">
        <ele>21.6</ele>
        <time>2016-04-02T13:14:02Z</time>
      </trkpt>
      <trkpt lat="59.322868583902" lon="17.760067269584">
        <ele>21.2</ele>
        <time>2016-04-02T13:14:03Z</time>
      </trkpt>
      <trkpt lat="59.322898172009" lon="17.75990667238">
        <ele>20.6</ele>
        <time>2016-04-02T13:14:04Z</time>
      </trkpt>
      <trkpt lat="59.322934465636" lon="17.759741884226">
        <ele>20.2</ele>
        <time>2016-04-02T13:14:05Z</time>
      </trkpt>
      <trkpt lat="59.322969753435" lon="17.75955630896">
        <ele>19.6</ele>
        <time>2016-04-02T13:14:06Z</time>
      </trkpt>
      <trkpt lat="59.322998084257" lon="17.759366375106">
        <ele>19</ele>
        <time>2016-04-02T13:14:07Z</time>
      </trkpt>
      <trkpt lat="59.323029013468" lon="17.759176692709">
        <ele>18.2</ele>
        <time>2016-04-02T13:14:08Z</time>
      </trkpt>
      <trkpt lat="59.323058853032" lon="17.758986088303">
        <ele>17.6</ele>
        <time>2016-04-02T13:14:09Z</time>
      </trkpt>
      <trkpt lat="59.323081316524" lon="17.758790370938">
        <ele>16.8</ele>
        <time>2016-04-02T13:14:10Z</time>
      </trkpt>
      <trkpt lat="59.32309757741" lon="17.758597754876">
        <ele>16.2</ele>
        <time>2016-04-02T13:14:11Z</time>
      </trkpt>
      <trkpt lat="59.323102103636" lon="17.758408156298">
        <ele>15.4</ele>
        <time>2016-04-02T13:14:12Z</time>
      </trkpt>
      <trkpt lat="59.323104702025" lon="17.758228699819">
        <ele>14.8</ele>
        <time>2016-04-02T13:14:13Z</time>
      </trkpt>
      <trkpt lat="59.323105707853" lon="17.758046309675">
        <ele>14.2</ele>
        <time>2016-04-02T13:14:14Z</time>
      </trkpt>
      <trkpt lat="59.323103863835" lon="17.757870205956">
        <ele>13.6</ele>
        <time>2016-04-02T13:14:15Z</time>
      </trkpt>
      <trkpt lat="59.323097912686" lon="17.757005277695">
        <ele>13.6</ele>
        <time>2016-04-02T13:14:20Z</time>
      </trkpt>
      <trkpt lat="59.323076538841" lon="17.755783531951">
        <ele>13.6</ele>
        <time>2016-04-02T13:14:27Z</time>
      </trkpt>
      <trkpt lat="59.323053069521" lon="17.754563881682">
        <ele>13.6</ele>
        <time>2016-04-02T13:14:34Z</time>
      </trkpt>
      <trkpt lat="59.323058350118" lon="17.75438802942">
        <ele>13.2</ele>
        <time>2016-04-02T13:14:35Z</time>
      </trkpt>
      <trkpt lat="59.323060948507" lon="17.754207315656">
        <ele>12.8</ele>
        <time>2016-04-02T13:14:36Z</time>
      </trkpt>
      <trkpt lat="59.323062121973" lon="17.754041186398">
        <ele>12.2</ele>
        <time>2016-04-02T13:14:37Z</time>
      </trkpt>
      <trkpt lat="59.323061283783" lon="17.753881427384">
        <ele>11.8</ele>
        <time>2016-04-02T13:14:38Z</time>
      </trkpt>
      <trkpt lat="59.323053404797" lon="17.75372250656">
        <ele>11.4</ele>
        <time>2016-04-02T13:14:39Z</time>
      </trkpt>
      <trkpt lat="59.323049716761" lon="17.753577834966">
        <ele>11.4</ele>
        <time>2016-04-02T13:14:40Z</time>
      </trkpt>
      <trkpt lat="59.323043430336" lon="17.752868558588">
        <ele>11.4</ele>
        <time>2016-04-02T13:14:45Z</time>
      </trkpt>
      <trkpt lat="59.323053069521" lon="17.752728077944">
        <ele>11.4</ele>
        <time>2016-04-02T13:14:46Z</time>
      </trkpt>
      <trkpt lat="59.323088441139" lon="17.752317783939">
        <ele>11.4</ele>
        <time>2016-04-02T13:14:49Z</time>
      </trkpt>
      <trkpt lat="59.323149629009" lon="17.751917212938">
        <ele>11.4</ele>
        <time>2016-04-02T13:14:52Z</time>
      </trkpt>
      <trkpt lat="59.323257084967" lon="17.751372808533">
        <ele>11.4</ele>
        <time>2016-04-02T13:14:57Z</time>
      </trkpt>
      <trkpt lat="59.323318440475" lon="17.75104868046">
        <ele>11.4</ele>
        <time>2016-04-02T13:15:00Z</time>
      </trkpt>
      <trkpt lat="59.323350375514" lon="17.750930076575">
        <ele>11.4</ele>
        <time>2016-04-02T13:15:01Z</time>
      </trkpt>
      <trkpt lat="59.323607951301" lon="17.75011745137">
        <ele>11.4</ele>
        <time>2016-04-02T13:15:08Z</time>
      </trkpt>
      <trkpt lat="59.323868963667" lon="17.749445139171">
        <ele>11.4</ele>
        <time>2016-04-02T13:15:14Z</time>
      </trkpt>
      <trkpt lat="59.323918668334" lon="17.74934464019">
        <ele>11.4</ele>
        <time>2016-04-02T13:15:15Z</time>
      </trkpt>
      <trkpt lat="59.324008857578" lon="17.749133751586">
        <ele>11</ele>
        <time>2016-04-02T13:15:17Z</time>
      </trkpt>
      <trkpt lat="59.324055712399" lon="17.749031408587">
        <ele>10.6</ele>
        <time>2016-04-02T13:15:18Z</time>
      </trkpt>
      <trkpt lat="59.324099633555" lon="17.748925880466">
        <ele>10.2</ele>
        <time>2016-04-02T13:15:19Z</time>
      </trkpt>
      <trkpt lat="59.324145482548" lon="17.748828482788">
        <ele>9.6</ele>
        <time>2016-04-02T13:15:20Z</time>
      </trkpt>
      <trkpt lat="59.324193259378" lon="17.748716919699">
        <ele>9.2</ele>
        <time>2016-04-02T13:15:21Z</time>
      </trkpt>
      <trkpt lat="59.324269199392" lon="17.748511982244">
        <ele>9.2</ele>
        <time>2016-04-02T13:15:23Z</time>
      </trkpt>
      <trkpt lat="59.324332734194" lon="17.748282821098">
        <ele>9.2</ele>
        <time>2016-04-02T13:15:25Z</time>
      </trkpt>
      <trkpt lat="59.324396101358" lon="17.748058269997">
        <ele>8.8</ele>
        <time>2016-04-02T13:15:27Z</time>
      </trkpt>
      <trkpt lat="59.324433484632" lon="17.74795492117">
        <ele>8.4</ele>
        <time>2016-04-02T13:15:28Z</time>
      </trkpt>
      <trkpt lat="59.324470951725" lon="17.747850566515">
        <ele>8</ele>
        <time>2016-04-02T13:15:29Z</time>
      </trkpt>
      <trkpt lat="59.324514621424" lon="17.747759874357">
        <ele>7.6</ele>
        <time>2016-04-02T13:15:30Z</time>
      </trkpt>
      <trkpt lat="59.324557452933" lon="17.747669517475">
        <ele>7</ele>
        <time>2016-04-02T13:15:31Z</time>
      </trkpt>
      <trkpt lat="59.324604559211" lon="17.747594080375">
        <ele>7</ele>
        <time>2016-04-02T13:15:32Z</time>
      </trkpt>
      <trkpt lat="59.324731796453" lon="17.747342120461">
        <ele>7</ele>
        <time>2016-04-02T13:15:35Z</time>
      </trkpt>
      <trkpt lat="59.324792984323" lon="17.747134500798">
        <ele>7</ele>
        <time>2016-04-02T13:15:37Z</time>
      </trkpt>
      <trkpt lat="59.32480580863" lon="17.747013214705">
        <ele>7</ele>
        <time>2016-04-02T13:15:38Z</time>
      </trkpt>
      <trkpt lat="59.324830702873" lon="17.746879858676">
        <ele>7</ele>
        <time>2016-04-02T13:15:39Z</time>
      </trkpt>
      <trkpt lat="59.324832798348" lon="17.746727056639">
        <ele>7</ele>
        <time>2016-04-02T13:15:40Z</time>
      </trkpt>
      <trkpt lat="59.324864398111" lon="17.746414579407">
        <ele>7</ele>
        <time>2016-04-02T13:15:42Z</time>
      </trkpt>
      <trkpt lat="59.324892896571" lon="17.745816782299">
        <ele>7</ele>
        <time>2016-04-02T13:15:46Z</time>
      </trkpt>
      <trkpt lat="59.324915024787" lon="17.744669300189">
        <ele>7</ele>
        <time>2016-04-02T13:15:54Z</time>
      </trkpt>
      <trkpt lat="59.324924999248" lon="17.744241320375">
        <ele>7</ele>
        <time>2016-04-02T13:15:57Z</time>
      </trkpt>
      <trkpt lat="59.324942852695" lon="17.743950803721">
        <ele>7</ele>
        <time>2016-04-02T13:15:59Z</time>
      </trkpt>
      <trkpt lat="59.324992641181" lon="17.742918908012">
        <ele>7</ele>
        <time>2016-04-02T13:16:06Z</time>
      </trkpt>
      <trkpt lat="59.325014098845" lon="17.741832278496">
        <ele>7</ele>
        <time>2016-04-02T13:16:13Z</time>
      </trkpt>
      <trkpt lat="59.325023570392" lon="17.741355516024">
        <ele>7</ele>
        <time>2016-04-02T13:16:16Z</time>
      </trkpt>
      <trkpt lat="59.325052487947" lon="17.740222534601">
        <ele>7</ele>
        <time>2016-04-02T13:16:23Z</time>
      </trkpt>
      <trkpt lat="59.325068078281" lon="17.739736384401">
        <ele>6.6</ele>
        <time>2016-04-02T13:16:26Z</time>
      </trkpt>
      <trkpt lat="59.325072855964" lon="17.739583330907">
        <ele>6.2</ele>
        <time>2016-04-02T13:16:27Z</time>
      </trkpt>
      <trkpt lat="59.325080651131" lon="17.739417704563">
        <ele>5.8</ele>
        <time>2016-04-02T13:16:28Z</time>
      </trkpt>
      <trkpt lat="59.325087775746" lon="17.739256855902">
        <ele>5.4</ele>
        <time>2016-04-02T13:16:29Z</time>
      </trkpt>
      <trkpt lat="59.325095067999" lon="17.739097348345">
        <ele>4.8</ele>
        <time>2016-04-02T13:16:30Z</time>
      </trkpt>
      <trkpt lat="59.325121387165" lon="17.738450936217">
        <ele>4.8</ele>
        <time>2016-04-02T13:16:34Z</time>
      </trkpt>
      <trkpt lat="59.325173438764" lon="17.737314434396">
        <ele>4.8</ele>
        <time>2016-04-02T13:16:41Z</time>
      </trkpt>
      <trkpt lat="59.325177378257" lon="17.736978236387">
        <ele>4.8</ele>
        <time>2016-04-02T13:16:43Z</time>
      </trkpt>
      <trkpt lat="59.325151897281" lon="17.735901581332">
        <ele>4.8</ele>
        <time>2016-04-02T13:16:50Z</time>
      </trkpt>
      <trkpt lat="59.325211408771" lon="17.735474188251">
        <ele>4.8</ele>
        <time>2016-04-02T13:16:53Z</time>
      </trkpt>
      <trkpt lat="59.32527687141" lon="17.735213092066">
        <ele>4.8</ele>
        <time>2016-04-02T13:16:55Z</time>
      </trkpt>
      <trkpt lat="59.325391619621" lon="17.734857028954">
        <ele>5.4</ele>
        <time>2016-04-02T13:16:58Z</time>
      </trkpt>
      <trkpt lat="59.325435876053" lon="17.734744711494">
        <ele>5.8</ele>
        <time>2016-04-02T13:16:59Z</time>
      </trkpt>
      <trkpt lat="59.325485748358" lon="17.734633902776">
        <ele>6.2</ele>
        <time>2016-04-02T13:17:00Z</time>
      </trkpt>
      <trkpt lat="59.325539895432" lon="17.734530973044">
        <ele>6.6</ele>
        <time>2016-04-02T13:17:01Z</time>
      </trkpt>
      <trkpt lat="59.325600999483" lon="17.734427121303">
        <ele>7</ele>
        <time>2016-04-02T13:17:02Z</time>
      </trkpt>
      <trkpt lat="59.325867124808" lon="17.733881040518">
        <ele>7</ele>
        <time>2016-04-02T13:17:07Z</time>
      </trkpt>
      <trkpt lat="59.325914398724" lon="17.733770483257">
        <ele>7</ele>
        <time>2016-04-02T13:17:08Z</time>
      </trkpt>
      <trkpt lat="59.326038199387" lon="17.733399919458">
        <ele>7</ele>
        <time>2016-04-02T13:17:11Z</time>
      </trkpt>
      <trkpt lat="59.326075079747" lon="17.733272682216">
        <ele>7</ele>
        <time>2016-04-02T13:17:12Z</time>
      </trkpt>
      <trkpt lat="59.326238526797" lon="17.732755267529">
        <ele>7</ele>
        <time>2016-04-02T13:17:16Z</time>
      </trkpt>
      <trkpt lat="59.326299127934" lon="17.732492494964">
        <ele>7</ele>
        <time>2016-04-02T13:17:18Z</time>
      </trkpt>
      <trkpt lat="59.326359226157" lon="17.732105167365">
        <ele>7</ele>
        <time>2016-04-02T13:17:21Z</time>
      </trkpt>
      <trkpt lat="59.32639334049" lon="17.731711804798">
        <ele>7</ele>
        <time>2016-04-02T13:17:24Z</time>
      </trkpt>
      <trkpt lat="59.326389065721" lon="17.731436291745">
        <ele>7.4</ele>
        <time>2016-04-02T13:17:26Z</time>
      </trkpt>
      <trkpt lat="59.326381438192" lon="17.731293631807">
        <ele>7.8</ele>
        <time>2016-04-02T13:17:27Z</time>
      </trkpt>
      <trkpt lat="59.326370793179" lon="17.731146026548">
        <ele>8.4</ele>
        <time>2016-04-02T13:17:28Z</time>
      </trkpt>
      <trkpt lat="59.326356041035" lon="17.731005545904">
        <ele>8.8</ele>
        <time>2016-04-02T13:17:29Z</time>
      </trkpt>
      <trkpt lat="59.326336930303" lon="17.730866909278">
        <ele>9.2</ele>
        <time>2016-04-02T13:17:30Z</time>
      </trkpt>
      <trkpt lat="59.326315891734" lon="17.730727350643">
        <ele>9.2</ele>
        <time>2016-04-02T13:17:31Z</time>
      </trkpt>
      <trkpt lat="59.32624246629" lon="17.729945989925">
        <ele>8.2</ele>
        <time>2016-04-02T13:17:36Z</time>
      </trkpt>
      <trkpt lat="59.32623576077" lon="17.729777262278">
        <ele>7.8</ele>
        <time>2016-04-02T13:17:37Z</time>
      </trkpt>
      <trkpt lat="59.326230061078" lon="17.729607361165">
        <ele>7.2</ele>
        <time>2016-04-02T13:17:38Z</time>
      </trkpt>
      <trkpt lat="59.326225618671" lon="17.729437711509">
        <ele>6.8</ele>
        <time>2016-04-02T13:17:39Z</time>
      </trkpt>
      <trkpt lat="59.326198796591" lon="17.728771769554">
        <ele>6.8</ele>
        <time>2016-04-02T13:17:43Z</time>
      </trkpt>
      <trkpt lat="59.326180524049" lon="17.728263742595">
        <ele>6.4</ele>
        <time>2016-04-02T13:17:46Z</time>
      </trkpt>
      <trkpt lat="59.326175662547" lon="17.728090572541">
        <ele>6</ele>
        <time>2016-04-02T13:17:47Z</time>
      </trkpt>
      <trkpt lat="59.326169376122" lon="17.727918995048">
        <ele>5.4</ele>
        <time>2016-04-02T13:17:48Z</time>
      </trkpt>
      <trkpt lat="59.32616200005" lon="17.727746495546">
        <ele>5</ele>
        <time>2016-04-02T13:17:49Z</time>
      </trkpt>
      <trkpt lat="59.326155378349" lon="17.727571481474">
        <ele>4.6</ele>
        <time>2016-04-02T13:17:50Z</time>
      </trkpt>
      <trkpt lat="59.326150349209" lon="17.727406944777">
        <ele>4.6</ele>
        <time>2016-04-02T13:17:51Z</time>
      </trkpt>
      <trkpt lat="59.326113971763" lon="17.726476721515">
        <ele>4.6</ele>
        <time>2016-04-02T13:17:57Z</time>
      </trkpt>
      <trkpt lat="59.326104584035" lon="17.726175056934">
        <ele>5</ele>
        <time>2016-04-02T13:17:59Z</time>
      </trkpt>
      <trkpt lat="59.326100476904" lon="17.726026864942">
        <ele>5.8</ele>
        <time>2016-04-02T13:18:00Z</time>
      </trkpt>
      <trkpt lat="59.326092514099" lon="17.725882612443">
        <ele>6.2</ele>
        <time>2016-04-02T13:18:01Z</time>
      </trkpt>
      <trkpt lat="59.326081282353" lon="17.725745149283">
        <ele>6.6</ele>
        <time>2016-04-02T13:18:02Z</time>
      </trkpt>
      <trkpt lat="59.326070050607" lon="17.725613469634">
        <ele>6.6</ele>
        <time>2016-04-02T13:18:03Z</time>
      </trkpt>
      <trkpt lat="59.326057142481" lon="17.724970158809">
        <ele>7</ele>
        <time>2016-04-02T13:18:08Z</time>
      </trkpt>
      <trkpt lat="59.326047503296" lon="17.724845939051">
        <ele>7.6</ele>
        <time>2016-04-02T13:18:09Z</time>
      </trkpt>
      <trkpt lat="59.326035852455" lon="17.724722725121">
        <ele>8</ele>
        <time>2016-04-02T13:18:10Z</time>
      </trkpt>
      <trkpt lat="59.326028057288" lon="17.724601606666">
        <ele>8.4</ele>
        <time>2016-04-02T13:18:11Z</time>
      </trkpt>
      <trkpt lat="59.326024117795" lon="17.724484092428">
        <ele>8.8</ele>
        <time>2016-04-02T13:18:12Z</time>
      </trkpt>
      <trkpt lat="59.326021854682" lon="17.724366242914">
        <ele>8.8</ele>
        <time>2016-04-02T13:18:13Z</time>
      </trkpt>
      <trkpt lat="59.326021603225" lon="17.724038175348">
        <ele>9.4</ele>
        <time>2016-04-02T13:18:16Z</time>
      </trkpt>
      <trkpt lat="59.326024201614" lon="17.723926109345">
        <ele>9.8</ele>
        <time>2016-04-02T13:18:17Z</time>
      </trkpt>
      <trkpt lat="59.326024285433" lon="17.723810690582">
        <ele>10.4</ele>
        <time>2016-04-02T13:18:18Z</time>
      </trkpt>
      <trkpt lat="59.326022525234" lon="17.723702647891">
        <ele>10.8</ele>
        <time>2016-04-02T13:18:19Z</time>
      </trkpt>
      <trkpt lat="59.326018585741" lon="17.723592342087">
        <ele>11.2</ele>
        <time>2016-04-02T13:18:20Z</time>
      </trkpt>
      <trkpt lat="59.32600609671" lon="17.723154387812">
        <ele>12.2</ele>
        <time>2016-04-02T13:18:24Z</time>
      </trkpt>
      <trkpt lat="59.326004085054" lon="17.723046764216">
        <ele>12.6</ele>
        <time>2016-04-02T13:18:25Z</time>
      </trkpt>
      <trkpt lat="59.326005845253" lon="17.722936877507">
        <ele>13</ele>
        <time>2016-04-02T13:18:26Z</time>
      </trkpt>
      <trkpt lat="59.326010874393" lon="17.722824476228">
        <ele>13.4</ele>
        <time>2016-04-02T13:18:27Z</time>
      </trkpt>
      <trkpt lat="59.32601196404" lon="17.722587519915">
        <ele>13.4</ele>
        <time>2016-04-02T13:18:29Z</time>
      </trkpt>
      <trkpt lat="59.326007689271" lon="17.722461456139">
        <ele>13.4</ele>
        <time>2016-04-02T13:18:30Z</time>
      </trkpt>
      <trkpt lat="59.325968461979" lon="17.721975641215">
        <ele>13.4</ele>
        <time>2016-04-02T13:18:34Z</time>
      </trkpt>
      <trkpt lat="59.325928480316" lon="17.721760561661">
        <ele>13.8</ele>
        <time>2016-04-02T13:18:36Z</time>
      </trkpt>
      <trkpt lat="59.325908531394" lon="17.721654446807">
        <ele>14.2</ele>
        <time>2016-04-02T13:18:37Z</time>
      </trkpt>
      <trkpt lat="59.325893863069" lon="17.721544476279">
        <ele>14.6</ele>
        <time>2016-04-02T13:18:38Z</time>
      </trkpt>
      <trkpt lat="59.325880703486" lon="17.721434170475">
        <ele>15.2</ele>
        <time>2016-04-02T13:18:39Z</time>
      </trkpt>
      <trkpt lat="59.325863939686" lon="17.721320847187">
        <ele>15.6</ele>
        <time>2016-04-02T13:18:40Z</time>
      </trkpt>
      <trkpt lat="59.325759920307" lon="17.720683738968">
        <ele>15.6</ele>
        <time>2016-04-02T13:18:45Z</time>
      </trkpt>
      <trkpt lat="59.32572111211" lon="17.720410908123">
        <ele>15.2</ele>
        <time>2016-04-02T13:18:47Z</time>
      </trkpt>
      <trkpt lat="59.325699738265" lon="17.720273193506">
        <ele>14.2</ele>
        <time>2016-04-02T13:18:48Z</time>
      </trkpt>
      <trkpt lat="59.325677945325" lon="17.72013623326">
        <ele>13.8</ele>
        <time>2016-04-02T13:18:49Z</time>
      </trkpt>
      <trkpt lat="59.325655230376" lon="17.719995501159">
        <ele>13.4</ele>
        <time>2016-04-02T13:18:50Z</time>
      </trkpt>
      <trkpt lat="59.325608878469" lon="17.71969953627">
        <ele>13.4</ele>
        <time>2016-04-02T13:18:52Z</time>
      </trkpt>
      <trkpt lat="59.325484574892" lon="17.718959498319">
        <ele>13</ele>
        <time>2016-04-02T13:18:57Z</time>
      </trkpt>
      <trkpt lat="59.325462362857" lon="17.718812815069">
        <ele>12.4</ele>
        <time>2016-04-02T13:18:58Z</time>
      </trkpt>
      <trkpt lat="59.325438055347" lon="17.718662024688">
        <ele>12</ele>
        <time>2016-04-02T13:18:59Z</time>
      </trkpt>
      <trkpt lat="59.325415256579" lon="17.718517772189">
        <ele>11.6</ele>
        <time>2016-04-02T13:19:00Z</time>
      </trkpt>
      <trkpt lat="59.32539170344" lon="17.718373938785">
        <ele>11.2</ele>
        <time>2016-04-02T13:19:01Z</time>
      </trkpt>
      <trkpt lat="59.325205289984" lon="17.717219080603">
        <ele>11.2</ele>
        <time>2016-04-02T13:19:09Z</time>
      </trkpt>
      <trkpt lat="59.325059947838" lon="17.716346273356">
        <ele>11.2</ele>
        <time>2016-04-02T13:19:15Z</time>
      </trkpt>
      <trkpt lat="59.324980068331" lon="17.715923993234">
        <ele>11.6</ele>
        <time>2016-04-02T13:19:18Z</time>
      </trkpt>
      <trkpt lat="59.324954922631" lon="17.715790721024">
        <ele>12</ele>
        <time>2016-04-02T13:19:19Z</time>
      </trkpt>
      <trkpt lat="59.324926424171" lon="17.715635069141">
        <ele>12.4</ele>
        <time>2016-04-02T13:19:20Z</time>
      </trkpt>
      <trkpt lat="59.324901613747" lon="17.715497857438">
        <ele>12.8</ele>
        <time>2016-04-02T13:19:21Z</time>
      </trkpt>
      <trkpt lat="59.324882335377" lon="17.715384031236">
        <ele>13.2</ele>
        <time>2016-04-02T13:19:22Z</time>
      </trkpt>
      <trkpt lat="59.324863057007" lon="17.715250004655">
        <ele>13.2</ele>
        <time>2016-04-02T13:19:23Z</time>
      </trkpt>
      <trkpt lat="59.324862386455" lon="17.714963930408">
        <ele>13.2</ele>
        <time>2016-04-02T13:19:25Z</time>
      </trkpt>
      <trkpt lat="59.324914018959" lon="17.714684058767">
        <ele>13.6</ele>
        <time>2016-04-02T13:19:27Z</time>
      </trkpt>
      <trkpt lat="59.324941679229" lon="17.714550702738">
        <ele>14</ele>
        <time>2016-04-02T13:19:28Z</time>
      </trkpt>
      <trkpt lat="59.324972273164" lon="17.714414077768">
        <ele>14.4</ele>
        <time>2016-04-02T13:19:29Z</time>
      </trkpt>
      <trkpt lat="59.325006219859" lon="17.714284745051">
        <ele>14.8</ele>
        <time>2016-04-02T13:19:30Z</time>
      </trkpt>
      <trkpt lat="59.325045950065" lon="17.714159770922">
        <ele>15.2</ele>
        <time>2016-04-02T13:19:31Z</time>
      </trkpt>
      <trkpt lat="59.325094313628" lon="17.714044771254">
        <ele>15.2</ele>
        <time>2016-04-02T13:19:32Z</time>
      </trkpt>
      <trkpt lat="59.325146784322" lon="17.713935974192">
        <ele>15.2</ele>
        <time>2016-04-02T13:19:33Z</time>
      </trkpt>
      <trkpt lat="59.325433361483" lon="17.713250586229">
        <ele>15.2</ele>
        <time>2016-04-02T13:19:39Z</time>
      </trkpt>
      <trkpt lat="59.325668138502" lon="17.712524713689">
        <ele>15.2</ele>
        <time>2016-04-02T13:19:45Z</time>
      </trkpt>
      <trkpt lat="59.325831166457" lon="17.712116347521">
        <ele>15.2</ele>
        <time>2016-04-02T13:19:49Z</time>
      </trkpt>
      <trkpt lat="59.325986063969" lon="17.711860364295">
        <ele>15.2</ele>
        <time>2016-04-02T13:19:52Z</time>
      </trkpt>
      <trkpt lat="59.326091340633" lon="17.711708987181">
        <ele>15.2</ele>
        <time>2016-04-02T13:19:54Z</time>
      </trkpt>
      <trkpt lat="59.326300636676" lon="17.711614606987">
        <ele>15.2</ele>
        <time>2016-04-02T13:19:57Z</time>
      </trkpt>
      <trkpt lat="59.32638328221" lon="17.711614606987">
        <ele>15.2</ele>
        <time>2016-04-02T13:19:58Z</time>
      </trkpt>
      <trkpt lat="59.326652676476" lon="17.711587365812">
        <ele>15.2</ele>
        <time>2016-04-02T13:20:01Z</time>
      </trkpt>
      <trkpt lat="59.326743955367" lon="17.711573200401">
        <ele>14.8</ele>
        <time>2016-04-02T13:20:02Z</time>
      </trkpt>
      <trkpt lat="59.326834898982" lon="17.711553922031">
        <ele>14</ele>
        <time>2016-04-02T13:20:03Z</time>
      </trkpt>
      <trkpt lat="59.326926764606" lon="17.711518382775">
        <ele>13.4</ele>
        <time>2016-04-02T13:20:04Z</time>
      </trkpt>
      <trkpt lat="59.327009242502" lon="17.711471527954">
        <ele>13</ele>
        <time>2016-04-02T13:20:05Z</time>
      </trkpt>
      <trkpt lat="59.327098761194" lon="17.711406735867">
        <ele>12.6</ele>
        <time>2016-04-02T13:20:06Z</time>
      </trkpt>
      <trkpt lat="59.327196410329" lon="17.711320821392">
        <ele>12.2</ele>
        <time>2016-04-02T13:20:07Z</time>
      </trkpt>
      <trkpt lat="59.327291209618" lon="17.711224680999">
        <ele>11.6</ele>
        <time>2016-04-02T13:20:08Z</time>
      </trkpt>
      <trkpt lat="59.327384583984" lon="17.711121415991">
        <ele>11</ele>
        <time>2016-04-02T13:20:09Z</time>
      </trkpt>
      <trkpt lat="59.327483658042" lon="17.71101169692">
        <ele>10.2</ele>
        <time>2016-04-02T13:20:10Z</time>
      </trkpt>
      <trkpt lat="59.327583151195" lon="17.710896278157">
        <ele>9.4</ele>
        <time>2016-04-02T13:20:11Z</time>
      </trkpt>
      <trkpt lat="59.327681219425" lon="17.71077616553">
        <ele>8.6</ele>
        <time>2016-04-02T13:20:12Z</time>
      </trkpt>
      <trkpt lat="59.327782975691" lon="17.710648173917">
        <ele>7.6</ele>
        <time>2016-04-02T13:20:13Z</time>
      </trkpt>
      <trkpt lat="59.327879367541" lon="17.710526468729">
        <ele>6.6</ele>
        <time>2016-04-02T13:20:14Z</time>
      </trkpt>
      <trkpt lat="59.327973244821" lon="17.710407948663">
        <ele>5.6</ele>
        <time>2016-04-02T13:20:15Z</time>
      </trkpt>
      <trkpt lat="59.328066032454" lon="17.710294709194">
        <ele>4.8</ele>
        <time>2016-04-02T13:20:16Z</time>
      </trkpt>
      <trkpt lat="59.32815353949" lon="17.710185073942">
        <ele>3.8</ele>
        <time>2016-04-02T13:20:17Z</time>
      </trkpt>
      <trkpt lat="59.328590907032" lon="17.709675957336">
        <ele>3.8</ele>
        <time>2016-04-02T13:20:22Z</time>
      </trkpt>
      <trkpt lat="59.329086947874" lon="17.709081932083">
        <ele>3.8</ele>
        <time>2016-04-02T13:20:28Z</time>
      </trkpt>
      <trkpt lat="59.329171521245" lon="17.708986043147">
        <ele>3.8</ele>
        <time>2016-04-02T13:20:29Z</time>
      </trkpt>
      <trkpt lat="59.329607463864" lon="17.70849628873">
        <ele>3.8</ele>
        <time>2016-04-02T13:20:34Z</time>
      </trkpt>
      <trkpt lat="59.329765797955" lon="17.708258326589">
        <ele>3.8</ele>
        <time>2016-04-02T13:20:36Z</time>
      </trkpt>
      <trkpt lat="59.329843079073" lon="17.708128742415">
        <ele>3.4</ele>
        <time>2016-04-02T13:20:37Z</time>
      </trkpt>
      <trkpt lat="59.329912816481" lon="17.708008545969">
        <ele>3</ele>
        <time>2016-04-02T13:20:38Z</time>
      </trkpt>
      <trkpt lat="59.329979536405" lon="17.707890780274">
        <ele>2.6</ele>
        <time>2016-04-02T13:20:39Z</time>
      </trkpt>
      <trkpt lat="59.330043238845" lon="17.707775529149">
        <ele>2.2</ele>
        <time>2016-04-02T13:20:40Z</time>
      </trkpt>
      <trkpt lat="59.330104594353" lon="17.707664888069">
        <ele>1.8</ele>
        <time>2016-04-02T13:20:41Z</time>
      </trkpt>
      <trkpt lat="59.330164692576" lon="17.707562042156">
        <ele>1.8</ele>
        <time>2016-04-02T13:20:42Z</time>
      </trkpt>
      <trkpt lat="59.330278854054" lon="17.707360038366">
        <ele>2.2</ele>
        <time>2016-04-02T13:20:44Z</time>
      </trkpt>
      <trkpt lat="59.330333168766" lon="17.70726079667">
        <ele>2.6</ele>
        <time>2016-04-02T13:20:45Z</time>
      </trkpt>
      <trkpt lat="59.330386142374" lon="17.707162812259">
        <ele>3</ele>
        <time>2016-04-02T13:20:46Z</time>
      </trkpt>
      <trkpt lat="59.330439954172" lon="17.707060385441">
        <ele>3.6</ele>
        <time>2016-04-02T13:20:47Z</time>
      </trkpt>
      <trkpt lat="59.330494101246" lon="17.706963993591">
        <ele>4</ele>
        <time>2016-04-02T13:20:48Z</time>
      </trkpt>
      <trkpt lat="59.330543386818" lon="17.706861985868">
        <ele>4</ele>
        <time>2016-04-02T13:20:49Z</time>
      </trkpt>
      <trkpt lat="59.330629049836" lon="17.706681188285">
        <ele>5</ele>
        <time>2016-04-02T13:20:51Z</time>
      </trkpt>
      <trkpt lat="59.330672384259" lon="17.706598039837">
        <ele>5.4</ele>
        <time>2016-04-02T13:20:52Z</time>
      </trkpt>
      <trkpt lat="59.33071504813" lon="17.706532158103">
        <ele>6</ele>
        <time>2016-04-02T13:20:53Z</time>
      </trkpt>
      <trkpt lat="59.330758298734" lon="17.70646954531">
        <ele>6.6</ele>
        <time>2016-04-02T13:20:54Z</time>
      </trkpt>
      <trkpt lat="59.330802471347" lon="17.706412213114">
        <ele>7.2</ele>
        <time>2016-04-02T13:20:55Z</time>
      </trkpt>
      <trkpt lat="59.330845470494" lon="17.706351444339">
        <ele>7.8</ele>
        <time>2016-04-02T13:20:56Z</time>
      </trkpt>
      <trkpt lat="59.33088771527" lon="17.706286233157">
        <ele>8.4</ele>
        <time>2016-04-02T13:20:57Z</time>
      </trkpt>
      <trkpt lat="59.330927445476" lon="17.706221357251">
        <ele>9.2</ele>
        <time>2016-04-02T13:20:58Z</time>
      </trkpt>
      <trkpt lat="59.330969774071" lon="17.706151536024">
        <ele>9.6</ele>
        <time>2016-04-02T13:20:59Z</time>
      </trkpt>
      <trkpt lat="59.331009923372" lon="17.70608397791">
        <ele>10</ele>
        <time>2016-04-02T13:21:00Z</time>
      </trkpt>
      <trkpt lat="59.331050156492" lon="17.706009127543">
        <ele>10.6</ele>
        <time>2016-04-02T13:21:01Z</time>
      </trkpt>
      <trkpt lat="59.331089048508" lon="17.705932181701">
        <ele>11</ele>
        <time>2016-04-02T13:21:02Z</time>
      </trkpt>
      <trkpt lat="59.33112492304" lon="17.705851715461">
        <ele>11.4</ele>
        <time>2016-04-02T13:21:03Z</time>
      </trkpt>
      <trkpt lat="59.331258279069" lon="17.705504034249">
        <ele>11.4</ele>
        <time>2016-04-02T13:21:07Z</time>
      </trkpt>
      <trkpt lat="59.331349977055" lon="17.705217457088">
        <ele>11.4</ele>
        <time>2016-04-02T13:21:10Z</time>
      </trkpt>
      <trkpt lat="59.331391718917" lon="17.704981003689">
        <ele>11.4</ele>
        <time>2016-04-02T13:21:12Z</time>
      </trkpt>
      <trkpt lat="59.331393395297" lon="17.704589568959">
        <ele>11.4</ele>
        <time>2016-04-02T13:21:15Z</time>
      </trkpt>
      <trkpt lat="59.331386019225" lon="17.704448250125">
        <ele>11.4</ele>
        <time>2016-04-02T13:21:16Z</time>
      </trkpt>
      <trkpt lat="59.331376044764" lon="17.704299806676">
        <ele>11</ele>
        <time>2016-04-02T13:21:17Z</time>
      </trkpt>
      <trkpt lat="59.331359448602" lon="17.704152033779">
        <ele>10.6</ele>
        <time>2016-04-02T13:21:18Z</time>
      </trkpt>
      <trkpt lat="59.331343439173" lon="17.703997974457">
        <ele>10.2</ele>
        <time>2016-04-02T13:21:19Z</time>
      </trkpt>
      <trkpt lat="59.331328184115" lon="17.70384349604">
        <ele>9.8</ele>
        <time>2016-04-02T13:21:20Z</time>
      </trkpt>
      <trkpt lat="59.331313683428" lon="17.703687927976">
        <ele>9.4</ele>
        <time>2016-04-02T13:21:21Z</time>
      </trkpt>
      <trkpt lat="59.331288286271" lon="17.703326668086">
        <ele>9.4</ele>
        <time>2016-04-02T13:21:24Z</time>
      </trkpt>
      <trkpt lat="59.331296081438" lon="17.702979154512">
        <ele>9.4</ele>
        <time>2016-04-02T13:21:28Z</time>
      </trkpt>
      <trkpt lat="59.331343271535" lon="17.702466433689">
        <ele>9</ele>
        <time>2016-04-02T13:21:32Z</time>
      </trkpt>
      <trkpt lat="59.331346289019" lon="17.702324444303">
        <ele>8.6</ele>
        <time>2016-04-02T13:21:33Z</time>
      </trkpt>
      <trkpt lat="59.331348552132" lon="17.702184047478">
        <ele>8.2</ele>
        <time>2016-04-02T13:21:34Z</time>
      </trkpt>
      <trkpt lat="59.331352994539" lon="17.70204222573">
        <ele>7.8</ele>
        <time>2016-04-02T13:21:35Z</time>
      </trkpt>
      <trkpt lat="59.331358861869" lon="17.701890764797">
        <ele>7.4</ele>
        <time>2016-04-02T13:21:36Z</time>
      </trkpt>
      <trkpt lat="59.331367746683" lon="17.701607456577">
        <ele>7.4</ele>
        <time>2016-04-02T13:21:38Z</time>
      </trkpt>
      <trkpt lat="59.33141912773" lon="17.700451592567">
        <ele>7.4</ele>
        <time>2016-04-02T13:21:46Z</time>
      </trkpt>
      <trkpt lat="59.331423234861" lon="17.700299544901">
        <ele>7.4</ele>
        <time>2016-04-02T13:21:47Z</time>
      </trkpt>
      <trkpt lat="59.33140152574" lon="17.699213502118">
        <ele>7.4</ele>
        <time>2016-04-02T13:21:54Z</time>
      </trkpt>
      <trkpt lat="59.331337571843" lon="17.698159142917">
        <ele>7.4</ele>
        <time>2016-04-02T13:22:01Z</time>
      </trkpt>
      <trkpt lat="59.331333883807" lon="17.698009023088">
        <ele>7.4</ele>
        <time>2016-04-02T13:22:02Z</time>
      </trkpt>
      <trkpt lat="59.33136883633" lon="17.697139149506">
        <ele>7.4</ele>
        <time>2016-04-02T13:22:08Z</time>
      </trkpt>
      <trkpt lat="59.33140655488" lon="17.696592398169">
        <ele>7.8</ele>
        <time>2016-04-02T13:22:12Z</time>
      </trkpt>
      <trkpt lat="59.331414769142" lon="17.696458287769">
        <ele>8.2</ele>
        <time>2016-04-02T13:22:13Z</time>
      </trkpt>
      <trkpt lat="59.331420385015" lon="17.696323674455">
        <ele>8.6</ele>
        <time>2016-04-02T13:22:14Z</time>
      </trkpt>
      <trkpt lat="59.33142583325" lon="17.696190486064">
        <ele>9</ele>
        <time>2016-04-02T13:22:15Z</time>
      </trkpt>
      <trkpt lat="59.33143170058" lon="17.696065176659">
        <ele>9.4</ele>
        <time>2016-04-02T13:22:16Z</time>
      </trkpt>
      <trkpt lat="59.331461372506" lon="17.695473414519">
        <ele>9.4</ele>
        <time>2016-04-02T13:22:21Z</time>
      </trkpt>
      <trkpt lat="59.331479728867" lon="17.695155153776">
        <ele>9.8</ele>
        <time>2016-04-02T13:22:24Z</time>
      </trkpt>
      <trkpt lat="59.331486350568" lon="17.695053062234">
        <ele>10.2</ele>
        <time>2016-04-02T13:22:25Z</time>
      </trkpt>
      <trkpt lat="59.331492217898" lon="17.694951725063">
        <ele>10.6</ele>
        <time>2016-04-02T13:22:26Z</time>
      </trkpt>
      <trkpt lat="59.331497749952" lon="17.694845274933">
        <ele>11</ele>
        <time>2016-04-02T13:22:27Z</time>
      </trkpt>
      <trkpt lat="59.33150294673" lon="17.694744273038">
        <ele>11.4</ele>
        <time>2016-04-02T13:22:28Z</time>
      </trkpt>
      <trkpt lat="59.331520716358" lon="17.694436070575">
        <ele>12</ele>
        <time>2016-04-02T13:22:31Z</time>
      </trkpt>
      <trkpt lat="59.331525996955" lon="17.694337667069">
        <ele>12.4</ele>
        <time>2016-04-02T13:22:32Z</time>
      </trkpt>
      <trkpt lat="59.331533205389" lon="17.694237754821">
        <ele>12.8</ele>
        <time>2016-04-02T13:22:33Z</time>
      </trkpt>
      <trkpt lat="59.331538905081" lon="17.694136836745">
        <ele>13.2</ele>
        <time>2016-04-02T13:22:34Z</time>
      </trkpt>
      <trkpt lat="59.33154485623" lon="17.69402829114">
        <ele>13.6</ele>
        <time>2016-04-02T13:22:35Z</time>
      </trkpt>
      <trkpt lat="59.331564050781" lon="17.693714221347">
        <ele>13.6</ele>
        <time>2016-04-02T13:22:38Z</time>
      </trkpt>
      <trkpt lat="59.331608223394" lon="17.693130338193">
        <ele>14</ele>
        <time>2016-04-02T13:22:44Z</time>
      </trkpt>
      <trkpt lat="59.33162113152" lon="17.693042160605">
        <ele>14.4</ele>
        <time>2016-04-02T13:22:45Z</time>
      </trkpt>
      <trkpt lat="59.331636889492" lon="17.69295289337">
        <ele>14.8</ele>
        <time>2016-04-02T13:22:46Z</time>
      </trkpt>
      <trkpt lat="59.331659352984" lon="17.692866392162">
        <ele>15.2</ele>
        <time>2016-04-02T13:22:47Z</time>
      </trkpt>
      <trkpt lat="59.331685420693" lon="17.692783998085">
        <ele>15.6</ele>
        <time>2016-04-02T13:22:48Z</time>
      </trkpt>
      <trkpt lat="59.331711907497" lon="17.692706968424">
        <ele>16.2</ele>
        <time>2016-04-02T13:22:49Z</time>
      </trkpt>
      <trkpt lat="59.331739819224" lon="17.692632201876">
        <ele>16.6</ele>
        <time>2016-04-02T13:22:50Z</time>
      </trkpt>
      <trkpt lat="59.33177452029" lon="17.692556764776">
        <ele>17.2</ele>
        <time>2016-04-02T13:22:51Z</time>
      </trkpt>
      <trkpt lat="59.331806622967" lon="17.69249021249">
        <ele>17.8</ele>
        <time>2016-04-02T13:22:52Z</time>
      </trkpt>
      <trkpt lat="59.331837468359" lon="17.692431623009">
        <ele>18.4</ele>
        <time>2016-04-02T13:22:53Z</time>
      </trkpt>
      <trkpt lat="59.331867140285" lon="17.692374877546">
        <ele>19</ele>
        <time>2016-04-02T13:22:54Z</time>
      </trkpt>
      <trkpt lat="59.331897985677" lon="17.692321401024">
        <ele>20.2</ele>
        <time>2016-04-02T13:22:55Z</time>
      </trkpt>
      <trkpt lat="59.331932602924" lon="17.692268259778">
        <ele>20.6</ele>
        <time>2016-04-02T13:22:56Z</time>
      </trkpt>
      <trkpt lat="59.331971662578" lon="17.692205395528">
        <ele>21</ele>
        <time>2016-04-02T13:22:57Z</time>
      </trkpt>
      <trkpt lat="59.332011225146" lon="17.692140100527">
        <ele>21.4</ele>
        <time>2016-04-02T13:22:58Z</time>
      </trkpt>
      <trkpt lat="59.332054391931" lon="17.692073464422">
        <ele>21.8</ele>
        <time>2016-04-02T13:22:59Z</time>
      </trkpt>
      <trkpt lat="59.332100827657" lon="17.692002972643">
        <ele>22.2</ele>
        <time>2016-04-02T13:23:00Z</time>
      </trkpt>
      <trkpt lat="59.332256730997" lon="17.691762328294">
        <ele>21.8</ele>
        <time>2016-04-02T13:23:03Z</time>
      </trkpt>
      <trkpt lat="59.332314063193" lon="17.691672558145">
        <ele>21.2</ele>
        <time>2016-04-02T13:23:04Z</time>
      </trkpt>
      <trkpt lat="59.332378184728" lon="17.691575495743">
        <ele>20.8</ele>
        <time>2016-04-02T13:23:05Z</time>
      </trkpt>
      <trkpt lat="59.332444401738" lon="17.691471560183">
        <ele>20.4</ele>
        <time>2016-04-02T13:23:06Z</time>
      </trkpt>
      <trkpt lat="59.3325112893" lon="17.691351363737">
        <ele>19.8</ele>
        <time>2016-04-02T13:23:07Z</time>
      </trkpt>
      <trkpt lat="59.332578260681" lon="17.691210463998">
        <ele>19.2</ele>
        <time>2016-04-02T13:23:08Z</time>
      </trkpt>
      <trkpt lat="59.332640286741" lon="17.691047184586">
        <ele>18.4</ele>
        <time>2016-04-02T13:23:09Z</time>
      </trkpt>
      <trkpt lat="59.332695188186" lon="17.690872757247">
        <ele>17.6</ele>
        <time>2016-04-02T13:23:10Z</time>
      </trkpt>
      <trkpt lat="59.332746653052" lon="17.690693887501">
        <ele>16.6</ele>
        <time>2016-04-02T13:23:11Z</time>
      </trkpt>
      <trkpt lat="59.332800548669" lon="17.690508982787">
        <ele>15.6</ele>
        <time>2016-04-02T13:23:12Z</time>
      </trkpt>
      <trkpt lat="59.332853522277" lon="17.690337070018">
        <ele>14.6</ele>
        <time>2016-04-02T13:23:13Z</time>
      </trkpt>
      <trkpt lat="59.33290859136" lon="17.690172114226">
        <ele>13.6</ele>
        <time>2016-04-02T13:23:14Z</time>
      </trkpt>
      <trkpt lat="59.332967599936" lon="17.690019144551">
        <ele>12.4</ele>
        <time>2016-04-02T13:23:15Z</time>
      </trkpt>
      <trkpt lat="59.333030548005" lon="17.689876316975">
        <ele>11.4</ele>
        <time>2016-04-02T13:23:16Z</time>
      </trkpt>
      <trkpt lat="59.333095340092" lon="17.689742122756">
        <ele>10.4</ele>
        <time>2016-04-02T13:23:17Z</time>
      </trkpt>
      <trkpt lat="59.333233138528" lon="17.689484882245">
        <ele>10.4</ele>
        <time>2016-04-02T13:23:19Z</time>
      </trkpt>
      <trkpt lat="59.333667656224" lon="17.688813324417">
        <ele>10.4</ele>
        <time>2016-04-02T13:23:25Z</time>
      </trkpt>
      <trkpt lat="59.333808388325" lon="17.688612158817">
        <ele>10.8</ele>
        <time>2016-04-02T13:23:27Z</time>
      </trkpt>
      <trkpt lat="59.333873767145" lon="17.688513503854">
        <ele>11.2</ele>
        <time>2016-04-02T13:23:28Z</time>
      </trkpt>
      <trkpt lat="59.333938978327" lon="17.68841912366">
        <ele>11.6</ele>
        <time>2016-04-02T13:23:29Z</time>
      </trkpt>
      <trkpt lat="59.334000166197" lon="17.688323653819">
        <ele>12.2</ele>
        <time>2016-04-02T13:23:30Z</time>
      </trkpt>
      <trkpt lat="59.334056324927" lon="17.688223741571">
        <ele>12.6</ele>
        <time>2016-04-02T13:23:31Z</time>
      </trkpt>
      <trkpt lat="59.334155650442" lon="17.688018720297">
        <ele>13</ele>
        <time>2016-04-02T13:23:33Z</time>
      </trkpt>
      <trkpt lat="59.334196973209" lon="17.687912689262">
        <ele>13.4</ele>
        <time>2016-04-02T13:23:34Z</time>
      </trkpt>
      <trkpt lat="59.334235194673" lon="17.687798611603">
        <ele>14</ele>
        <time>2016-04-02T13:23:35Z</time>
      </trkpt>
      <trkpt lat="59.334271320662" lon="17.687674140388">
        <ele>14.4</ele>
        <time>2016-04-02T13:23:36Z</time>
      </trkpt>
      <trkpt lat="59.334302920425" lon="17.687551177915">
        <ele>14.8</ele>
        <time>2016-04-02T13:23:37Z</time>
      </trkpt>
      <trkpt lat="59.334403419406" lon="17.687197797011">
        <ele>14.8</ele>
        <time>2016-04-02T13:23:40Z</time>
      </trkpt>
      <trkpt lat="59.3344391263" lon="17.687091514519">
        <ele>14.8</ele>
        <time>2016-04-02T13:23:41Z</time>
      </trkpt>
      <trkpt lat="59.334480616705" lon="17.686992691918">
        <ele>15.2</ele>
        <time>2016-04-02T13:23:42Z</time>
      </trkpt>
      <trkpt lat="59.334521771834" lon="17.68689948519">
        <ele>15.8</ele>
        <time>2016-04-02T13:23:43Z</time>
      </trkpt>
      <trkpt lat="59.334559741841" lon="17.686801919874">
        <ele>16.6</ele>
        <time>2016-04-02T13:23:44Z</time>
      </trkpt>
      <trkpt lat="59.334599974961" lon="17.686703181092">
        <ele>17.2</ele>
        <time>2016-04-02T13:23:45Z</time>
      </trkpt>
      <trkpt lat="59.33464364466" lon="17.686604861405">
        <ele>17.8</ele>
        <time>2016-04-02T13:23:46Z</time>
      </trkpt>
      <trkpt lat="59.334689828929" lon="17.686512409048">
        <ele>18.4</ele>
        <time>2016-04-02T13:23:47Z</time>
      </trkpt>
      <trkpt lat="59.334736013198" lon="17.686419789053">
        <ele>19</ele>
        <time>2016-04-02T13:23:48Z</time>
      </trkpt>
      <trkpt lat="59.334779012345" lon="17.68633119237">
        <ele>19.6</ele>
        <time>2016-04-02T13:23:49Z</time>
      </trkpt>
      <trkpt lat="59.334818407275" lon="17.686244272067">
        <ele>19.6</ele>
        <time>2016-04-02T13:23:50Z</time>
      </trkpt>
      <trkpt lat="59.334861154965" lon="17.686163386732">
        <ele>19.6</ele>
        <time>2016-04-02T13:23:51Z</time>
      </trkpt>
      <trkpt lat="59.33496467143" lon="17.686097421179">
        <ele>19.6</ele>
        <time>2016-04-02T13:23:53Z</time>
      </trkpt>
      <trkpt lat="59.335064751316" lon="17.686214600141">
        <ele>19.6</ele>
        <time>2016-04-02T13:23:55Z</time>
      </trkpt>
      <trkpt lat="59.335147815945" lon="17.686404617814">
        <ele>19.6</ele>
        <time>2016-04-02T13:23:57Z</time>
      </trkpt>
      <trkpt lat="59.335309418977" lon="17.686829161049">
        <ele>19.6</ele>
        <time>2016-04-02T13:24:01Z</time>
      </trkpt>
      <trkpt lat="59.335568754963" lon="17.687444141052">
        <ele>19.2</ele>
        <time>2016-04-02T13:24:06Z</time>
      </trkpt>
      <trkpt lat="59.335627512082" lon="17.687567941715">
        <ele>18.6</ele>
        <time>2016-04-02T13:24:07Z</time>
      </trkpt>
      <trkpt lat="59.335686269201" lon="17.687694005491">
        <ele>18.2</ele>
        <time>2016-04-02T13:24:08Z</time>
      </trkpt>
      <trkpt lat="59.335743266121" lon="17.687821242733">
        <ele>17.4</ele>
        <time>2016-04-02T13:24:09Z</time>
      </trkpt>
      <trkpt lat="59.335969745059" lon="17.688335053203">
        <ele>17</ele>
        <time>2016-04-02T13:24:13Z</time>
      </trkpt>
      <trkpt lat="59.33603084911" lon="17.688464050644">
        <ele>16.6</ele>
        <time>2016-04-02T13:24:14Z</time>
      </trkpt>
      <trkpt lat="59.336087678392" lon="17.688583576538">
        <ele>16</ele>
        <time>2016-04-02T13:24:15Z</time>
      </trkpt>
      <trkpt lat="59.336145262045" lon="17.68870494645">
        <ele>15.6</ele>
        <time>2016-04-02T13:24:16Z</time>
      </trkpt>
      <trkpt lat="59.336204102983" lon="17.688829166208">
        <ele>15.2</ele>
        <time>2016-04-02T13:24:17Z</time>
      </trkpt>
      <trkpt lat="59.336388672421" lon="17.689179026714">
        <ele>15.2</ele>
        <time>2016-04-02T13:24:20Z</time>
      </trkpt>
      <trkpt lat="59.33670643025" lon="17.689448672437">
        <ele>15.2</ele>
        <time>2016-04-02T13:24:24Z</time>
      </trkpt>
      <trkpt lat="59.337191155527" lon="17.689736842159">
        <ele>15.6</ele>
        <time>2016-04-02T13:24:30Z</time>
      </trkpt>
      <trkpt lat="59.337272879052" lon="17.68978285879">
        <ele>16</ele>
        <time>2016-04-02T13:24:31Z</time>
      </trkpt>
      <trkpt lat="59.337352842378" lon="17.689836167674">
        <ele>16.4</ele>
        <time>2016-04-02T13:24:32Z</time>
      </trkpt>
      <trkpt lat="59.337430458772" lon="17.689894086603">
        <ele>16.8</ele>
        <time>2016-04-02T13:24:33Z</time>
      </trkpt>
      <trkpt lat="59.33750773989" lon="17.689953262817">
        <ele>17.2</ele>
        <time>2016-04-02T13:24:34Z</time>
      </trkpt>
      <trkpt lat="59.337589128139" lon="17.690006990796">
        <ele>17.6</ele>
        <time>2016-04-02T13:24:35Z</time>
      </trkpt>
      <trkpt lat="59.337664816696" lon="17.690060048223">
        <ele>18</ele>
        <time>2016-04-02T13:24:36Z</time>
      </trkpt>
      <trkpt lat="59.337737655407" lon="17.690125594681">
        <ele>18.6</ele>
        <time>2016-04-02T13:24:37Z</time>
      </trkpt>
      <trkpt lat="59.337811667584" lon="17.690197176107">
        <ele>19</ele>
        <time>2016-04-02T13:24:38Z</time>
      </trkpt>
      <trkpt lat="59.337887356141" lon="17.690271607379">
        <ele>19.4</ele>
        <time>2016-04-02T13:24:39Z</time>
      </trkpt>
      <trkpt lat="59.338040577273" lon="17.690411082195">
        <ele>19.4</ele>
        <time>2016-04-02T13:24:41Z</time>
      </trkpt>
      <trkpt lat="59.338380547137" lon="17.690788770609">
        <ele>19.4</ele>
        <time>2016-04-02T13:24:46Z</time>
      </trkpt>
      <trkpt lat="59.338783129794" lon="17.691337533602">
        <ele>19.4</ele>
        <time>2016-04-02T13:24:52Z</time>
      </trkpt>
      <trkpt lat="59.339061492693" lon="17.691977407848">
        <ele>19.4</ele>
        <time>2016-04-02T13:24:57Z</time>
      </trkpt>
      <trkpt lat="59.339375813943" lon="17.692835798227">
        <ele>19</ele>
        <time>2016-04-02T13:25:03Z</time>
      </trkpt>
      <trkpt lat="59.339425099515" lon="17.692987426798">
        <ele>18.6</ele>
        <time>2016-04-02T13:25:04Z</time>
      </trkpt>
      <trkpt lat="59.339467763386" lon="17.693128661813">
        <ele>18.2</ele>
        <time>2016-04-02T13:25:05Z</time>
      </trkpt>
      <trkpt lat="59.339506906859" lon="17.693261431109">
        <ele>17.8</ele>
        <time>2016-04-02T13:25:06Z</time>
      </trkpt>
      <trkpt lat="59.339541440287" lon="17.693384058306">
        <ele>17.2</ele>
        <time>2016-04-02T13:25:07Z</time>
      </trkpt>
      <trkpt lat="59.339574548792" lon="17.693507104598">
        <ele>17.2</ele>
        <time>2016-04-02T13:25:08Z</time>
      </trkpt>
      <trkpt lat="59.339644705295" lon="17.693745653472">
        <ele>17.8</ele>
        <time>2016-04-02T13:25:10Z</time>
      </trkpt>
      <trkpt lat="59.339681585655" lon="17.69386149133">
        <ele>18.4</ele>
        <time>2016-04-02T13:25:11Z</time>
      </trkpt>
      <trkpt lat="59.339720393852" lon="17.693990069676">
        <ele>18.8</ele>
        <time>2016-04-02T13:25:12Z</time>
      </trkpt>
      <trkpt lat="59.339764650284" lon="17.69412971213">
        <ele>19.4</ele>
        <time>2016-04-02T13:25:13Z</time>
      </trkpt>
      <trkpt lat="59.339807062698" lon="17.694264157806">
        <ele>19.8</ele>
        <time>2016-04-02T13:25:14Z</time>
      </trkpt>
      <trkpt lat="59.34000638428" lon="17.694902439491">
        <ele>19.8</ele>
        <time>2016-04-02T13:25:19Z</time>
      </trkpt>
      <trkpt lat="59.340052317092" lon="17.69501316439">
        <ele>19.8</ele>
        <time>2016-04-02T13:25:20Z</time>
      </trkpt>
      <trkpt lat="59.340173770823" lon="17.695218185664">
        <ele>19.8</ele>
        <time>2016-04-02T13:25:22Z</time>
      </trkpt>
      <trkpt lat="59.340339648624" lon="17.695348105114">
        <ele>19.4</ele>
        <time>2016-04-02T13:25:24Z</time>
      </trkpt>
      <trkpt lat="59.340433609723" lon="17.695397474505">
        <ele>19</ele>
        <time>2016-04-02T13:25:25Z</time>
      </trkpt>
      <trkpt lat="59.340527487003" lon="17.695442066213">
        <ele>18.4</ele>
        <time>2016-04-02T13:25:26Z</time>
      </trkpt>
      <trkpt lat="59.340620945188" lon="17.695488585758">
        <ele>18</ele>
        <time>2016-04-02T13:25:27Z</time>
      </trkpt>
      <trkpt lat="59.340716498848" lon="17.695543822479">
        <ele>17.4</ele>
        <time>2016-04-02T13:25:28Z</time>
      </trkpt>
      <trkpt lat="59.340804927893" lon="17.695612554059">
        <ele>16.8</ele>
        <time>2016-04-02T13:25:29Z</time>
      </trkpt>
      <trkpt lat="59.340891177644" lon="17.69569628924">
        <ele>16</ele>
        <time>2016-04-02T13:25:30Z</time>
      </trkpt>
      <trkpt lat="59.340971476246" lon="17.695793770737">
        <ele>15.4</ele>
        <time>2016-04-02T13:25:31Z</time>
      </trkpt>
      <trkpt lat="59.341050182287" lon="17.695900220867">
        <ele>14.8</ele>
        <time>2016-04-02T13:25:32Z</time>
      </trkpt>
      <trkpt lat="59.341129139785" lon="17.696019579123">
        <ele>14.2</ele>
        <time>2016-04-02T13:25:33Z</time>
      </trkpt>
      <trkpt lat="59.341204660704" lon="17.696144804709">
        <ele>13.4</ele>
        <time>2016-04-02T13:25:34Z</time>
      </trkpt>
      <trkpt lat="59.341276912682" lon="17.696282519326">
        <ele>13.4</ele>
        <time>2016-04-02T13:25:35Z</time>
      </trkpt>
      <trkpt lat="59.341476401902" lon="17.696726927664">
        <ele>13</ele>
        <time>2016-04-02T13:25:38Z</time>
      </trkpt>
      <trkpt lat="59.341532476813" lon="17.696888279239">
        <ele>12.6</ele>
        <time>2016-04-02T13:25:39Z</time>
      </trkpt>
      <trkpt lat="59.341582935851" lon="17.697055498144">
        <ele>12.2</ele>
        <time>2016-04-02T13:25:40Z</time>
      </trkpt>
      <trkpt lat="59.341634233079" lon="17.69722766237">
        <ele>11.8</ele>
        <time>2016-04-02T13:25:41Z</time>
      </trkpt>
      <trkpt lat="59.341686703773" lon="17.697401586795">
        <ele>11.2</ele>
        <time>2016-04-02T13:25:42Z</time>
      </trkpt>
      <trkpt lat="59.341996750254" lon="17.698467764475">
        <ele>11.2</ele>
        <time>2016-04-02T13:25:48Z</time>
      </trkpt>
      <trkpt lat="59.342325991286" lon="17.69949999546">
        <ele>11.2</ele>
        <time>2016-04-02T13:25:54Z</time>
      </trkpt>
      <trkpt lat="59.342505447765" lon="17.700011542817">
        <ele>11.2</ele>
        <time>2016-04-02T13:25:57Z</time>
      </trkpt>
      <trkpt lat="59.342772830375" lon="17.70090815466">
        <ele>11.2</ele>
        <time>2016-04-02T13:26:02Z</time>
      </trkpt>
      <trkpt lat="59.343046331772" lon="17.70205228401">
        <ele>11.2</ele>
        <time>2016-04-02T13:26:08Z</time>
      </trkpt>
      <trkpt lat="59.343134844636" lon="17.702439779247">
        <ele>11.2</ele>
        <time>2016-04-02T13:26:10Z</time>
      </trkpt>
      <trkpt lat="59.343166444399" lon="17.702639184648">
        <ele>11.2</ele>
        <time>2016-04-02T13:26:11Z</time>
      </trkpt>
      <trkpt lat="59.343164432743" lon="17.703043527504">
        <ele>11.2</ele>
        <time>2016-04-02T13:26:13Z</time>
      </trkpt>
      <trkpt lat="59.34309427624" lon="17.703422389384">
        <ele>11.2</ele>
        <time>2016-04-02T13:26:15Z</time>
      </trkpt>
      <trkpt lat="59.343064604314" lon="17.70360712646">
        <ele>11.2</ele>
        <time>2016-04-02T13:26:16Z</time>
      </trkpt>
      <trkpt lat="59.343043230469" lon="17.703796054486">
        <ele>11.2</ele>
        <time>2016-04-02T13:26:17Z</time>
      </trkpt>
      <trkpt lat="59.343006014833" lon="17.704363592935">
        <ele>11.2</ele>
        <time>2016-04-02T13:26:20Z</time>
      </trkpt>
      <trkpt lat="59.343014229095" lon="17.704735078743">
        <ele>11.2</ele>
        <time>2016-04-02T13:26:22Z</time>
      </trkpt>
      <trkpt lat="59.343056641509" lon="17.705086699448">
        <ele>11.2</ele>
        <time>2016-04-02T13:26:24Z</time>
      </trkpt>
      <trkpt lat="59.343125959822" lon="17.705432033728">
        <ele>11.2</ele>
        <time>2016-04-02T13:26:26Z</time>
      </trkpt>
      <trkpt lat="59.343232996685" lon="17.705956237754">
        <ele>11.2</ele>
        <time>2016-04-02T13:26:29Z</time>
      </trkpt>
      <trkpt lat="59.343503732055" lon="17.706980925029">
        <ele>10.8</ele>
        <time>2016-04-02T13:26:35Z</time>
      </trkpt>
      <trkpt lat="59.343552598532" lon="17.707171194159">
        <ele>10.4</ele>
        <time>2016-04-02T13:26:36Z</time>
      </trkpt>
      <trkpt lat="59.343602554656" lon="17.70735299757">
        <ele>9.4</ele>
        <time>2016-04-02T13:26:37Z</time>
      </trkpt>
      <trkpt lat="59.343654438617" lon="17.707532286411">
        <ele>8.8</ele>
        <time>2016-04-02T13:26:38Z</time>
      </trkpt>
      <trkpt lat="59.343706406397" lon="17.707710988519">
        <ele>8.4</ele>
        <time>2016-04-02T13:26:39Z</time>
      </trkpt>
      <trkpt lat="59.343759380005" lon="17.707885834953">
        <ele>8</ele>
        <time>2016-04-02T13:26:40Z</time>
      </trkpt>
      <trkpt lat="59.343815706373" lon="17.708050706926">
        <ele>7.6</ele>
        <time>2016-04-02T13:26:41Z</time>
      </trkpt>
      <trkpt lat="59.343881001374" lon="17.708204682429">
        <ele>7.2</ele>
        <time>2016-04-02T13:26:42Z</time>
      </trkpt>
      <trkpt lat="59.343953337171" lon="17.708354299344">
        <ele>6.8</ele>
        <time>2016-04-02T13:26:43Z</time>
      </trkpt>
      <trkpt lat="59.344254247381" lon="17.708911444237">
        <ele>6.8</ele>
        <time>2016-04-02T13:26:47Z</time>
      </trkpt>
      <trkpt lat="59.344681724281" lon="17.709756758852">
        <ele>6.8</ele>
        <time>2016-04-02T13:26:53Z</time>
      </trkpt>
      <trkpt lat="59.344748528024" lon="17.709889947243">
        <ele>6.8</ele>
        <time>2016-04-02T13:26:54Z</time>
      </trkpt>
      <trkpt lat="59.345149937215" lon="17.710670385952">
        <ele>6.8</ele>
        <time>2016-04-02T13:27:00Z</time>
      </trkpt>
      <trkpt lat="59.345228978532" lon="17.710768286544">
        <ele>6.8</ele>
        <time>2016-04-02T13:27:01Z</time>
      </trkpt>
      <trkpt lat="59.345315982654" lon="17.710836431391">
        <ele>6.8</ele>
        <time>2016-04-02T13:27:02Z</time>
      </trkpt>
      <trkpt lat="59.345601889263" lon="17.710821930704">
        <ele>6.8</ele>
        <time>2016-04-02T13:27:05Z</time>
      </trkpt>
      <trkpt lat="59.345783022122" lon="17.710671727056">
        <ele>6.8</ele>
        <time>2016-04-02T13:27:07Z</time>
      </trkpt>
      <trkpt lat="59.34586784695" lon="17.710590674083">
        <ele>7.2</ele>
        <time>2016-04-02T13:27:08Z</time>
      </trkpt>
      <trkpt lat="59.345951498312" lon="17.710507190359">
        <ele>7.8</ele>
        <time>2016-04-02T13:27:09Z</time>
      </trkpt>
      <trkpt lat="59.346033473294" lon="17.710424544825">
        <ele>8.2</ele>
        <time>2016-04-02T13:27:10Z</time>
      </trkpt>
      <trkpt lat="59.346116370285" lon="17.710346676974">
        <ele>8.6</ele>
        <time>2016-04-02T13:27:11Z</time>
      </trkpt>
      <trkpt lat="59.346200189285" lon="17.710278029213">
        <ele>9.2</ele>
        <time>2016-04-02T13:27:12Z</time>
      </trkpt>
      <trkpt lat="59.346285433208" lon="17.710212398936">
        <ele>9.8</ele>
        <time>2016-04-02T13:27:13Z</time>
      </trkpt>
      <trkpt lat="59.346370425674" lon="17.710150959609">
        <ele>10.4</ele>
        <time>2016-04-02T13:27:14Z</time>
      </trkpt>
      <trkpt lat="59.346458267986" lon="17.71009387887">
        <ele>11</ele>
        <time>2016-04-02T13:27:15Z</time>
      </trkpt>
      <trkpt lat="59.346543595728" lon="17.710056244139">
        <ele>11.6</ele>
        <time>2016-04-02T13:27:16Z</time>
      </trkpt>
      <trkpt lat="59.346714335031" lon="17.71003017643">
        <ele>12.2</ele>
        <time>2016-04-02T13:27:18Z</time>
      </trkpt>
      <trkpt lat="59.346800417144" lon="17.710048868067">
        <ele>12.6</ele>
        <time>2016-04-02T13:27:19Z</time>
      </trkpt>
      <trkpt lat="59.346892366587" lon="17.710077701803">
        <ele>13</ele>
        <time>2016-04-02T13:27:20Z</time>
      </trkpt>
      <trkpt lat="59.346984399849" lon="17.710110139756">
        <ele>13.4</ele>
        <time>2016-04-02T13:27:21Z</time>
      </trkpt>
      <trkpt lat="59.347081629889" lon="17.710149869962">
        <ele>13.8</ele>
        <time>2016-04-02T13:27:22Z</time>
      </trkpt>
      <trkpt lat="59.34727516796" lon="17.710232683134">
        <ele>13.8</ele>
        <time>2016-04-02T13:27:24Z</time>
      </trkpt>
      <trkpt lat="59.347376002217" lon="17.71027744248">
        <ele>13.4</ele>
        <time>2016-04-02T13:27:25Z</time>
      </trkpt>
      <trkpt lat="59.347477590845" lon="17.7103344394">
        <ele>12.2</ele>
        <time>2016-04-02T13:27:26Z</time>
      </trkpt>
      <trkpt lat="59.347581694043" lon="17.710391352501">
        <ele>11.6</ele>
        <time>2016-04-02T13:27:27Z</time>
      </trkpt>
      <trkpt lat="59.347686132517" lon="17.710448684697">
        <ele>10.6</ele>
        <time>2016-04-02T13:27:28Z</time>
      </trkpt>
      <trkpt lat="59.347790403353" lon="17.710519092657">
        <ele>9.8</ele>
        <time>2016-04-02T13:27:29Z</time>
      </trkpt>
      <trkpt lat="59.347898865139" lon="17.710593607748">
        <ele>8.8</ele>
        <time>2016-04-02T13:27:30Z</time>
      </trkpt>
      <trkpt lat="59.348001543414" lon="17.710662842242">
        <ele>8</ele>
        <time>2016-04-02T13:27:31Z</time>
      </trkpt>
      <trkpt lat="59.348101790938" lon="17.710735597134">
        <ele>7</ele>
        <time>2016-04-02T13:27:32Z</time>
      </trkpt>
      <trkpt lat="59.348394822162" lon="17.710959058588">
        <ele>6.6</ele>
        <time>2016-04-02T13:27:35Z</time>
      </trkpt>
      <trkpt lat="59.348489956727" lon="17.711042039398">
        <ele>6.2</ele>
        <time>2016-04-02T13:27:36Z</time>
      </trkpt>
      <trkpt lat="59.348588276414" lon="17.711131809547">
        <ele>5.8</ele>
        <time>2016-04-02T13:27:37Z</time>
      </trkpt>
      <trkpt lat="59.348682740427" lon="17.711216718194">
        <ele>5.4</ele>
        <time>2016-04-02T13:27:38Z</time>
      </trkpt>
      <trkpt lat="59.348776952983" lon="17.711303638497">
        <ele>5</ele>
        <time>2016-04-02T13:27:39Z</time>
      </trkpt>
      <trkpt lat="59.349336193351" lon="17.711849719282">
        <ele>5</ele>
        <time>2016-04-02T13:27:45Z</time>
      </trkpt>
      <trkpt lat="59.349878502281" lon="17.712346011581">
        <ele>5</ele>
        <time>2016-04-02T13:27:51Z</time>
      </trkpt>
      <trkpt lat="59.350071202162" lon="17.712460256878">
        <ele>5.4</ele>
        <time>2016-04-02T13:27:53Z</time>
      </trkpt>
      <trkpt lat="59.350167845469" lon="17.71250367512">
        <ele>5.8</ele>
        <time>2016-04-02T13:27:54Z</time>
      </trkpt>
      <trkpt lat="59.350265410785" lon="17.712535861616">
        <ele>6.2</ele>
        <time>2016-04-02T13:27:55Z</time>
      </trkpt>
      <trkpt lat="59.350360377712" lon="17.712569640673">
        <ele>6.6</ele>
        <time>2016-04-02T13:27:56Z</time>
      </trkpt>
      <trkpt lat="59.350455093182" lon="17.712609370879">
        <ele>7</ele>
        <time>2016-04-02T13:27:57Z</time>
      </trkpt>
      <trkpt lat="59.351007544211" lon="17.712837358559">
        <ele>7</ele>
        <time>2016-04-02T13:28:03Z</time>
      </trkpt>
      <trkpt lat="59.351380035847" lon="17.713009774242">
        <ele>7</ele>
        <time>2016-04-02T13:28:07Z</time>
      </trkpt>
      <trkpt lat="59.351473074937" lon="17.713063166945">
        <ele>7.4</ele>
        <time>2016-04-02T13:28:08Z</time>
      </trkpt>
      <trkpt lat="59.351562677448" lon="17.713117481657">
        <ele>8</ele>
        <time>2016-04-02T13:28:09Z</time>
      </trkpt>
      <trkpt lat="59.351646831724" lon="17.71319099092">
        <ele>8.4</ele>
        <time>2016-04-02T13:28:10Z</time>
      </trkpt>
      <trkpt lat="59.351729141982" lon="17.713267098572">
        <ele>8.8</ele>
        <time>2016-04-02T13:28:11Z</time>
      </trkpt>
      <trkpt lat="59.351814385905" lon="17.713357706911">
        <ele>9.4</ele>
        <time>2016-04-02T13:28:12Z</time>
      </trkpt>
      <trkpt lat="59.352104148188" lon="17.713765318708">
        <ele>9.4</ele>
        <time>2016-04-02T13:28:16Z</time>
      </trkpt>
      <trkpt lat="59.352171119569" lon="17.713872607028">
        <ele>9.8</ele>
        <time>2016-04-02T13:28:17Z</time>
      </trkpt>
      <trkpt lat="59.35223892914" lon="17.713979811529">
        <ele>10.2</ele>
        <time>2016-04-02T13:28:18Z</time>
      </trkpt>
      <trkpt lat="59.35230766072" lon="17.714085507288">
        <ele>10.8</ele>
        <time>2016-04-02T13:28:19Z</time>
      </trkpt>
      <trkpt lat="59.352375805567" lon="17.714188688477">
        <ele>11.2</ele>
        <time>2016-04-02T13:28:20Z</time>
      </trkpt>
      <trkpt lat="59.352444956242" lon="17.714287930173">
        <ele>11.6</ele>
        <time>2016-04-02T13:28:21Z</time>
      </trkpt>
      <trkpt lat="59.352593567329" lon="17.714475852371">
        <ele>11.6</ele>
        <time>2016-04-02T13:28:23Z</time>
      </trkpt>
      <trkpt lat="59.352822477018" lon="17.714765027921">
        <ele>11.2</ele>
        <time>2016-04-02T13:28:26Z</time>
      </trkpt>
      <trkpt lat="59.352900763964" lon="17.714891510792">
        <ele>10.8</ele>
        <time>2016-04-02T13:28:27Z</time>
      </trkpt>
      <trkpt lat="59.352973854132" lon="17.715020256776">
        <ele>10.2</ele>
        <time>2016-04-02T13:28:28Z</time>
      </trkpt>
      <trkpt lat="59.353050716155" lon="17.715156881746">
        <ele>9.8</ele>
        <time>2016-04-02T13:28:29Z</time>
      </trkpt>
      <trkpt lat="59.353125147427" lon="17.715296608019">
        <ele>9.4</ele>
        <time>2016-04-02T13:28:30Z</time>
      </trkpt>
      <trkpt lat="59.3532732556" lon="17.715560805507">
        <ele>8.8</ele>
        <time>2016-04-02T13:28:32Z</time>
      </trkpt>
      <trkpt lat="59.35334617813" lon="17.715692401337">
        <ele>8.4</ele>
        <time>2016-04-02T13:28:33Z</time>
      </trkpt>
      <trkpt lat="59.353424548895" lon="17.715829445402">
        <ele>7.8</ele>
        <time>2016-04-02T13:28:34Z</time>
      </trkpt>
      <trkpt lat="59.353500069814" lon="17.715969842227">
        <ele>7.2</ele>
        <time>2016-04-02T13:28:35Z</time>
      </trkpt>
      <trkpt lat="59.353577099475" lon="17.716115184373">
        <ele>6.8</ele>
        <time>2016-04-02T13:28:36Z</time>
      </trkpt>
      <trkpt lat="59.353802740223" lon="17.71658398404">
        <ele>6.4</ele>
        <time>2016-04-02T13:28:39Z</time>
      </trkpt>
      <trkpt lat="59.353873483459" lon="17.71675329842">
        <ele>5.4</ele>
        <time>2016-04-02T13:28:40Z</time>
      </trkpt>
      <trkpt lat="59.353939951926" lon="17.716931497614">
        <ele>4.6</ele>
        <time>2016-04-02T13:28:41Z</time>
      </trkpt>
      <trkpt lat="59.354000469244" lon="17.717115145043">
        <ele>4</ele>
        <time>2016-04-02T13:28:42Z</time>
      </trkpt>
      <trkpt lat="59.354055957422" lon="17.717301223223">
        <ele>3.4</ele>
        <time>2016-04-02T13:28:43Z</time>
      </trkpt>
      <trkpt lat="59.354109685401" lon="17.717493755466">
        <ele>2.8</ele>
        <time>2016-04-02T13:28:44Z</time>
      </trkpt>
      <trkpt lat="59.354162072276" lon="17.717688047908">
        <ele>2.2</ele>
        <time>2016-04-02T13:28:45Z</time>
      </trkpt>
      <trkpt lat="59.354294422477" lon="17.718253155606">
        <ele>1.6</ele>
        <time>2016-04-02T13:28:48Z</time>
      </trkpt>
      <trkpt lat="59.354327866258" lon="17.718440993985">
        <ele>1.2</ele>
        <time>2016-04-02T13:28:49Z</time>
      </trkpt>
      <trkpt lat="59.354345049153" lon="17.718634112961">
        <ele>0.8</ele>
        <time>2016-04-02T13:28:50Z</time>
      </trkpt>
      <trkpt lat="59.354346390257" lon="17.718811641603">
        <ele>0.2</ele>
        <time>2016-04-02T13:28:51Z</time>
      </trkpt>
      <trkpt lat="59.35433943328" lon="17.718982129449">
        <ele>0</ele>
        <time>2016-04-02T13:28:52Z</time>
      </trkpt>
      <trkpt lat="59.354333649769" lon="17.719152030562">
        <ele>0</ele>
        <time>2016-04-02T13:28:53Z</time>
      </trkpt>
      <trkpt lat="59.354338930366" lon="17.719309610282">
        <ele>0.2</ele>
        <time>2016-04-02T13:28:54Z</time>
      </trkpt>
      <trkpt lat="59.354358460193" lon="17.719460484482">
        <ele>0.8</ele>
        <time>2016-04-02T13:28:55Z</time>
      </trkpt>
      <trkpt lat="59.354388802671" lon="17.719596774176">
        <ele>1.2</ele>
        <time>2016-04-02T13:28:56Z</time>
      </trkpt>
      <trkpt lat="59.354433562017" lon="17.71971546188">
        <ele>1.8</ele>
        <time>2016-04-02T13:28:57Z</time>
      </trkpt>
      <trkpt lat="59.354487206177" lon="17.71981939744">
        <ele>2.4</ele>
        <time>2016-04-02T13:28:58Z</time>
      </trkpt>
      <trkpt lat="59.354545711839" lon="17.719923668276">
        <ele>3.2</ele>
        <time>2016-04-02T13:28:59Z</time>
      </trkpt>
      <trkpt lat="59.354601619112" lon="17.720022658515">
        <ele>3.8</ele>
        <time>2016-04-02T13:29:00Z</time>
      </trkpt>
      <trkpt lat="59.354658448394" lon="17.720124163324">
        <ele>4.4</ele>
        <time>2016-04-02T13:29:01Z</time>
      </trkpt>
      <trkpt lat="59.354782500514" lon="17.72031560592">
        <ele>4.4</ele>
        <time>2016-04-02T13:29:03Z</time>
      </trkpt>
      <trkpt lat="59.354932787981" lon="17.720446866474">
        <ele>4.4</ele>
        <time>2016-04-02T13:29:05Z</time>
      </trkpt>
      <trkpt lat="59.355198661849" lon="17.72043881985">
        <ele>4.4</ele>
        <time>2016-04-02T13:29:08Z</time>
      </trkpt>
      <trkpt lat="59.355288180541" lon="17.720414177064">
        <ele>4.4</ele>
        <time>2016-04-02T13:29:09Z</time>
      </trkpt>
      <trkpt lat="59.35584398433" lon="17.720255423878">
        <ele>4.4</ele>
        <time>2016-04-02T13:29:15Z</time>
      </trkpt>
      <trkpt lat="59.356027715578" lon="17.72020496484">
        <ele>4.4</ele>
        <time>2016-04-02T13:29:17Z</time>
      </trkpt>
      <trkpt lat="59.356399201386" lon="17.720102370384">
        <ele>4</ele>
        <time>2016-04-02T13:29:21Z</time>
      </trkpt>
      <trkpt lat="59.356495677055" lon="17.720078481969">
        <ele>3.4</ele>
        <time>2016-04-02T13:29:22Z</time>
      </trkpt>
      <trkpt lat="59.35658913524" lon="17.720053336269">
        <ele>3</ele>
        <time>2016-04-02T13:29:23Z</time>
      </trkpt>
      <trkpt lat="59.35668301252" lon="17.72002894494">
        <ele>2.6</ele>
        <time>2016-04-02T13:29:24Z</time>
      </trkpt>
      <trkpt lat="59.356777811809" lon="17.720001536127">
        <ele>2.2</ele>
        <time>2016-04-02T13:29:25Z</time>
      </trkpt>
      <trkpt lat="59.356966907473" lon="17.719950574175">
        <ele>2.2</ele>
        <time>2016-04-02T13:29:27Z</time>
      </trkpt>
      <trkpt lat="59.357539810338" lon="17.719797688319">
        <ele>2.2</ele>
        <time>2016-04-02T13:29:33Z</time>
      </trkpt>
      <trkpt lat="59.3576318436" lon="17.719774051361">
        <ele>2.2</ele>
        <time>2016-04-02T13:29:34Z</time>
      </trkpt>
      <trkpt lat="59.358210446157" lon="17.71961823184">
        <ele>2.2</ele>
        <time>2016-04-02T13:29:40Z</time>
      </trkpt>
      <trkpt lat="59.358308346749" lon="17.719588979009">
        <ele>2.2</ele>
        <time>2016-04-02T13:29:41Z</time>
      </trkpt>
      <trkpt lat="59.358903964563" lon="17.719423352665">
        <ele>2.2</ele>
        <time>2016-04-02T13:29:47Z</time>
      </trkpt>
      <trkpt lat="59.359099430471" lon="17.71936761303">
        <ele>2.2</ele>
        <time>2016-04-02T13:29:49Z</time>
      </trkpt>
      <trkpt lat="59.359491284296" lon="17.719253535371">
        <ele>1.6</ele>
        <time>2016-04-02T13:29:53Z</time>
      </trkpt>
      <trkpt lat="59.359584323386" lon="17.719226629472">
        <ele>0.8</ele>
        <time>2016-04-02T13:29:54Z</time>
      </trkpt>
      <trkpt lat="59.359677111019" lon="17.71920332779">
        <ele>0.4</ele>
        <time>2016-04-02T13:29:55Z</time>
      </trkpt>
      <trkpt lat="59.359769898652" lon="17.719175835158">
        <ele>0</ele>
        <time>2016-04-02T13:29:56Z</time>
      </trkpt>
      <trkpt lat="59.359861345181" lon="17.719151108553">
        <ele>0</ele>
        <time>2016-04-02T13:29:57Z</time>
      </trkpt>
      <trkpt lat="59.360414885857" lon="17.719010627909">
        <ele>0</ele>
        <time>2016-04-02T13:30:03Z</time>
      </trkpt>
      <trkpt lat="59.360686375598" lon="17.718946422555">
        <ele>0</ele>
        <time>2016-04-02T13:30:06Z</time>
      </trkpt>
      <trkpt lat="59.361212172185" lon="17.718882636296">
        <ele>0.4</ele>
        <time>2016-04-02T13:30:12Z</time>
      </trkpt>
      <trkpt lat="59.361298505755" lon="17.718884312676">
        <ele>0.8</ele>
        <time>2016-04-02T13:30:13Z</time>
      </trkpt>
      <trkpt lat="59.361387856809" lon="17.718887581617">
        <ele>1.2</ele>
        <time>2016-04-02T13:30:14Z</time>
      </trkpt>
      <trkpt lat="59.361476202035" lon="17.718886324332">
        <ele>1.6</ele>
        <time>2016-04-02T13:30:15Z</time>
      </trkpt>
      <trkpt lat="59.361561194501" lon="17.718890096187">
        <ele>2</ele>
        <time>2016-04-02T13:30:16Z</time>
      </trkpt>
      <trkpt lat="59.361812651501" lon="17.718922450321">
        <ele>2</ele>
        <time>2016-04-02T13:30:19Z</time>
      </trkpt>
      <trkpt lat="59.362384967633" lon="17.719079527127">
        <ele>2</ele>
        <time>2016-04-02T13:30:26Z</time>
      </trkpt>
      <trkpt lat="59.362463338398" lon="17.719103164085">
        <ele>2</ele>
        <time>2016-04-02T13:30:27Z</time>
      </trkpt>
      <trkpt lat="59.362766260264" lon="17.719198382469">
        <ele>2.4</ele>
        <time>2016-04-02T13:30:31Z</time>
      </trkpt>
      <trkpt lat="59.362838009328" lon="17.719222941436">
        <ele>2.8</ele>
        <time>2016-04-02T13:30:32Z</time>
      </trkpt>
      <trkpt lat="59.362906405632" lon="17.719252864819">
        <ele>3.2</ele>
        <time>2016-04-02T13:30:33Z</time>
      </trkpt>
      <trkpt lat="59.362974634298" lon="17.719289242265">
        <ele>3.6</ele>
        <time>2016-04-02T13:30:34Z</time>
      </trkpt>
      <trkpt lat="59.363042443869" lon="17.719321093485">
        <ele>4</ele>
        <time>2016-04-02T13:30:35Z</time>
      </trkpt>
      <trkpt lat="59.363466148914" lon="17.719498454489">
        <ele>4</ele>
        <time>2016-04-02T13:30:41Z</time>
      </trkpt>
      <trkpt lat="59.363946347965" lon="17.719638180762">
        <ele>4</ele>
        <time>2016-04-02T13:30:48Z</time>
      </trkpt>
      <trkpt lat="59.364074758673" lon="17.719675815493">
        <ele>4</ele>
        <time>2016-04-02T13:30:50Z</time>
      </trkpt>
      <trkpt lat="59.364167127211" lon="17.719873963609">
        <ele>4</ele>
        <time>2016-04-02T13:30:52Z</time>
      </trkpt>
      <trkpt lat="59.364163187718" lon="17.720172359249">
        <ele>4</ele>
        <time>2016-04-02T13:30:54Z</time>
      </trkpt>
      <trkpt lat="59.364145921004" lon="17.720323568725">
        <ele>4</ele>
        <time>2016-04-02T13:30:55Z</time>
      </trkpt>
      <trkpt lat="59.364131671774" lon="17.720479220608">
        <ele>3.6</ele>
        <time>2016-04-02T13:30:56Z</time>
      </trkpt>
      <trkpt lat="59.364120356209" lon="17.720638728165">
        <ele>3.2</ele>
        <time>2016-04-02T13:30:57Z</time>
      </trkpt>
      <trkpt lat="59.364108286273" lon="17.720799660645">
        <ele>2.8</ele>
        <time>2016-04-02T13:30:58Z</time>
      </trkpt>
      <trkpt lat="59.364096719251" lon="17.72096687955">
        <ele>2.4</ele>
        <time>2016-04-02T13:30:59Z</time>
      </trkpt>
      <trkpt lat="59.364085236048" lon="17.721121190329">
        <ele>2</ele>
        <time>2016-04-02T13:31:00Z</time>
      </trkpt>
      <trkpt lat="59.364074674854" lon="17.721277345126">
        <ele>2</ele>
        <time>2016-04-02T13:31:01Z</time>
      </trkpt>
      <trkpt lat="59.363989095655" lon="17.722365064289">
        <ele>2</ele>
        <time>2016-04-02T13:31:08Z</time>
      </trkpt>
      <trkpt lat="59.363977612452" lon="17.722521470543">
        <ele>2</ele>
        <time>2016-04-02T13:31:09Z</time>
      </trkpt>
      <trkpt lat="59.363891278882" lon="17.723614051208">
        <ele>2</ele>
        <time>2016-04-02T13:31:16Z</time>
      </trkpt>
      <trkpt lat="59.363879544222" lon="17.723772050023">
        <ele>1.6</ele>
        <time>2016-04-02T13:31:17Z</time>
      </trkpt>
      <trkpt lat="59.3638679772" lon="17.723929462105">
        <ele>1.2</ele>
        <time>2016-04-02T13:31:18Z</time>
      </trkpt>
      <trkpt lat="59.36385372797" lon="17.724085197807">
        <ele>0.8</ele>
        <time>2016-04-02T13:31:19Z</time>
      </trkpt>
      <trkpt lat="59.363841406577" lon="17.724238670396">
        <ele>0.4</ele>
        <time>2016-04-02T13:31:20Z</time>
      </trkpt>
      <trkpt lat="59.363829588098" lon="17.724393148813">
        <ele>0</ele>
        <time>2016-04-02T13:31:21Z</time>
      </trkpt>
      <trkpt lat="59.363784074381" lon="17.725010140472">
        <ele>0</ele>
        <time>2016-04-02T13:31:25Z</time>
      </trkpt>
      <trkpt lat="59.363705535978" lon="17.726021919621">
        <ele>0</ele>
        <time>2016-04-02T13:31:32Z</time>
      </trkpt>
      <trkpt lat="59.36363496038" lon="17.726747708342">
        <ele>0</ele>
        <time>2016-04-02T13:31:37Z</time>
      </trkpt>
      <trkpt lat="59.363577376727" lon="17.727285658684">
        <ele>0.4</ele>
        <time>2016-04-02T13:31:41Z</time>
      </trkpt>
      <trkpt lat="59.363565893524" lon="17.72741256065">
        <ele>0.8</ele>
        <time>2016-04-02T13:31:42Z</time>
      </trkpt>
      <trkpt lat="59.363553991226" lon="17.7275340982">
        <ele>1.2</ele>
        <time>2016-04-02T13:31:43Z</time>
      </trkpt>
      <trkpt lat="59.363538736168" lon="17.727654546103">
        <ele>1.6</ele>
        <time>2016-04-02T13:31:44Z</time>
      </trkpt>
      <trkpt lat="59.363525241309" lon="17.727765690097">
        <ele>2</ele>
        <time>2016-04-02T13:31:45Z</time>
      </trkpt>
      <trkpt lat="59.36351509921" lon="17.727875157711">
        <ele>2.4</ele>
        <time>2016-04-02T13:31:46Z</time>
      </trkpt>
      <trkpt lat="59.363503029274" lon="17.727981440203">
        <ele>2.8</ele>
        <time>2016-04-02T13:31:47Z</time>
      </trkpt>
      <trkpt lat="59.363489702053" lon="17.728087806514">
        <ele>3.2</ele>
        <time>2016-04-02T13:31:48Z</time>
      </trkpt>
      <trkpt lat="59.363477548298" lon="17.72819543011">
        <ele>3.6</ele>
        <time>2016-04-02T13:31:49Z</time>
      </trkpt>
      <trkpt lat="59.363466400371" lon="17.728303640439">
        <ele>4</ele>
        <time>2016-04-02T13:31:50Z</time>
      </trkpt>
      <trkpt lat="59.363455000987" lon="17.728413108053">
        <ele>4</ele>
        <time>2016-04-02T13:31:51Z</time>
      </trkpt>
      <trkpt lat="59.36344301487" lon="17.728528694454">
        <ele>4.4</ele>
        <time>2016-04-02T13:31:52Z</time>
      </trkpt>
      <trkpt lat="59.3634321184" lon="17.728637323878">
        <ele>5</ele>
        <time>2016-04-02T13:31:53Z</time>
      </trkpt>
      <trkpt lat="59.363422814491" lon="17.728745618026">
        <ele>5.4</ele>
        <time>2016-04-02T13:31:54Z</time>
      </trkpt>
      <trkpt lat="59.363414264953" lon="17.72885424745">
        <ele>5.8</ele>
        <time>2016-04-02T13:31:55Z</time>
      </trkpt>
      <trkpt lat="59.36340361994" lon="17.728964134159">
        <ele>6.2</ele>
        <time>2016-04-02T13:31:56Z</time>
      </trkpt>
      <trkpt lat="59.363368080684" lon="17.729305696584">
        <ele>6.2</ele>
        <time>2016-04-02T13:31:59Z</time>
      </trkpt>
      <trkpt lat="59.363257104328" lon="17.730130894639">
        <ele>6.2</ele>
        <time>2016-04-02T13:32:07Z</time>
      </trkpt>
      <trkpt lat="59.363113354743" lon="17.731048712689">
        <ele>6.2</ele>
        <time>2016-04-02T13:32:15Z</time>
      </trkpt>
      <trkpt lat="59.3629878777" lon="17.73170325526">
        <ele>6.6</ele>
        <time>2016-04-02T13:32:21Z</time>
      </trkpt>
      <trkpt lat="59.362966587674" lon="17.731803586603">
        <ele>7</ele>
        <time>2016-04-02T13:32:22Z</time>
      </trkpt>
      <trkpt lat="59.362943118354" lon="17.731908192715">
        <ele>7.8</ele>
        <time>2016-04-02T13:32:23Z</time>
      </trkpt>
      <trkpt lat="59.362921828328" lon="17.732001483262">
        <ele>8.2</ele>
        <time>2016-04-02T13:32:24Z</time>
      </trkpt>
      <trkpt lat="59.362859718449" lon="17.732272553908">
        <ele>8.8</ele>
        <time>2016-04-02T13:32:27Z</time>
      </trkpt>
      <trkpt lat="59.362810432877" lon="17.732465924341">
        <ele>9.6</ele>
        <time>2016-04-02T13:32:28Z</time>
      </trkpt>
      <trkpt lat="59.362810432877" lon="17.732465924341">
        <ele>9.6</ele>
        <time>2016-04-02T13:32:29Z</time>
      </trkpt>
      <trkpt lat="59.362788807575" lon="17.732557287051">
        <ele>10</ele>
        <time>2016-04-02T13:32:30Z</time>
      </trkpt>
      <trkpt lat="59.362770115938" lon="17.732648565942">
        <ele>10.6</ele>
        <time>2016-04-02T13:32:31Z</time>
      </trkpt>
      <trkpt lat="59.362662827618" lon="17.733112085012">
        <ele>10.6</ele>
        <time>2016-04-02T13:32:36Z</time>
      </trkpt>
      <trkpt lat="59.362478341999" lon="17.733764029194">
        <ele>11</ele>
        <time>2016-04-02T13:32:43Z</time>
      </trkpt>
      <trkpt lat="59.362450430272" lon="17.73385488899">
        <ele>11.4</ele>
        <time>2016-04-02T13:32:44Z</time>
      </trkpt>
      <trkpt lat="59.362420171613" lon="17.733950358831">
        <ele>11.8</ele>
        <time>2016-04-02T13:32:45Z</time>
      </trkpt>
      <trkpt lat="59.362386392556" lon="17.734044655206">
        <ele>12.2</ele>
        <time>2016-04-02T13:32:46Z</time>
      </trkpt>
      <trkpt lat="59.362354792793" lon="17.734148004033">
        <ele>12.6</ele>
        <time>2016-04-02T13:32:47Z</time>
      </trkpt>
      <trkpt lat="59.36229469457" lon="17.734360149922">
        <ele>12.6</ele>
        <time>2016-04-02T13:32:49Z</time>
      </trkpt>
      <trkpt lat="59.362170893907" lon="17.734699113958">
        <ele>12.2</ele>
        <time>2016-04-02T13:32:52Z</time>
      </trkpt>
      <trkpt lat="59.362129906416" lon="17.734807743382">
        <ele>11.8</ele>
        <time>2016-04-02T13:32:53Z</time>
      </trkpt>
      <trkpt lat="59.362086739631" lon="17.734923916516">
        <ele>11.4</ele>
        <time>2016-04-02T13:32:54Z</time>
      </trkpt>
      <trkpt lat="59.362043489027" lon="17.73504260422">
        <ele>11</ele>
        <time>2016-04-02T13:32:55Z</time>
      </trkpt>
      <trkpt lat="59.361998394405" lon="17.735160872829">
        <ele>10.6</ele>
        <time>2016-04-02T13:32:56Z</time>
      </trkpt>
      <trkpt lat="59.361807873818" lon="17.735612321963">
        <ele>10.6</ele>
        <time>2016-04-02T13:33:00Z</time>
      </trkpt>
      <trkpt lat="59.361694299073" lon="17.735789515329">
        <ele>10.6</ele>
        <time>2016-04-02T13:33:02Z</time>
      </trkpt>
      <trkpt lat="59.361411158491" lon="17.736002750865">
        <ele>10.6</ele>
        <time>2016-04-02T13:33:06Z</time>
      </trkpt>
      <trkpt lat="59.36101896939" lon="17.736148595925">
        <ele>10.6</ele>
        <time>2016-04-02T13:33:11Z</time>
      </trkpt>
      <trkpt lat="59.360942442643" lon="17.73617667529">
        <ele>10.2</ele>
        <time>2016-04-02T13:33:12Z</time>
      </trkpt>
      <trkpt lat="59.360860970575" lon="17.736202323904">
        <ele>9.2</ele>
        <time>2016-04-02T13:33:13Z</time>
      </trkpt>
      <trkpt lat="59.360783354181" lon="17.736228559251">
        <ele>8.8</ele>
        <time>2016-04-02T13:33:14Z</time>
      </trkpt>
      <trkpt lat="59.36070632452" lon="17.736256973892">
        <ele>8.2</ele>
        <time>2016-04-02T13:33:15Z</time>
      </trkpt>
      <trkpt lat="59.360323187871" lon="17.736398376545">
        <ele>8.2</ele>
        <time>2016-04-02T13:33:20Z</time>
      </trkpt>
      <trkpt lat="59.359780795122" lon="17.736613791375">
        <ele>8.2</ele>
        <time>2016-04-02T13:33:27Z</time>
      </trkpt>
      <trkpt lat="59.359624975601" lon="17.736677158539">
        <ele>8.2</ele>
        <time>2016-04-02T13:33:29Z</time>
      </trkpt>
      <trkpt lat="59.359154164278" lon="17.736873378818">
        <ele>7.8</ele>
        <time>2016-04-02T13:33:35Z</time>
      </trkpt>
      <trkpt lat="59.359072608391" lon="17.736906319685">
        <ele>7.4</ele>
        <time>2016-04-02T13:33:36Z</time>
      </trkpt>
      <trkpt lat="59.358994069988" lon="17.736939344371">
        <ele>7</ele>
        <time>2016-04-02T13:33:37Z</time>
      </trkpt>
      <trkpt lat="59.358918129974" lon="17.73696792665">
        <ele>6.2</ele>
        <time>2016-04-02T13:33:38Z</time>
      </trkpt>
      <trkpt lat="59.358843195788" lon="17.737004639372">
        <ele>6.2</ele>
        <time>2016-04-02T13:33:39Z</time>
      </trkpt>
      <trkpt lat="59.358766836679" lon="17.737038921343">
        <ele>5.8</ele>
        <time>2016-04-02T13:33:40Z</time>
      </trkpt>
      <trkpt lat="59.358690896665" lon="17.737067252165">
        <ele>5.4</ele>
        <time>2016-04-02T13:33:41Z</time>
      </trkpt>
      <trkpt lat="59.358615208108" lon="17.737096337358">
        <ele>4.8</ele>
        <time>2016-04-02T13:33:42Z</time>
      </trkpt>
      <trkpt lat="59.358534490411" lon="17.737124081447">
        <ele>4.4</ele>
        <time>2016-04-02T13:33:43Z</time>
      </trkpt>
      <trkpt lat="59.358457544569" lon="17.737155765029">
        <ele>3.8</ele>
        <time>2016-04-02T13:33:44Z</time>
      </trkpt>
      <trkpt lat="59.358149090649" lon="17.737269423593">
        <ele>3.8</ele>
        <time>2016-04-02T13:33:48Z</time>
      </trkpt>
      <trkpt lat="59.357606614081" lon="17.737492968866">
        <ele>3.8</ele>
        <time>2016-04-02T13:33:55Z</time>
      </trkpt>
      <trkpt lat="59.357527740402" lon="17.737523395163">
        <ele>3.4</ele>
        <time>2016-04-02T13:33:56Z</time>
      </trkpt>
      <trkpt lat="59.357450375465" lon="17.737554743469">
        <ele>3</ele>
        <time>2016-04-02T13:33:57Z</time>
      </trkpt>
      <trkpt lat="59.35736781375" lon="17.737583661024">
        <ele>2.6</ele>
        <time>2016-04-02T13:33:58Z</time>
      </trkpt>
      <trkpt lat="59.357291622279" lon="17.73761333295">
        <ele>2.2</ele>
        <time>2016-04-02T13:33:59Z</time>
      </trkpt>
      <trkpt lat="59.357214927894" lon="17.737649710396">
        <ele>1.8</ele>
        <time>2016-04-02T13:34:00Z</time>
      </trkpt>
      <trkpt lat="59.356670607308" lon="17.737869483814">
        <ele>1.8</ele>
        <time>2016-04-02T13:34:07Z</time>
      </trkpt>
      <trkpt lat="59.356134249527" lon="17.738088419042">
        <ele>1.8</ele>
        <time>2016-04-02T13:34:14Z</time>
      </trkpt>
      <trkpt lat="59.355604932542" lon="17.738297212171">
        <ele>1.8</ele>
        <time>2016-04-02T13:34:21Z</time>
      </trkpt>
      <trkpt lat="59.355456572912" lon="17.738358064765">
        <ele>1.8</ele>
        <time>2016-04-02T13:34:23Z</time>
      </trkpt>
      <trkpt lat="59.354874952871" lon="17.738585465712">
        <ele>1.8</ele>
        <time>2016-04-02T13:34:31Z</time>
      </trkpt>
      <trkpt lat="59.354803874359" lon="17.738615556733">
        <ele>1.8</ele>
        <time>2016-04-02T13:34:32Z</time>
      </trkpt>
      <trkpt lat="59.354581334914" lon="17.738705578339">
        <ele>1.4</ele>
        <time>2016-04-02T13:34:35Z</time>
      </trkpt>
      <trkpt lat="59.354506736004" lon="17.738734747351">
        <ele>1</ele>
        <time>2016-04-02T13:34:36Z</time>
      </trkpt>
      <trkpt lat="59.354430460714" lon="17.738766514752">
        <ele>0.4</ele>
        <time>2016-04-02T13:34:37Z</time>
      </trkpt>
      <trkpt lat="59.354354604519" lon="17.738793588289">
        <ele>0</ele>
        <time>2016-04-02T13:34:38Z</time>
      </trkpt>
      <trkpt lat="59.354279754152" lon="17.738822757301">
        <ele>0</ele>
        <time>2016-04-02T13:34:39Z</time>
      </trkpt>
      <trkpt lat="59.35374850933" lon="17.739042111624">
        <ele>0</ele>
        <time>2016-04-02T13:34:46Z</time>
      </trkpt>
      <trkpt lat="59.353672401678" lon="17.739075806862">
        <ele>0</ele>
        <time>2016-04-02T13:34:47Z</time>
      </trkpt>
      <trkpt lat="59.353125398884" lon="17.739289964407">
        <ele>0</ele>
        <time>2016-04-02T13:34:54Z</time>
      </trkpt>
      <trkpt lat="59.352977877444" lon="17.739353080114">
        <ele>0</ele>
        <time>2016-04-02T13:34:56Z</time>
      </trkpt>
      <trkpt lat="59.352386031485" lon="17.739594059739">
        <ele>0</ele>
        <time>2016-04-02T13:35:04Z</time>
      </trkpt>
      <trkpt lat="59.351807009833" lon="17.7398219636">
        <ele>0</ele>
        <time>2016-04-02T13:35:12Z</time>
      </trkpt>
      <trkpt lat="59.351667870293" lon="17.739884241117">
        <ele>0</ele>
        <time>2016-04-02T13:35:14Z</time>
      </trkpt>
      <trkpt lat="59.351128159752" lon="17.740099488309">
        <ele>0</ele>
        <time>2016-04-02T13:35:22Z</time>
      </trkpt>
      <trkpt lat="59.350663886311" lon="17.740254972554">
        <ele>0</ele>
        <time>2016-04-02T13:35:29Z</time>
      </trkpt>
      <trkpt lat="59.350144879063" lon="17.740337031355">
        <ele>0</ele>
        <time>2016-04-02T13:35:37Z</time>
      </trkpt>
      <trkpt lat="59.349831731279" lon="17.740338037183">
        <ele>0</ele>
        <time>2016-04-02T13:35:42Z</time>
      </trkpt>
      <trkpt lat="59.349472985959" lon="17.740306772696">
        <ele>0</ele>
        <time>2016-04-02T13:35:48Z</time>
      </trkpt>
      <trkpt lat="59.349178110717" lon="17.740229994492">
        <ele>0</ele>
        <time>2016-04-02T13:35:53Z</time>
      </trkpt>
      <trkpt lat="59.348809810031" lon="17.740160257084">
        <ele>0</ele>
        <time>2016-04-02T13:35:59Z</time>
      </trkpt>
      <trkpt lat="59.348750214722" lon="17.740156569048">
        <ele>0</ele>
        <time>2016-04-02T13:36:00Z</time>
      </trkpt>
      <trkpt lat="59.348690954689" lon="17.740150198804">
        <ele>0.4</ele>
        <time>2016-04-02T13:36:01Z</time>
      </trkpt>
      <trkpt lat="59.348632281389" lon="17.740139889067">
        <ele>1</ele>
        <time>2016-04-02T13:36:02Z</time>
      </trkpt>
      <trkpt lat="59.348571344976" lon="17.740125136923">
        <ele>1.4</ele>
        <time>2016-04-02T13:36:03Z</time>
      </trkpt>
      <trkpt lat="59.348510408563" lon="17.740115581557">
        <ele>1.8</ele>
        <time>2016-04-02T13:36:04Z</time>
      </trkpt>
      <trkpt lat="59.348454752747" lon="17.740124717828">
        <ele>1.8</ele>
        <time>2016-04-02T13:36:05Z</time>
      </trkpt>
      <trkpt lat="59.348405550994" lon="17.740157658695">
        <ele>1.8</ele>
        <time>2016-04-02T13:36:06Z</time>
      </trkpt>
      <trkpt lat="59.348344446943" lon="17.740347257273">
        <ele>1.8</ele>
        <time>2016-04-02T13:36:08Z</time>
      </trkpt>
      <trkpt lat="59.348317708682" lon="17.740576921333">
        <ele>2.2</ele>
        <time>2016-04-02T13:36:10Z</time>
      </trkpt>
      <trkpt lat="59.348309913515" lon="17.740696782503">
        <ele>2.6</ele>
        <time>2016-04-02T13:36:11Z</time>
      </trkpt>
      <trkpt lat="59.348301196339" lon="17.740814212922">
        <ele>3</ele>
        <time>2016-04-02T13:36:12Z</time>
      </trkpt>
      <trkpt lat="59.348290048412" lon="17.740941198707">
        <ele>3.4</ele>
        <time>2016-04-02T13:36:13Z</time>
      </trkpt>
      <trkpt lat="59.348279990132" lon="17.741072123985">
        <ele>3.8</ele>
        <time>2016-04-02T13:36:14Z</time>
      </trkpt>
      <trkpt lat="59.348242606858" lon="17.741633376009">
        <ele>3.8</ele>
        <time>2016-04-02T13:36:18Z</time>
      </trkpt>
      <trkpt lat="59.348177228038" lon="17.742480869918">
        <ele>3.8</ele>
        <time>2016-04-02T13:36:24Z</time>
      </trkpt>
      <trkpt lat="59.34817286945" lon="17.742625122417">
        <ele>3.8</ele>
        <time>2016-04-02T13:36:25Z</time>
      </trkpt>
      <trkpt lat="59.348128361561" lon="17.74371367977">
        <ele>3</ele>
        <time>2016-04-02T13:36:32Z</time>
      </trkpt>
      <trkpt lat="59.348124673525" lon="17.743863212866">
        <ele>2.6</ele>
        <time>2016-04-02T13:36:33Z</time>
      </trkpt>
      <trkpt lat="59.348122075136" lon="17.744014757618">
        <ele>2.2</ele>
        <time>2016-04-02T13:36:34Z</time>
      </trkpt>
      <trkpt lat="59.348119812023" lon="17.744171750605">
        <ele>1.6</ele>
        <time>2016-04-02T13:36:35Z</time>
      </trkpt>
      <trkpt lat="59.348118973833" lon="17.744884044467">
        <ele>1.6</ele>
        <time>2016-04-02T13:36:40Z</time>
      </trkpt>
      <trkpt lat="59.348122410412" lon="17.745023603102">
        <ele>2</ele>
        <time>2016-04-02T13:36:41Z</time>
      </trkpt>
      <trkpt lat="59.348123667697" lon="17.745156540036">
        <ele>2.6</ele>
        <time>2016-04-02T13:36:42Z</time>
      </trkpt>
      <trkpt lat="59.348124002973" lon="17.745288052047">
        <ele>3</ele>
        <time>2016-04-02T13:36:43Z</time>
      </trkpt>
      <trkpt lat="59.348119895842" lon="17.74542610194">
        <ele>3.4</ele>
        <time>2016-04-02T13:36:44Z</time>
      </trkpt>
      <trkpt lat="59.348113274141" lon="17.7455635651">
        <ele>3.8</ele>
        <time>2016-04-02T13:36:45Z</time>
      </trkpt>
      <trkpt lat="59.348101874757" lon="17.745847292415">
        <ele>3.8</ele>
        <time>2016-04-02T13:36:47Z</time>
      </trkpt>
      <trkpt lat="59.348013110436" lon="17.746602501605">
        <ele>3.8</ele>
        <time>2016-04-02T13:36:52Z</time>
      </trkpt>
      <trkpt lat="59.347972122945" lon="17.746899556141">
        <ele>3.4</ele>
        <time>2016-04-02T13:36:54Z</time>
      </trkpt>
      <trkpt lat="59.347959131" lon="17.747049340694">
        <ele>2.8</ele>
        <time>2016-04-02T13:36:55Z</time>
      </trkpt>
      <trkpt lat="59.347939433535" lon="17.747202980921">
        <ele>2</ele>
        <time>2016-04-02T13:36:56Z</time>
      </trkpt>
      <trkpt lat="59.34791973607" lon="17.747351172913">
        <ele>1.6</ele>
        <time>2016-04-02T13:36:57Z</time>
      </trkpt>
      <trkpt lat="59.347899870967" lon="17.747499197267">
        <ele>1.6</ele>
        <time>2016-04-02T13:36:58Z</time>
      </trkpt>
      <trkpt lat="59.347773471915" lon="17.748530422424">
        <ele>1.6</ele>
        <time>2016-04-02T13:37:05Z</time>
      </trkpt>
      <trkpt lat="59.34774623074" lon="17.748820100888">
        <ele>1.6</ele>
        <time>2016-04-02T13:37:07Z</time>
      </trkpt>
      <trkpt lat="59.347730808044" lon="17.749728195934">
        <ele>1.6</ele>
        <time>2016-04-02T13:37:13Z</time>
      </trkpt>
      <trkpt lat="59.347813118302" lon="17.750597650421">
        <ele>1.6</ele>
        <time>2016-04-02T13:37:19Z</time>
      </trkpt>
      <trkpt lat="59.347838850735" lon="17.750748105526">
        <ele>2</ele>
        <time>2016-04-02T13:37:20Z</time>
      </trkpt>
      <trkpt lat="59.347867852109" lon="17.750884730496">
        <ele>2.8</ele>
        <time>2016-04-02T13:37:21Z</time>
      </trkpt>
      <trkpt lat="59.347900206243" lon="17.751011548643">
        <ele>3.4</ele>
        <time>2016-04-02T13:37:22Z</time>
      </trkpt>
      <trkpt lat="59.347933482386" lon="17.7511375286">
        <ele>3.8</ele>
        <time>2016-04-02T13:37:23Z</time>
      </trkpt>
      <trkpt lat="59.347966004158" lon="17.751259233788">
        <ele>3.8</ele>
        <time>2016-04-02T13:37:24Z</time>
      </trkpt>
      <trkpt lat="59.348110759571" lon="17.752054676098">
        <ele>3.8</ele>
        <time>2016-04-02T13:37:30Z</time>
      </trkpt>
      <trkpt lat="59.348156776202" lon="17.752483494102">
        <ele>4.2</ele>
        <time>2016-04-02T13:37:33Z</time>
      </trkpt>
      <trkpt lat="59.348165493378" lon="17.752630177352">
        <ele>4.6</ele>
        <time>2016-04-02T13:37:34Z</time>
      </trkpt>
      <trkpt lat="59.348172785631" lon="17.752783230846">
        <ele>5.2</ele>
        <time>2016-04-02T13:37:35Z</time>
      </trkpt>
      <trkpt lat="59.348173959097" lon="17.752928572992">
        <ele>5.6</ele>
        <time>2016-04-02T13:37:36Z</time>
      </trkpt>
      <trkpt lat="59.348171360708" lon="17.753077603174">
        <ele>6</ele>
        <time>2016-04-02T13:37:37Z</time>
      </trkpt>
      <trkpt lat="59.348159793686" lon="17.753224286424">
        <ele>6</ele>
        <time>2016-04-02T13:37:38Z</time>
      </trkpt>
      <trkpt lat="59.348142862248" lon="17.753646901822">
        <ele>6</ele>
        <time>2016-04-02T13:37:41Z</time>
      </trkpt>
      <trkpt lat="59.348088966631" lon="17.754739650125">
        <ele>6</ele>
        <time>2016-04-02T13:37:49Z</time>
      </trkpt>
      <trkpt lat="59.348081842016" lon="17.754875101629">
        <ele>6</ele>
        <time>2016-04-02T13:37:50Z</time>
      </trkpt>
      <trkpt lat="59.348055355212" lon="17.755401568768">
        <ele>6.4</ele>
        <time>2016-04-02T13:37:54Z</time>
      </trkpt>
      <trkpt lat="59.348050577529" lon="17.755537690824">
        <ele>6.8</ele>
        <time>2016-04-02T13:37:55Z</time>
      </trkpt>
      <trkpt lat="59.348047308588" lon="17.755671046853">
        <ele>7.2</ele>
        <time>2016-04-02T13:37:56Z</time>
      </trkpt>
      <trkpt lat="59.348041357439" lon="17.755805660167">
        <ele>7.6</ele>
        <time>2016-04-02T13:37:57Z</time>
      </trkpt>
      <trkpt lat="59.348035741566" lon="17.755944967345">
        <ele>8.2</ele>
        <time>2016-04-02T13:37:58Z</time>
      </trkpt>
      <trkpt lat="59.348002381604" lon="17.756768237563">
        <ele>8.2</ele>
        <time>2016-04-02T13:38:04Z</time>
      </trkpt>
      <trkpt lat="59.347946055236" lon="17.757709944028">
        <ele>8.2</ele>
        <time>2016-04-02T13:38:11Z</time>
      </trkpt>
      <trkpt lat="59.347932811834" lon="17.757979086837">
        <ele>8.6</ele>
        <time>2016-04-02T13:38:13Z</time>
      </trkpt>
      <trkpt lat="59.347930297264" lon="17.758100792025">
        <ele>9</ele>
        <time>2016-04-02T13:38:14Z</time>
      </trkpt>
      <trkpt lat="59.347925854857" lon="17.758223754498">
        <ele>9.4</ele>
        <time>2016-04-02T13:38:15Z</time>
      </trkpt>
      <trkpt lat="59.347925854857" lon="17.758357361984">
        <ele>9.8</ele>
        <time>2016-04-02T13:38:16Z</time>
      </trkpt>
      <trkpt lat="59.347923675563" lon="17.758475211498">
        <ele>10.2</ele>
        <time>2016-04-02T13:38:17Z</time>
      </trkpt>
      <trkpt lat="59.347961561751" lon="17.759125060205">
        <ele>10.2</ele>
        <time>2016-04-02T13:38:22Z</time>
      </trkpt>
      <trkpt lat="59.348043620552" lon="17.759847244709">
        <ele>10.2</ele>
        <time>2016-04-02T13:38:28Z</time>
      </trkpt>
      <trkpt lat="59.348117213634" lon="17.76043473208">
        <ele>10.2</ele>
        <time>2016-04-02T13:38:33Z</time>
      </trkpt>
      <trkpt lat="59.348235398424" lon="17.761278454134">
        <ele>10.2</ele>
        <time>2016-04-02T13:38:40Z</time>
      </trkpt>
      <trkpt lat="59.348280409227" lon="17.761527480383">
        <ele>10.6</ele>
        <time>2016-04-02T13:38:42Z</time>
      </trkpt>
      <trkpt lat="59.348298095036" lon="17.761650442856">
        <ele>11</ele>
        <time>2016-04-02T13:38:43Z</time>
      </trkpt>
      <trkpt lat="59.348318127777" lon="17.761775584623">
        <ele>11.4</ele>
        <time>2016-04-02T13:38:44Z</time>
      </trkpt>
      <trkpt lat="59.348333969568" lon="17.761898882372">
        <ele>11.8</ele>
        <time>2016-04-02T13:38:45Z</time>
      </trkpt>
      <trkpt lat="59.348355678689" lon="17.76202226394">
        <ele>12.2</ele>
        <time>2016-04-02T13:38:46Z</time>
      </trkpt>
      <trkpt lat="59.348376214344" lon="17.762146232241">
        <ele>12.2</ele>
        <time>2016-04-02T13:38:47Z</time>
      </trkpt>
      <trkpt lat="59.348444610648" lon="17.762627018025">
        <ele>12.2</ele>
        <time>2016-04-02T13:38:51Z</time>
      </trkpt>
      <trkpt lat="59.348408484659" lon="17.762837487534">
        <ele>12.2</ele>
        <time>2016-04-02T13:38:53Z</time>
      </trkpt>
      <trkpt lat="59.348290635145" lon="17.762944440578">
        <ele>12.2</ele>
        <time>2016-04-02T13:38:55Z</time>
      </trkpt>
      <trkpt lat="59.348239337917" lon="17.762997246548">
        <ele>12.2</ele>
        <time>2016-04-02T13:38:56Z</time>
      </trkpt>
      <trkpt lat="59.348189130336" lon="17.763037814944">
        <ele>12.2</ele>
        <time>2016-04-02T13:38:57Z</time>
      </trkpt>
      <trkpt lat="59.348027108209" lon="17.763179469054">
        <ele>13.2</ele>
        <time>2016-04-02T13:39:00Z</time>
      </trkpt>
      <trkpt lat="59.347981845949" lon="17.763233867585">
        <ele>13.6</ele>
        <time>2016-04-02T13:39:01Z</time>
      </trkpt>
      <trkpt lat="59.347939349716" lon="17.763285248632">
        <ele>14</ele>
        <time>2016-04-02T13:39:02Z</time>
      </trkpt>
      <trkpt lat="59.34789375218" lon="17.763329253607">
        <ele>14.6</ele>
        <time>2016-04-02T13:39:03Z</time>
      </trkpt>
      <trkpt lat="59.347848070825" lon="17.763385077061">
        <ele>15</ele>
        <time>2016-04-02T13:39:04Z</time>
      </trkpt>
      <trkpt lat="59.347798869072" lon="17.763422795611">
        <ele>15.6</ele>
        <time>2016-04-02T13:39:05Z</time>
      </trkpt>
      <trkpt lat="59.347749751138" lon="17.763457077582">
        <ele>16</ele>
        <time>2016-04-02T13:39:06Z</time>
      </trkpt>
      <trkpt lat="59.347694346779" lon="17.76350502205">
        <ele>16.6</ele>
        <time>2016-04-02T13:39:07Z</time>
      </trkpt>
      <trkpt lat="59.34763391328" lon="17.76353771146">
        <ele>16.6</ele>
        <time>2016-04-02T13:39:08Z</time>
      </trkpt>
      <trkpt lat="59.347572976867" lon="17.763581381159">
        <ele>16.6</ele>
        <time>2016-04-02T13:39:09Z</time>
      </trkpt>
      <trkpt lat="59.347408188713" lon="17.763684227072">
        <ele>16.6</ele>
        <time>2016-04-02T13:39:12Z</time>
      </trkpt>
      <trkpt lat="59.347346917024" lon="17.763722364717">
        <ele>16.6</ele>
        <time>2016-04-02T13:39:13Z</time>
      </trkpt>
      <trkpt lat="59.346844086843" lon="17.764013132828">
        <ele>16.6</ele>
        <time>2016-04-02T13:39:21Z</time>
      </trkpt>
      <trkpt lat="59.346367156733" lon="17.764276659764">
        <ele>16.6</ele>
        <time>2016-04-02T13:39:28Z</time>
      </trkpt>
      <trkpt lat="59.345810766211" lon="17.764568517522">
        <ele>16.6</ele>
        <time>2016-04-02T13:39:36Z</time>
      </trkpt>
      <trkpt lat="59.345390665383" lon="17.76469357547">
        <ele>16.6</ele>
        <time>2016-04-02T13:39:42Z</time>
      </trkpt>
      <trkpt lat="59.345164856997" lon="17.764694581298">
        <ele>16.2</ele>
        <time>2016-04-02T13:39:45Z</time>
      </trkpt>
      <trkpt lat="59.345082714377" lon="17.764679242421">
        <ele>15.8</ele>
        <time>2016-04-02T13:39:46Z</time>
      </trkpt>
      <trkpt lat="59.344998308644" lon="17.764657617119">
        <ele>15.4</ele>
        <time>2016-04-02T13:39:47Z</time>
      </trkpt>
      <trkpt lat="59.344912142712" lon="17.764630795039">
        <ele>14.6</ele>
        <time>2016-04-02T13:39:48Z</time>
      </trkpt>
      <trkpt lat="59.344826563513" lon="17.764594836688">
        <ele>14</ele>
        <time>2016-04-02T13:39:49Z</time>
      </trkpt>
      <trkpt lat="59.344737044821" lon="17.764552675731">
        <ele>12.6</ele>
        <time>2016-04-02T13:39:50Z</time>
      </trkpt>
      <trkpt lat="59.344649537785" lon="17.764500540313">
        <ele>11.8</ele>
        <time>2016-04-02T13:39:51Z</time>
      </trkpt>
      <trkpt lat="59.344555073772" lon="17.764442537565">
        <ele>11</ele>
        <time>2016-04-02T13:39:52Z</time>
      </trkpt>
      <trkpt lat="59.344465052166" lon="17.764380343867">
        <ele>10</ele>
        <time>2016-04-02T13:39:53Z</time>
      </trkpt>
      <trkpt lat="59.344373857094" lon="17.764305577319">
        <ele>9.2</ele>
        <time>2016-04-02T13:39:54Z</time>
      </trkpt>
      <trkpt lat="59.344282997298" lon="17.764219327568">
        <ele>8.4</ele>
        <time>2016-04-02T13:39:55Z</time>
      </trkpt>
      <trkpt lat="59.344193646244" lon="17.764135173292">
        <ele>7.4</ele>
        <time>2016-04-02T13:39:56Z</time>
      </trkpt>
      <trkpt lat="59.344105552475" lon="17.764054455595">
        <ele>6.6</ele>
        <time>2016-04-02T13:39:57Z</time>
      </trkpt>
      <trkpt lat="59.344018464534" lon="17.763975665735">
        <ele>5.8</ele>
        <time>2016-04-02T13:39:58Z</time>
      </trkpt>
      <trkpt lat="59.343927185643" lon="17.763899390445">
        <ele>5.2</ele>
        <time>2016-04-02T13:39:59Z</time>
      </trkpt>
      <trkpt lat="59.343844791566" lon="17.763825462087">
        <ele>4.4</ele>
        <time>2016-04-02T13:40:00Z</time>
      </trkpt>
      <trkpt lat="59.343762565127" lon="17.763751785186">
        <ele>3.6</ele>
        <time>2016-04-02T13:40:01Z</time>
      </trkpt>
      <trkpt lat="59.34368100924" lon="17.763679281751">
        <ele>3</ele>
        <time>2016-04-02T13:40:02Z</time>
      </trkpt>
      <trkpt lat="59.343599453353" lon="17.763611388361">
        <ele>2.2</ele>
        <time>2016-04-02T13:40:03Z</time>
      </trkpt>
      <trkpt lat="59.343522004597" lon="17.763538046736">
        <ele>2.2</ele>
        <time>2016-04-02T13:40:04Z</time>
      </trkpt>
      <trkpt lat="59.343287143759" lon="17.763320033517">
        <ele>2.6</ele>
        <time>2016-04-02T13:40:07Z</time>
      </trkpt>
      <trkpt lat="59.343213215401" lon="17.763250799023">
        <ele>3</ele>
        <time>2016-04-02T13:40:08Z</time>
      </trkpt>
      <trkpt lat="59.343141047242" lon="17.7631823189">
        <ele>3.4</ele>
        <time>2016-04-02T13:40:09Z</time>
      </trkpt>
      <trkpt lat="59.343066783608" lon="17.763120041383">
        <ele>3.8</ele>
        <time>2016-04-02T13:40:10Z</time>
      </trkpt>
      <trkpt lat="59.342996627105" lon="17.763058182961">
        <ele>4.2</ele>
        <time>2016-04-02T13:40:11Z</time>
      </trkpt>
      <trkpt lat="59.342926135326" lon="17.762998922928">
        <ele>4.2</ele>
        <time>2016-04-02T13:40:12Z</time>
      </trkpt>
      <trkpt lat="59.342398243264" lon="17.762518556239">
        <ele>4.2</ele>
        <time>2016-04-02T13:40:20Z</time>
      </trkpt>
      <trkpt lat="59.342337306851" lon="17.762454015609">
        <ele>4.2</ele>
        <time>2016-04-02T13:40:21Z</time>
      </trkpt>
      <trkpt lat="59.342087526231" lon="17.762224519187">
        <ele>4.6</ele>
        <time>2016-04-02T13:40:25Z</time>
      </trkpt>
      <trkpt lat="59.342025835447" lon="17.762169282466">
        <ele>5</ele>
        <time>2016-04-02T13:40:26Z</time>
      </trkpt>
      <trkpt lat="59.341965318129" lon="17.76211446484">
        <ele>5.4</ele>
        <time>2016-04-02T13:40:27Z</time>
      </trkpt>
      <trkpt lat="59.34190488463" lon="17.762058473748">
        <ele>5.8</ele>
        <time>2016-04-02T13:40:28Z</time>
      </trkpt>
      <trkpt lat="59.341845708416" lon="17.762000471">
        <ele>6.2</ele>
        <time>2016-04-02T13:40:29Z</time>
      </trkpt>
      <trkpt lat="59.341568938078" lon="17.76174817581">
        <ele>6.6</ele>
        <time>2016-04-02T13:40:34Z</time>
      </trkpt>
      <trkpt lat="59.341515210099" lon="17.761704925206">
        <ele>7</ele>
        <time>2016-04-02T13:40:35Z</time>
      </trkpt>
      <trkpt lat="59.341460895387" lon="17.761662177516">
        <ele>7.4</ele>
        <time>2016-04-02T13:40:36Z</time>
      </trkpt>
      <trkpt lat="59.341405742485" lon="17.761621776758">
        <ele>8</ele>
        <time>2016-04-02T13:40:37Z</time>
      </trkpt>
      <trkpt lat="59.341351846868" lon="17.761577604145">
        <ele>8.4</ele>
        <time>2016-04-02T13:40:38Z</time>
      </trkpt>
      <trkpt lat="59.341148753431" lon="17.761437123501">
        <ele>8.4</ele>
        <time>2016-04-02T13:40:42Z</time>
      </trkpt>
      <trkpt lat="59.341103072076" lon="17.761409882326">
        <ele>8.8</ele>
        <time>2016-04-02T13:40:43Z</time>
      </trkpt>
      <trkpt lat="59.341058648006" lon="17.761389514309">
        <ele>9.2</ele>
        <time>2016-04-02T13:40:44Z</time>
      </trkpt>
      <trkpt lat="59.341009362434" lon="17.761373923975">
        <ele>9.6</ele>
        <time>2016-04-02T13:40:45Z</time>
      </trkpt>
      <trkpt lat="59.340964100174" lon="17.761352298673">
        <ele>10</ele>
        <time>2016-04-02T13:40:46Z</time>
      </trkpt>
      <trkpt lat="59.340922106855" lon="17.761314077209">
        <ele>10.4</ele>
        <time>2016-04-02T13:40:47Z</time>
      </trkpt>
      <trkpt lat="59.340741728367" lon="17.761172758375">
        <ele>10.8</ele>
        <time>2016-04-02T13:40:51Z</time>
      </trkpt>
      <trkpt lat="59.340696047012" lon="17.761139482232">
        <ele>11.2</ele>
        <time>2016-04-02T13:40:52Z</time>
      </trkpt>
      <trkpt lat="59.340654137512" lon="17.761101763682">
        <ele>11.6</ele>
        <time>2016-04-02T13:40:53Z</time>
      </trkpt>
      <trkpt lat="59.340615664591" lon="17.7610616982">
        <ele>12</ele>
        <time>2016-04-02T13:40:54Z</time>
      </trkpt>
      <trkpt lat="59.340579203326" lon="17.761019285786">
        <ele>12.6</ele>
        <time>2016-04-02T13:40:55Z</time>
      </trkpt>
      <trkpt lat="59.340546011002" lon="17.760975029354">
        <ele>12.6</ele>
        <time>2016-04-02T13:40:56Z</time>
      </trkpt>
      <trkpt lat="59.340480632182" lon="17.76089070744">
        <ele>13</ele>
        <time>2016-04-02T13:40:58Z</time>
      </trkpt>
      <trkpt lat="59.340447691315" lon="17.760847792112">
        <ele>13.4</ele>
        <time>2016-04-02T13:40:59Z</time>
      </trkpt>
      <trkpt lat="59.340418522303" lon="17.760796746341">
        <ele>13.8</ele>
        <time>2016-04-02T13:41:00Z</time>
      </trkpt>
      <trkpt lat="59.340387593092" lon="17.760751064986">
        <ele>14.2</ele>
        <time>2016-04-02T13:41:01Z</time>
      </trkpt>
      <trkpt lat="59.340361022469" lon="17.760702366147">
        <ele>14.6</ele>
        <time>2016-04-02T13:41:02Z</time>
      </trkpt>
      <trkpt lat="59.340336295864" lon="17.760649727815">
        <ele>15</ele>
        <time>2016-04-02T13:41:03Z</time>
      </trkpt>
      <trkpt lat="59.340309389965" lon="17.760595999836">
        <ele>15.4</ele>
        <time>2016-04-02T13:41:04Z</time>
      </trkpt>
      <trkpt lat="59.340284579541" lon="17.760543864418">
        <ele>15.8</ele>
        <time>2016-04-02T13:41:05Z</time>
      </trkpt>
      <trkpt lat="59.340255242891" lon="17.760487286593">
        <ele>16.2</ele>
        <time>2016-04-02T13:41:06Z</time>
      </trkpt>
      <trkpt lat="59.340228420811" lon="17.760419309384">
        <ele>16.8</ele>
        <time>2016-04-02T13:41:07Z</time>
      </trkpt>
      <trkpt lat="59.340166562389" lon="17.760286120993">
        <ele>16.8</ele>
        <time>2016-04-02T13:41:09Z</time>
      </trkpt>
      <trkpt lat="59.340112331496" lon="17.760136084983">
        <ele>17.2</ele>
        <time>2016-04-02T13:41:11Z</time>
      </trkpt>
      <trkpt lat="59.34008433595" lon="17.76006173753">
        <ele>17.6</ele>
        <time>2016-04-02T13:41:12Z</time>
      </trkpt>
      <trkpt lat="59.340059860802" lon="17.759982863851">
        <ele>18</ele>
        <time>2016-04-02T13:41:13Z</time>
      </trkpt>
      <trkpt lat="59.340034966559" lon="17.759901391783">
        <ele>18.4</ele>
        <time>2016-04-02T13:41:14Z</time>
      </trkpt>
      <trkpt lat="59.340010323773" lon="17.759816064041">
        <ele>18.8</ele>
        <time>2016-04-02T13:41:15Z</time>
      </trkpt>
      <trkpt lat="59.339848301646" lon="17.759231761792">
        <ele>18.8</ele>
        <time>2016-04-02T13:41:22Z</time>
      </trkpt>
      <trkpt lat="59.339723662793" lon="17.758889277358">
        <ele>18.8</ele>
        <time>2016-04-02T13:41:26Z</time>
      </trkpt>
      <trkpt lat="59.339648644788" lon="17.758740414814">
        <ele>18.8</ele>
        <time>2016-04-02T13:41:28Z</time>
      </trkpt>
      <trkpt lat="59.339304735431" lon="17.758148401217">
        <ele>18.8</ele>
        <time>2016-04-02T13:41:36Z</time>
      </trkpt>
      <trkpt lat="59.339034754432" lon="17.757683121948">
        <ele>18.8</ele>
        <time>2016-04-02T13:41:42Z</time>
      </trkpt>
      <trkpt lat="59.338874073409" lon="17.757462845616">
        <ele>18.8</ele>
        <time>2016-04-02T13:41:45Z</time>
      </trkpt>
      <trkpt lat="59.338767120365" lon="17.757336278926">
        <ele>18.8</ele>
        <time>2016-04-02T13:41:47Z</time>
      </trkpt>
      <trkpt lat="59.338709788169" lon="17.75728732863">
        <ele>18.8</ele>
        <time>2016-04-02T13:41:48Z</time>
      </trkpt>
      <trkpt lat="59.338480710842" lon="17.756990274094">
        <ele>18.8</ele>
        <time>2016-04-02T13:41:52Z</time>
      </trkpt>
      <trkpt lat="59.338435197125" lon="17.75690259942">
        <ele>18.8</ele>
        <time>2016-04-02T13:41:53Z</time>
      </trkpt>
      <trkpt lat="59.338260853605" lon="17.756568748343">
        <ele>18.8</ele>
        <time>2016-04-02T13:41:57Z</time>
      </trkpt>
      <trkpt lat="59.338004283646" lon="17.755986122474">
        <ele>18.8</ele>
        <time>2016-04-02T13:42:03Z</time>
      </trkpt>
      <trkpt lat="59.337734554104" lon="17.755191602173">
        <ele>18.8</ele>
        <time>2016-04-02T13:42:10Z</time>
      </trkpt>
      <trkpt lat="59.337625002671" lon="17.754785499118">
        <ele>18.2</ele>
        <time>2016-04-02T13:42:13Z</time>
      </trkpt>
      <trkpt lat="59.33758401518" lon="17.75464535375">
        <ele>17.8</ele>
        <time>2016-04-02T13:42:14Z</time>
      </trkpt>
      <trkpt lat="59.33753288559" lon="17.75450621421">
        <ele>17.2</ele>
        <time>2016-04-02T13:42:15Z</time>
      </trkpt>
      <trkpt lat="59.337477648869" lon="17.754391130723">
        <ele>16.8</ele>
        <time>2016-04-02T13:42:16Z</time>
      </trkpt>
      <trkpt lat="59.337415455171" lon="17.754293816864">
        <ele>16.2</ele>
        <time>2016-04-02T13:42:17Z</time>
      </trkpt>
      <trkpt lat="59.33735016017" lon="17.754196251548">
        <ele>15</ele>
        <time>2016-04-02T13:42:18Z</time>
      </trkpt>
      <trkpt lat="59.337282434418" lon="17.754099440603">
        <ele>14.4</ele>
        <time>2016-04-02T13:42:19Z</time>
      </trkpt>
      <trkpt lat="59.337212361734" lon="17.754001288554">
        <ele>13.8</ele>
        <time>2016-04-02T13:42:20Z</time>
      </trkpt>
      <trkpt lat="59.336914720465" lon="17.75341908178">
        <ele>13.4</ele>
        <time>2016-04-02T13:42:25Z</time>
      </trkpt>
      <trkpt lat="59.336886054367" lon="17.753259322766">
        <ele>13</ele>
        <time>2016-04-02T13:42:26Z</time>
      </trkpt>
      <trkpt lat="59.336866105445" lon="17.753094283155">
        <ele>12.6</ele>
        <time>2016-04-02T13:42:27Z</time>
      </trkpt>
      <trkpt lat="59.336850431292" lon="17.752926896612">
        <ele>12.2</ele>
        <time>2016-04-02T13:42:28Z</time>
      </trkpt>
      <trkpt lat="59.33683383513" lon="17.752759090974">
        <ele>11.8</ele>
        <time>2016-04-02T13:42:29Z</time>
      </trkpt>
      <trkpt lat="59.336753704166" lon="17.751807493867">
        <ele>11.8</ele>
        <time>2016-04-02T13:42:35Z</time>
      </trkpt>
      <trkpt lat="59.336668376424" lon="17.751381274252">
        <ele>11.8</ele>
        <time>2016-04-02T13:42:38Z</time>
      </trkpt>
      <trkpt lat="59.336626299286" lon="17.751271806638">
        <ele>11.8</ele>
        <time>2016-04-02T13:42:39Z</time>
      </trkpt>
      <trkpt lat="59.336398982158" lon="17.750750536277">
        <ele>11.8</ele>
        <time>2016-04-02T13:42:44Z</time>
      </trkpt>
      <trkpt lat="59.336298566996" lon="17.750357928081">
        <ele>11.2</ele>
        <time>2016-04-02T13:42:47Z</time>
      </trkpt>
      <trkpt lat="59.336258585333" lon="17.750239156558">
        <ele>10.8</ele>
        <time>2016-04-02T13:42:48Z</time>
      </trkpt>
      <trkpt lat="59.336211395236" lon="17.750120552673">
        <ele>10.4</ele>
        <time>2016-04-02T13:42:49Z</time>
      </trkpt>
      <trkpt lat="59.336162361121" lon="17.750002200245">
        <ele>10</ele>
        <time>2016-04-02T13:42:50Z</time>
      </trkpt>
      <trkpt lat="59.336109722789" lon="17.749882674351">
        <ele>9.6</ele>
        <time>2016-04-02T13:42:51Z</time>
      </trkpt>
      <trkpt lat="59.335858433427" lon="17.749432901597">
        <ele>9.6</ele>
        <time>2016-04-02T13:42:55Z</time>
      </trkpt>
      <trkpt lat="59.335796491186" lon="17.749313794798">
        <ele>9.2</ele>
        <time>2016-04-02T13:42:56Z</time>
      </trkpt>
      <trkpt lat="59.335734548945" lon="17.749192173429">
        <ele>8.8</ele>
        <time>2016-04-02T13:42:57Z</time>
      </trkpt>
      <trkpt lat="59.335671600876" lon="17.749077760494">
        <ele>8.4</ele>
        <time>2016-04-02T13:42:58Z</time>
      </trkpt>
      <trkpt lat="59.335607982255" lon="17.748963431378">
        <ele>8</ele>
        <time>2016-04-02T13:42:59Z</time>
      </trkpt>
      <trkpt lat="59.335546207652" lon="17.748849772814">
        <ele>7.6</ele>
        <time>2016-04-02T13:43:00Z</time>
      </trkpt>
      <trkpt lat="59.335417461668" lon="17.748614660519">
        <ele>7.6</ele>
        <time>2016-04-02T13:43:02Z</time>
      </trkpt>
      <trkpt lat="59.335296175575" lon="17.748395306196">
        <ele>7</ele>
        <time>2016-04-02T13:43:04Z</time>
      </trkpt>
      <trkpt lat="59.335235909714" lon="17.748287514962">
        <ele>6.6</ele>
        <time>2016-04-02T13:43:05Z</time>
      </trkpt>
      <trkpt lat="59.335175811491" lon="17.748183495583">
        <ele>6.2</ele>
        <time>2016-04-02T13:43:06Z</time>
      </trkpt>
      <trkpt lat="59.335116551458" lon="17.748076626358">
        <ele>5.4</ele>
        <time>2016-04-02T13:43:07Z</time>
      </trkpt>
      <trkpt lat="59.334929802726" lon="17.747782170211">
        <ele>5.4</ele>
        <time>2016-04-02T13:43:10Z</time>
      </trkpt>
      <trkpt lat="59.334538703272" lon="17.7473908193">
        <ele>5.8</ele>
        <time>2016-04-02T13:43:16Z</time>
      </trkpt>
      <trkpt lat="59.334473575909" lon="17.74734974799">
        <ele>6.2</ele>
        <time>2016-04-02T13:43:17Z</time>
      </trkpt>
      <trkpt lat="59.334412052763" lon="17.747309179594">
        <ele>6.6</ele>
        <time>2016-04-02T13:43:18Z</time>
      </trkpt>
      <trkpt lat="59.334349523789" lon="17.74725838528">
        <ele>7.2</ele>
        <time>2016-04-02T13:43:19Z</time>
      </trkpt>
      <trkpt lat="59.334288671195" lon="17.747213458296">
        <ele>7.6</ele>
        <time>2016-04-02T13:43:20Z</time>
      </trkpt>
      <trkpt lat="59.334159506116" lon="17.747147408924">
        <ele>7.6</ele>
        <time>2016-04-02T13:43:22Z</time>
      </trkpt>
      <trkpt lat="59.333765389178" lon="17.746900897245">
        <ele>7.6</ele>
        <time>2016-04-02T13:43:28Z</time>
      </trkpt>
      <trkpt lat="59.333586519432" lon="17.746791932545">
        <ele>7.6</ele>
        <time>2016-04-02T13:43:31Z</time>
      </trkpt>
      <trkpt lat="59.333494402351" lon="17.746735773815">
        <ele>8</ele>
        <time>2016-04-02T13:43:33Z</time>
      </trkpt>
      <trkpt lat="59.333448888634" lon="17.746718926196">
        <ele>8.4</ele>
        <time>2016-04-02T13:43:34Z</time>
      </trkpt>
      <trkpt lat="59.333412511188" lon="17.746697719989">
        <ele>9</ele>
        <time>2016-04-02T13:43:35Z</time>
      </trkpt>
      <trkpt lat="59.333369428222" lon="17.746667545149">
        <ele>9.4</ele>
        <time>2016-04-02T13:43:36Z</time>
      </trkpt>
      <trkpt lat="59.333324585057" lon="17.746647680046">
        <ele>9.8</ele>
        <time>2016-04-02T13:43:37Z</time>
      </trkpt>
      <trkpt lat="59.333283094652" lon="17.746629491323">
        <ele>10.2</ele>
        <time>2016-04-02T13:43:38Z</time>
      </trkpt>
      <trkpt lat="59.333237748573" lon="17.746606022003">
        <ele>10.8</ele>
        <time>2016-04-02T13:43:39Z</time>
      </trkpt>
      <trkpt lat="59.333194162693" lon="17.746580205751">
        <ele>11.2</ele>
        <time>2016-04-02T13:43:40Z</time>
      </trkpt>
      <trkpt lat="59.33315082827" lon="17.746552545481">
        <ele>11.6</ele>
        <time>2016-04-02T13:43:41Z</time>
      </trkpt>
      <trkpt lat="59.333111181883" lon="17.746516670949">
        <ele>12</ele>
        <time>2016-04-02T13:43:42Z</time>
      </trkpt>
      <trkpt lat="59.333000624622" lon="17.7463514637">
        <ele>12</ele>
        <time>2016-04-02T13:43:45Z</time>
      </trkpt>
      <trkpt lat="59.332944298254" lon="17.745999172443">
        <ele>12</ele>
        <time>2016-04-02T13:43:49Z</time>
      </trkpt>
      <trkpt lat="59.332889061533" lon="17.745738579172">
        <ele>12</ele>
        <time>2016-04-02T13:43:52Z</time>
      </trkpt>
      <trkpt lat="59.332735421306" lon="17.745673284171">
        <ele>12</ele>
        <time>2016-04-02T13:43:55Z</time>
      </trkpt>
      <trkpt lat="59.332535177715" lon="17.745790044038">
        <ele>12</ele>
        <time>2016-04-02T13:43:58Z</time>
      </trkpt>
      <trkpt lat="59.332003094703" lon="17.745980229349">
        <ele>12</ele>
        <time>2016-04-02T13:44:06Z</time>
      </trkpt>
      <trkpt lat="59.331935871865" lon="17.745988275973">
        <ele>11.6</ele>
        <time>2016-04-02T13:44:07Z</time>
      </trkpt>
      <trkpt lat="59.331862865516" lon="17.745991209638">
        <ele>11.2</ele>
        <time>2016-04-02T13:44:08Z</time>
      </trkpt>
      <trkpt lat="59.331797821972" lon="17.746005207411">
        <ele>10.8</ele>
        <time>2016-04-02T13:44:09Z</time>
      </trkpt>
      <trkpt lat="59.331730012401" lon="17.746011074741">
        <ele>10.4</ele>
        <time>2016-04-02T13:44:10Z</time>
      </trkpt>
      <trkpt lat="59.331660610269" lon="17.746020211012">
        <ele>10</ele>
        <time>2016-04-02T13:44:11Z</time>
      </trkpt>
      <trkpt lat="59.331519459073" lon="17.746045775807">
        <ele>10</ele>
        <time>2016-04-02T13:44:13Z</time>
      </trkpt>
      <trkpt lat="59.330946640027" lon="17.746126912599">
        <ele>10</ele>
        <time>2016-04-02T13:44:21Z</time>
      </trkpt>
      <trkpt lat="59.330808757772" lon="17.746144263132">
        <ele>10.4</ele>
        <time>2016-04-02T13:44:23Z</time>
      </trkpt>
      <trkpt lat="59.330733991224" lon="17.746150884833">
        <ele>10.8</ele>
        <time>2016-04-02T13:44:24Z</time>
      </trkpt>
      <trkpt lat="59.330661236332" lon="17.746158344724">
        <ele>11.2</ele>
        <time>2016-04-02T13:44:25Z</time>
      </trkpt>
      <trkpt lat="59.330590912191" lon="17.746165469339">
        <ele>11.6</ele>
        <time>2016-04-02T13:44:26Z</time>
      </trkpt>
      <trkpt lat="59.330523018801" lon="17.746175024705">
        <ele>12.2</ele>
        <time>2016-04-02T13:44:27Z</time>
      </trkpt>
      <trkpt lat="59.330244488264" lon="17.746205786278">
        <ele>12.2</ele>
        <time>2016-04-02T13:44:31Z</time>
      </trkpt>
      <trkpt lat="59.329751716363" lon="17.746253227832">
        <ele>12.2</ele>
        <time>2016-04-02T13:44:38Z</time>
      </trkpt>
      <trkpt lat="59.329182250077" lon="17.746310979123">
        <ele>12.6</ele>
        <time>2016-04-02T13:44:46Z</time>
      </trkpt>
      <trkpt lat="59.329111925936" lon="17.746318187557">
        <ele>13.4</ele>
        <time>2016-04-02T13:44:47Z</time>
      </trkpt>
      <trkpt lat="59.329036907931" lon="17.746329167846">
        <ele>13.8</ele>
        <time>2016-04-02T13:44:48Z</time>
      </trkpt>
      <trkpt lat="59.328967505799" lon="17.746335705728">
        <ele>14.2</ele>
        <time>2016-04-02T13:44:49Z</time>
      </trkpt>
      <trkpt lat="59.328634241455" lon="17.746383231101">
        <ele>14.2</ele>
        <time>2016-04-02T13:44:54Z</time>
      </trkpt>
      <trkpt lat="59.328145744323" lon="17.746484903548">
        <ele>14.2</ele>
        <time>2016-04-02T13:45:01Z</time>
      </trkpt>
      <trkpt lat="59.327584240842" lon="17.746616415559">
        <ele>14.2</ele>
        <time>2016-04-02T13:45:09Z</time>
      </trkpt>
      <trkpt lat="59.327512994692" lon="17.746639130508">
        <ele>14.2</ele>
        <time>2016-04-02T13:45:10Z</time>
      </trkpt>
      <trkpt lat="59.327368826012" lon="17.74668087237">
        <ele>13.8</ele>
        <time>2016-04-02T13:45:12Z</time>
      </trkpt>
      <trkpt lat="59.327297076948" lon="17.746707610631">
        <ele>13.4</ele>
        <time>2016-04-02T13:45:13Z</time>
      </trkpt>
      <trkpt lat="59.327226417531" lon="17.746723536241">
        <ele>13</ele>
        <time>2016-04-02T13:45:14Z</time>
      </trkpt>
      <trkpt lat="59.327154919924" lon="17.74674457481">
        <ele>12.6</ele>
        <time>2016-04-02T13:45:15Z</time>
      </trkpt>
      <trkpt lat="59.327082835584" lon="17.746761087153">
        <ele>12</ele>
        <time>2016-04-02T13:45:16Z</time>
      </trkpt>
      <trkpt lat="59.327010080692" lon="17.746782544817">
        <ele>12</ele>
        <time>2016-04-02T13:45:17Z</time>
      </trkpt>
      <trkpt lat="59.32646374845" lon="17.746927132592">
        <ele>12</ele>
        <time>2016-04-02T13:45:24Z</time>
      </trkpt>
      <trkpt lat="59.3263841204" lon="17.74695076955">
        <ele>11.6</ele>
        <time>2016-04-02T13:45:25Z</time>
      </trkpt>
      <trkpt lat="59.326298960296" lon="17.746967700988">
        <ele>11</ele>
        <time>2016-04-02T13:45:26Z</time>
      </trkpt>
      <trkpt lat="59.326220254255" lon="17.746984967702">
        <ele>10.4</ele>
        <time>2016-04-02T13:45:27Z</time>
      </trkpt>
      <trkpt lat="59.326138698368" lon="17.747005084262">
        <ele>10</ele>
        <time>2016-04-02T13:45:28Z</time>
      </trkpt>
      <trkpt lat="59.326060746698" lon="17.747023943537">
        <ele>9.4</ele>
        <time>2016-04-02T13:45:29Z</time>
      </trkpt>
      <trkpt lat="59.325900065675" lon="17.747063673743">
        <ele>9</ele>
        <time>2016-04-02T13:45:31Z</time>
      </trkpt>
      <trkpt lat="59.325819683254" lon="17.747088484167">
        <ele>8.6</ele>
        <time>2016-04-02T13:45:32Z</time>
      </trkpt>
      <trkpt lat="59.325735780435" lon="17.747110528564">
        <ele>8.2</ele>
        <time>2016-04-02T13:45:33Z</time>
      </trkpt>
      <trkpt lat="59.325654140729" lon="17.747134584617">
        <ele>7.8</ele>
        <time>2016-04-02T13:45:34Z</time>
      </trkpt>
      <trkpt lat="59.325573842127" lon="17.747156377557">
        <ele>7.4</ele>
        <time>2016-04-02T13:45:35Z</time>
      </trkpt>
      <trkpt lat="59.325028264256" lon="17.747322171539">
        <ele>7.4</ele>
        <time>2016-04-02T13:45:42Z</time>
      </trkpt>
      <trkpt lat="59.324956179916" lon="17.747366595609">
        <ele>7.4</ele>
        <time>2016-04-02T13:45:43Z</time>
      </trkpt>
      <trkpt lat="59.324886693965" lon="17.747433902266">
        <ele>7.4</ele>
        <time>2016-04-02T13:45:44Z</time>
      </trkpt>
      <trkpt lat="59.32470187307" lon="17.747707236025">
        <ele>7.4</ele>
        <time>2016-04-02T13:45:47Z</time>
      </trkpt>
      <trkpt lat="59.324588214506" lon="17.747916280611">
        <ele>7.4</ele>
        <time>2016-04-02T13:45:49Z</time>
      </trkpt>
      <trkpt lat="59.324394508797" lon="17.748277456682">
        <ele>7.4</ele>
        <time>2016-04-02T13:45:53Z</time>
      </trkpt>
      <trkpt lat="59.324314880747" lon="17.748439227352">
        <ele>7.4</ele>
        <time>2016-04-02T13:45:55Z</time>
      </trkpt>
      <trkpt lat="59.324261068949" lon="17.748617510365">
        <ele>7.8</ele>
        <time>2016-04-02T13:45:57Z</time>
      </trkpt>
      <trkpt lat="59.324228714815" lon="17.748705604134">
        <ele>8.2</ele>
        <time>2016-04-02T13:45:58Z</time>
      </trkpt>
      <trkpt lat="59.324191582998" lon="17.748780705958">
        <ele>8.6</ele>
        <time>2016-04-02T13:45:59Z</time>
      </trkpt>
      <trkpt lat="59.324151014602" lon="17.748863267673">
        <ele>9</ele>
        <time>2016-04-02T13:46:00Z</time>
      </trkpt>
      <trkpt lat="59.324106590532" lon="17.748956055306">
        <ele>9.6</ele>
        <time>2016-04-02T13:46:01Z</time>
      </trkpt>
      <trkpt lat="59.323900647249" lon="17.749436170538">
        <ele>9.6</ele>
        <time>2016-04-02T13:46:06Z</time>
      </trkpt>
      <trkpt lat="59.323661846918" lon="17.750024915194">
        <ele>9.6</ele>
        <time>2016-04-02T13:46:12Z</time>
      </trkpt>
      <trkpt lat="59.323543913585" lon="17.750310486527">
        <ele>9.6</ele>
        <time>2016-04-02T13:46:15Z</time>
      </trkpt>
      <trkpt lat="59.323447521735" lon="17.750618353714">
        <ele>9.6</ele>
        <time>2016-04-02T13:46:18Z</time>
      </trkpt>
      <trkpt lat="59.323337383569" lon="17.751034515049">
        <ele>10</ele>
        <time>2016-04-02T13:46:22Z</time>
      </trkpt>
      <trkpt lat="59.323311651136" lon="17.75114171955">
        <ele>10.4</ele>
        <time>2016-04-02T13:46:23Z</time>
      </trkpt>
      <trkpt lat="59.323289690558" lon="17.751251438621">
        <ele>10.8</ele>
        <time>2016-04-02T13:46:24Z</time>
      </trkpt>
      <trkpt lat="59.323268149075" lon="17.751368198488">
        <ele>11.2</ele>
        <time>2016-04-02T13:46:25Z</time>
      </trkpt>
      <trkpt lat="59.323243338651" lon="17.751486886192">
        <ele>11.6</ele>
        <time>2016-04-02T13:46:26Z</time>
      </trkpt>
      <trkpt lat="59.323154825787" lon="17.751942610095">
        <ele>11.6</ele>
        <time>2016-04-02T13:46:30Z</time>
      </trkpt>
      <trkpt lat="59.323044603802" lon="17.752807035442">
        <ele>11.6</ele>
        <time>2016-04-02T13:46:37Z</time>
      </trkpt>
      <trkpt lat="59.323045525811" lon="17.753447999335">
        <ele>11.6</ele>
        <time>2016-04-02T13:46:42Z</time>
      </trkpt>
      <trkpt lat="59.323053823892" lon="17.754214188814">
        <ele>11.6</ele>
        <time>2016-04-02T13:46:48Z</time>
      </trkpt>
      <trkpt lat="59.32305147696" lon="17.754345030273">
        <ele>12</ele>
        <time>2016-04-02T13:46:49Z</time>
      </trkpt>
      <trkpt lat="59.323054997358" lon="17.754475955551">
        <ele>12.8</ele>
        <time>2016-04-02T13:46:50Z</time>
      </trkpt>
      <trkpt lat="59.323051057865" lon="17.754607886657">
        <ele>13.2</ele>
        <time>2016-04-02T13:46:51Z</time>
      </trkpt>
      <trkpt lat="59.323051560779" lon="17.754736800279">
        <ele>13.6</ele>
        <time>2016-04-02T13:46:52Z</time>
      </trkpt>
      <trkpt lat="59.323057428109" lon="17.755124966068">
        <ele>13.6</ele>
        <time>2016-04-02T13:46:55Z</time>
      </trkpt>
      <trkpt lat="59.323072934624" lon="17.755894927402">
        <ele>14</ele>
        <time>2016-04-02T13:47:01Z</time>
      </trkpt>
      <trkpt lat="59.323077041755" lon="17.7560241763">
        <ele>14.4</ele>
        <time>2016-04-02T13:47:02Z</time>
      </trkpt>
      <trkpt lat="59.323082741447" lon="17.756162310012">
        <ele>14.8</ele>
        <time>2016-04-02T13:47:03Z</time>
      </trkpt>
      <trkpt lat="59.323083160542" lon="17.7562923971">
        <ele>15.4</ele>
        <time>2016-04-02T13:47:04Z</time>
      </trkpt>
      <trkpt lat="59.323083160542" lon="17.756424579663">
        <ele>15.8</ele>
        <time>2016-04-02T13:47:05Z</time>
      </trkpt>
      <trkpt lat="59.323095146659" lon="17.757085408659">
        <ele>15.8</ele>
        <time>2016-04-02T13:47:10Z</time>
      </trkpt>
      <trkpt lat="59.323108306242" lon="17.758089895555">
        <ele>15.8</ele>
        <time>2016-04-02T13:47:18Z</time>
      </trkpt>
      <trkpt lat="59.32306572619" lon="17.758949040305">
        <ele>15.8</ele>
        <time>2016-04-02T13:47:25Z</time>
      </trkpt>
      <trkpt lat="59.322988528891" lon="17.75946494625">
        <ele>16.2</ele>
        <time>2016-04-02T13:47:30Z</time>
      </trkpt>
      <trkpt lat="59.322971597453" lon="17.759566199602">
        <ele>16.6</ele>
        <time>2016-04-02T13:47:31Z</time>
      </trkpt>
      <trkpt lat="59.322952402902" lon="17.759671308628">
        <ele>17.2</ele>
        <time>2016-04-02T13:47:32Z</time>
      </trkpt>
      <trkpt lat="59.322938572767" lon="17.759756384913">
        <ele>17.6</ele>
        <time>2016-04-02T13:47:33Z</time>
      </trkpt>
      <trkpt lat="59.322926251374" lon="17.759859063188">
        <ele>18</ele>
        <time>2016-04-02T13:47:34Z</time>
      </trkpt>
      <trkpt lat="59.322913427067" lon="17.75994774369">
        <ele>18</ele>
        <time>2016-04-02T13:47:35Z</time>
      </trkpt>
      <trkpt lat="59.322897417638" lon="17.760029299577">
        <ele>18.4</ele>
        <time>2016-04-02T13:47:36Z</time>
      </trkpt>
      <trkpt lat="59.322886102073" lon="17.760128960368">
        <ele>18.8</ele>
        <time>2016-04-02T13:47:37Z</time>
      </trkpt>
      <trkpt lat="59.322873193947" lon="17.760211354445">
        <ele>19.4</ele>
        <time>2016-04-02T13:47:38Z</time>
      </trkpt>
      <trkpt lat="59.322857268337" lon="17.760288803201">
        <ele>19.8</ele>
        <time>2016-04-02T13:47:39Z</time>
      </trkpt>
      <trkpt lat="59.322834637207" lon="17.760379998273">
        <ele>20.2</ele>
        <time>2016-04-02T13:47:40Z</time>
      </trkpt>
      <trkpt lat="59.322809575326" lon="17.760475132838">
        <ele>20.6</ele>
        <time>2016-04-02T13:47:41Z</time>
      </trkpt>
      <trkpt lat="59.322784345807" lon="17.760557862191">
        <ele>21</ele>
        <time>2016-04-02T13:47:42Z</time>
      </trkpt>
      <trkpt lat="59.322752410768" lon="17.760645872141">
        <ele>21.4</ele>
        <time>2016-04-02T13:47:43Z</time>
      </trkpt>
      <trkpt lat="59.322714189304" lon="17.760722482707">
        <ele>21.8</ele>
        <time>2016-04-02T13:47:44Z</time>
      </trkpt>
      <trkpt lat="59.32266842413" lon="17.760812336675">
        <ele>22.2</ele>
        <time>2016-04-02T13:47:45Z</time>
      </trkpt>
      <trkpt lat="59.322631292313" lon="17.760875703839">
        <ele>22.2</ele>
        <time>2016-04-02T13:47:46Z</time>
      </trkpt>
      <trkpt lat="59.32240355609" lon="17.761329416086">
        <ele>22.2</ele>
        <time>2016-04-02T13:47:52Z</time>
      </trkpt>
      <trkpt lat="59.322329124818" lon="17.761480122648">
        <ele>22.6</ele>
        <time>2016-04-02T13:47:54Z</time>
      </trkpt>
      <trkpt lat="59.322293837019" lon="17.761551284979">
        <ele>23</ele>
        <time>2016-04-02T13:47:55Z</time>
      </trkpt>
      <trkpt lat="59.32225938741" lon="17.761625213337">
        <ele>23.4</ele>
        <time>2016-04-02T13:47:56Z</time>
      </trkpt>
      <trkpt lat="59.322226195086" lon="17.761697130039">
        <ele>23.8</ele>
        <time>2016-04-02T13:47:57Z</time>
      </trkpt>
      <trkpt lat="59.3221931704" lon="17.761771226035">
        <ele>24.2</ele>
        <time>2016-04-02T13:47:58Z</time>
      </trkpt>
      <trkpt lat="59.322155703307" lon="17.76184205309">
        <ele>24.2</ele>
        <time>2016-04-02T13:47:59Z</time>
      </trkpt>
      <trkpt lat="59.321980689235" lon="17.762185794809">
        <ele>24.2</ele>
        <time>2016-04-02T13:48:04Z</time>
      </trkpt>
      <trkpt lat="59.321697967748" lon="17.762792476731">
        <ele>24.2</ele>
        <time>2016-04-02T13:48:12Z</time>
      </trkpt>
      <trkpt lat="59.321435027545" lon="17.763380467016">
        <ele>24.2</ele>
        <time>2016-04-02T13:48:18Z</time>
      </trkpt>
      <trkpt lat="59.321377695349" lon="17.763485659861">
        <ele>23.8</ele>
        <time>2016-04-02T13:48:19Z</time>
      </trkpt>
      <trkpt lat="59.321326314302" lon="17.763593451095">
        <ele>23.4</ele>
        <time>2016-04-02T13:48:20Z</time>
      </trkpt>
      <trkpt lat="59.321268898287" lon="17.763697973388">
        <ele>23</ele>
        <time>2016-04-02T13:48:21Z</time>
      </trkpt>
      <trkpt lat="59.321202010725" lon="17.763783217311">
        <ele>22.4</ele>
        <time>2016-04-02T13:48:22Z</time>
      </trkpt>
      <trkpt lat="59.321137721552" lon="17.763873071279">
        <ele>21.8</ele>
        <time>2016-04-02T13:48:23Z</time>
      </trkpt>
      <trkpt lat="59.321072091275" lon="17.763972815889">
        <ele>21.2</ele>
        <time>2016-04-02T13:48:24Z</time>
      </trkpt>
      <trkpt lat="59.321013082699" lon="17.764079014562">
        <ele>20.6</ele>
        <time>2016-04-02T13:48:25Z</time>
      </trkpt>
      <trkpt lat="59.320959857634" lon="17.764199797741">
        <ele>20</ele>
        <time>2016-04-02T13:48:26Z</time>
      </trkpt>
      <trkpt lat="59.320912835175" lon="17.764321083834">
        <ele>19.6</ele>
        <time>2016-04-02T13:48:27Z</time>
      </trkpt>
      <trkpt lat="59.320857766092" lon="17.76442703105">
        <ele>19.2</ele>
        <time>2016-04-02T13:48:28Z</time>
      </trkpt>
      <trkpt lat="59.320802445552" lon="17.764537839768">
        <ele>18.4</ele>
        <time>2016-04-02T13:48:29Z</time>
      </trkpt>
      <trkpt lat="59.320746035365" lon="17.764654348178">
        <ele>18</ele>
        <time>2016-04-02T13:48:30Z</time>
      </trkpt>
      <trkpt lat="59.32045476434" lon="17.765244098662">
        <ele>17.6</ele>
        <time>2016-04-02T13:48:35Z</time>
      </trkpt>
      <trkpt lat="59.320393492651" lon="17.765361445262">
        <ele>17</ele>
        <time>2016-04-02T13:48:36Z</time>
      </trkpt>
      <trkpt lat="59.320333310609" lon="17.765481893165">
        <ele>16.6</ele>
        <time>2016-04-02T13:48:37Z</time>
      </trkpt>
      <trkpt lat="59.32027287711" lon="17.765602592525">
        <ele>16.2</ele>
        <time>2016-04-02T13:48:38Z</time>
      </trkpt>
      <trkpt lat="59.320210431955" lon="17.765726979921">
        <ele>15.8</ele>
        <time>2016-04-02T13:48:39Z</time>
      </trkpt>
      <trkpt lat="59.319877670525" lon="17.766375236067">
        <ele>15.2</ele>
        <time>2016-04-02T13:48:44Z</time>
      </trkpt>
      <trkpt lat="59.319810531506" lon="17.766498282359">
        <ele>14.8</ele>
        <time>2016-04-02T13:48:45Z</time>
      </trkpt>
      <trkpt lat="59.319745571781" lon="17.766625435782">
        <ele>14.4</ele>
        <time>2016-04-02T13:48:46Z</time>
      </trkpt>
      <trkpt lat="59.31968111497" lon="17.766753930309">
        <ele>14</ele>
        <time>2016-04-02T13:48:47Z</time>
      </trkpt>
      <trkpt lat="59.319613137761" lon="17.766887705433">
        <ele>13.6</ele>
        <time>2016-04-02T13:48:48Z</time>
      </trkpt>
      <trkpt lat="59.319275179553" lon="17.767520538883">
        <ele>13.6</ele>
        <time>2016-04-02T13:48:53Z</time>
      </trkpt>
      <trkpt lat="59.319006204382" lon="17.768010377119">
        <ele>13.2</ele>
        <time>2016-04-02T13:48:57Z</time>
      </trkpt>
      <trkpt lat="59.318940574105" lon="17.768127136986">
        <ele>12.8</ele>
        <time>2016-04-02T13:48:58Z</time>
      </trkpt>
      <trkpt lat="59.318875111466" lon="17.768238616256">
        <ele>12.4</ele>
        <time>2016-04-02T13:48:59Z</time>
      </trkpt>
      <trkpt lat="59.318808810637" lon="17.76834892206">
        <ele>12</ele>
        <time>2016-04-02T13:49:00Z</time>
      </trkpt>
      <trkpt lat="59.31874234217" lon="17.768460568968">
        <ele>11.4</ele>
        <time>2016-04-02T13:49:01Z</time>
      </trkpt>
      <trkpt lat="59.318308495026" lon="17.769026263399">
        <ele>11.4</ele>
        <time>2016-04-02T13:49:07Z</time>
      </trkpt>
      <trkpt lat="59.317835085314" lon="17.769475030325">
        <ele>11.4</ele>
        <time>2016-04-02T13:49:13Z</time>
      </trkpt>
      <trkpt lat="59.317314401686" lon="17.76991130822">
        <ele>11.4</ele>
        <time>2016-04-02T13:49:20Z</time>
      </trkpt>
      <trkpt lat="59.317247597943" lon="17.769970735891">
        <ele>11.4</ele>
        <time>2016-04-02T13:49:21Z</time>
      </trkpt>
      <trkpt lat="59.317117678493" lon="17.770078191849">
        <ele>12</ele>
        <time>2016-04-02T13:49:23Z</time>
      </trkpt>
      <trkpt lat="59.317057244994" lon="17.770130746362">
        <ele>12.4</ele>
        <time>2016-04-02T13:49:24Z</time>
      </trkpt>
      <trkpt lat="59.316999409884" lon="17.770178355554">
        <ele>12.8</ele>
        <time>2016-04-02T13:49:25Z</time>
      </trkpt>
      <trkpt lat="59.31694191005" lon="17.770224623642">
        <ele>13.2</ele>
        <time>2016-04-02T13:49:26Z</time>
      </trkpt>
      <trkpt lat="59.316885918958" lon="17.770265359676">
        <ele>13.6</ele>
        <time>2016-04-02T13:49:27Z</time>
      </trkpt>
      <trkpt lat="59.31653706428" lon="17.770506758396">
        <ele>13.6</ele>
        <time>2016-04-02T13:49:33Z</time>
      </trkpt>
      <trkpt lat="59.315951085651" lon="17.77088277043">
        <ele>13.6</ele>
        <time>2016-04-02T13:49:42Z</time>
      </trkpt>
      <trkpt lat="59.315740280866" lon="17.771012773699">
        <ele>13.2</ele>
        <time>2016-04-02T13:49:45Z</time>
      </trkpt>
      <trkpt lat="59.315667525974" lon="17.771055269932">
        <ele>12.8</ele>
        <time>2016-04-02T13:49:46Z</time>
      </trkpt>
      <trkpt lat="59.315592843245" lon="17.771092569387">
        <ele>12.4</ele>
        <time>2016-04-02T13:49:47Z</time>
      </trkpt>
      <trkpt lat="59.315516484136" lon="17.77112919829">
        <ele>11.8</ele>
        <time>2016-04-02T13:49:48Z</time>
      </trkpt>
      <trkpt lat="59.31544071176" lon="17.771158283483">
        <ele>11.4</ele>
        <time>2016-04-02T13:49:49Z</time>
      </trkpt>
      <trkpt lat="59.315364017375" lon="17.77118535702">
        <ele>11</ele>
        <time>2016-04-02T13:49:50Z</time>
      </trkpt>
      <trkpt lat="59.315286903895" lon="17.771219052258">
        <ele>10.6</ele>
        <time>2016-04-02T13:49:51Z</time>
      </trkpt>
      <trkpt lat="59.315211215338" lon="17.77126163231">
        <ele>10</ele>
        <time>2016-04-02T13:49:52Z</time>
      </trkpt>
      <trkpt lat="59.315137622256" lon="17.771307984217">
        <ele>9.6</ele>
        <time>2016-04-02T13:49:53Z</time>
      </trkpt>
      <trkpt lat="59.315063861536" lon="17.771360706368">
        <ele>9.2</ele>
        <time>2016-04-02T13:49:54Z</time>
      </trkpt>
      <trkpt lat="59.314916340096" lon="17.771486937782">
        <ele>9.2</ele>
        <time>2016-04-02T13:49:56Z</time>
      </trkpt>
      <trkpt lat="59.314531359429" lon="17.771786506888">
        <ele>8.8</ele>
        <time>2016-04-02T13:50:01Z</time>
      </trkpt>
      <trkpt lat="59.314450138818" lon="17.771846856568">
        <ele>8.2</ele>
        <time>2016-04-02T13:50:02Z</time>
      </trkpt>
      <trkpt lat="59.314372103329" lon="17.771901925651">
        <ele>7.8</ele>
        <time>2016-04-02T13:50:03Z</time>
      </trkpt>
      <trkpt lat="59.314293397288" lon="17.771954983078">
        <ele>7.4</ele>
        <time>2016-04-02T13:50:04Z</time>
      </trkpt>
      <trkpt lat="59.314215026523" lon="17.772007034677">
        <ele>7</ele>
        <time>2016-04-02T13:50:05Z</time>
      </trkpt>
      <trkpt lat="59.313969101577" lon="17.772168637709">
        <ele>6.2</ele>
        <time>2016-04-02T13:50:08Z</time>
      </trkpt>
      <trkpt lat="59.3138867075" lon="17.77222135986">
        <ele>5.8</ele>
        <time>2016-04-02T13:50:09Z</time>
      </trkpt>
      <trkpt lat="59.313804229604" lon="17.772275506934">
        <ele>5.4</ele>
        <time>2016-04-02T13:50:10Z</time>
      </trkpt>
      <trkpt lat="59.313718650405" lon="17.77232780999">
        <ele>5</ele>
        <time>2016-04-02T13:50:11Z</time>
      </trkpt>
      <trkpt lat="59.313469624156" lon="17.772486814633">
        <ele>5</ele>
        <time>2016-04-02T13:50:14Z</time>
      </trkpt>
      <trkpt lat="59.312891692151" lon="17.772868274902">
        <ele>5</ele>
        <time>2016-04-02T13:50:21Z</time>
      </trkpt>
      <trkpt lat="59.312730256757" lon="17.772970953177">
        <ele>5</ele>
        <time>2016-04-02T13:50:23Z</time>
      </trkpt>
      <trkpt lat="59.312172944226" lon="17.773331039601">
        <ele>5</ele>
        <time>2016-04-02T13:50:30Z</time>
      </trkpt>
      <trkpt lat="59.312091975072" lon="17.773387449788">
        <ele>5</ele>
        <time>2016-04-02T13:50:31Z</time>
      </trkpt>
      <trkpt lat="59.311768266094" lon="17.773598086935">
        <ele>4.6</ele>
        <time>2016-04-02T13:50:35Z</time>
      </trkpt>
      <trkpt lat="59.311690062967" lon="17.77364712105">
        <ele>4.2</ele>
        <time>2016-04-02T13:50:36Z</time>
      </trkpt>
      <trkpt lat="59.311613033306" lon="17.77369657426">
        <ele>3.8</ele>
        <time>2016-04-02T13:50:37Z</time>
      </trkpt>
      <trkpt lat="59.311537931482" lon="17.77374770385">
        <ele>3.4</ele>
        <time>2016-04-02T13:50:38Z</time>
      </trkpt>
      <trkpt lat="59.311461740011" lon="17.773800928915">
        <ele>3</ele>
        <time>2016-04-02T13:50:39Z</time>
      </trkpt>
      <trkpt lat="59.310917670882" lon="17.774151459973">
        <ele>3</ele>
        <time>2016-04-02T13:50:46Z</time>
      </trkpt>
      <trkpt lat="59.310762857189" lon="17.774246762176">
        <ele>3</ele>
        <time>2016-04-02T13:50:48Z</time>
      </trkpt>
      <trkpt lat="59.310246113054" lon="17.774566950756">
        <ele>3</ele>
        <time>2016-04-02T13:50:55Z</time>
      </trkpt>
      <trkpt lat="59.310173861076" lon="17.774612380654">
        <ele>3</ele>
        <time>2016-04-02T13:50:56Z</time>
      </trkpt>
      <trkpt lat="59.309835399954" lon="17.774854198469">
        <ele>3</ele>
        <time>2016-04-02T13:51:01Z</time>
      </trkpt>
      <trkpt lat="59.309516887754" lon="17.775102637985">
        <ele>3</ele>
        <time>2016-04-02T13:51:06Z</time>
      </trkpt>
      <trkpt lat="59.309389315236" lon="17.775221744784">
        <ele>3</ele>
        <time>2016-04-02T13:51:08Z</time>
      </trkpt>
      <trkpt lat="59.309256462121" lon="17.77534277942">
        <ele>3</ele>
        <time>2016-04-02T13:51:10Z</time>
      </trkpt>
      <trkpt lat="59.308706777119" lon="17.775867570179">
        <ele>3</ele>
        <time>2016-04-02T13:51:18Z</time>
      </trkpt>
      <trkpt lat="59.30815264971" lon="17.776402670675">
        <ele>3</ele>
        <time>2016-04-02T13:51:26Z</time>
      </trkpt>
      <trkpt lat="59.307742690981" lon="17.776851437601">
        <ele>3</ele>
        <time>2016-04-02T13:51:32Z</time>
      </trkpt>
      <trkpt lat="59.307294175512" lon="17.777310933359">
        <ele>3</ele>
        <time>2016-04-02T13:51:38Z</time>
      </trkpt>
      <trkpt lat="59.307001479564" lon="17.777631960129">
        <ele>3</ele>
        <time>2016-04-02T13:51:42Z</time>
      </trkpt>
      <trkpt lat="59.306940207875" lon="17.777735141318">
        <ele>3</ele>
        <time>2016-04-02T13:51:43Z</time>
      </trkpt>
      <trkpt lat="59.306735018963" lon="17.778003362118">
        <ele>3</ele>
        <time>2016-04-02T13:51:46Z</time>
      </trkpt>
      <trkpt lat="59.306661928795" lon="17.778078799218">
        <ele>3</ele>
        <time>2016-04-02T13:51:47Z</time>
      </trkpt>
      <trkpt lat="59.306229925669" lon="17.778489009404">
        <ele>3</ele>
        <time>2016-04-02T13:51:53Z</time>
      </trkpt>
      <trkpt lat="59.305812758506" lon="17.778943727479">
        <ele>3</ele>
        <time>2016-04-02T13:51:59Z</time>
      </trkpt>
      <trkpt lat="59.305462646543" lon="17.779461561261">
        <ele>3</ele>
        <time>2016-04-02T13:52:05Z</time>
      </trkpt>
      <trkpt lat="59.305370529462" lon="17.779631630012">
        <ele>3</ele>
        <time>2016-04-02T13:52:07Z</time>
      </trkpt>
      <trkpt lat="59.305284028254" lon="17.77980530298">
        <ele>3</ele>
        <time>2016-04-02T13:52:09Z</time>
      </trkpt>
      <trkpt lat="59.30523407213" lon="17.779885350125">
        <ele>3</ele>
        <time>2016-04-02T13:52:10Z</time>
      </trkpt>
      <trkpt lat="59.304812294922" lon="17.780602337851">
        <ele>3</ele>
        <time>2016-04-02T13:52:18Z</time>
      </trkpt>
      <trkpt lat="59.304398480519" lon="17.781373724108">
        <ele>3</ele>
        <time>2016-04-02T13:52:26Z</time>
      </trkpt>
      <trkpt lat="59.304016265879" lon="17.78216899878">
        <ele>3</ele>
        <time>2016-04-02T13:52:34Z</time>
      </trkpt>
      <trkpt lat="59.303971087438" lon="17.782270838865">
        <ele>3</ele>
        <time>2016-04-02T13:52:35Z</time>
      </trkpt>
      <trkpt lat="59.303608318806" lon="17.783138868429">
        <ele>3</ele>
        <time>2016-04-02T13:52:43Z</time>
      </trkpt>
      <trkpt lat="59.303264744725" lon="17.784065738931">
        <ele>3</ele>
        <time>2016-04-02T13:52:51Z</time>
      </trkpt>
      <trkpt lat="59.302999122314" lon="17.784893619194">
        <ele>3.4</ele>
        <time>2016-04-02T13:52:58Z</time>
      </trkpt>
      <trkpt lat="59.302961571402" lon="17.7850171684">
        <ele>3.8</ele>
        <time>2016-04-02T13:52:59Z</time>
      </trkpt>
      <trkpt lat="59.302923517576" lon="17.785140969063">
        <ele>4.8</ele>
        <time>2016-04-02T13:53:00Z</time>
      </trkpt>
      <trkpt lat="59.302888984148" lon="17.78526946359">
        <ele>5.2</ele>
        <time>2016-04-02T13:53:01Z</time>
      </trkpt>
      <trkpt lat="59.302715059723" lon="17.785921659229">
        <ele>5.2</ele>
        <time>2016-04-02T13:53:06Z</time>
      </trkpt>
      <trkpt lat="59.302469050958" lon="17.78679832215">
        <ele>5.2</ele>
        <time>2016-04-02T13:53:13Z</time>
      </trkpt>
      <trkpt lat="59.302333347997" lon="17.787596446668">
        <ele>5.2</ele>
        <time>2016-04-02T13:53:19Z</time>
      </trkpt>
      <trkpt lat="59.302199069959" lon="17.788605627428">
        <ele>5.2</ele>
        <time>2016-04-02T13:53:26Z</time>
      </trkpt>
      <trkpt lat="59.302123632859" lon="17.789459240124">
        <ele>5.2</ele>
        <time>2016-04-02T13:53:32Z</time>
      </trkpt>
      <trkpt lat="59.302062025894" lon="17.790308075137">
        <ele>5.2</ele>
        <time>2016-04-02T13:53:39Z</time>
      </trkpt>
      <trkpt lat="59.302055571831" lon="17.790419386769">
        <ele>5.6</ele>
        <time>2016-04-02T13:53:40Z</time>
      </trkpt>
      <trkpt lat="59.30204643556" lon="17.790525417804">
        <ele>6</ele>
        <time>2016-04-02T13:53:41Z</time>
      </trkpt>
      <trkpt lat="59.302038975669" lon="17.790636477979">
        <ele>6.4</ele>
        <time>2016-04-02T13:53:42Z</time>
      </trkpt>
      <trkpt lat="59.302031264321" lon="17.790739826806">
        <ele>6.8</ele>
        <time>2016-04-02T13:53:43Z</time>
      </trkpt>
      <trkpt lat="59.302023301516" lon="17.790849881153">
        <ele>7.2</ele>
        <time>2016-04-02T13:53:44Z</time>
      </trkpt>
      <trkpt lat="59.30201458434" lon="17.790964713183">
        <ele>7.2</ele>
        <time>2016-04-02T13:53:45Z</time>
      </trkpt>
      <trkpt lat="59.301981643473" lon="17.791566198327">
        <ele>7.6</ele>
        <time>2016-04-02T13:53:50Z</time>
      </trkpt>
      <trkpt lat="59.301979547998" lon="17.791685388945">
        <ele>8</ele>
        <time>2016-04-02T13:53:51Z</time>
      </trkpt>
      <trkpt lat="59.301977452523" lon="17.791798628414">
        <ele>8.4</ele>
        <time>2016-04-02T13:53:52Z</time>
      </trkpt>
      <trkpt lat="59.301976362876" lon="17.791910778236">
        <ele>8.8</ele>
        <time>2016-04-02T13:53:53Z</time>
      </trkpt>
      <trkpt lat="59.301977368704" lon="17.79202276042">
        <ele>9.2</ele>
        <time>2016-04-02T13:53:54Z</time>
      </trkpt>
      <trkpt lat="59.301972926297" lon="17.792477143219">
        <ele>9.6</ele>
        <time>2016-04-02T13:53:58Z</time>
      </trkpt>
      <trkpt lat="59.301973345392" lon="17.792582084607">
        <ele>10.2</ele>
        <time>2016-04-02T13:53:59Z</time>
      </trkpt>
      <trkpt lat="59.301973596849" lon="17.792687864185">
        <ele>10.6</ele>
        <time>2016-04-02T13:54:00Z</time>
      </trkpt>
      <trkpt lat="59.301975608505" lon="17.792791464469">
        <ele>11</ele>
        <time>2016-04-02T13:54:01Z</time>
      </trkpt>
      <trkpt lat="59.301978458351" lon="17.792891879631">
        <ele>11.4</ele>
        <time>2016-04-02T13:54:02Z</time>
      </trkpt>
      <trkpt lat="59.302002262947" lon="17.7933152494">
        <ele>11.4</ele>
        <time>2016-04-02T13:54:06Z</time>
      </trkpt>
      <trkpt lat="59.302068563776" lon="17.793800309953">
        <ele>11.4</ele>
        <time>2016-04-02T13:54:10Z</time>
      </trkpt>
      <trkpt lat="59.302073592916" lon="17.793932827792">
        <ele>11.4</ele>
        <time>2016-04-02T13:54:11Z</time>
      </trkpt>
      <trkpt lat="59.302072335631" lon="17.794752158517">
        <ele>11.4</ele>
        <time>2016-04-02T13:54:17Z</time>
      </trkpt>
      <trkpt lat="59.30207577221" lon="17.795885475216">
        <ele>11.4</ele>
        <time>2016-04-02T13:54:25Z</time>
      </trkpt>
      <trkpt lat="59.302060517152" lon="17.796598188173">
        <ele>11.4</ele>
        <time>2016-04-02T13:54:30Z</time>
      </trkpt>
      <trkpt lat="59.30203805366" lon="17.796865151688">
        <ele>11.4</ele>
        <time>2016-04-02T13:54:32Z</time>
      </trkpt>
      <trkpt lat="59.302009722838" lon="17.797526064503">
        <ele>11.4</ele>
        <time>2016-04-02T13:54:37Z</time>
      </trkpt>
      <trkpt lat="59.302028330656" lon="17.797912050998">
        <ele>11.8</ele>
        <time>2016-04-02T13:54:40Z</time>
      </trkpt>
      <trkpt lat="59.30203218633" lon="17.798045574665">
        <ele>12.2</ele>
        <time>2016-04-02T13:54:41Z</time>
      </trkpt>
      <trkpt lat="59.302034114167" lon="17.798168201862">
        <ele>12.6</ele>
        <time>2016-04-02T13:54:42Z</time>
      </trkpt>
      <trkpt lat="59.302048028121" lon="17.798410187315">
        <ele>13.4</ele>
        <time>2016-04-02T13:54:43Z</time>
      </trkpt>
      <trkpt lat="59.302048028121" lon="17.798410187315">
        <ele>13.4</ele>
        <time>2016-04-02T13:54:44Z</time>
      </trkpt>
      <trkpt lat="59.302103600118" lon="17.799156427872">
        <ele>13.4</ele>
        <time>2016-04-02T13:54:50Z</time>
      </trkpt>
      <trkpt lat="59.302183647263" lon="17.800148341918">
        <ele>13.4</ele>
        <time>2016-04-02T13:54:58Z</time>
      </trkpt>
      <trkpt lat="59.302243745486" lon="17.800776397685">
        <ele>14.4</ele>
        <time>2016-04-02T13:55:03Z</time>
      </trkpt>
      <trkpt lat="59.302253887585" lon="17.800894247199">
        <ele>14.8</ele>
        <time>2016-04-02T13:55:04Z</time>
      </trkpt>
      <trkpt lat="59.302264616417" lon="17.80101402455">
        <ele>15.2</ele>
        <time>2016-04-02T13:55:05Z</time>
      </trkpt>
      <trkpt lat="59.302275596706" lon="17.801135897376">
        <ele>15.6</ele>
        <time>2016-04-02T13:55:06Z</time>
      </trkpt>
      <trkpt lat="59.302288337194" lon="17.801258105478">
        <ele>15.6</ele>
        <time>2016-04-02T13:55:07Z</time>
      </trkpt>
      <trkpt lat="59.302333683273" lon="17.80197039934">
        <ele>15.6</ele>
        <time>2016-04-02T13:55:13Z</time>
      </trkpt>
      <trkpt lat="59.302338377137" lon="17.802173408958">
        <ele>15.6</ele>
        <time>2016-04-02T13:55:15Z</time>
      </trkpt>
      <trkpt lat="59.302342400449" lon="17.802402402466">
        <ele>15.6</ele>
        <time>2016-04-02T13:55:17Z</time>
      </trkpt>
      <trkpt lat="59.302345753209" lon="17.802861311491">
        <ele>16</ele>
        <time>2016-04-02T13:55:21Z</time>
      </trkpt>
      <trkpt lat="59.302342903363" lon="17.802972958399">
        <ele>16.4</ele>
        <time>2016-04-02T13:55:22Z</time>
      </trkpt>
      <trkpt lat="59.302339718241" lon="17.803085778773">
        <ele>16.8</ele>
        <time>2016-04-02T13:55:23Z</time>
      </trkpt>
      <trkpt lat="59.302333850911" lon="17.803203125373">
        <ele>17.2</ele>
        <time>2016-04-02T13:55:24Z</time>
      </trkpt>
      <trkpt lat="59.302326977753" lon="17.803316783937">
        <ele>17.8</ele>
        <time>2016-04-02T13:55:25Z</time>
      </trkpt>
      <trkpt lat="59.302290013574" lon="17.803788181993">
        <ele>17.8</ele>
        <time>2016-04-02T13:55:29Z</time>
      </trkpt>
      <trkpt lat="59.302226981686" lon="17.804483460598">
        <ele>17.8</ele>
        <time>2016-04-02T13:55:34Z</time>
      </trkpt>
      <trkpt lat="59.302172666974" lon="17.805087125036">
        <ele>17.2</ele>
        <time>2016-04-02T13:55:38Z</time>
      </trkpt>
      <trkpt lat="59.302156573726" lon="17.805242022548">
        <ele>16.8</ele>
        <time>2016-04-02T13:55:39Z</time>
      </trkpt>
      <trkpt lat="59.302144419971" lon="17.805395076042">
        <ele>16.4</ele>
        <time>2016-04-02T13:55:40Z</time>
      </trkpt>
      <trkpt lat="59.302132517673" lon="17.805550141192">
        <ele>15.8</ele>
        <time>2016-04-02T13:55:41Z</time>
      </trkpt>
      <trkpt lat="59.302120280099" lon="17.805702691772">
        <ele>15.4</ele>
        <time>2016-04-02T13:55:42Z</time>
      </trkpt>
      <trkpt lat="59.302076191305" lon="17.806172664905">
        <ele>15</ele>
        <time>2016-04-02T13:55:45Z</time>
      </trkpt>
      <trkpt lat="59.30205900841" lon="17.806337201602">
        <ele>14.6</ele>
        <time>2016-04-02T13:55:46Z</time>
      </trkpt>
      <trkpt lat="59.302039394764" lon="17.806513053864">
        <ele>14.2</ele>
        <time>2016-04-02T13:55:47Z</time>
      </trkpt>
      <trkpt lat="59.302020954584" lon="17.806681278597">
        <ele>13.6</ele>
        <time>2016-04-02T13:55:48Z</time>
      </trkpt>
      <trkpt lat="59.302002346766" lon="17.80685117971">
        <ele>13.2</ele>
        <time>2016-04-02T13:55:49Z</time>
      </trkpt>
      <trkpt lat="59.301946523312" lon="17.807345627991">
        <ele>12.4</ele>
        <time>2016-04-02T13:55:52Z</time>
      </trkpt>
      <trkpt lat="59.301914755911" lon="17.807500441684">
        <ele>12</ele>
        <time>2016-04-02T13:55:53Z</time>
      </trkpt>
      <trkpt lat="59.301869661289" lon="17.807659865422">
        <ele>11.6</ele>
        <time>2016-04-02T13:55:54Z</time>
      </trkpt>
      <trkpt lat="59.301814759844" lon="17.8078075545">
        <ele>11</ele>
        <time>2016-04-02T13:55:55Z</time>
      </trkpt>
      <trkpt lat="59.301753488155" lon="17.807941916357">
        <ele>11</ele>
        <time>2016-04-02T13:55:56Z</time>
      </trkpt>
      <trkpt lat="59.301691545914" lon="17.8080673934">
        <ele>11</ele>
        <time>2016-04-02T13:55:57Z</time>
      </trkpt>
      <trkpt lat="59.30143288048" lon="17.808501408182">
        <ele>11</ele>
        <time>2016-04-02T13:56:01Z</time>
      </trkpt>
      <trkpt lat="59.301000709716" lon="17.809079507825">
        <ele>11</ele>
        <time>2016-04-02T13:56:07Z</time>
      </trkpt>
      <trkpt lat="59.300685969371" lon="17.809419812965">
        <ele>10.6</ele>
        <time>2016-04-02T13:56:11Z</time>
      </trkpt>
      <trkpt lat="59.30060558695" lon="17.809495920617">
        <ele>10.2</ele>
        <time>2016-04-02T13:56:12Z</time>
      </trkpt>
      <trkpt lat="59.300525455986" lon="17.809563059636">
        <ele>9.8</ele>
        <time>2016-04-02T13:56:13Z</time>
      </trkpt>
      <trkpt lat="59.300443145728" lon="17.809623409316">
        <ele>9.2</ele>
        <time>2016-04-02T13:56:14Z</time>
      </trkpt>
      <trkpt lat="59.3003583209" lon="17.80968090915">
        <ele>8.6</ele>
        <time>2016-04-02T13:56:15Z</time>
      </trkpt>
      <trkpt lat="59.300270646226" lon="17.809731619645">
        <ele>7.8</ele>
        <time>2016-04-02T13:56:16Z</time>
      </trkpt>
      <trkpt lat="59.300178277688" lon="17.809762465037">
        <ele>6</ele>
        <time>2016-04-02T13:56:17Z</time>
      </trkpt>
      <trkpt lat="59.300087920806" lon="17.809778809742">
        <ele>5.2</ele>
        <time>2016-04-02T13:56:18Z</time>
      </trkpt>
      <trkpt lat="59.299997144829" lon="17.809797920474">
        <ele>4.4</ele>
        <time>2016-04-02T13:56:19Z</time>
      </trkpt>
      <trkpt lat="59.299811904839" lon="17.809849804435">
        <ele>3.8</ele>
        <time>2016-04-02T13:56:21Z</time>
      </trkpt>
      <trkpt lat="59.299720625948" lon="17.80988458932">
        <ele>3.4</ele>
        <time>2016-04-02T13:56:22Z</time>
      </trkpt>
      <trkpt lat="59.299634543835" lon="17.809934293987">
        <ele>3</ele>
        <time>2016-04-02T13:56:23Z</time>
      </trkpt>
      <trkpt lat="59.29954946755" lon="17.809986597043">
        <ele>2.4</ele>
        <time>2016-04-02T13:56:24Z</time>
      </trkpt>
      <trkpt lat="59.299455925546" lon="17.810031524027">
        <ele>2</ele>
        <time>2016-04-02T13:56:25Z</time>
      </trkpt>
      <trkpt lat="59.299089552697" lon="17.810131939189">
        <ele>2</ele>
        <time>2016-04-02T13:56:29Z</time>
      </trkpt>
      <trkpt lat="59.298998609082" lon="17.810157168708">
        <ele>1.6</ele>
        <time>2016-04-02T13:56:30Z</time>
      </trkpt>
      <trkpt lat="59.298906408182" lon="17.810182733503">
        <ele>1.2</ele>
        <time>2016-04-02T13:56:31Z</time>
      </trkpt>
      <trkpt lat="59.298811357436" lon="17.810206873375">
        <ele>0.6</ele>
        <time>2016-04-02T13:56:32Z</time>
      </trkpt>
      <trkpt lat="59.298722090201" lon="17.810234449826">
        <ele>0.2</ele>
        <time>2016-04-02T13:56:33Z</time>
      </trkpt>
      <trkpt lat="59.298632990604" lon="17.810259846983">
        <ele>0</ele>
        <time>2016-04-02T13:56:34Z</time>
      </trkpt>
      <trkpt lat="59.298279525881" lon="17.810359591593">
        <ele>0</ele>
        <time>2016-04-02T13:56:38Z</time>
      </trkpt>
      <trkpt lat="59.297689272483" lon="17.810519853521">
        <ele>0</ele>
        <time>2016-04-02T13:56:45Z</time>
      </trkpt>
      <trkpt lat="59.297387524083" lon="17.810602163779">
        <ele>0.2</ele>
        <time>2016-04-02T13:56:49Z</time>
      </trkpt>
      <trkpt lat="59.297315272105" lon="17.81061716738">
        <ele>0.8</ele>
        <time>2016-04-02T13:56:50Z</time>
      </trkpt>
      <trkpt lat="59.297245031783" lon="17.810634350275">
        <ele>1.2</ele>
        <time>2016-04-02T13:56:51Z</time>
      </trkpt>
      <trkpt lat="59.297175797289" lon="17.810650443523">
        <ele>1.6</ele>
        <time>2016-04-02T13:56:52Z</time>
      </trkpt>
      <trkpt lat="59.297105808424" lon="17.810667626418">
        <ele>2.2</ele>
        <time>2016-04-02T13:56:53Z</time>
      </trkpt>
      <trkpt lat="59.296840605108" lon="17.810736693274">
        <ele>2.2</ele>
        <time>2016-04-02T13:56:57Z</time>
      </trkpt>
      <trkpt lat="59.296699873007" lon="17.810751193961">
        <ele>2.2</ele>
        <time>2016-04-02T13:56:59Z</time>
      </trkpt>
      <trkpt lat="59.296627453391" lon="17.810763515354">
        <ele>2.6</ele>
        <time>2016-04-02T13:57:00Z</time>
      </trkpt>
      <trkpt lat="59.296551345739" lon="17.810786733217">
        <ele>3</ele>
        <time>2016-04-02T13:57:01Z</time>
      </trkpt>
      <trkpt lat="59.296478255571" lon="17.810804754302">
        <ele>3.4</ele>
        <time>2016-04-02T13:57:02Z</time>
      </trkpt>
      <trkpt lat="59.296404997765" lon="17.810827888346">
        <ele>3.8</ele>
        <time>2016-04-02T13:57:03Z</time>
      </trkpt>
      <trkpt lat="59.296328722475" lon="17.810851692942">
        <ele>4.2</ele>
        <time>2016-04-02T13:57:04Z</time>
      </trkpt>
      <trkpt lat="59.296253536832" lon="17.810875665176">
        <ele>4.2</ele>
        <time>2016-04-02T13:57:05Z</time>
      </trkpt>
      <trkpt lat="59.296117833871" lon="17.8109256213">
        <ele>5.2</ele>
        <time>2016-04-02T13:57:07Z</time>
      </trkpt>
      <trkpt lat="59.296052371232" lon="17.810950096448">
        <ele>5.6</ele>
        <time>2016-04-02T13:57:08Z</time>
      </trkpt>
      <trkpt lat="59.295982382367" lon="17.810977002347">
        <ele>6</ele>
        <time>2016-04-02T13:57:09Z</time>
      </trkpt>
      <trkpt lat="59.295916081538" lon="17.810997789459">
        <ele>6.6</ele>
        <time>2016-04-02T13:57:10Z</time>
      </trkpt>
      <trkpt lat="59.295415765927" lon="17.811164589269">
        <ele>6.6</ele>
        <time>2016-04-02T13:57:18Z</time>
      </trkpt>
      <trkpt lat="59.295002873533" lon="17.811282438783">
        <ele>6.6</ele>
        <time>2016-04-02T13:57:25Z</time>
      </trkpt>
      <trkpt lat="59.294947552993" lon="17.811298532031">
        <ele>7</ele>
        <time>2016-04-02T13:57:26Z</time>
      </trkpt>
      <trkpt lat="59.294892735367" lon="17.8113111887">
        <ele>7.6</ele>
        <time>2016-04-02T13:57:27Z</time>
      </trkpt>
      <trkpt lat="59.294839761759" lon="17.811325940844">
        <ele>8</ele>
        <time>2016-04-02T13:57:28Z</time>
      </trkpt>
      <trkpt lat="59.294787374884" lon="17.811342285549">
        <ele>8.4</ele>
        <time>2016-04-02T13:57:29Z</time>
      </trkpt>
      <trkpt lat="59.294734401276" lon="17.811359971358">
        <ele>9</ele>
        <time>2016-04-02T13:57:30Z</time>
      </trkpt>
      <trkpt lat="59.294624346929" lon="17.811392744587">
        <ele>9</ele>
        <time>2016-04-02T13:57:32Z</time>
      </trkpt>
      <trkpt lat="59.29430826548" lon="17.811495255224">
        <ele>9</ele>
        <time>2016-04-02T13:57:38Z</time>
      </trkpt>
      <trkpt lat="59.294154289977" lon="17.81154420552">
        <ele>9</ele>
        <time>2016-04-02T13:57:41Z</time>
      </trkpt>
      <trkpt lat="59.293866455531" lon="17.812339899287">
        <ele>9</ele>
        <time>2016-04-02T13:57:57Z</time>
      </trkpt>
      <trkpt lat="59.293840723098" lon="17.812837029776">
        <ele>9</ele>
        <time>2016-04-02T13:58:01Z</time>
      </trkpt>
      <trkpt lat="59.293752210234" lon="17.813997084736">
        <ele>9</ele>
        <time>2016-04-02T13:58:09Z</time>
      </trkpt>
      <trkpt lat="59.293737625728" lon="17.814146114918">
        <ele>8.6</ele>
        <time>2016-04-02T13:58:10Z</time>
      </trkpt>
      <trkpt lat="59.293721951575" lon="17.814291876159">
        <ele>8</ele>
        <time>2016-04-02T13:58:11Z</time>
      </trkpt>
      <trkpt lat="59.293705690689" lon="17.814436044839">
        <ele>7.6</ele>
        <time>2016-04-02T13:58:12Z</time>
      </trkpt>
      <trkpt lat="59.293691860554" lon="17.814576860759">
        <ele>7.2</ele>
        <time>2016-04-02T13:58:13Z</time>
      </trkpt>
      <trkpt lat="59.293680796446" lon="17.814718179593">
        <ele>6.8</ele>
        <time>2016-04-02T13:58:14Z</time>
      </trkpt>
      <trkpt lat="59.293646179199" lon="17.81501766488">
        <ele>6.8</ele>
        <time>2016-04-02T13:58:16Z</time>
      </trkpt>
      <trkpt lat="59.293495891732" lon="17.816108736803">
        <ele>6.4</ele>
        <time>2016-04-02T13:58:23Z</time>
      </trkpt>
      <trkpt lat="59.293482145416" lon="17.816275285156">
        <ele>6</ele>
        <time>2016-04-02T13:58:24Z</time>
      </trkpt>
      <trkpt lat="59.293467477091" lon="17.816444431898">
        <ele>5.6</ele>
        <time>2016-04-02T13:58:25Z</time>
      </trkpt>
      <trkpt lat="59.29345582625" lon="17.81661609321">
        <ele>5.2</ele>
        <time>2016-04-02T13:58:26Z</time>
      </trkpt>
      <trkpt lat="59.293443840133" lon="17.816785156133">
        <ele>4.8</ele>
        <time>2016-04-02T13:58:27Z</time>
      </trkpt>
      <trkpt lat="59.293407714144" lon="17.817292763997">
        <ele>4.8</ele>
        <time>2016-04-02T13:58:30Z</time>
      </trkpt>
      <trkpt lat="59.293395811846" lon="17.817462497472">
        <ele>4.4</ele>
        <time>2016-04-02T13:58:31Z</time>
      </trkpt>
      <trkpt lat="59.293385837385" lon="17.817629297282">
        <ele>4</ele>
        <time>2016-04-02T13:58:32Z</time>
      </trkpt>
      <trkpt lat="59.293375527648" lon="17.817797773472">
        <ele>3.6</ele>
        <time>2016-04-02T13:58:33Z</time>
      </trkpt>
      <trkpt lat="59.293364044445" lon="17.817963315997">
        <ele>3.2</ele>
        <time>2016-04-02T13:58:34Z</time>
      </trkpt>
      <trkpt lat="59.293353399432" lon="17.818128355608">
        <ele>2.8</ele>
        <time>2016-04-02T13:58:35Z</time>
      </trkpt>
      <trkpt lat="59.293305957878" lon="17.818803685291">
        <ele>2.8</ele>
        <time>2016-04-02T13:58:39Z</time>
      </trkpt>
      <trkpt lat="59.293245021465" lon="17.819790151102">
        <ele>2.8</ele>
        <time>2016-04-02T13:58:45Z</time>
      </trkpt>
      <trkpt lat="59.293206548544" lon="17.820579558444">
        <ele>2.8</ele>
        <time>2016-04-02T13:58:50Z</time>
      </trkpt>
      <trkpt lat="59.293200010662" lon="17.820743424589">
        <ele>2.8</ele>
        <time>2016-04-02T13:58:51Z</time>
      </trkpt>
      <trkpt lat="59.293228006208" lon="17.821361673533">
        <ele>3.2</ele>
        <time>2016-04-02T13:58:55Z</time>
      </trkpt>
      <trkpt lat="59.293239908506" lon="17.821513972656">
        <ele>3.6</ele>
        <time>2016-04-02T13:58:56Z</time>
      </trkpt>
      <trkpt lat="59.293255834116" lon="17.821665098313">
        <ele>4.2</ele>
        <time>2016-04-02T13:58:57Z</time>
      </trkpt>
      <trkpt lat="59.293273436106" lon="17.821812116839">
        <ele>4.6</ele>
        <time>2016-04-02T13:58:58Z</time>
      </trkpt>
      <trkpt lat="59.29329154101" lon="17.82196374541">
        <ele>5</ele>
        <time>2016-04-02T13:58:59Z</time>
      </trkpt>
      <trkpt lat="59.293349795215" lon="17.822394407432">
        <ele>5</ele>
        <time>2016-04-02T13:59:02Z</time>
      </trkpt>
      <trkpt lat="59.293466387444" lon="17.823304346496">
        <ele>5</ele>
        <time>2016-04-02T13:59:08Z</time>
      </trkpt>
      <trkpt lat="59.2935522181" lon="17.824374966583">
        <ele>5</ele>
        <time>2016-04-02T13:59:15Z</time>
      </trkpt>
      <trkpt lat="59.29358323113" lon="17.825097151087">
        <ele>5</ele>
        <time>2016-04-02T13:59:20Z</time>
      </trkpt>
      <trkpt lat="59.293598150912" lon="17.82547576151">
        <ele>5</ele>
        <time>2016-04-02T13:59:23Z</time>
      </trkpt>
      <trkpt lat="59.293598486188" lon="17.825607022064">
        <ele>5</ele>
        <time>2016-04-02T13:59:24Z</time>
      </trkpt>
      <trkpt lat="59.293618686567" lon="17.826182439499">
        <ele>5.4</ele>
        <time>2016-04-02T13:59:28Z</time>
      </trkpt>
      <trkpt lat="59.293630840322" lon="17.826320573211">
        <ele>5.8</ele>
        <time>2016-04-02T13:59:29Z</time>
      </trkpt>
      <trkpt lat="59.29364525719" lon="17.826457030543">
        <ele>6.2</ele>
        <time>2016-04-02T13:59:30Z</time>
      </trkpt>
      <trkpt lat="59.293664451741" lon="17.826598265558">
        <ele>6.6</ele>
        <time>2016-04-02T13:59:31Z</time>
      </trkpt>
      <trkpt lat="59.293682808102" lon="17.826735058166">
        <ele>7</ele>
        <time>2016-04-02T13:59:32Z</time>
      </trkpt>
      <trkpt lat="59.293724801421" lon="17.827026077734">
        <ele>7</ele>
        <time>2016-04-02T13:59:34Z</time>
      </trkpt>
      <trkpt lat="59.29388162677" lon="17.827695372449">
        <ele>7</ele>
        <time>2016-04-02T13:59:39Z</time>
      </trkpt>
      <trkpt lat="59.293907694479" lon="17.827824537528">
        <ele>7</ele>
        <time>2016-04-02T13:59:40Z</time>
      </trkpt>
      <trkpt lat="59.293980449371" lon="17.828083454419">
        <ele>7</ele>
        <time>2016-04-02T13:59:42Z</time>
      </trkpt>
      <trkpt lat="59.294163845343" lon="17.82869441111">
        <ele>7</ele>
        <time>2016-04-02T13:59:47Z</time>
      </trkpt>
      <trkpt lat="59.294275492251" lon="17.829052737335">
        <ele>7.4</ele>
        <time>2016-04-02T13:59:50Z</time>
      </trkpt>
      <trkpt lat="59.294318072303" lon="17.829179471663">
        <ele>7.8</ele>
        <time>2016-04-02T13:59:51Z</time>
      </trkpt>
      <trkpt lat="59.294357802509" lon="17.829296399168">
        <ele>8.2</ele>
        <time>2016-04-02T13:59:52Z</time>
      </trkpt>
      <trkpt lat="59.294394515231" lon="17.829417685261">
        <ele>8.8</ele>
        <time>2016-04-02T13:59:53Z</time>
      </trkpt>
      <trkpt lat="59.294427120822" lon="17.829547520892">
        <ele>9.2</ele>
        <time>2016-04-02T13:59:54Z</time>
      </trkpt>
      <trkpt lat="59.294514544039" lon="17.829979188742">
        <ele>9.2</ele>
        <time>2016-04-02T13:59:57Z</time>
      </trkpt>
      <trkpt lat="59.294593166261" lon="17.830800112028">
        <ele>8.6</ele>
        <time>2016-04-02T14:00:02Z</time>
      </trkpt>
      <trkpt lat="59.294602637808" lon="17.830963810535">
        <ele>8.2</ele>
        <time>2016-04-02T14:00:03Z</time>
      </trkpt>
      <trkpt lat="59.294605990568" lon="17.831123653368">
        <ele>7.8</ele>
        <time>2016-04-02T14:00:04Z</time>
      </trkpt>
      <trkpt lat="59.294610600613" lon="17.831285675495">
        <ele>7.4</ele>
        <time>2016-04-02T14:00:05Z</time>
      </trkpt>
      <trkpt lat="59.294620826531" lon="17.831447613803">
        <ele>7</ele>
        <time>2016-04-02T14:00:06Z</time>
      </trkpt>
      <trkpt lat="59.294646475145" lon="17.831773669713">
        <ele>7</ele>
        <time>2016-04-02T14:00:08Z</time>
      </trkpt>
      <trkpt lat="59.294768180333" lon="17.832825598163">
        <ele>6.4</ele>
        <time>2016-04-02T14:00:14Z</time>
      </trkpt>
      <trkpt lat="59.294790895282" lon="17.832992733249">
        <ele>6</ele>
        <time>2016-04-02T14:00:15Z</time>
      </trkpt>
      <trkpt lat="59.294810676566" lon="17.83317034571">
        <ele>5.6</ele>
        <time>2016-04-02T14:00:16Z</time>
      </trkpt>
      <trkpt lat="59.29483045785" lon="17.833349383094">
        <ele>5.2</ele>
        <time>2016-04-02T14:00:17Z</time>
      </trkpt>
      <trkpt lat="59.294850071496" lon="17.833531354143">
        <ele>4.8</ele>
        <time>2016-04-02T14:00:18Z</time>
      </trkpt>
      <trkpt lat="59.294883515277" lon="17.833888423083">
        <ele>4.8</ele>
        <time>2016-04-02T14:00:20Z</time>
      </trkpt>
      <trkpt lat="59.294913522479" lon="17.834782687994">
        <ele>4.8</ele>
        <time>2016-04-02T14:00:25Z</time>
      </trkpt>
      <trkpt lat="59.294909080072" lon="17.83576286738">
        <ele>4.8</ele>
        <time>2016-04-02T14:00:31Z</time>
      </trkpt>
      <trkpt lat="59.294927017338" lon="17.836849664534">
        <ele>4.8</ele>
        <time>2016-04-02T14:00:38Z</time>
      </trkpt>
      <trkpt lat="59.294947385355" lon="17.83699668306">
        <ele>5.2</ele>
        <time>2016-04-02T14:00:39Z</time>
      </trkpt>
      <trkpt lat="59.29497462653" lon="17.837138923903">
        <ele>5.6</ele>
        <time>2016-04-02T14:00:40Z</time>
      </trkpt>
      <trkpt lat="59.295007986492" lon="17.837278147262">
        <ele>6.2</ele>
        <time>2016-04-02T14:00:41Z</time>
      </trkpt>
      <trkpt lat="59.29504754906" lon="17.837411335653">
        <ele>6.6</ele>
        <time>2016-04-02T14:00:42Z</time>
      </trkpt>
      <trkpt lat="59.29509029675" lon="17.837538489076">
        <ele>7</ele>
        <time>2016-04-02T14:00:43Z</time>
      </trkpt>
      <trkpt lat="59.295141761616" lon="17.83766723506">
        <ele>7</ele>
        <time>2016-04-02T14:00:44Z</time>
      </trkpt>
      <trkpt lat="59.295297078223" lon="17.838008965123">
        <ele>7</ele>
        <time>2016-04-02T14:00:47Z</time>
      </trkpt>
      <trkpt lat="59.295350470926" lon="17.83811399033">
        <ele>7</ele>
        <time>2016-04-02T14:00:48Z</time>
      </trkpt>
      <trkpt lat="59.295500506936" lon="17.838413810893">
        <ele>7</ele>
        <time>2016-04-02T14:00:51Z</time>
      </trkpt>
      <trkpt lat="59.295919937212" lon="17.839122416719">
        <ele>7</ele>
        <time>2016-04-02T14:00:58Z</time>
      </trkpt>
      <trkpt lat="59.295973832829" lon="17.839242445527">
        <ele>7</ele>
        <time>2016-04-02T14:00:59Z</time>
      </trkpt>
      <trkpt lat="59.296112385636" lon="17.839645112003">
        <ele>7</ele>
        <time>2016-04-02T14:01:02Z</time>
      </trkpt>
      <trkpt lat="59.296266612596" lon="17.840348185775">
        <ele>7</ele>
        <time>2016-04-02T14:01:07Z</time>
      </trkpt>
      <trkpt lat="59.296374068554" lon="17.841209342181">
        <ele>7</ele>
        <time>2016-04-02T14:01:13Z</time>
      </trkpt>
      <trkpt lat="59.296402483195" lon="17.841504971794">
        <ele>7.6</ele>
        <time>2016-04-02T14:01:15Z</time>
      </trkpt>
      <trkpt lat="59.296417570615" lon="17.841650397759">
        <ele>8</ele>
        <time>2016-04-02T14:01:16Z</time>
      </trkpt>
      <trkpt lat="59.296432490397" lon="17.841796075181">
        <ele>8.4</ele>
        <time>2016-04-02T14:01:17Z</time>
      </trkpt>
      <trkpt lat="59.296447577817" lon="17.841942506974">
        <ele>8.8</ele>
        <time>2016-04-02T14:01:18Z</time>
      </trkpt>
      <trkpt lat="59.296461827047" lon="17.84208533455">
        <ele>9.4</ele>
        <time>2016-04-02T14:01:19Z</time>
      </trkpt>
      <trkpt lat="59.296485380186" lon="17.842368307494">
        <ele>9.8</ele>
        <time>2016-04-02T14:01:21Z</time>
      </trkpt>
      <trkpt lat="59.296495187009" lon="17.842515577477">
        <ele>10.2</ele>
        <time>2016-04-02T14:01:22Z</time>
      </trkpt>
      <trkpt lat="59.296506502574" lon="17.842649855515">
        <ele>10.6</ele>
        <time>2016-04-02T14:01:23Z</time>
      </trkpt>
      <trkpt lat="59.296517818139" lon="17.842792431634">
        <ele>11</ele>
        <time>2016-04-02T14:01:24Z</time>
      </trkpt>
      <trkpt lat="59.296519494519" lon="17.842918579229">
        <ele>11.4</ele>
        <time>2016-04-02T14:01:25Z</time>
      </trkpt>
      <trkpt lat="59.296541622735" lon="17.843195517205">
        <ele>11.4</ele>
        <time>2016-04-02T14:01:27Z</time>
      </trkpt>
      <trkpt lat="59.296631057608" lon="17.844120040775">
        <ele>11.4</ele>
        <time>2016-04-02T14:01:34Z</time>
      </trkpt>
      <trkpt lat="59.296718816101" lon="17.845051353684">
        <ele>11.4</ele>
        <time>2016-04-02T14:01:41Z</time>
      </trkpt>
      <trkpt lat="59.296804730576" lon="17.845924831483">
        <ele>11.4</ele>
        <time>2016-04-02T14:01:47Z</time>
      </trkpt>
      <trkpt lat="59.296854016148" lon="17.846393882607">
        <ele>11</ele>
        <time>2016-04-02T14:01:50Z</time>
      </trkpt>
      <trkpt lat="59.296864074428" lon="17.84656210734">
        <ele>10.6</ele>
        <time>2016-04-02T14:01:51Z</time>
      </trkpt>
      <trkpt lat="59.296851920673" lon="17.846711808074">
        <ele>10</ele>
        <time>2016-04-02T14:01:52Z</time>
      </trkpt>
      <trkpt lat="59.296805904042" lon="17.846848265406">
        <ele>9.6</ele>
        <time>2016-04-02T14:01:53Z</time>
      </trkpt>
      <trkpt lat="59.296747230742" lon="17.846948680568">
        <ele>9.2</ele>
        <time>2016-04-02T14:01:54Z</time>
      </trkpt>
      <trkpt lat="59.296689144175" lon="17.847042893124">
        <ele>8.6</ele>
        <time>2016-04-02T14:01:55Z</time>
      </trkpt>
      <trkpt lat="59.296639439508" lon="17.84714884034">
        <ele>8</ele>
        <time>2016-04-02T14:01:56Z</time>
      </trkpt>
      <trkpt lat="59.296608091202" lon="17.847271132261">
        <ele>7.6</ele>
        <time>2016-04-02T14:01:57Z</time>
      </trkpt>
      <trkpt lat="59.296601888596" lon="17.847400213521">
        <ele>7</ele>
        <time>2016-04-02T14:01:58Z</time>
      </trkpt>
      <trkpt lat="59.296606079546" lon="17.84754278964">
        <ele>7</ele>
        <time>2016-04-02T14:01:59Z</time>
      </trkpt>
      <trkpt lat="59.296694173315" lon="17.847908072842">
        <ele>7</ele>
        <time>2016-04-02T14:02:02Z</time>
      </trkpt>
      <trkpt lat="59.296729125838" lon="17.848018630103">
        <ele>7.6</ele>
        <time>2016-04-02T14:02:03Z</time>
      </trkpt>
      <trkpt lat="59.296759887411" lon="17.848132623943">
        <ele>8.4</ele>
        <time>2016-04-02T14:02:04Z</time>
      </trkpt>
      <trkpt lat="59.296793331192" lon="17.848240918091">
        <ele>9</ele>
        <time>2016-04-02T14:02:05Z</time>
      </trkpt>
      <trkpt lat="59.296831468837" lon="17.848352900275">
        <ele>9.4</ele>
        <time>2016-04-02T14:02:06Z</time>
      </trkpt>
      <trkpt lat="59.296858710012" lon="17.848461278242">
        <ele>9.4</ele>
        <time>2016-04-02T14:02:07Z</time>
      </trkpt>
      <trkpt lat="59.296885867368" lon="17.848571667865">
        <ele>9.8</ele>
        <time>2016-04-02T14:02:08Z</time>
      </trkpt>
      <trkpt lat="59.296914365828" lon="17.848671999208">
        <ele>10.2</ele>
        <time>2016-04-02T14:02:09Z</time>
      </trkpt>
      <trkpt lat="59.296950407998" lon="17.848760428253">
        <ele>10.6</ele>
        <time>2016-04-02T14:02:10Z</time>
      </trkpt>
      <trkpt lat="59.296982762132" lon="17.848860927234">
        <ele>11</ele>
        <time>2016-04-02T14:02:11Z</time>
      </trkpt>
      <trkpt lat="59.297012014963" lon="17.848963689328">
        <ele>11.4</ele>
        <time>2016-04-02T14:02:12Z</time>
      </trkpt>
      <trkpt lat="59.297083764027" lon="17.849164016738">
        <ele>12</ele>
        <time>2016-04-02T14:02:14Z</time>
      </trkpt>
      <trkpt lat="59.297118381274" lon="17.849257391104">
        <ele>12.4</ele>
        <time>2016-04-02T14:02:15Z</time>
      </trkpt>
      <trkpt lat="59.297150232494" lon="17.849359063551">
        <ele>12.8</ele>
        <time>2016-04-02T14:02:16Z</time>
      </trkpt>
      <trkpt lat="59.297181999895" lon="17.849468028251">
        <ele>13.2</ele>
        <time>2016-04-02T14:02:17Z</time>
      </trkpt>
      <trkpt lat="59.297214940762" lon="17.849576909132">
        <ele>13.8</ele>
        <time>2016-04-02T14:02:18Z</time>
      </trkpt>
      <trkpt lat="59.297280571039" lon="17.849770531022">
        <ele>14.2</ele>
        <time>2016-04-02T14:02:20Z</time>
      </trkpt>
      <trkpt lat="59.297304207997" lon="17.849871616736">
        <ele>14.6</ele>
        <time>2016-04-02T14:02:21Z</time>
      </trkpt>
      <trkpt lat="59.297326336213" lon="17.849973456821">
        <ele>15</ele>
        <time>2016-04-02T14:02:22Z</time>
      </trkpt>
      <trkpt lat="59.297348967343" lon="17.850081834788">
        <ele>15.4</ele>
        <time>2016-04-02T14:02:23Z</time>
      </trkpt>
      <trkpt lat="59.297368664808" lon="17.850204210528">
        <ele>15.8</ele>
        <time>2016-04-02T14:02:24Z</time>
      </trkpt>
      <trkpt lat="59.297426751375" lon="17.850569577549">
        <ele>15.8</ele>
        <time>2016-04-02T14:02:27Z</time>
      </trkpt>
      <trkpt lat="59.297507049977" lon="17.8511587413">
        <ele>15.8</ele>
        <time>2016-04-02T14:02:32Z</time>
      </trkpt>
      <trkpt lat="59.297625737681" lon="17.851800124288">
        <ele>15.8</ele>
        <time>2016-04-02T14:02:37Z</time>
      </trkpt>
      <trkpt lat="59.297697989659" lon="17.85218217129">
        <ele>15.8</ele>
        <time>2016-04-02T14:02:40Z</time>
      </trkpt>
      <trkpt lat="59.297747694326" lon="17.852476459799">
        <ele>15.4</ele>
        <time>2016-04-02T14:02:42Z</time>
      </trkpt>
      <trkpt lat="59.297785664333" lon="17.85263730846">
        <ele>14.8</ele>
        <time>2016-04-02T14:02:43Z</time>
      </trkpt>
      <trkpt lat="59.297823215245" lon="17.8528015937">
        <ele>14.4</ele>
        <time>2016-04-02T14:02:44Z</time>
      </trkpt>
      <trkpt lat="59.297859844148" lon="17.852967220044">
        <ele>13.8</ele>
        <time>2016-04-02T14:02:45Z</time>
      </trkpt>
      <trkpt lat="59.297897730336" lon="17.853137875528">
        <ele>13</ele>
        <time>2016-04-02T14:02:46Z</time>
      </trkpt>
      <trkpt lat="59.297936454714" lon="17.853311045582">
        <ele>12.4</ele>
        <time>2016-04-02T14:02:47Z</time>
      </trkpt>
      <trkpt lat="59.297977442205" lon="17.853480611419">
        <ele>11.6</ele>
        <time>2016-04-02T14:02:48Z</time>
      </trkpt>
      <trkpt lat="59.298022955922" lon="17.853627881402">
        <ele>10.8</ele>
        <time>2016-04-02T14:02:49Z</time>
      </trkpt>
      <trkpt lat="59.298074756064" lon="17.853783030371">
        <ele>10.2</ele>
        <time>2016-04-02T14:02:50Z</time>
      </trkpt>
      <trkpt lat="59.298128316405" lon="17.853922337549">
        <ele>9.4</ele>
        <time>2016-04-02T14:02:51Z</time>
      </trkpt>
      <trkpt lat="59.298193108492" lon="17.854046641126">
        <ele>8.8</ele>
        <time>2016-04-02T14:02:52Z</time>
      </trkpt>
      <trkpt lat="59.298264103185" lon="17.85413683037">
        <ele>8.2</ele>
        <time>2016-04-02T14:02:53Z</time>
      </trkpt>
      <trkpt lat="59.298335097878" lon="17.854208160339">
        <ele>6.6</ele>
        <time>2016-04-02T14:02:54Z</time>
      </trkpt>
      <trkpt lat="59.298434171936" lon="17.854248142002">
        <ele>5.8</ele>
        <time>2016-04-02T14:02:55Z</time>
      </trkpt>
      <trkpt lat="59.298525283189" lon="17.854288626579">
        <ele>5.2</ele>
        <time>2016-04-02T14:02:56Z</time>
      </trkpt>
      <trkpt lat="59.298629051111" lon="17.854290973511">
        <ele>4.4</ele>
        <time>2016-04-02T14:02:57Z</time>
      </trkpt>
      <trkpt lat="59.298717731613" lon="17.854234311867">
        <ele>3.8</ele>
        <time>2016-04-02T14:02:58Z</time>
      </trkpt>
      <trkpt lat="59.298797024387" lon="17.854145547546">
        <ele>3.2</ele>
        <time>2016-04-02T14:02:59Z</time>
      </trkpt>
      <trkpt lat="59.298870030736" lon="17.854034068276">
        <ele>2.6</ele>
        <time>2016-04-02T14:03:00Z</time>
      </trkpt>
      <trkpt lat="59.298936415384" lon="17.853917559866">
        <ele>2</ele>
        <time>2016-04-02T14:03:01Z</time>
      </trkpt>
      <trkpt lat="59.299053761984" lon="17.853688063444">
        <ele>2</ele>
        <time>2016-04-02T14:03:03Z</time>
      </trkpt>
      <trkpt lat="59.299276971981" lon="17.853245918219">
        <ele>2</ele>
        <time>2016-04-02T14:03:07Z</time>
      </trkpt>
      <trkpt lat="59.299363473189" lon="17.852993623029">
        <ele>2</ele>
        <time>2016-04-02T14:03:09Z</time>
      </trkpt>
      <trkpt lat="59.299433126778" lon="17.852697574321">
        <ele>2</ele>
        <time>2016-04-02T14:03:11Z</time>
      </trkpt>
      <trkpt lat="59.299523986574" lon="17.852254339449">
        <ele>2</ele>
        <time>2016-04-02T14:03:14Z</time>
      </trkpt>
      <trkpt lat="59.299596070914" lon="17.852014952385">
        <ele>2</ele>
        <time>2016-04-02T14:03:16Z</time>
      </trkpt>
      <trkpt lat="59.299649128341" lon="17.851945298796">
        <ele>2</ele>
        <time>2016-04-02T14:03:17Z</time>
      </trkpt>
      <trkpt lat="59.299760775249" lon="17.851949489746">
        <ele>2</ele>
        <time>2016-04-02T14:03:19Z</time>
      </trkpt>
      <trkpt lat="59.299924306118" lon="17.852130790243">
        <ele>2</ele>
        <time>2016-04-02T14:03:22Z</time>
      </trkpt>
      <trkpt lat="59.299985661626" lon="17.852195247054">
        <ele>2</ele>
        <time>2016-04-02T14:03:23Z</time>
      </trkpt>
      <trkpt lat="59.300221863568" lon="17.852458438714">
        <ele>2</ele>
        <time>2016-04-02T14:03:27Z</time>
      </trkpt>
      <trkpt lat="59.300277435565" lon="17.852531109787">
        <ele>2</ele>
        <time>2016-04-02T14:03:28Z</time>
      </trkpt>
      <trkpt lat="59.300500394105" lon="17.852853477661">
        <ele>2</ele>
        <time>2016-04-02T14:03:32Z</time>
      </trkpt>
      <trkpt lat="59.300633331039" lon="17.852985492586">
        <ele>2</ele>
        <time>2016-04-02T14:03:34Z</time>
      </trkpt>
      <trkpt lat="59.300841537435" lon="17.853128906895">
        <ele>2</ele>
        <time>2016-04-02T14:03:37Z</time>
      </trkpt>
      <trkpt lat="59.300992746911" lon="17.853179868847">
        <ele>2</ele>
        <time>2016-04-02T14:03:39Z</time>
      </trkpt>
      <trkpt lat="59.30121830384" lon="17.853309788297">
        <ele>2</ele>
        <time>2016-04-02T14:03:42Z</time>
      </trkpt>
      <trkpt lat="59.301359790312" lon="17.853430906752">
        <ele>2</ele>
        <time>2016-04-02T14:03:44Z</time>
      </trkpt>
      <trkpt lat="59.301756086544" lon="17.853764506372">
        <ele>2.6</ele>
        <time>2016-04-02T14:03:50Z</time>
      </trkpt>
      <trkpt lat="59.301811323265" lon="17.853807086424">
        <ele>3</ele>
        <time>2016-04-02T14:03:51Z</time>
      </trkpt>
      <trkpt lat="59.301862452855" lon="17.853854863254">
        <ele>3.6</ele>
        <time>2016-04-02T14:03:52Z</time>
      </trkpt>
      <trkpt lat="59.301912073703" lon="17.853893587632">
        <ele>4</ele>
        <time>2016-04-02T14:03:53Z</time>
      </trkpt>
      <trkpt lat="59.301960688723" lon="17.853934575123">
        <ele>4.4</ele>
        <time>2016-04-02T14:03:54Z</time>
      </trkpt>
      <trkpt lat="59.302011902132" lon="17.853974137691">
        <ele>4.8</ele>
        <time>2016-04-02T14:03:55Z</time>
      </trkpt>
      <trkpt lat="59.302063115541" lon="17.854002971427">
        <ele>5.4</ele>
        <time>2016-04-02T14:03:56Z</time>
      </trkpt>
      <trkpt lat="59.302115502416" lon="17.854033146267">
        <ele>5.8</ele>
        <time>2016-04-02T14:03:57Z</time>
      </trkpt>
      <trkpt lat="59.302170739137" lon="17.854064662211">
        <ele>6.2</ele>
        <time>2016-04-02T14:03:58Z</time>
      </trkpt>
      <trkpt lat="59.302226478772" lon="17.854090310825">
        <ele>6.6</ele>
        <time>2016-04-02T14:03:59Z</time>
      </trkpt>
      <trkpt lat="59.302398726817" lon="17.854152169247">
        <ele>6.6</ele>
        <time>2016-04-02T14:04:02Z</time>
      </trkpt>
      <trkpt lat="59.302453209167" lon="17.854174129825">
        <ele>7</ele>
        <time>2016-04-02T14:04:03Z</time>
      </trkpt>
      <trkpt lat="59.302508026793" lon="17.854193994928">
        <ele>7.6</ele>
        <time>2016-04-02T14:04:04Z</time>
      </trkpt>
      <trkpt lat="59.30256024603" lon="17.854215201135">
        <ele>8</ele>
        <time>2016-04-02T14:04:05Z</time>
      </trkpt>
      <trkpt lat="59.302608693412" lon="17.854251746219">
        <ele>8.4</ele>
        <time>2016-04-02T14:04:06Z</time>
      </trkpt>
      <trkpt lat="59.302653620396" lon="17.854295164461">
        <ele>8.8</ele>
        <time>2016-04-02T14:04:07Z</time>
      </trkpt>
      <trkpt lat="59.302692344774" lon="17.854355514141">
        <ele>8.8</ele>
        <time>2016-04-02T14:04:08Z</time>
      </trkpt>
      <trkpt lat="59.302749844608" lon="17.854498760812">
        <ele>9.2</ele>
        <time>2016-04-02T14:04:10Z</time>
      </trkpt>
      <trkpt lat="59.302760321983" lon="17.854590626436">
        <ele>9.6</ele>
        <time>2016-04-02T14:04:11Z</time>
      </trkpt>
      <trkpt lat="59.302767781874" lon="17.854679726033">
        <ele>10</ele>
        <time>2016-04-02T14:04:12Z</time>
      </trkpt>
      <trkpt lat="59.302777672516" lon="17.854770334372">
        <ele>10.4</ele>
        <time>2016-04-02T14:04:13Z</time>
      </trkpt>
      <trkpt lat="59.302796280334" lon="17.85486689386">
        <ele>11</ele>
        <time>2016-04-02T14:04:14Z</time>
      </trkpt>
      <trkpt lat="59.302835256169" lon="17.854938223829">
        <ele>11</ele>
        <time>2016-04-02T14:04:15Z</time>
      </trkpt>
      <trkpt lat="59.302992500613" lon="17.855106197105">
        <ele>11</ele>
        <time>2016-04-02T14:04:18Z</time>
      </trkpt>
      <trkpt lat="59.30305561632" lon="17.855155147401">
        <ele>11</ele>
        <time>2016-04-02T14:04:19Z</time>
      </trkpt>
      <trkpt lat="59.303449733258" lon="17.855502325699">
        <ele>11</ele>
        <time>2016-04-02T14:04:26Z</time>
      </trkpt>
      <trkpt lat="59.303798504117" lon="17.85581488675">
        <ele>11.4</ele>
        <time>2016-04-02T14:04:32Z</time>
      </trkpt>
      <trkpt lat="59.303861200729" lon="17.855867944177">
        <ele>12.2</ele>
        <time>2016-04-02T14:04:34Z</time>
      </trkpt>
      <trkpt lat="59.303916353631" lon="17.855917397387">
        <ele>12.6</ele>
        <time>2016-04-02T14:04:35Z</time>
      </trkpt>
      <trkpt lat="59.303974524017" lon="17.855967856425">
        <ele>13</ele>
        <time>2016-04-02T14:04:36Z</time>
      </trkpt>
      <trkpt lat="59.304404180211" lon="17.856340599518">
        <ele>13</ele>
        <time>2016-04-02T14:04:43Z</time>
      </trkpt>
      <trkpt lat="59.30461129696" lon="17.856526761517">
        <ele>12.4</ele>
        <time>2016-04-02T14:04:46Z</time>
      </trkpt>
      <trkpt lat="59.304684470947" lon="17.856592559432">
        <ele>12</ele>
        <time>2016-04-02T14:04:47Z</time>
      </trkpt>
      <trkpt lat="59.304758902219" lon="17.856662045383">
        <ele>11.6</ele>
        <time>2016-04-02T14:04:48Z</time>
      </trkpt>
      <trkpt lat="59.304835009871" lon="17.856729854954">
        <ele>11.2</ele>
        <time>2016-04-02T14:04:49Z</time>
      </trkpt>
      <trkpt lat="59.304915476111" lon="17.85680143638">
        <ele>10.6</ele>
        <time>2016-04-02T14:04:50Z</time>
      </trkpt>
      <trkpt lat="59.305062913732" lon="17.856933954219">
        <ele>10.2</ele>
        <time>2016-04-02T14:04:52Z</time>
      </trkpt>
      <trkpt lat="59.305132399683" lon="17.856995561184">
        <ele>9.8</ele>
        <time>2016-04-02T14:04:53Z</time>
      </trkpt>
      <trkpt lat="59.305212111552" lon="17.857063538393">
        <ele>9.4</ele>
        <time>2016-04-02T14:04:54Z</time>
      </trkpt>
      <trkpt lat="59.305288303023" lon="17.85712916867">
        <ele>9</ele>
        <time>2016-04-02T14:04:55Z</time>
      </trkpt>
      <trkpt lat="59.305364494494" lon="17.857193625481">
        <ele>8.6</ele>
        <time>2016-04-02T14:04:56Z</time>
      </trkpt>
      <trkpt lat="59.305599942065" lon="17.857406693379">
        <ele>8.6</ele>
        <time>2016-04-02T14:04:59Z</time>
      </trkpt>
      <trkpt lat="59.306126493023" lon="17.857884294041">
        <ele>8.6</ele>
        <time>2016-04-02T14:05:06Z</time>
      </trkpt>
      <trkpt lat="59.306196230431" lon="17.857950343413">
        <ele>8.6</ele>
        <time>2016-04-02T14:05:07Z</time>
      </trkpt>
      <trkpt lat="59.306596633794" lon="17.858289055992">
        <ele>9</ele>
        <time>2016-04-02T14:05:13Z</time>
      </trkpt>
      <trkpt lat="59.306659665682" lon="17.858346388188">
        <ele>9.4</ele>
        <time>2016-04-02T14:05:14Z</time>
      </trkpt>
      <trkpt lat="59.306721943199" lon="17.858405061488">
        <ele>9.8</ele>
        <time>2016-04-02T14:05:15Z</time>
      </trkpt>
      <trkpt lat="59.306785226544" lon="17.858463818607">
        <ele>10.2</ele>
        <time>2016-04-02T14:05:16Z</time>
      </trkpt>
      <trkpt lat="59.306851024459" lon="17.858521066984">
        <ele>10.6</ele>
        <time>2016-04-02T14:05:17Z</time>
      </trkpt>
      <trkpt lat="59.307248577976" lon="17.858869837843">
        <ele>11</ele>
        <time>2016-04-02T14:05:23Z</time>
      </trkpt>
      <trkpt lat="59.307312531873" lon="17.858926667125">
        <ele>11.8</ele>
        <time>2016-04-02T14:05:24Z</time>
      </trkpt>
      <trkpt lat="59.307376737227" lon="17.858983580226">
        <ele>12.2</ele>
        <time>2016-04-02T14:05:25Z</time>
      </trkpt>
      <trkpt lat="59.307440523486" lon="17.859039655137">
        <ele>12.6</ele>
        <time>2016-04-02T14:05:26Z</time>
      </trkpt>
      <trkpt lat="59.307803543575" lon="17.85936545959">
        <ele>12.6</ele>
        <time>2016-04-02T14:05:32Z</time>
      </trkpt>
      <trkpt lat="59.307922818012" lon="17.85946604239">
        <ele>13</ele>
        <time>2016-04-02T14:05:34Z</time>
      </trkpt>
      <trkpt lat="59.307983838244" lon="17.859516752885">
        <ele>13.4</ele>
        <time>2016-04-02T14:05:35Z</time>
      </trkpt>
      <trkpt lat="59.308045109933" lon="17.85957081614">
        <ele>14</ele>
        <time>2016-04-02T14:05:36Z</time>
      </trkpt>
      <trkpt lat="59.30810654926" lon="17.859625717585">
        <ele>14.4</ele>
        <time>2016-04-02T14:05:37Z</time>
      </trkpt>
      <trkpt lat="59.308168072406" lon="17.859680032297">
        <ele>14.8</ele>
        <time>2016-04-02T14:05:38Z</time>
      </trkpt>
      <trkpt lat="59.308292040707" lon="17.859788158807">
        <ele>14.8</ele>
        <time>2016-04-02T14:05:40Z</time>
      </trkpt>
      <trkpt lat="59.308809036299" lon="17.860213204956">
        <ele>14.8</ele>
        <time>2016-04-02T14:05:48Z</time>
      </trkpt>
      <trkpt lat="59.308937614645" lon="17.860298700336">
        <ele>14.8</ele>
        <time>2016-04-02T14:05:50Z</time>
      </trkpt>
      <trkpt lat="59.30928336802" lon="17.860478156815">
        <ele>14.8</ele>
        <time>2016-04-02T14:05:56Z</time>
      </trkpt>
      <trkpt lat="59.309647226299" lon="17.860565831489">
        <ele>14.8</ele>
        <time>2016-04-02T14:06:02Z</time>
      </trkpt>
      <trkpt lat="59.309710258187" lon="17.860584271669">
        <ele>14.8</ele>
        <time>2016-04-02T14:06:03Z</time>
      </trkpt>
      <trkpt lat="59.309888876476" lon="17.860590390456">
        <ele>15.2</ele>
        <time>2016-04-02T14:06:06Z</time>
      </trkpt>
      <trkpt lat="59.309946292491" lon="17.860586786239">
        <ele>15.6</ele>
        <time>2016-04-02T14:06:07Z</time>
      </trkpt>
      <trkpt lat="59.310002199764" lon="17.860588797895">
        <ele>16.2</ele>
        <time>2016-04-02T14:06:08Z</time>
      </trkpt>
      <trkpt lat="59.310060873064" lon="17.860591899198">
        <ele>16.6</ele>
        <time>2016-04-02T14:06:09Z</time>
      </trkpt>
      <trkpt lat="59.310126335703" lon="17.860583936393">
        <ele>17</ele>
        <time>2016-04-02T14:06:10Z</time>
      </trkpt>
      <trkpt lat="59.310254746411" lon="17.860561137625">
        <ele>17</ele>
        <time>2016-04-02T14:06:12Z</time>
      </trkpt>
      <trkpt lat="59.310313168254" lon="17.860561975815">
        <ele>17.4</ele>
        <time>2016-04-02T14:06:13Z</time>
      </trkpt>
      <trkpt lat="59.310374775219" lon="17.860564490385">
        <ele>18</ele>
        <time>2016-04-02T14:06:14Z</time>
      </trkpt>
      <trkpt lat="59.310436633641" lon="17.860559545064">
        <ele>18.4</ele>
        <time>2016-04-02T14:06:15Z</time>
      </trkpt>
      <trkpt lat="59.310499246434" lon="17.860557114313">
        <ele>18.8</ele>
        <time>2016-04-02T14:06:16Z</time>
      </trkpt>
      <trkpt lat="59.31056160777" lon="17.860564490385">
        <ele>19.2</ele>
        <time>2016-04-02T14:06:17Z</time>
      </trkpt>
      <trkpt lat="59.310690018478" lon="17.860572285552">
        <ele>19.2</ele>
        <time>2016-04-02T14:06:19Z</time>
      </trkpt>
      <trkpt lat="59.310818848281" lon="17.860550241155">
        <ele>19.6</ele>
        <time>2016-04-02T14:06:21Z</time>
      </trkpt>
      <trkpt lat="59.31087676721" lon="17.860545463472">
        <ele>20</ele>
        <time>2016-04-02T14:06:22Z</time>
      </trkpt>
      <trkpt lat="59.310935189053" lon="17.860537333029">
        <ele>20.6</ele>
        <time>2016-04-02T14:06:23Z</time>
      </trkpt>
      <trkpt lat="59.310992772706" lon="17.860526268921">
        <ele>21</ele>
        <time>2016-04-02T14:06:24Z</time>
      </trkpt>
      <trkpt lat="59.3110452434" lon="17.860524843998">
        <ele>21.4</ele>
        <time>2016-04-02T14:06:25Z</time>
      </trkpt>
      <trkpt lat="59.311202571663" lon="17.860499111565">
        <ele>21.8</ele>
        <time>2016-04-02T14:06:28Z</time>
      </trkpt>
      <trkpt lat="59.311254287986" lon="17.860485700525">
        <ele>22.2</ele>
        <time>2016-04-02T14:06:29Z</time>
      </trkpt>
      <trkpt lat="59.311303908834" lon="17.860470613105">
        <ele>22.6</ele>
        <time>2016-04-02T14:06:30Z</time>
      </trkpt>
      <trkpt lat="59.311352356216" lon="17.860454938952">
        <ele>23</ele>
        <time>2016-04-02T14:06:31Z</time>
      </trkpt>
      <trkpt lat="59.311400133046" lon="17.860441276455">
        <ele>23.4</ele>
        <time>2016-04-02T14:06:32Z</time>
      </trkpt>
      <trkpt lat="59.31160012518" lon="17.860394337815">
        <ele>23.4</ele>
        <time>2016-04-02T14:06:36Z</time>
      </trkpt>
      <trkpt lat="59.312000444724" lon="17.860258718673">
        <ele>23.4</ele>
        <time>2016-04-02T14:06:44Z</time>
      </trkpt>
      <trkpt lat="59.312390873626" lon="17.860157046226">
        <ele>23.4</ele>
        <time>2016-04-02T14:06:51Z</time>
      </trkpt>
      <trkpt lat="59.312631517975" lon="17.860066270249">
        <ele>23.4</ele>
        <time>2016-04-02T14:06:55Z</time>
      </trkpt>
      <trkpt lat="59.312755151" lon="17.859960825947">
        <ele>23.4</ele>
        <time>2016-04-02T14:06:57Z</time>
      </trkpt>
      <trkpt lat="59.313105346782" lon="17.85954567044">
        <ele>23.4</ele>
        <time>2016-04-02T14:07:03Z</time>
      </trkpt>
      <trkpt lat="59.31329578355" lon="17.859166138008">
        <ele>23.4</ele>
        <time>2016-04-02T14:07:07Z</time>
      </trkpt>
      <trkpt lat="59.313327550951" lon="17.859049713417">
        <ele>23</ele>
        <time>2016-04-02T14:07:08Z</time>
      </trkpt>
      <trkpt lat="59.313355127402" lon="17.858936473948">
        <ele>22.6</ele>
        <time>2016-04-02T14:07:09Z</time>
      </trkpt>
      <trkpt lat="59.313404496793" lon="17.858845362695">
        <ele>22.2</ele>
        <time>2016-04-02T14:07:10Z</time>
      </trkpt>
      <trkpt lat="59.31346174517" lon="17.858782163169">
        <ele>21.8</ele>
        <time>2016-04-02T14:07:11Z</time>
      </trkpt>
      <trkpt lat="59.313520753746" lon="17.858759951134">
        <ele>21.4</ele>
        <time>2016-04-02T14:07:12Z</time>
      </trkpt>
      <trkpt lat="59.313645727875" lon="17.8588030341">
        <ele>21.4</ele>
        <time>2016-04-02T14:07:14Z</time>
      </trkpt>
      <trkpt lat="59.313848402217" lon="17.858959607992">
        <ele>21</ele>
        <time>2016-04-02T14:07:17Z</time>
      </trkpt>
      <trkpt lat="59.313921324747" lon="17.859025657364">
        <ele>20.6</ele>
        <time>2016-04-02T14:07:18Z</time>
      </trkpt>
      <trkpt lat="59.313994917829" lon="17.85910897345">
        <ele>20.2</ele>
        <time>2016-04-02T14:07:19Z</time>
      </trkpt>
      <trkpt lat="59.314068846187" lon="17.859203269825">
        <ele>19.8</ele>
        <time>2016-04-02T14:07:20Z</time>
      </trkpt>
      <trkpt lat="59.314142187812" lon="17.859316257837">
        <ele>19.4</ele>
        <time>2016-04-02T14:07:21Z</time>
      </trkpt>
      <trkpt lat="59.314213182505" lon="17.859440980509">
        <ele>18.8</ele>
        <time>2016-04-02T14:07:22Z</time>
      </trkpt>
      <trkpt lat="59.314281075895" lon="17.859583137533">
        <ele>18.2</ele>
        <time>2016-04-02T14:07:23Z</time>
      </trkpt>
      <trkpt lat="59.314352489683" lon="17.859734514647">
        <ele>17.6</ele>
        <time>2016-04-02T14:07:24Z</time>
      </trkpt>
      <trkpt lat="59.314427507688" lon="17.85989771024">
        <ele>17</ele>
        <time>2016-04-02T14:07:25Z</time>
      </trkpt>
      <trkpt lat="59.314499508209" lon="17.860054787046">
        <ele>16.2</ele>
        <time>2016-04-02T14:07:26Z</time>
      </trkpt>
      <trkpt lat="59.314560528441" lon="17.860199374821">
        <ele>14</ele>
        <time>2016-04-02T14:07:27Z</time>
      </trkpt>
      <trkpt lat="59.314614424058" lon="17.860355529618">
        <ele>13</ele>
        <time>2016-04-02T14:07:28Z</time>
      </trkpt>
      <trkpt lat="59.314653316074" lon="17.860519228125">
        <ele>12</ele>
        <time>2016-04-02T14:07:29Z</time>
      </trkpt>
      <trkpt lat="59.31467879705" lon="17.860682758994">
        <ele>10.8</ele>
        <time>2016-04-02T14:07:30Z</time>
      </trkpt>
      <trkpt lat="59.314771081769" lon="17.860962798273">
        <ele>10.8</ele>
        <time>2016-04-02T14:07:32Z</time>
      </trkpt>
      <trkpt lat="59.314987083332" lon="17.861221379888">
        <ele>10.8</ele>
        <time>2016-04-02T14:07:35Z</time>
      </trkpt>
      <trkpt lat="59.315060424957" lon="17.861283657405">
        <ele>10.8</ele>
        <time>2016-04-02T14:07:36Z</time>
      </trkpt>
      <trkpt lat="59.315554454143" lon="17.861737369652">
        <ele>10.8</ele>
        <time>2016-04-02T14:07:43Z</time>
      </trkpt>
      <trkpt lat="59.315687726353" lon="17.861859410116">
        <ele>11.2</ele>
        <time>2016-04-02T14:07:45Z</time>
      </trkpt>
      <trkpt lat="59.315755200648" lon="17.861925878583">
        <ele>11.6</ele>
        <time>2016-04-02T14:07:46Z</time>
      </trkpt>
      <trkpt lat="59.315825021875" lon="17.861991341222">
        <ele>12</ele>
        <time>2016-04-02T14:07:47Z</time>
      </trkpt>
      <trkpt lat="59.315891741799" lon="17.862054624567">
        <ele>12.6</ele>
        <time>2016-04-02T14:07:48Z</time>
      </trkpt>
      <trkpt lat="59.315958126447" lon="17.862122517957">
        <ele>13</ele>
        <time>2016-04-02T14:07:49Z</time>
      </trkpt>
      <trkpt lat="59.316171445802" lon="17.862339441529">
        <ele>13</ele>
        <time>2016-04-02T14:07:52Z</time>
      </trkpt>
      <trkpt lat="59.31667033649" lon="17.862825004996">
        <ele>13</ele>
        <time>2016-04-02T14:07:59Z</time>
      </trkpt>
      <trkpt lat="59.31688072218" lon="17.863025332406">
        <ele>13</ele>
        <time>2016-04-02T14:08:02Z</time>
      </trkpt>
      <trkpt lat="59.31735010858" lon="17.863489857304">
        <ele>13</ele>
        <time>2016-04-02T14:08:09Z</time>
      </trkpt>
      <trkpt lat="59.317792086167" lon="17.864037949745">
        <ele>13</ele>
        <time>2016-04-02T14:08:16Z</time>
      </trkpt>
      <trkpt lat="59.318299526393" lon="17.864712860333">
        <ele>13</ele>
        <time>2016-04-02T14:08:24Z</time>
      </trkpt>
      <trkpt lat="59.318780982729" lon="17.865355919701">
        <ele>13</ele>
        <time>2016-04-02T14:08:31Z</time>
      </trkpt>
      <trkpt lat="59.318924145581" lon="17.865551134152">
        <ele>13</ele>
        <time>2016-04-02T14:08:33Z</time>
      </trkpt>
      <trkpt lat="59.319066218786" lon="17.865734530124">
        <ele>12.4</ele>
        <time>2016-04-02T14:08:35Z</time>
      </trkpt>
      <trkpt lat="59.319138722221" lon="17.8658186844">
        <ele>12</ele>
        <time>2016-04-02T14:08:36Z</time>
      </trkpt>
      <trkpt lat="59.31921172857" lon="17.865900659382">
        <ele>11.6</ele>
        <time>2016-04-02T14:08:37Z</time>
      </trkpt>
      <trkpt lat="59.319284483462" lon="17.865978359595">
        <ele>11.2</ele>
        <time>2016-04-02T14:08:38Z</time>
      </trkpt>
      <trkpt lat="59.319360339657" lon="17.866058993473">
        <ele>10.8</ele>
        <time>2016-04-02T14:08:39Z</time>
      </trkpt>
      <trkpt lat="59.319434268015" lon="17.866138956799">
        <ele>10.8</ele>
        <time>2016-04-02T14:08:40Z</time>
      </trkpt>
      <trkpt lat="59.319946402105" lon="17.866725270704">
        <ele>10.8</ele>
        <time>2016-04-02T14:08:47Z</time>
      </trkpt>
      <trkpt lat="59.320090486966" lon="17.866909421047">
        <ele>10.8</ele>
        <time>2016-04-02T14:08:49Z</time>
      </trkpt>
      <trkpt lat="59.320331801867" lon="17.867130954664">
        <ele>10.8</ele>
        <time>2016-04-02T14:08:52Z</time>
      </trkpt>
      <trkpt lat="59.320417213428" lon="17.867195495294">
        <ele>10.8</ele>
        <time>2016-04-02T14:08:53Z</time>
      </trkpt>
      <trkpt lat="59.320492147614" lon="17.867289372574">
        <ele>10.8</ele>
        <time>2016-04-02T14:08:54Z</time>
      </trkpt>
      <trkpt lat="59.320611086775" lon="17.867526245068">
        <ele>10.8</ele>
        <time>2016-04-02T14:08:56Z</time>
      </trkpt>
      <trkpt lat="59.320735306533" lon="17.867762614648">
        <ele>10.8</ele>
        <time>2016-04-02T14:08:58Z</time>
      </trkpt>
      <trkpt lat="59.320874948987" lon="17.867939975652">
        <ele>10.8</ele>
        <time>2016-04-02T14:09:00Z</time>
      </trkpt>
      <trkpt lat="59.321022638065" lon="17.86806000446">
        <ele>10.8</ele>
        <time>2016-04-02T14:09:02Z</time>
      </trkpt>
      <trkpt lat="59.321163118709" lon="17.86815136717">
        <ele>10.8</ele>
        <time>2016-04-02T14:09:04Z</time>
      </trkpt>
      <trkpt lat="59.321229838633" lon="17.868194701593">
        <ele>11.2</ele>
        <time>2016-04-02T14:09:05Z</time>
      </trkpt>
      <trkpt lat="59.321298905489" lon="17.868230576125">
        <ele>11.6</ele>
        <time>2016-04-02T14:09:06Z</time>
      </trkpt>
      <trkpt lat="59.321367301793" lon="17.868256560015">
        <ele>12</ele>
        <time>2016-04-02T14:09:07Z</time>
      </trkpt>
      <trkpt lat="59.321439972866" lon="17.868278352955">
        <ele>12.6</ele>
        <time>2016-04-02T14:09:08Z</time>
      </trkpt>
      <trkpt lat="59.321508536808" lon="17.868296541678">
        <ele>13</ele>
        <time>2016-04-02T14:09:09Z</time>
      </trkpt>
      <trkpt lat="59.321578609492" lon="17.868315400953">
        <ele>13</ele>
        <time>2016-04-02T14:09:10Z</time>
      </trkpt>
      <trkpt lat="59.322153021099" lon="17.868430232983">
        <ele>13</ele>
        <time>2016-04-02T14:09:18Z</time>
      </trkpt>
      <trkpt lat="59.3225787378" lon="17.86854783104">
        <ele>13</ele>
        <time>2016-04-02T14:09:24Z</time>
      </trkpt>
      <trkpt lat="59.322651325054" lon="17.868567193229">
        <ele>13</ele>
        <time>2016-04-02T14:09:25Z</time>
      </trkpt>
      <trkpt lat="59.323271501835" lon="17.868699962525">
        <ele>13</ele>
        <time>2016-04-02T14:09:33Z</time>
      </trkpt>
      <trkpt lat="59.323693446681" lon="17.868797863117">
        <ele>12.4</ele>
        <time>2016-04-02T14:09:38Z</time>
      </trkpt>
      <trkpt lat="59.323782881554" lon="17.868820410428">
        <ele>12</ele>
        <time>2016-04-02T14:09:39Z</time>
      </trkpt>
      <trkpt lat="59.323868376934" lon="17.868845472309">
        <ele>11.6</ele>
        <time>2016-04-02T14:09:40Z</time>
      </trkpt>
      <trkpt lat="59.323955129599" lon="17.868878832271">
        <ele>11.2</ele>
        <time>2016-04-02T14:09:41Z</time>
      </trkpt>
      <trkpt lat="59.324040373522" lon="17.868921999056">
        <ele>10.8</ele>
        <time>2016-04-02T14:09:42Z</time>
      </trkpt>
      <trkpt lat="59.324446392758" lon="17.869270602277">
        <ele>10.8</ele>
        <time>2016-04-02T14:09:47Z</time>
      </trkpt>
      <trkpt lat="59.324657951914" lon="17.869560616017">
        <ele>10.2</ele>
        <time>2016-04-02T14:09:50Z</time>
      </trkpt>
      <trkpt lat="59.324718469232" lon="17.8696659765">
        <ele>9.8</ele>
        <time>2016-04-02T14:09:51Z</time>
      </trkpt>
      <trkpt lat="59.324776974894" lon="17.86977745577">
        <ele>9.2</ele>
        <time>2016-04-02T14:09:52Z</time>
      </trkpt>
      <trkpt lat="59.324832295434" lon="17.869891030515">
        <ele>8.8</ele>
        <time>2016-04-02T14:09:53Z</time>
      </trkpt>
      <trkpt lat="59.324889124716" lon="17.870011646056">
        <ele>8.4</ele>
        <time>2016-04-02T14:09:54Z</time>
      </trkpt>
      <trkpt lat="59.325079477665" lon="17.870534257521">
        <ele>8.4</ele>
        <time>2016-04-02T14:09:58Z</time>
      </trkpt>
      <trkpt lat="59.325257844497" lon="17.871260800613">
        <ele>8.4</ele>
        <time>2016-04-02T14:10:03Z</time>
      </trkpt>
      <trkpt lat="59.325388015404" lon="17.872027912101">
        <ele>8.4</ele>
        <time>2016-04-02T14:10:08Z</time>
      </trkpt>
      <trkpt lat="59.325564035304" lon="17.873164413922">
        <ele>8.4</ele>
        <time>2016-04-02T14:10:15Z</time>
      </trkpt>
      <trkpt lat="59.325715831513" lon="17.874146353507">
        <ele>8.4</ele>
        <time>2016-04-02T14:10:21Z</time>
      </trkpt>
      <trkpt lat="59.325865196971" lon="17.875102393021">
        <ele>8.4</ele>
        <time>2016-04-02T14:10:27Z</time>
      </trkpt>
      <trkpt lat="59.32599268567" lon="17.876026246039">
        <ele>8.4</ele>
        <time>2016-04-02T14:10:33Z</time>
      </trkpt>
      <trkpt lat="59.326127969536" lon="17.876781790505">
        <ele>8.4</ele>
        <time>2016-04-02T14:10:38Z</time>
      </trkpt>
      <trkpt lat="59.326169879036" lon="17.876923947529">
        <ele>8.4</ele>
        <time>2016-04-02T14:10:39Z</time>
      </trkpt>
      <trkpt lat="59.326220002798" lon="17.8772348322">
        <ele>8</ele>
        <time>2016-04-02T14:10:41Z</time>
      </trkpt>
      <trkpt lat="59.326239700263" lon="17.877387718056">
        <ele>7.4</ele>
        <time>2016-04-02T14:10:42Z</time>
      </trkpt>
      <trkpt lat="59.326257469891" lon="17.877536664419">
        <ele>7</ele>
        <time>2016-04-02T14:10:43Z</time>
      </trkpt>
      <trkpt lat="59.326276412985" lon="17.877683682945">
        <ele>6</ele>
        <time>2016-04-02T14:10:44Z</time>
      </trkpt>
      <trkpt lat="59.326348413506" lon="17.87810068247">
        <ele>6</ele>
        <time>2016-04-02T14:10:47Z</time>
      </trkpt>
      <trkpt lat="59.32639334049" lon="17.87838818164">
        <ele>6</ele>
        <time>2016-04-02T14:10:49Z</time>
      </trkpt>
      <trkpt lat="59.326414965792" lon="17.878662605046">
        <ele>6</ele>
        <time>2016-04-02T14:10:51Z</time>
      </trkpt>
      <trkpt lat="59.326440027673" lon="17.878944655981">
        <ele>6</ele>
        <time>2016-04-02T14:10:53Z</time>
      </trkpt>
      <trkpt lat="59.326479506422" lon="17.879828778793">
        <ele>6</ele>
        <time>2016-04-02T14:10:59Z</time>
      </trkpt>
      <trkpt lat="59.326438938026" lon="17.880576947187">
        <ele>5.6</ele>
        <time>2016-04-02T14:11:04Z</time>
      </trkpt>
      <trkpt lat="59.326418653828" lon="17.880717846926">
        <ele>5.2</ele>
        <time>2016-04-02T14:11:05Z</time>
      </trkpt>
      <trkpt lat="59.326402895856" lon="17.880856315914">
        <ele>4.8</ele>
        <time>2016-04-02T14:11:06Z</time>
      </trkpt>
      <trkpt lat="59.326382276382" lon="17.880996461282">
        <ele>4.4</ele>
        <time>2016-04-02T14:11:07Z</time>
      </trkpt>
      <trkpt lat="59.326359980528" lon="17.881130571682">
        <ele>3.8</ele>
        <time>2016-04-02T14:11:08Z</time>
      </trkpt>
      <trkpt lat="59.326274485148" lon="17.881524520982">
        <ele>3.8</ele>
        <time>2016-04-02T14:11:11Z</time>
      </trkpt>
      <trkpt lat="59.326172561244" lon="17.881877315153">
        <ele>3.8</ele>
        <time>2016-04-02T14:11:14Z</time>
      </trkpt>
      <trkpt lat="59.326076001756" lon="17.882216949741">
        <ele>3.8</ele>
        <time>2016-04-02T14:11:17Z</time>
      </trkpt>
      <trkpt lat="59.325879781477" lon="17.88289093832">
        <ele>4.4</ele>
        <time>2016-04-02T14:11:23Z</time>
      </trkpt>
      <trkpt lat="59.325848433171" lon="17.882998059002">
        <ele>4.8</ele>
        <time>2016-04-02T14:11:24Z</time>
      </trkpt>
      <trkpt lat="59.325816581951" lon="17.883111298471">
        <ele>5.4</ele>
        <time>2016-04-02T14:11:25Z</time>
      </trkpt>
      <trkpt lat="59.325783305808" lon="17.883210540167">
        <ele>5.8</ele>
        <time>2016-04-02T14:11:26Z</time>
      </trkpt>
      <trkpt lat="59.325753466244" lon="17.883314140451">
        <ele>6.4</ele>
        <time>2016-04-02T14:11:27Z</time>
      </trkpt>
      <trkpt lat="59.325640729689" lon="17.883724350637">
        <ele>6.4</ele>
        <time>2016-04-02T14:11:31Z</time>
      </trkpt>
      <trkpt lat="59.325621283681" lon="17.883821748315">
        <ele>6.4</ele>
        <time>2016-04-02T14:11:32Z</time>
      </trkpt>
      <trkpt lat="59.325590270651" lon="17.8839235884">
        <ele>6.8</ele>
        <time>2016-04-02T14:11:33Z</time>
      </trkpt>
      <trkpt lat="59.325559425259" lon="17.884023668286">
        <ele>7.2</ele>
        <time>2016-04-02T14:11:34Z</time>
      </trkpt>
      <trkpt lat="59.325527406401" lon="17.884122742344">
        <ele>7.8</ele>
        <time>2016-04-02T14:11:35Z</time>
      </trkpt>
      <trkpt lat="59.325498237389" lon="17.884203460041">
        <ele>8.2</ele>
        <time>2016-04-02T14:11:36Z</time>
      </trkpt>
      <trkpt lat="59.325465296522" lon="17.884287195222">
        <ele>8.6</ele>
        <time>2016-04-02T14:11:37Z</time>
      </trkpt>
      <trkpt lat="59.325402432272" lon="17.884469920642">
        <ele>8.6</ele>
        <time>2016-04-02T14:11:39Z</time>
      </trkpt>
      <trkpt lat="59.325191543668" lon="17.885006865156">
        <ele>8.6</ele>
        <time>2016-04-02T14:11:45Z</time>
      </trkpt>
      <trkpt lat="59.324893399485" lon="17.885578259279">
        <ele>8.6</ele>
        <time>2016-04-02T14:11:52Z</time>
      </trkpt>
      <trkpt lat="59.324772113392" lon="17.885831895573">
        <ele>8.6</ele>
        <time>2016-04-02T14:11:55Z</time>
      </trkpt>
      <trkpt lat="59.324705142011" lon="17.886025852739">
        <ele>8.6</ele>
        <time>2016-04-02T14:11:57Z</time>
      </trkpt>
      <trkpt lat="59.324565834833" lon="17.886402786782">
        <ele>8.6</ele>
        <time>2016-04-02T14:12:01Z</time>
      </trkpt>
      <trkpt lat="59.324509257008" lon="17.886626918788">
        <ele>8.6</ele>
        <time>2016-04-02T14:12:03Z</time>
      </trkpt>
      <trkpt lat="59.324414960633" lon="17.887086666003">
        <ele>8.6</ele>
        <time>2016-04-02T14:12:07Z</time>
      </trkpt>
      <trkpt lat="59.324391910408" lon="17.887204850793">
        <ele>8.6</ele>
        <time>2016-04-02T14:12:08Z</time>
      </trkpt>
      <trkpt lat="59.324219746182" lon="17.88810196555">
        <ele>8.6</ele>
        <time>2016-04-02T14:12:15Z</time>
      </trkpt>
      <trkpt lat="59.324067447059" lon="17.888900676801">
        <ele>8.6</ele>
        <time>2016-04-02T14:12:21Z</time>
      </trkpt>
      <trkpt lat="59.324027800672" lon="17.889163197909">
        <ele>7.8</ele>
        <time>2016-04-02T14:12:23Z</time>
      </trkpt>
      <trkpt lat="59.324006510646" lon="17.889292530626">
        <ele>7.4</ele>
        <time>2016-04-02T14:12:24Z</time>
      </trkpt>
      <trkpt lat="59.323984969163" lon="17.889442734274">
        <ele>7</ele>
        <time>2016-04-02T14:12:25Z</time>
      </trkpt>
      <trkpt lat="59.323977509272" lon="17.889596709777">
        <ele>6.6</ele>
        <time>2016-04-02T14:12:26Z</time>
      </trkpt>
      <trkpt lat="59.323865610907" lon="17.890133654291">
        <ele>6</ele>
        <time>2016-04-02T14:12:30Z</time>
      </trkpt>
      <trkpt lat="59.323831915669" lon="17.890259634248">
        <ele>5.6</ele>
        <time>2016-04-02T14:12:31Z</time>
      </trkpt>
      <trkpt lat="59.323793191291" lon="17.890387625861">
        <ele>5</ele>
        <time>2016-04-02T14:12:32Z</time>
      </trkpt>
      <trkpt lat="59.323760501881" lon="17.890539254432">
        <ele>4.6</ele>
        <time>2016-04-02T14:12:33Z</time>
      </trkpt>
      <trkpt lat="59.323730578498" lon="17.890689541899">
        <ele>4</ele>
        <time>2016-04-02T14:12:34Z</time>
      </trkpt>
      <trkpt lat="59.323705013703" lon="17.890849133275">
        <ele>4</ele>
        <time>2016-04-02T14:12:35Z</time>
      </trkpt>
      <trkpt lat="59.32365329738" lon="17.89167014038">
        <ele>4</ele>
        <time>2016-04-02T14:12:40Z</time>
      </trkpt>
      <trkpt lat="59.323663188022" lon="17.891844567719">
        <ele>4</ele>
        <time>2016-04-02T14:12:41Z</time>
      </trkpt>
      <trkpt lat="59.323702080038" lon="17.892344631873">
        <ele>4</ele>
        <time>2016-04-02T14:12:44Z</time>
      </trkpt>
      <trkpt lat="59.32372119077" lon="17.892509420027">
        <ele>4</ele>
        <time>2016-04-02T14:12:45Z</time>
      </trkpt>
      <trkpt lat="59.323820851561" lon="17.893483564445">
        <ele>4</ele>
        <time>2016-04-02T14:12:51Z</time>
      </trkpt>
      <trkpt lat="59.323959404368" lon="17.894643703224">
        <ele>4</ele>
        <time>2016-04-02T14:12:58Z</time>
      </trkpt>
      <trkpt lat="59.323978598919" lon="17.894808826654">
        <ele>4</ele>
        <time>2016-04-02T14:12:59Z</time>
      </trkpt>
      <trkpt lat="59.324111619672" lon="17.89591305816">
        <ele>4</ele>
        <time>2016-04-02T14:13:06Z</time>
      </trkpt>
      <trkpt lat="59.324131736232" lon="17.896064686731">
        <ele>4</ele>
        <time>2016-04-02T14:13:07Z</time>
      </trkpt>
      <trkpt lat="59.324240952389" lon="17.896688216272">
        <ele>4</ele>
        <time>2016-04-02T14:13:11Z</time>
      </trkpt>
      <trkpt lat="59.324281436966" lon="17.896836324445">
        <ele>4</ele>
        <time>2016-04-02T14:13:12Z</time>
      </trkpt>
      <trkpt lat="59.324536162907" lon="17.897818431668">
        <ele>4</ele>
        <time>2016-04-02T14:13:19Z</time>
      </trkpt>
      <trkpt lat="59.324716792852" lon="17.898489067487">
        <ele>4.4</ele>
        <time>2016-04-02T14:13:24Z</time>
      </trkpt>
      <trkpt lat="59.324751829194" lon="17.898620663317">
        <ele>4.8</ele>
        <time>2016-04-02T14:13:25Z</time>
      </trkpt>
      <trkpt lat="59.324792062314" lon="17.898753264975">
        <ele>5.4</ele>
        <time>2016-04-02T14:13:26Z</time>
      </trkpt>
      <trkpt lat="59.324826260466" lon="17.898879831665">
        <ele>5.8</ele>
        <time>2016-04-02T14:13:27Z</time>
      </trkpt>
      <trkpt lat="59.324856602944" lon="17.899007404183">
        <ele>6.2</ele>
        <time>2016-04-02T14:13:28Z</time>
      </trkpt>
      <trkpt lat="59.325021474917" lon="17.89962121072">
        <ele>6.2</ele>
        <time>2016-04-02T14:13:33Z</time>
      </trkpt>
      <trkpt lat="59.325196069894" lon="17.900206518797">
        <ele>6.2</ele>
        <time>2016-04-02T14:13:38Z</time>
      </trkpt>
      <trkpt lat="59.325290030993" lon="17.90041162389">
        <ele>6.2</ele>
        <time>2016-04-02T14:13:40Z</time>
      </trkpt>
      <trkpt lat="59.325331521398" lon="17.900538525856">
        <ele>6.2</ele>
        <time>2016-04-02T14:13:41Z</time>
      </trkpt>
      <trkpt lat="59.325415675674" lon="17.90091705246">
        <ele>6.2</ele>
        <time>2016-04-02T14:13:44Z</time>
      </trkpt>
      <trkpt lat="59.325450544378" lon="17.90117186222">
        <ele>6.2</ele>
        <time>2016-04-02T14:13:46Z</time>
      </trkpt>
      <trkpt lat="59.325475354802" lon="17.901295411426">
        <ele>6.2</ele>
        <time>2016-04-02T14:13:47Z</time>
      </trkpt>
      <trkpt lat="59.325542410002" lon="17.901556842887">
        <ele>6.2</ele>
        <time>2016-04-02T14:13:49Z</time>
      </trkpt>
      <trkpt lat="59.3257387141" lon="17.902236950253">
        <ele>6.2</ele>
        <time>2016-04-02T14:13:54Z</time>
      </trkpt>
      <trkpt lat="59.325780288324" lon="17.902380783657">
        <ele>6.2</ele>
        <time>2016-04-02T14:13:55Z</time>
      </trkpt>
      <trkpt lat="59.326039205215" lon="17.903267001944">
        <ele>6.2</ele>
        <time>2016-04-02T14:14:01Z</time>
      </trkpt>
      <trkpt lat="59.326126963708" lon="17.903582161384">
        <ele>6.2</ele>
        <time>2016-04-02T14:14:03Z</time>
      </trkpt>
      <trkpt lat="59.326225953947" lon="17.904055068182">
        <ele>6.2</ele>
        <time>2016-04-02T14:14:06Z</time>
      </trkpt>
      <trkpt lat="59.326461904432" lon="17.904920834633">
        <ele>6.2</ele>
        <time>2016-04-02T14:14:12Z</time>
      </trkpt>
      <trkpt lat="59.326499958258" lon="17.905060393268">
        <ele>6.6</ele>
        <time>2016-04-02T14:14:13Z</time>
      </trkpt>
      <trkpt lat="59.326536251885" lon="17.90520187974">
        <ele>7</ele>
        <time>2016-04-02T14:14:14Z</time>
      </trkpt>
      <trkpt lat="59.326573718978" lon="17.905340516366">
        <ele>7.4</ele>
        <time>2016-04-02T14:14:15Z</time>
      </trkpt>
      <trkpt lat="59.326612862451" lon="17.905483595399">
        <ele>7.8</ele>
        <time>2016-04-02T14:14:16Z</time>
      </trkpt>
      <trkpt lat="59.32664898844" lon="17.905625081871">
        <ele>8.2</ele>
        <time>2016-04-02T14:14:17Z</time>
      </trkpt>
      <trkpt lat="59.326756109122" lon="17.906042835767">
        <ele>8.2</ele>
        <time>2016-04-02T14:14:20Z</time>
      </trkpt>
      <trkpt lat="59.326798689174" lon="17.906168983362">
        <ele>8.8</ele>
        <time>2016-04-02T14:14:21Z</time>
      </trkpt>
      <trkpt lat="59.326836156267" lon="17.906298735174">
        <ele>9.2</ele>
        <time>2016-04-02T14:14:22Z</time>
      </trkpt>
      <trkpt lat="59.326868845677" lon="17.906424631312">
        <ele>10</ele>
        <time>2016-04-02T14:14:23Z</time>
      </trkpt>
      <trkpt lat="59.326901535087" lon="17.906549521622">
        <ele>10.4</ele>
        <time>2016-04-02T14:14:24Z</time>
      </trkpt>
      <trkpt lat="59.326936236153" lon="17.906674411932">
        <ele>10.4</ele>
        <time>2016-04-02T14:14:25Z</time>
      </trkpt>
      <trkpt lat="59.327035058754" lon="17.907041874428">
        <ele>10.8</ele>
        <time>2016-04-02T14:14:28Z</time>
      </trkpt>
      <trkpt lat="59.327066323241" lon="17.907165004539">
        <ele>11.4</ele>
        <time>2016-04-02T14:14:29Z</time>
      </trkpt>
      <trkpt lat="59.327100353755" lon="17.907282602596">
        <ele>11.8</ele>
        <time>2016-04-02T14:14:30Z</time>
      </trkpt>
      <trkpt lat="59.327132791708" lon="17.907401038843">
        <ele>12.4</ele>
        <time>2016-04-02T14:14:31Z</time>
      </trkpt>
      <trkpt lat="59.327164140014" lon="17.907516792882">
        <ele>12.8</ele>
        <time>2016-04-02T14:14:32Z</time>
      </trkpt>
      <trkpt lat="59.327193644302" lon="17.907624919392">
        <ele>12.8</ele>
        <time>2016-04-02T14:14:33Z</time>
      </trkpt>
      <trkpt lat="59.327308979246" lon="17.90806178402">
        <ele>13.2</ele>
        <time>2016-04-02T14:14:37Z</time>
      </trkpt>
      <trkpt lat="59.327337310068" lon="17.908164462295">
        <ele>13.8</ele>
        <time>2016-04-02T14:14:38Z</time>
      </trkpt>
      <trkpt lat="59.327365305614" lon="17.908263117258">
        <ele>14.2</ele>
        <time>2016-04-02T14:14:39Z</time>
      </trkpt>
      <trkpt lat="59.327393049703" lon="17.908368813017">
        <ele>14.6</ele>
        <time>2016-04-02T14:14:40Z</time>
      </trkpt>
      <trkpt lat="59.327419117412" lon="17.908465121048">
        <ele>15.2</ele>
        <time>2016-04-02T14:14:41Z</time>
      </trkpt>
      <trkpt lat="59.327574266381" lon="17.909058978663">
        <ele>15.6</ele>
        <time>2016-04-02T14:14:47Z</time>
      </trkpt>
      <trkpt lat="59.327600501728" lon="17.909160986386">
        <ele>16.4</ele>
        <time>2016-04-02T14:14:48Z</time>
      </trkpt>
      <trkpt lat="59.327628581093" lon="17.909264754308">
        <ele>16.8</ele>
        <time>2016-04-02T14:14:49Z</time>
      </trkpt>
      <trkpt lat="59.327653810612" lon="17.909364834194">
        <ele>17.2</ele>
        <time>2016-04-02T14:14:50Z</time>
      </trkpt>
      <trkpt lat="59.327811306513" lon="17.90994268238">
        <ele>17.6</ele>
        <time>2016-04-02T14:14:56Z</time>
      </trkpt>
      <trkpt lat="59.32783670367" lon="17.910033542176">
        <ele>18.2</ele>
        <time>2016-04-02T14:14:57Z</time>
      </trkpt>
      <trkpt lat="59.327859921533" lon="17.910129012017">
        <ele>18.6</ele>
        <time>2016-04-02T14:14:58Z</time>
      </trkpt>
      <trkpt lat="59.327881714473" lon="17.910223559849">
        <ele>19</ele>
        <time>2016-04-02T14:14:59Z</time>
      </trkpt>
      <trkpt lat="59.327908201277" lon="17.91031986788">
        <ele>19.6</ele>
        <time>2016-04-02T14:15:00Z</time>
      </trkpt>
      <trkpt lat="59.328038875098" lon="17.910790343927">
        <ele>19.6</ele>
        <time>2016-04-02T14:15:04Z</time>
      </trkpt>
      <trkpt lat="59.328255882489" lon="17.911581846744">
        <ele>20</ele>
        <time>2016-04-02T14:15:11Z</time>
      </trkpt>
      <trkpt lat="59.32828597351" lon="17.911691062901">
        <ele>20.4</ele>
        <time>2016-04-02T14:15:12Z</time>
      </trkpt>
      <trkpt lat="59.328315142522" lon="17.911800781972">
        <ele>21.2</ele>
        <time>2016-04-02T14:15:13Z</time>
      </trkpt>
      <trkpt lat="59.328345401181" lon="17.911908908482">
        <ele>21.6</ele>
        <time>2016-04-02T14:15:14Z</time>
      </trkpt>
      <trkpt lat="59.328520918167" lon="17.912556577895">
        <ele>21.6</ele>
        <time>2016-04-02T14:15:20Z</time>
      </trkpt>
      <trkpt lat="59.328563749676" lon="17.912786996326">
        <ele>21.6</ele>
        <time>2016-04-02T14:15:22Z</time>
      </trkpt>
      <trkpt lat="59.32862544046" lon="17.913004925726">
        <ele>21.6</ele>
        <time>2016-04-02T14:15:24Z</time>
      </trkpt>
      <trkpt lat="59.328755276091" lon="17.91344296382">
        <ele>21.6</ele>
        <time>2016-04-02T14:15:28Z</time>
      </trkpt>
      <trkpt lat="59.328820235816" lon="17.913654942071">
        <ele>21.6</ele>
        <time>2016-04-02T14:15:30Z</time>
      </trkpt>
      <trkpt lat="59.328848231362" lon="17.913764325866">
        <ele>21.6</ele>
        <time>2016-04-02T14:15:31Z</time>
      </trkpt>
      <trkpt lat="59.329088456616" lon="17.914648197221">
        <ele>21.6</ele>
        <time>2016-04-02T14:15:39Z</time>
      </trkpt>
      <trkpt lat="59.329257519539" lon="17.915248508899">
        <ele>21.6</ele>
        <time>2016-04-02T14:15:44Z</time>
      </trkpt>
      <trkpt lat="59.329489530531" lon="17.915911768646">
        <ele>21.6</ele>
        <time>2016-04-02T14:15:50Z</time>
      </trkpt>
      <trkpt lat="59.329669238467" lon="17.916259617496">
        <ele>21.6</ele>
        <time>2016-04-02T14:15:54Z</time>
      </trkpt>
      <trkpt lat="59.3297117347" lon="17.916369839481">
        <ele>21.6</ele>
        <time>2016-04-02T14:15:55Z</time>
      </trkpt>
      <trkpt lat="59.329879037424" lon="17.916813996362">
        <ele>21.6</ele>
        <time>2016-04-02T14:15:59Z</time>
      </trkpt>
      <trkpt lat="59.330165949861" lon="17.917531067907">
        <ele>22</ele>
        <time>2016-04-02T14:16:06Z</time>
      </trkpt>
      <trkpt lat="59.330211128302" lon="17.917630812517">
        <ele>22.4</ele>
        <time>2016-04-02T14:16:07Z</time>
      </trkpt>
      <trkpt lat="59.33025739639" lon="17.91772611472">
        <ele>22.8</ele>
        <time>2016-04-02T14:16:08Z</time>
      </trkpt>
      <trkpt lat="59.330302826288" lon="17.917822087475">
        <ele>23.2</ele>
        <time>2016-04-02T14:16:09Z</time>
      </trkpt>
      <trkpt lat="59.330359068837" lon="17.917901631706">
        <ele>23.6</ele>
        <time>2016-04-02T14:16:10Z</time>
      </trkpt>
      <trkpt lat="59.33047029665" lon="17.91809240375">
        <ele>23.6</ele>
        <time>2016-04-02T14:16:12Z</time>
      </trkpt>
      <trkpt lat="59.330589654906" lon="17.918266076718">
        <ele>23.2</ele>
        <time>2016-04-02T14:16:14Z</time>
      </trkpt>
      <trkpt lat="59.330653105889" lon="17.918357858523">
        <ele>22.8</ele>
        <time>2016-04-02T14:16:15Z</time>
      </trkpt>
      <trkpt lat="59.330716892148" lon="17.918440504057">
        <ele>22.4</ele>
        <time>2016-04-02T14:16:16Z</time>
      </trkpt>
      <trkpt lat="59.330777996199" lon="17.91849976409">
        <ele>21.8</ele>
        <time>2016-04-02T14:16:17Z</time>
      </trkpt>
      <trkpt lat="59.33083407111" lon="17.918557850657">
        <ele>21.4</ele>
        <time>2016-04-02T14:16:18Z</time>
      </trkpt>
      <trkpt lat="59.330882769949" lon="17.918601520356">
        <ele>21</ele>
        <time>2016-04-02T14:16:19Z</time>
      </trkpt>
      <trkpt lat="59.330916046092" lon="17.918633706852">
        <ele>20.6</ele>
        <time>2016-04-02T14:16:20Z</time>
      </trkpt>
      <trkpt lat="59.330940437421" lon="17.918659355466">
        <ele>20.2</ele>
        <time>2016-04-02T14:16:21Z</time>
      </trkpt>
      <trkpt lat="59.330959883429" lon="17.918677041275">
        <ele>19.8</ele>
        <time>2016-04-02T14:16:22Z</time>
      </trkpt>
      <trkpt lat="59.331167586911" lon="17.918292312065">
        <ele>19.4</ele>
        <time>2016-04-02T14:16:34Z</time>
      </trkpt>
      <trkpt lat="59.331188457842" lon="17.918232632937">
        <ele>19.4</ele>
        <time>2016-04-02T14:16:35Z</time>
      </trkpt>
      <trkpt lat="59.331204299633" lon="17.918169852506">
        <ele>19.8</ele>
        <time>2016-04-02T14:16:36Z</time>
      </trkpt>
      <trkpt lat="59.331220309062" lon="17.918099193089">
        <ele>20.4</ele>
        <time>2016-04-02T14:16:37Z</time>
      </trkpt>
      <trkpt lat="59.33123472593" lon="17.918031718794">
        <ele>20.8</ele>
        <time>2016-04-02T14:16:38Z</time>
      </trkpt>
      <trkpt lat="59.331252160282" lon="17.917959466816">
        <ele>21.2</ele>
        <time>2016-04-02T14:16:39Z</time>
      </trkpt>
      <trkpt lat="59.331271941566" lon="17.917882520974">
        <ele>21.8</ele>
        <time>2016-04-02T14:16:40Z</time>
      </trkpt>
      <trkpt lat="59.331312342324" lon="17.917716475535">
        <ele>21.8</ele>
        <time>2016-04-02T14:16:42Z</time>
      </trkpt>
      <trkpt lat="59.331354168005" lon="17.917554453408">
        <ele>21.8</ele>
        <time>2016-04-02T14:16:44Z</time>
      </trkpt>
      <trkpt lat="59.33140068755" lon="17.917316323629">
        <ele>21.8</ele>
        <time>2016-04-02T14:16:47Z</time>
      </trkpt>
      <trkpt lat="59.331424827422" lon="17.917239042511">
        <ele>21.8</ele>
        <time>2016-04-02T14:16:48Z</time>
      </trkpt>
      <trkpt lat="59.331443016145" lon="17.917157067529">
        <ele>22.2</ele>
        <time>2016-04-02T14:16:49Z</time>
      </trkpt>
      <trkpt lat="59.331463132705" lon="17.917069476674">
        <ele>22.6</ele>
        <time>2016-04-02T14:16:50Z</time>
      </trkpt>
      <trkpt lat="59.33148450655" lon="17.916988842796">
        <ele>23.4</ele>
        <time>2016-04-02T14:16:51Z</time>
      </trkpt>
      <trkpt lat="59.331504371653" lon="17.916905023796">
        <ele>23.8</ele>
        <time>2016-04-02T14:16:52Z</time>
      </trkpt>
      <trkpt lat="59.331560027469" lon="17.916548709227">
        <ele>24.2</ele>
        <time>2016-04-02T14:16:56Z</time>
      </trkpt>
      <trkpt lat="59.331569834292" lon="17.916459358173">
        <ele>24.6</ele>
        <time>2016-04-02T14:16:57Z</time>
      </trkpt>
      <trkpt lat="59.331587687739" lon="17.916373527517">
        <ele>25</ele>
        <time>2016-04-02T14:16:58Z</time>
      </trkpt>
      <trkpt lat="59.331602272245" lon="17.91628526611">
        <ele>25.4</ele>
        <time>2016-04-02T14:16:59Z</time>
      </trkpt>
      <trkpt lat="59.331625573927" lon="17.916088626736">
        <ele>25.8</ele>
        <time>2016-04-02T14:17:00Z</time>
      </trkpt>
      <trkpt lat="59.331641918632" lon="17.916002963718">
        <ele>25.8</ele>
        <time>2016-04-02T14:17:02Z</time>
      </trkpt>
      <trkpt lat="59.331665304133" lon="17.915813281321">
        <ele>26.2</ele>
        <time>2016-04-02T14:17:04Z</time>
      </trkpt>
      <trkpt lat="59.331675530051" lon="17.915721499516">
        <ele>26.6</ele>
        <time>2016-04-02T14:17:05Z</time>
      </trkpt>
      <trkpt lat="59.331680056277" lon="17.915634998308">
        <ele>27</ele>
        <time>2016-04-02T14:17:06Z</time>
      </trkpt>
      <trkpt lat="59.331684750141" lon="17.915544976702">
        <ele>27.6</ele>
        <time>2016-04-02T14:17:07Z</time>
      </trkpt>
      <trkpt lat="59.331688689634" lon="17.91546048715">
        <ele>28</ele>
        <time>2016-04-02T14:17:08Z</time>
      </trkpt>
      <trkpt lat="59.331706878357" lon="17.915318497764">
        <ele>28.4</ele>
        <time>2016-04-02T14:17:10Z</time>
      </trkpt>
      <trkpt lat="59.331709392927" lon="17.91524591051">
        <ele>28.8</ele>
        <time>2016-04-02T14:17:11Z</time>
      </trkpt>
      <trkpt lat="59.33172674346" lon="17.915171982152">
        <ele>29.2</ele>
        <time>2016-04-02T14:17:12Z</time>
      </trkpt>
      <trkpt lat="59.331735795912" lon="17.915095120129">
        <ele>29.6</ele>
        <time>2016-04-02T14:17:13Z</time>
      </trkpt>
      <trkpt lat="59.331746273287" lon="17.915019096296">
        <ele>30</ele>
        <time>2016-04-02T14:17:14Z</time>
      </trkpt>
      <trkpt lat="59.331762282716" lon="17.914857493264">
        <ele>30</ele>
        <time>2016-04-02T14:17:16Z</time>
      </trkpt>
      <trkpt lat="59.331783153647" lon="17.914578208356">
        <ele>30</ele>
        <time>2016-04-02T14:17:19Z</time>
      </trkpt>
      <trkpt lat="59.331806036234" lon="17.914368660856">
        <ele>30</ele>
        <time>2016-04-02T14:17:21Z</time>
      </trkpt>
      <trkpt lat="59.331842246042" lon="17.914007568604">
        <ele>29.6</ele>
        <time>2016-04-02T14:17:24Z</time>
      </trkpt>
      <trkpt lat="59.331851549951" lon="17.913871865643">
        <ele>29</ele>
        <time>2016-04-02T14:17:25Z</time>
      </trkpt>
      <trkpt lat="59.331871917968" lon="17.913735156854">
        <ele>28.6</ele>
        <time>2016-04-02T14:17:26Z</time>
      </trkpt>
      <trkpt lat="59.331895722564" lon="17.913592916011">
        <ele>28.2</ele>
        <time>2016-04-02T14:17:27Z</time>
      </trkpt>
      <trkpt lat="59.331917431685" lon="17.913441706535">
        <ele>27.8</ele>
        <time>2016-04-02T14:17:28Z</time>
      </trkpt>
      <trkpt lat="59.331945594869" lon="17.913285635557">
        <ele>27.2</ele>
        <time>2016-04-02T14:17:29Z</time>
      </trkpt>
      <trkpt lat="59.331972668406" lon="17.913128558751">
        <ele>26.6</ele>
        <time>2016-04-02T14:17:30Z</time>
      </trkpt>
      <trkpt lat="59.332007704748" lon="17.912969805565">
        <ele>26</ele>
        <time>2016-04-02T14:17:31Z</time>
      </trkpt>
      <trkpt lat="59.332048440782" lon="17.912812225845">
        <ele>25.4</ele>
        <time>2016-04-02T14:17:32Z</time>
      </trkpt>
      <trkpt lat="59.33207962145" lon="17.912643162922">
        <ele>24.8</ele>
        <time>2016-04-02T14:17:33Z</time>
      </trkpt>
      <trkpt lat="59.332112394679" lon="17.912480637881">
        <ele>23.8</ele>
        <time>2016-04-02T14:17:34Z</time>
      </trkpt>
      <trkpt lat="59.332139635854" lon="17.912284669059">
        <ele>23</ele>
        <time>2016-04-02T14:17:35Z</time>
      </trkpt>
      <trkpt lat="59.332180623345" lon="17.912108146245">
        <ele>22.2</ele>
        <time>2016-04-02T14:17:36Z</time>
      </trkpt>
      <trkpt lat="59.33222295194" lon="17.911936568752">
        <ele>21.2</ele>
        <time>2016-04-02T14:17:37Z</time>
      </trkpt>
      <trkpt lat="59.332257988282" lon="17.91175820192">
        <ele>20.4</ele>
        <time>2016-04-02T14:17:38Z</time>
      </trkpt>
      <trkpt lat="59.332341220549" lon="17.911393924546">
        <ele>19.4</ele>
        <time>2016-04-02T14:17:40Z</time>
      </trkpt>
      <trkpt lat="59.33238723718" lon="17.911213881334">
        <ele>18.8</ele>
        <time>2016-04-02T14:17:41Z</time>
      </trkpt>
      <trkpt lat="59.332436941847" lon="17.911025875317">
        <ele>18.2</ele>
        <time>2016-04-02T14:17:42Z</time>
      </trkpt>
      <trkpt lat="59.33249201093" lon="17.910847843761">
        <ele>17.6</ele>
        <time>2016-04-02T14:17:43Z</time>
      </trkpt>
      <trkpt lat="59.332548672574" lon="17.910670818033">
        <ele>17.2</ele>
        <time>2016-04-02T14:17:44Z</time>
      </trkpt>
      <trkpt lat="59.332609860444" lon="17.910492367382">
        <ele>16.6</ele>
        <time>2016-04-02T14:17:45Z</time>
      </trkpt>
      <trkpt lat="59.332675323083" lon="17.910322885364">
        <ele>16</ele>
        <time>2016-04-02T14:17:46Z</time>
      </trkpt>
      <trkpt lat="59.33274011517" lon="17.910149212396">
        <ele>15.4</ele>
        <time>2016-04-02T14:17:47Z</time>
      </trkpt>
      <trkpt lat="59.332805242533" lon="17.909993392875">
        <ele>14.6</ele>
        <time>2016-04-02T14:17:48Z</time>
      </trkpt>
      <trkpt lat="59.332875482855" lon="17.909851654946">
        <ele>14</ele>
        <time>2016-04-02T14:17:49Z</time>
      </trkpt>
      <trkpt lat="59.332945052625" lon="17.909716119623">
        <ele>13.4</ele>
        <time>2016-04-02T14:17:50Z</time>
      </trkpt>
      <trkpt lat="59.333083856889" lon="17.909478660396">
        <ele>13.4</ele>
        <time>2016-04-02T14:17:52Z</time>
      </trkpt>
      <trkpt lat="59.333549052339" lon="17.90880693493">
        <ele>13.4</ele>
        <time>2016-04-02T14:17:58Z</time>
      </trkpt>
      <trkpt lat="59.333881562312" lon="17.90849261368">
        <ele>13.4</ele>
        <time>2016-04-02T14:18:02Z</time>
      </trkpt>
      <trkpt lat="59.333960771267" lon="17.908416086933">
        <ele>12.8</ele>
        <time>2016-04-02T14:18:03Z</time>
      </trkpt>
      <trkpt lat="59.334045177" lon="17.908344170231">
        <ele>12.4</ele>
        <time>2016-04-02T14:18:04Z</time>
      </trkpt>
      <trkpt lat="59.334126732887" lon="17.90824702401">
        <ele>11.4</ele>
        <time>2016-04-02T14:18:05Z</time>
      </trkpt>
      <trkpt lat="59.334204852195" lon="17.908154990748">
        <ele>10.8</ele>
        <time>2016-04-02T14:18:06Z</time>
      </trkpt>
      <trkpt lat="59.334355139662" lon="17.90798047959">
        <ele>10.8</ele>
        <time>2016-04-02T14:18:08Z</time>
      </trkpt>
      <trkpt lat="59.334629563068" lon="17.907732626807">
        <ele>10.8</ele>
        <time>2016-04-02T14:18:12Z</time>
      </trkpt>
      <trkpt lat="59.334705000168" lon="17.907666074521">
        <ele>11.2</ele>
        <time>2016-04-02T14:18:13Z</time>
      </trkpt>
      <trkpt lat="59.334772139187" lon="17.907589380136">
        <ele>11.6</ele>
        <time>2016-04-02T14:18:14Z</time>
      </trkpt>
      <trkpt lat="59.334837434188" lon="17.907515116502">
        <ele>12</ele>
        <time>2016-04-02T14:18:15Z</time>
      </trkpt>
      <trkpt lat="59.334900214619" lon="17.907442613067">
        <ele>12.4</ele>
        <time>2016-04-02T14:18:16Z</time>
      </trkpt>
      <trkpt lat="59.334962240679" lon="17.907367595062">
        <ele>12.8</ele>
        <time>2016-04-02T14:18:17Z</time>
      </trkpt>
      <trkpt lat="59.335027284223" lon="17.907297690016">
        <ele>13.4</ele>
        <time>2016-04-02T14:18:18Z</time>
      </trkpt>
      <trkpt lat="59.335092243948" lon="17.907223845477">
        <ele>13.8</ele>
        <time>2016-04-02T14:18:19Z</time>
      </trkpt>
      <trkpt lat="59.335161059347" lon="17.907143714513">
        <ele>14.2</ele>
        <time>2016-04-02T14:18:20Z</time>
      </trkpt>
      <trkpt lat="59.335232976049" lon="17.907070289069">
        <ele>14.6</ele>
        <time>2016-04-02T14:18:21Z</time>
      </trkpt>
      <trkpt lat="59.335301539991" lon="17.906996276892">
        <ele>15.2</ele>
        <time>2016-04-02T14:18:22Z</time>
      </trkpt>
      <trkpt lat="59.335513937337" lon="17.906725038608">
        <ele>15.2</ele>
        <time>2016-04-02T14:18:25Z</time>
      </trkpt>
      <trkpt lat="59.336034537146" lon="17.90602079137">
        <ele>15.2</ele>
        <time>2016-04-02T14:18:32Z</time>
      </trkpt>
      <trkpt lat="59.336108297866" lon="17.905920962941">
        <ele>15.2</ele>
        <time>2016-04-02T14:18:33Z</time>
      </trkpt>
      <trkpt lat="59.336246766854" lon="17.90571820478">
        <ele>14.6</ele>
        <time>2016-04-02T14:18:35Z</time>
      </trkpt>
      <trkpt lat="59.336317007176" lon="17.905619382179">
        <ele>14.2</ele>
        <time>2016-04-02T14:18:36Z</time>
      </trkpt>
      <trkpt lat="59.336382972729" lon="17.905528857659">
        <ele>13.8</ele>
        <time>2016-04-02T14:18:37Z</time>
      </trkpt>
      <trkpt lat="59.336451117576" lon="17.905438919872">
        <ele>13.4</ele>
        <time>2016-04-02T14:18:38Z</time>
      </trkpt>
      <trkpt lat="59.336520854984" lon="17.905344539678">
        <ele>13</ele>
        <time>2016-04-02T14:18:39Z</time>
      </trkpt>
      <trkpt lat="59.336595621532" lon="17.905258122289">
        <ele>13</ele>
        <time>2016-04-02T14:18:40Z</time>
      </trkpt>
      <trkpt lat="59.33682042409" lon="17.904943801039">
        <ele>12.6</ele>
        <time>2016-04-02T14:18:43Z</time>
      </trkpt>
      <trkpt lat="59.336893765715" lon="17.904836596538">
        <ele>12.2</ele>
        <time>2016-04-02T14:18:44Z</time>
      </trkpt>
      <trkpt lat="59.336973561403" lon="17.904718076472">
        <ele>11.8</ele>
        <time>2016-04-02T14:18:45Z</time>
      </trkpt>
      <trkpt lat="59.337053692367" lon="17.90459503018">
        <ele>11.4</ele>
        <time>2016-04-02T14:18:46Z</time>
      </trkpt>
      <trkpt lat="59.337146060905" lon="17.904501823452">
        <ele>10.8</ele>
        <time>2016-04-02T14:18:47Z</time>
      </trkpt>
      <trkpt lat="59.337237423615" lon="17.904370311441">
        <ele>10.2</ele>
        <time>2016-04-02T14:18:48Z</time>
      </trkpt>
      <trkpt lat="59.337331971447" lon="17.904243158018">
        <ele>9.2</ele>
        <time>2016-04-02T14:18:49Z</time>
      </trkpt>
      <trkpt lat="59.337428866211" lon="17.90410552722">
        <ele>8.2</ele>
        <time>2016-04-02T14:18:50Z</time>
      </trkpt>
      <trkpt lat="59.337514948324" lon="17.903973763752">
        <ele>7.2</ele>
        <time>2016-04-02T14:18:51Z</time>
      </trkpt>
      <trkpt lat="59.337587954673" lon="17.903828756882">
        <ele>6</ele>
        <time>2016-04-02T14:18:52Z</time>
      </trkpt>
      <trkpt lat="59.337655428968" lon="17.903679894338">
        <ele>5</ele>
        <time>2016-04-02T14:18:53Z</time>
      </trkpt>
      <trkpt lat="59.337715359553" lon="17.903526673206">
        <ele>2.8</ele>
        <time>2016-04-02T14:18:54Z</time>
      </trkpt>
      <trkpt lat="59.337884673933" lon="17.902928289365">
        <ele>2.8</ele>
        <time>2016-04-02T14:18:58Z</time>
      </trkpt>
      <trkpt lat="59.337899677534" lon="17.902780265011">
        <ele>3.4</ele>
        <time>2016-04-02T14:18:59Z</time>
      </trkpt>
      <trkpt lat="59.337907807977" lon="17.902628301164">
        <ele>3.8</ele>
        <time>2016-04-02T14:19:00Z</time>
      </trkpt>
      <trkpt lat="59.33791593842" lon="17.902480947362">
        <ele>4.4</ele>
        <time>2016-04-02T14:19:01Z</time>
      </trkpt>
      <trkpt lat="59.337910238728" lon="17.90218942488">
        <ele>5.2</ele>
        <time>2016-04-02T14:19:02Z</time>
      </trkpt>
      <trkpt lat="59.337890708901" lon="17.901919108605">
        <ele>5.2</ele>
        <time>2016-04-02T14:19:05Z</time>
      </trkpt>
      <trkpt lat="59.337871849626" lon="17.901785752576">
        <ele>5.6</ele>
        <time>2016-04-02T14:19:06Z</time>
      </trkpt>
      <trkpt lat="59.337850391962" lon="17.901649546701">
        <ele>6.2</ele>
        <time>2016-04-02T14:19:07Z</time>
      </trkpt>
      <trkpt lat="59.337840752777" lon="17.901509149876">
        <ele>6.6</ele>
        <time>2016-04-02T14:19:08Z</time>
      </trkpt>
      <trkpt lat="59.337829018117" lon="17.901369172146">
        <ele>7</ele>
        <time>2016-04-02T14:19:09Z</time>
      </trkpt>
      <trkpt lat="59.337815104163" lon="17.901226260751">
        <ele>7.4</ele>
        <time>2016-04-02T14:19:10Z</time>
      </trkpt>
      <trkpt lat="59.337715443372" lon="17.900380024127">
        <ele>7.4</ele>
        <time>2016-04-02T14:19:16Z</time>
      </trkpt>
      <trkpt lat="59.337628020155" lon="17.899557424461">
        <ele>7.4</ele>
        <time>2016-04-02T14:19:22Z</time>
      </trkpt>
      <trkpt lat="59.337586110655" lon="17.899134138511">
        <ele>7.4</ele>
        <time>2016-04-02T14:19:25Z</time>
      </trkpt>
      <trkpt lat="59.337555181444" lon="17.898856446164">
        <ele>7.4</ele>
        <time>2016-04-02T14:19:27Z</time>
      </trkpt>
      <trkpt lat="59.337456694119" lon="17.898141721551">
        <ele>7.4</ele>
        <time>2016-04-02T14:19:33Z</time>
      </trkpt>
      <trkpt lat="59.337393326955" lon="17.897735115582">
        <ele>7.4</ele>
        <time>2016-04-02T14:19:37Z</time>
      </trkpt>
      <trkpt lat="59.337341359175" lon="17.897447867869">
        <ele>7.4</ele>
        <time>2016-04-02T14:19:40Z</time>
      </trkpt>
      <trkpt lat="59.337272711414" lon="17.896916958323">
        <ele>7.4</ele>
        <time>2016-04-02T14:19:45Z</time>
      </trkpt>
      <trkpt lat="59.337208003146" lon="17.896165688626">
        <ele>7.4</ele>
        <time>2016-04-02T14:19:51Z</time>
      </trkpt>
      <trkpt lat="59.337157627927" lon="17.895248289671">
        <ele>7.4</ele>
        <time>2016-04-02T14:19:58Z</time>
      </trkpt>
      <trkpt lat="59.337147485828" lon="17.894836906019">
        <ele>7</ele>
        <time>2016-04-02T14:20:01Z</time>
      </trkpt>
      <trkpt lat="59.337144887439" lon="17.894692318244">
        <ele>6.6</ele>
        <time>2016-04-02T14:20:02Z</time>
      </trkpt>
      <trkpt lat="59.33714480362" lon="17.894544796804">
        <ele>6.2</ele>
        <time>2016-04-02T14:20:03Z</time>
      </trkpt>
      <trkpt lat="59.337141367041" lon="17.894389647835">
        <ele>5.8</ele>
        <time>2016-04-02T14:20:04Z</time>
      </trkpt>
      <trkpt lat="59.337143462516" lon="17.894239444187">
        <ele>5.4</ele>
        <time>2016-04-02T14:20:05Z</time>
      </trkpt>
      <trkpt lat="59.337145725629" lon="17.894090330186">
        <ele>5.4</ele>
        <time>2016-04-02T14:20:06Z</time>
      </trkpt>
      <trkpt lat="59.337195765572" lon="17.893334534263">
        <ele>5.4</ele>
        <time>2016-04-02T14:20:12Z</time>
      </trkpt>
      <trkpt lat="59.337237758891" lon="17.893085172738">
        <ele>5.4</ele>
        <time>2016-04-02T14:20:14Z</time>
      </trkpt>
      <trkpt lat="59.337304981729" lon="17.892858107067">
        <ele>5.4</ele>
        <time>2016-04-02T14:20:16Z</time>
      </trkpt>
      <trkpt lat="59.337547721553" lon="17.892056462151">
        <ele>5.4</ele>
        <time>2016-04-02T14:20:23Z</time>
      </trkpt>
      <trkpt lat="59.337735895208" lon="17.891309802499">
        <ele>5.4</ele>
        <time>2016-04-02T14:20:29Z</time>
      </trkpt>
      <trkpt lat="59.337771853559" lon="17.891052813445">
        <ele>4.8</ele>
        <time>2016-04-02T14:20:31Z</time>
      </trkpt>
      <trkpt lat="59.337790712834" lon="17.890928509868">
        <ele>4.4</ele>
        <time>2016-04-02T14:20:32Z</time>
      </trkpt>
      <trkpt lat="59.337798508001" lon="17.890803703377">
        <ele>4</ele>
        <time>2016-04-02T14:20:33Z</time>
      </trkpt>
      <trkpt lat="59.337815690896" lon="17.890680154171">
        <ele>3.2</ele>
        <time>2016-04-02T14:20:34Z</time>
      </trkpt>
      <trkpt lat="59.337934127143" lon="17.889933159243">
        <ele>3.2</ele>
        <time>2016-04-02T14:20:40Z</time>
      </trkpt>
      <trkpt lat="59.338069411009" lon="17.889508616008">
        <ele>3.2</ele>
        <time>2016-04-02T14:20:44Z</time>
      </trkpt>
      <trkpt lat="59.33829815306" lon="17.889000086135">
        <ele>3.2</ele>
        <time>2016-04-02T14:20:50Z</time>
      </trkpt>
      <trkpt lat="59.338386833562" lon="17.888855749817">
        <ele>3.2</ele>
        <time>2016-04-02T14:20:52Z</time>
      </trkpt>
      <trkpt lat="59.338416673126" lon="17.888794645766">
        <ele>3.6</ele>
        <time>2016-04-02T14:20:53Z</time>
      </trkpt>
      <trkpt lat="59.338459504635" lon="17.888748964411">
        <ele>4.2</ele>
        <time>2016-04-02T14:20:54Z</time>
      </trkpt>
      <trkpt lat="59.33849261314" lon="17.888699092106">
        <ele>4.6</ele>
        <time>2016-04-02T14:20:55Z</time>
      </trkpt>
      <trkpt lat="59.33852614074" lon="17.888657266425">
        <ele>5.2</ele>
        <time>2016-04-02T14:20:56Z</time>
      </trkpt>
      <trkpt lat="59.338560925625" lon="17.888624241739">
        <ele>5.6</ele>
        <time>2016-04-02T14:20:57Z</time>
      </trkpt>
      <trkpt lat="59.33858984318" lon="17.888573615063">
        <ele>6</ele>
        <time>2016-04-02T14:20:58Z</time>
      </trkpt>
      <trkpt lat="59.338620940029" lon="17.888525083862">
        <ele>7</ele>
        <time>2016-04-02T14:20:59Z</time>
      </trkpt>
      <trkpt lat="59.338656730742" lon="17.888477390851">
        <ele>7.4</ele>
        <time>2016-04-02T14:21:00Z</time>
      </trkpt>
      <trkpt lat="59.338691767084" lon="17.888436235722">
        <ele>7.8</ele>
        <time>2016-04-02T14:21:01Z</time>
      </trkpt>
      <trkpt lat="59.338795451187" lon="17.888315787819">
        <ele>8.2</ele>
        <time>2016-04-02T14:21:04Z</time>
      </trkpt>
      <trkpt lat="59.3388312419" lon="17.888285193884">
        <ele>8.6</ele>
        <time>2016-04-02T14:21:05Z</time>
      </trkpt>
      <trkpt lat="59.33886393131" lon="17.888243703479">
        <ele>9</ele>
        <time>2016-04-02T14:21:06Z</time>
      </trkpt>
      <trkpt lat="59.338895195797" lon="17.888203218902">
        <ele>9.4</ele>
        <time>2016-04-02T14:21:07Z</time>
      </trkpt>
      <trkpt lat="59.33893098651" lon="17.888164745981">
        <ele>9.8</ele>
        <time>2016-04-02T14:21:08Z</time>
      </trkpt>
      <trkpt lat="59.339030395844" lon="17.888058798765">
        <ele>10.2</ele>
        <time>2016-04-02T14:21:11Z</time>
      </trkpt>
      <trkpt lat="59.339063336711" lon="17.888023343328">
        <ele>10.6</ele>
        <time>2016-04-02T14:21:12Z</time>
      </trkpt>
      <trkpt lat="59.339093846827" lon="17.887987049701">
        <ele>11</ele>
        <time>2016-04-02T14:21:13Z</time>
      </trkpt>
      <trkpt lat="59.339124943676" lon="17.887952516273">
        <ele>11.4</ele>
        <time>2016-04-02T14:21:14Z</time>
      </trkpt>
      <trkpt lat="59.339157465448" lon="17.887916138827">
        <ele>11.8</ele>
        <time>2016-04-02T14:21:15Z</time>
      </trkpt>
      <trkpt lat="59.339321415412" lon="17.887727462258">
        <ele>12.2</ele>
        <time>2016-04-02T14:21:20Z</time>
      </trkpt>
      <trkpt lat="59.339357709039" lon="17.887694856667">
        <ele>12.8</ele>
        <time>2016-04-02T14:21:21Z</time>
      </trkpt>
      <trkpt lat="59.339390901363" lon="17.887655713194">
        <ele>13.2</ele>
        <time>2016-04-02T14:21:22Z</time>
      </trkpt>
      <trkpt lat="59.339428703732" lon="17.887623610517">
        <ele>14</ele>
        <time>2016-04-02T14:21:23Z</time>
      </trkpt>
      <trkpt lat="59.339545128323" lon="17.887542557544">
        <ele>14</ele>
        <time>2016-04-02T14:21:26Z</time>
      </trkpt>
      <trkpt lat="59.339704049147" lon="17.887442645296">
        <ele>14</ele>
        <time>2016-04-02T14:21:30Z</time>
      </trkpt>
      <trkpt lat="59.339776217306" lon="17.887389839326">
        <ele>14.4</ele>
        <time>2016-04-02T14:21:32Z</time>
      </trkpt>
      <trkpt lat="59.339813181485" lon="17.887369638947">
        <ele>14.8</ele>
        <time>2016-04-02T14:21:33Z</time>
      </trkpt>
      <trkpt lat="59.339849810388" lon="17.887346337265">
        <ele>15.2</ele>
        <time>2016-04-02T14:21:34Z</time>
      </trkpt>
      <trkpt lat="59.339885265825" lon="17.887324460506">
        <ele>15.6</ele>
        <time>2016-04-02T14:21:35Z</time>
      </trkpt>
      <trkpt lat="59.339920385986" lon="17.887290681449">
        <ele>16</ele>
        <time>2016-04-02T14:21:36Z</time>
      </trkpt>
      <trkpt lat="59.339951650473" lon="17.88727299564">
        <ele>16</ele>
        <time>2016-04-02T14:21:37Z</time>
      </trkpt>
      <trkpt lat="59.34005332292" lon="17.887202420042">
        <ele>16</ele>
        <time>2016-04-02T14:21:40Z</time>
      </trkpt>
      <trkpt lat="59.34008936509" lon="17.887166461691">
        <ele>16</ele>
        <time>2016-04-02T14:21:41Z</time>
      </trkpt>
      <trkpt lat="59.340128340925" lon="17.887132514996">
        <ele>16.4</ele>
        <time>2016-04-02T14:21:42Z</time>
      </trkpt>
      <trkpt lat="59.340169663692" lon="17.887120025965">
        <ele>16.8</ele>
        <time>2016-04-02T14:21:43Z</time>
      </trkpt>
      <trkpt lat="59.340211070278" lon="17.887114829187">
        <ele>17.2</ele>
        <time>2016-04-02T14:21:44Z</time>
      </trkpt>
      <trkpt lat="59.340251387217" lon="17.887106614925">
        <ele>17.8</ele>
        <time>2016-04-02T14:21:45Z</time>
      </trkpt>
      <trkpt lat="59.34029053069" lon="17.88709949031">
        <ele>18.2</ele>
        <time>2016-04-02T14:21:46Z</time>
      </trkpt>
      <trkpt lat="59.340533019057" lon="17.887068309642">
        <ele>18.6</ele>
        <time>2016-04-02T14:21:52Z</time>
      </trkpt>
      <trkpt lat="59.340575012376" lon="17.887085408718">
        <ele>19</ele>
        <time>2016-04-02T14:21:53Z</time>
      </trkpt>
      <trkpt lat="59.340618011523" lon="17.887102340156">
        <ele>19.4</ele>
        <time>2016-04-02T14:21:54Z</time>
      </trkpt>
      <trkpt lat="59.340661429765" lon="17.887106531106">
        <ele>19.8</ele>
        <time>2016-04-02T14:21:55Z</time>
      </trkpt>
      <trkpt lat="59.340700824695" lon="17.887126563847">
        <ele>20.4</ele>
        <time>2016-04-02T14:21:56Z</time>
      </trkpt>
      <trkpt lat="59.340835689466" lon="17.887188925183">
        <ele>20.4</ele>
        <time>2016-04-02T14:21:59Z</time>
      </trkpt>
      <trkpt lat="59.341141628816" lon="17.887397718312">
        <ele>20.4</ele>
        <time>2016-04-02T14:22:06Z</time>
      </trkpt>
      <trkpt lat="59.341205247437" lon="17.887491511773">
        <ele>20.8</ele>
        <time>2016-04-02T14:22:08Z</time>
      </trkpt>
      <trkpt lat="59.341244223272" lon="17.887534930015">
        <ele>21.2</ele>
        <time>2016-04-02T14:22:09Z</time>
      </trkpt>
      <trkpt lat="59.341279511071" lon="17.887578851171">
        <ele>21.6</ele>
        <time>2016-04-02T14:22:10Z</time>
      </trkpt>
      <trkpt lat="59.341316810526" lon="17.887623945793">
        <ele>22</ele>
        <time>2016-04-02T14:22:11Z</time>
      </trkpt>
      <trkpt lat="59.341361821329" lon="17.887670465338">
        <ele>22.4</ele>
        <time>2016-04-02T14:22:12Z</time>
      </trkpt>
      <trkpt lat="59.341504062172" lon="17.887842881021">
        <ele>22.4</ele>
        <time>2016-04-02T14:22:16Z</time>
      </trkpt>
      <trkpt lat="59.341534907564" lon="17.887882527408">
        <ele>22.4</ele>
        <time>2016-04-02T14:22:17Z</time>
      </trkpt>
      <trkpt lat="59.341818383422" lon="17.888233226104">
        <ele>22.8</ele>
        <time>2016-04-02T14:22:24Z</time>
      </trkpt>
      <trkpt lat="59.341857610714" lon="17.88828133821">
        <ele>23.2</ele>
        <time>2016-04-02T14:22:25Z</time>
      </trkpt>
      <trkpt lat="59.341901280413" lon="17.888337748397">
        <ele>23.6</ele>
        <time>2016-04-02T14:22:26Z</time>
      </trkpt>
      <trkpt lat="59.341955846582" lon="17.888401534656">
        <ele>24</ele>
        <time>2016-04-02T14:22:27Z</time>
      </trkpt>
      <trkpt lat="59.342003371955" lon="17.888463476897">
        <ele>24.4</ele>
        <time>2016-04-02T14:22:28Z</time>
      </trkpt>
      <trkpt lat="59.342091801" lon="17.888584427714">
        <ele>24.4</ele>
        <time>2016-04-02T14:22:30Z</time>
      </trkpt>
      <trkpt lat="59.342446439189" lon="17.889019867419">
        <ele>24.4</ele>
        <time>2016-04-02T14:22:38Z</time>
      </trkpt>
      <trkpt lat="59.342679288371" lon="17.889321196724">
        <ele>24.4</ele>
        <time>2016-04-02T14:22:43Z</time>
      </trkpt>
      <trkpt lat="59.342994447811" lon="17.889689162134">
        <ele>24.4</ele>
        <time>2016-04-02T14:22:49Z</time>
      </trkpt>
      <trkpt lat="59.343054210758" lon="17.889753618945">
        <ele>24.4</ele>
        <time>2016-04-02T14:22:50Z</time>
      </trkpt>
      <trkpt lat="59.343293011089" lon="17.890029634912">
        <ele>24.4</ele>
        <time>2016-04-02T14:22:54Z</time>
      </trkpt>
      <trkpt lat="59.343409351861" lon="17.890158297077">
        <ele>24</ele>
        <time>2016-04-02T14:22:56Z</time>
      </trkpt>
      <trkpt lat="59.343469869179" lon="17.890195009799">
        <ele>23.6</ele>
        <time>2016-04-02T14:22:57Z</time>
      </trkpt>
      <trkpt lat="59.343538768397" lon="17.890253850737">
        <ele>23.2</ele>
        <time>2016-04-02T14:22:58Z</time>
      </trkpt>
      <trkpt lat="59.343595849136" lon="17.890311937304">
        <ele>22.8</ele>
        <time>2016-04-02T14:22:59Z</time>
      </trkpt>
      <trkpt lat="59.343655109169" lon="17.890375807382">
        <ele>22.4</ele>
        <time>2016-04-02T14:23:00Z</time>
      </trkpt>
      <trkpt lat="59.343718560152" lon="17.890442611125">
        <ele>22.4</ele>
        <time>2016-04-02T14:23:01Z</time>
      </trkpt>
      <trkpt lat="59.344173362046" lon="17.890916020837">
        <ele>22.4</ele>
        <time>2016-04-02T14:23:08Z</time>
      </trkpt>
      <trkpt lat="59.344643838093" lon="17.891422119959">
        <ele>22.4</ele>
        <time>2016-04-02T14:23:15Z</time>
      </trkpt>
      <trkpt lat="59.344904179907" lon="17.891693861157">
        <ele>22</ele>
        <time>2016-04-02T14:23:19Z</time>
      </trkpt>
      <trkpt lat="59.344978443541" lon="17.891752869733">
        <ele>21.6</ele>
        <time>2016-04-02T14:23:20Z</time>
      </trkpt>
      <trkpt lat="59.345049689691" lon="17.891815314888">
        <ele>21.2</ele>
        <time>2016-04-02T14:23:21Z</time>
      </trkpt>
      <trkpt lat="59.345119594737" lon="17.891883711192">
        <ele>20.8</ele>
        <time>2016-04-02T14:23:22Z</time>
      </trkpt>
      <trkpt lat="59.345187571946" lon="17.89195428679">
        <ele>20.4</ele>
        <time>2016-04-02T14:23:23Z</time>
      </trkpt>
      <trkpt lat="59.345742369907" lon="17.892525345637">
        <ele>20.4</ele>
        <time>2016-04-02T14:23:31Z</time>
      </trkpt>
      <trkpt lat="59.34595501871" lon="17.892767666366">
        <ele>19.8</ele>
        <time>2016-04-02T14:23:34Z</time>
      </trkpt>
      <trkpt lat="59.34604386685" lon="17.892821645802">
        <ele>19.4</ele>
        <time>2016-04-02T14:23:35Z</time>
      </trkpt>
      <trkpt lat="59.346124416909" lon="17.892869506451">
        <ele>18.8</ele>
        <time>2016-04-02T14:23:36Z</time>
      </trkpt>
      <trkpt lat="59.346203206769" lon="17.892921306593">
        <ele>18.4</ele>
        <time>2016-04-02T14:23:37Z</time>
      </trkpt>
      <trkpt lat="59.346279901154" lon="17.892973693468">
        <ele>18</ele>
        <time>2016-04-02T14:23:38Z</time>
      </trkpt>
      <trkpt lat="59.346352656046" lon="17.893025242153">
        <ele>17.6</ele>
        <time>2016-04-02T14:23:39Z</time>
      </trkpt>
      <trkpt lat="59.346422141997" lon="17.8930766232">
        <ele>17.2</ele>
        <time>2016-04-02T14:23:40Z</time>
      </trkpt>
      <trkpt lat="59.346494729251" lon="17.893133536301">
        <ele>16.6</ele>
        <time>2016-04-02T14:23:41Z</time>
      </trkpt>
      <trkpt lat="59.346561616813" lon="17.893199166578">
        <ele>16.2</ele>
        <time>2016-04-02T14:23:42Z</time>
      </trkpt>
      <trkpt lat="59.346629258746" lon="17.893268652529">
        <ele>15.8</ele>
        <time>2016-04-02T14:23:43Z</time>
      </trkpt>
      <trkpt lat="59.346748114088" lon="17.893412905028">
        <ele>15.8</ele>
        <time>2016-04-02T14:23:45Z</time>
      </trkpt>
      <trkpt lat="59.346796645289" lon="17.893460178944">
        <ele>15.8</ele>
        <time>2016-04-02T14:23:46Z</time>
      </trkpt>
      <trkpt lat="59.346901419039" lon="17.893418939996">
        <ele>15.8</ele>
        <time>2016-04-02T14:23:48Z</time>
      </trkpt>
      <trkpt lat="59.347030500299" lon="17.893166393349">
        <ele>15.8</ele>
        <time>2016-04-02T14:23:51Z</time>
      </trkpt>
      <trkpt lat="59.347073080351" lon="17.89307578501">
        <ele>15.8</ele>
        <time>2016-04-02T14:23:52Z</time>
      </trkpt>
      <trkpt lat="59.34732126841" lon="17.892595837416">
        <ele>15.8</ele>
        <time>2016-04-02T14:23:57Z</time>
      </trkpt>
      <trkpt lat="59.347372565638" lon="17.892490644571">
        <ele>15.4</ele>
        <time>2016-04-02T14:23:58Z</time>
      </trkpt>
      <trkpt lat="59.347419252821" lon="17.892402215526">
        <ele>15</ele>
        <time>2016-04-02T14:23:59Z</time>
      </trkpt>
      <trkpt lat="59.347469376583" lon="17.892309092617">
        <ele>14.6</ele>
        <time>2016-04-02T14:24:00Z</time>
      </trkpt>
      <trkpt lat="59.347519751802" lon="17.892214041871">
        <ele>14.2</ele>
        <time>2016-04-02T14:24:01Z</time>
      </trkpt>
      <trkpt lat="59.347571132849" lon="17.892120332229">
        <ele>13.8</ele>
        <time>2016-04-02T14:24:02Z</time>
      </trkpt>
      <trkpt lat="59.347682360662" lon="17.891930649832">
        <ele>13.8</ele>
        <time>2016-04-02T14:24:04Z</time>
      </trkpt>
      <trkpt lat="59.348105898069" lon="17.891166723466">
        <ele>13.8</ele>
        <time>2016-04-02T14:24:12Z</time>
      </trkpt>
      <trkpt lat="59.348541086317" lon="17.890394834295">
        <ele>13.8</ele>
        <time>2016-04-02T14:24:20Z</time>
      </trkpt>
      <trkpt lat="59.34892053493" lon="17.889711457988">
        <ele>13.8</ele>
        <time>2016-04-02T14:24:27Z</time>
      </trkpt>
      <trkpt lat="59.349352454237" lon="17.888924565216">
        <ele>13.8</ele>
        <time>2016-04-02T14:24:35Z</time>
      </trkpt>
      <trkpt lat="59.349564516307" lon="17.88855710272">
        <ele>13.8</ele>
        <time>2016-04-02T14:24:39Z</time>
      </trkpt>
      <trkpt lat="59.34966568584" lon="17.8883659954">
        <ele>13.8</ele>
        <time>2016-04-02T14:24:41Z</time>
      </trkpt>
      <trkpt lat="59.349871126209" lon="17.887983529303">
        <ele>13.8</ele>
        <time>2016-04-02T14:24:45Z</time>
      </trkpt>
      <trkpt lat="59.349978665986" lon="17.887784459178">
        <ele>13.8</ele>
        <time>2016-04-02T14:24:47Z</time>
      </trkpt>
      <trkpt lat="59.350361299721" lon="17.887083983795">
        <ele>13.8</ele>
        <time>2016-04-02T14:24:54Z</time>
      </trkpt>
      <trkpt lat="59.350521729287" lon="17.886786677802">
        <ele>13.4</ele>
        <time>2016-04-02T14:24:57Z</time>
      </trkpt>
      <trkpt lat="59.350574870533" lon="17.886689866857">
        <ele>13</ele>
        <time>2016-04-02T14:24:58Z</time>
      </trkpt>
      <trkpt lat="59.350627257408" lon="17.886597498319">
        <ele>12.6</ele>
        <time>2016-04-02T14:24:59Z</time>
      </trkpt>
      <trkpt lat="59.350681069206" lon="17.886506135609">
        <ele>12.2</ele>
        <time>2016-04-02T14:25:00Z</time>
      </trkpt>
      <trkpt lat="59.350733623719" lon="17.886415862546">
        <ele>11.8</ele>
        <time>2016-04-02T14:25:01Z</time>
      </trkpt>
      <trkpt lat="59.350785926775" lon="17.886323074913">
        <ele>11.8</ele>
        <time>2016-04-02T14:25:02Z</time>
      </trkpt>
      <trkpt lat="59.35112078368" lon="17.885672220378">
        <ele>11.8</ele>
        <time>2016-04-02T14:25:09Z</time>
      </trkpt>
      <trkpt lat="59.351327313696" lon="17.8850551449">
        <ele>11.8</ele>
        <time>2016-04-02T14:25:15Z</time>
      </trkpt>
      <trkpt lat="59.351376012535" lon="17.884780470037">
        <ele>12.2</ele>
        <time>2016-04-02T14:25:18Z</time>
      </trkpt>
      <trkpt lat="59.351390848498" lon="17.884711906095">
        <ele>12.6</ele>
        <time>2016-04-02T14:25:19Z</time>
      </trkpt>
      <trkpt lat="59.351399733312" lon="17.88464275542">
        <ele>13</ele>
        <time>2016-04-02T14:25:20Z</time>
      </trkpt>
      <trkpt lat="59.351415742741" lon="17.884577460419">
        <ele>13.4</ele>
        <time>2016-04-02T14:25:21Z</time>
      </trkpt>
      <trkpt lat="59.351448683608" lon="17.884524235354">
        <ele>13.8</ele>
        <time>2016-04-02T14:25:22Z</time>
      </trkpt>
      <trkpt lat="59.351617662712" lon="17.884325165229">
        <ele>13.8</ele>
        <time>2016-04-02T14:25:26Z</time>
      </trkpt>
      <trkpt lat="59.351723777566" lon="17.88426137897">
        <ele>13.8</ele>
        <time>2016-04-02T14:25:28Z</time>
      </trkpt>
      <trkpt lat="59.351825952927" lon="17.884179990721">
        <ele>13.8</ele>
        <time>2016-04-02T14:25:30Z</time>
      </trkpt>
      <trkpt lat="59.351928295926" lon="17.884058956085">
        <ele>13.8</ele>
        <time>2016-04-02T14:25:32Z</time>
      </trkpt>
      <trkpt lat="59.352204898626" lon="17.883691745046">
        <ele>13.8</ele>
        <time>2016-04-02T14:25:37Z</time>
      </trkpt>
      <trkpt lat="59.352252088723" lon="17.883608764236">
        <ele>13.8</ele>
        <time>2016-04-02T14:25:38Z</time>
      </trkpt>
      <trkpt lat="59.352473957616" lon="17.883195536566">
        <ele>13.8</ele>
        <time>2016-04-02T14:25:43Z</time>
      </trkpt>
      <trkpt lat="59.352689456265" lon="17.882805862035">
        <ele>14.2</ele>
        <time>2016-04-02T14:25:48Z</time>
      </trkpt>
      <trkpt lat="59.352734047973" lon="17.882722378311">
        <ele>14.6</ele>
        <time>2016-04-02T14:25:49Z</time>
      </trkpt>
      <trkpt lat="59.35277620893" lon="17.882643839908">
        <ele>15</ele>
        <time>2016-04-02T14:25:50Z</time>
      </trkpt>
      <trkpt lat="59.352821555009" lon="17.882570246826">
        <ele>15.6</ele>
        <time>2016-04-02T14:25:51Z</time>
      </trkpt>
      <trkpt lat="59.352868661287" lon="17.8824986654">
        <ele>16</ele>
        <time>2016-04-02T14:25:52Z</time>
      </trkpt>
      <trkpt lat="59.352966813336" lon="17.882362375706">
        <ele>16</ele>
        <time>2016-04-02T14:25:54Z</time>
      </trkpt>
      <trkpt lat="59.353122884314" lon="17.882168334721">
        <ele>16</ele>
        <time>2016-04-02T14:25:57Z</time>
      </trkpt>
      <trkpt lat="59.353259090189" lon="17.881953758081">
        <ele>16</ele>
        <time>2016-04-02T14:26:00Z</time>
      </trkpt>
      <trkpt lat="59.353348944157" lon="17.881805733727">
        <ele>16</ele>
        <time>2016-04-02T14:26:02Z</time>
      </trkpt>
      <trkpt lat="59.353521527478" lon="17.881492334486">
        <ele>16</ele>
        <time>2016-04-02T14:26:06Z</time>
      </trkpt>
      <trkpt lat="59.353833417977" lon="17.880742489712">
        <ele>16</ele>
        <time>2016-04-02T14:26:14Z</time>
      </trkpt>
      <trkpt lat="59.353874824563" lon="17.880649366803">
        <ele>16</ele>
        <time>2016-04-02T14:26:15Z</time>
      </trkpt>
      <trkpt lat="59.354060902743" lon="17.880301350315">
        <ele>16</ele>
        <time>2016-04-02T14:26:19Z</time>
      </trkpt>
      <trkpt lat="59.354411685258" lon="17.879716796609">
        <ele>16</ele>
        <time>2016-04-02T14:26:26Z</time>
      </trkpt>
      <trkpt lat="59.354627435364" lon="17.879441283556">
        <ele>16</ele>
        <time>2016-04-02T14:26:30Z</time>
      </trkpt>
      <trkpt lat="59.3549244899" lon="17.878840217507">
        <ele>16</ele>
        <time>2016-04-02T14:26:37Z</time>
      </trkpt>
      <trkpt lat="59.355112831193" lon="17.878451381166">
        <ele>16</ele>
        <time>2016-04-02T14:26:41Z</time>
      </trkpt>
      <trkpt lat="59.355167397362" lon="17.878380721749">
        <ele>16</ele>
        <time>2016-04-02T14:26:42Z</time>
      </trkpt>
      <trkpt lat="59.355479120223" lon="17.877901947621">
        <ele>16</ele>
        <time>2016-04-02T14:26:48Z</time>
      </trkpt>
      <trkpt lat="59.355780700985" lon="17.877380509622">
        <ele>16</ele>
        <time>2016-04-02T14:26:54Z</time>
      </trkpt>
      <trkpt lat="59.356184373289" lon="17.876669221588">
        <ele>16</ele>
        <time>2016-04-02T14:27:02Z</time>
      </trkpt>
      <trkpt lat="59.356516799443" lon="17.87606639534">
        <ele>16</ele>
        <time>2016-04-02T14:27:09Z</time>
      </trkpt>
      <trkpt lat="59.356803125147" lon="17.875531462482">
        <ele>16</ele>
        <time>2016-04-02T14:27:15Z</time>
      </trkpt>
      <trkpt lat="59.357032621569" lon="17.875069452154">
        <ele>16</ele>
        <time>2016-04-02T14:27:20Z</time>
      </trkpt>
      <trkpt lat="59.357278630334" lon="17.874439384731">
        <ele>16</ele>
        <time>2016-04-02T14:27:26Z</time>
      </trkpt>
      <trkpt lat="59.35757065573" lon="17.8738653084">
        <ele>16</ele>
        <time>2016-04-02T14:27:32Z</time>
      </trkpt>
      <trkpt lat="59.357889922301" lon="17.873337835433">
        <ele>16</ele>
        <time>2016-04-02T14:27:38Z</time>
      </trkpt>
      <trkpt lat="59.358248248526" lon="17.872710869313">
        <ele>16</ele>
        <time>2016-04-02T14:27:45Z</time>
      </trkpt>
      <trkpt lat="59.358293343148" lon="17.872605592649">
        <ele>16</ele>
        <time>2016-04-02T14:27:46Z</time>
      </trkpt>
      <trkpt lat="59.358384202944" lon="17.872249361899">
        <ele>16</ele>
        <time>2016-04-02T14:27:49Z</time>
      </trkpt>
      <trkpt lat="59.358446480461" lon="17.87201207031">
        <ele>16</ele>
        <time>2016-04-02T14:27:51Z</time>
      </trkpt>
      <trkpt lat="59.358540693017" lon="17.871826997958">
        <ele>16</ele>
        <time>2016-04-02T14:27:53Z</time>
      </trkpt>
      <trkpt lat="59.358594588634" lon="17.87172960028">
        <ele>16</ele>
        <time>2016-04-02T14:27:55Z</time>
      </trkpt>
      <trkpt lat="59.358609508416" lon="17.871698922526">
        <ele>16</ele>
        <time>2016-04-02T14:27:56Z</time>
      </trkpt>
      <trkpt lat="59.358638090695" lon="17.871643434348">
        <ele>16</ele>
        <time>2016-04-02T14:27:57Z</time>
      </trkpt>
      <trkpt lat="59.358674887236" lon="17.871596244251">
        <ele>16</ele>
        <time>2016-04-02T14:27:58Z</time>
      </trkpt>
      <trkpt lat="59.358913687567" lon="17.871370687322">
        <ele>16</ele>
        <time>2016-04-02T14:28:03Z</time>
      </trkpt>
      <trkpt lat="59.359062047197" lon="17.871197433449">
        <ele>16</ele>
        <time>2016-04-02T14:28:06Z</time>
      </trkpt>
      <trkpt lat="59.359105130163" lon="17.871134988294">
        <ele>16</ele>
        <time>2016-04-02T14:28:07Z</time>
      </trkpt>
      <trkpt lat="59.359265895005" lon="17.870868611512">
        <ele>16.4</ele>
        <time>2016-04-02T14:28:11Z</time>
      </trkpt>
      <trkpt lat="59.359302607727" lon="17.870797700638">
        <ele>16.8</ele>
        <time>2016-04-02T14:28:12Z</time>
      </trkpt>
      <trkpt lat="59.359341332105" lon="17.870730142524">
        <ele>17.2</ele>
        <time>2016-04-02T14:28:13Z</time>
      </trkpt>
      <trkpt lat="59.359379218293" lon="17.870659986021">
        <ele>17.6</ele>
        <time>2016-04-02T14:28:14Z</time>
      </trkpt>
      <trkpt lat="59.3594171883" lon="17.870589075147">
        <ele>18</ele>
        <time>2016-04-02T14:28:15Z</time>
      </trkpt>
      <trkpt lat="59.359745674961" lon="17.870012568065">
        <ele>18</ele>
        <time>2016-04-02T14:28:23Z</time>
      </trkpt>
      <trkpt lat="59.360000736178" lon="17.869577044541">
        <ele>18.4</ele>
        <time>2016-04-02T14:28:29Z</time>
      </trkpt>
      <trkpt lat="59.360041556031" lon="17.869505127839">
        <ele>18.8</ele>
        <time>2016-04-02T14:28:30Z</time>
      </trkpt>
      <trkpt lat="59.360081453875" lon="17.869431870033">
        <ele>19.4</ele>
        <time>2016-04-02T14:28:31Z</time>
      </trkpt>
      <trkpt lat="59.360122776642" lon="17.869358779865">
        <ele>19.8</ele>
        <time>2016-04-02T14:28:32Z</time>
      </trkpt>
      <trkpt lat="59.360163345038" lon="17.869286192611">
        <ele>20.2</ele>
        <time>2016-04-02T14:28:33Z</time>
      </trkpt>
      <trkpt lat="59.360322265862" lon="17.868992993749">
        <ele>20.2</ele>
        <time>2016-04-02T14:28:37Z</time>
      </trkpt>
      <trkpt lat="59.36057305231" lon="17.868527043928">
        <ele>20.2</ele>
        <time>2016-04-02T14:28:44Z</time>
      </trkpt>
      <trkpt lat="59.360675227671" lon="17.868335517513">
        <ele>20.2</ele>
        <time>2016-04-02T14:28:47Z</time>
      </trkpt>
      <trkpt lat="59.360814618668" lon="17.868053634216">
        <ele>20.2</ele>
        <time>2016-04-02T14:28:51Z</time>
      </trkpt>
      <trkpt lat="59.360999104287" lon="17.867674772336">
        <ele>20.2</ele>
        <time>2016-04-02T14:28:56Z</time>
      </trkpt>
      <trkpt lat="59.361071691541" lon="17.867516522064">
        <ele>20.2</ele>
        <time>2016-04-02T14:28:58Z</time>
      </trkpt>
      <trkpt lat="59.361238072256" lon="17.867240087002">
        <ele>20.2</ele>
        <time>2016-04-02T14:29:02Z</time>
      </trkpt>
      <trkpt lat="59.361286435819" lon="17.867168086481">
        <ele>20.2</ele>
        <time>2016-04-02T14:29:03Z</time>
      </trkpt>
      <trkpt lat="59.361475447664" lon="17.866864074968">
        <ele>20.2</ele>
        <time>2016-04-02T14:29:07Z</time>
      </trkpt>
      <trkpt lat="59.361627243873" lon="17.866467024365">
        <ele>20.2</ele>
        <time>2016-04-02T14:29:11Z</time>
      </trkpt>
      <trkpt lat="59.361694131435" lon="17.866246748033">
        <ele>20.2</ele>
        <time>2016-04-02T14:29:13Z</time>
      </trkpt>
      <trkpt lat="59.361945672254" lon="17.865659595938">
        <ele>20.2</ele>
        <time>2016-04-02T14:29:19Z</time>
      </trkpt>
      <trkpt lat="59.362345907979" lon="17.864741694069">
        <ele>20.2</ele>
        <time>2016-04-02T14:29:28Z</time>
      </trkpt>
      <trkpt lat="59.362526286467" lon="17.864326873838">
        <ele>20.2</ele>
        <time>2016-04-02T14:29:32Z</time>
      </trkpt>
      <trkpt lat="59.362774223069" lon="17.863843657303">
        <ele>19.8</ele>
        <time>2016-04-02T14:29:37Z</time>
      </trkpt>
      <trkpt lat="59.362821832261" lon="17.863750450575">
        <ele>19</ele>
        <time>2016-04-02T14:29:38Z</time>
      </trkpt>
      <trkpt lat="59.362869106177" lon="17.863656238019">
        <ele>18.4</ele>
        <time>2016-04-02T14:29:39Z</time>
      </trkpt>
      <trkpt lat="59.362918224111" lon="17.863558505065">
        <ele>18</ele>
        <time>2016-04-02T14:29:40Z</time>
      </trkpt>
      <trkpt lat="59.363218966683" lon="17.863009406796">
        <ele>18</ele>
        <time>2016-04-02T14:29:46Z</time>
      </trkpt>
      <trkpt lat="59.363385515036" lon="17.862733977562">
        <ele>17.6</ele>
        <time>2016-04-02T14:29:49Z</time>
      </trkpt>
      <trkpt lat="59.363443098689" lon="17.862645967612">
        <ele>17.2</ele>
        <time>2016-04-02T14:29:50Z</time>
      </trkpt>
      <trkpt lat="59.363501436713" lon="17.862560807508">
        <ele>16.8</ele>
        <time>2016-04-02T14:29:51Z</time>
      </trkpt>
      <trkpt lat="59.363559104185" lon="17.862473803386">
        <ele>16.4</ele>
        <time>2016-04-02T14:29:52Z</time>
      </trkpt>
      <trkpt lat="59.36361400563" lon="17.862379171735">
        <ele>16</ele>
        <time>2016-04-02T14:29:53Z</time>
      </trkpt>
      <trkpt lat="59.363838053817" lon="17.8620049199">
        <ele>16</ele>
        <time>2016-04-02T14:29:57Z</time>
      </trkpt>
      <trkpt lat="59.364119098924" lon="17.861614407179">
        <ele>16</ele>
        <time>2016-04-02T14:30:02Z</time>
      </trkpt>
      <trkpt lat="59.364517322993" lon="17.86108458728">
        <ele>16</ele>
        <time>2016-04-02T14:30:09Z</time>
      </trkpt>
      <trkpt lat="59.364932310862" lon="17.860601706021">
        <ele>16</ele>
        <time>2016-04-02T14:30:16Z</time>
      </trkpt>
      <trkpt lat="59.365163148388" lon="17.860354859066">
        <ele>16</ele>
        <time>2016-04-02T14:30:20Z</time>
      </trkpt>
      <trkpt lat="59.36527697459" lon="17.860224771978">
        <ele>16</ele>
        <time>2016-04-02T14:30:22Z</time>
      </trkpt>
      <trkpt lat="59.365444947866" lon="17.859927633623">
        <ele>16</ele>
        <time>2016-04-02T14:30:26Z</time>
      </trkpt>
      <trkpt lat="59.365517702758" lon="17.859778854898">
        <ele>16</ele>
        <time>2016-04-02T14:30:28Z</time>
      </trkpt>
      <trkpt lat="59.365583584492" lon="17.85962948944">
        <ele>16</ele>
        <time>2016-04-02T14:30:30Z</time>
      </trkpt>
      <trkpt lat="59.365655752651" lon="17.859479118154">
        <ele>16</ele>
        <time>2016-04-02T14:30:32Z</time>
      </trkpt>
      <trkpt lat="59.365688442061" lon="17.859411140945">
        <ele>16.4</ele>
        <time>2016-04-02T14:30:33Z</time>
      </trkpt>
      <trkpt lat="59.365719371272" lon="17.859347689962">
        <ele>16.8</ele>
        <time>2016-04-02T14:30:34Z</time>
      </trkpt>
      <trkpt lat="59.365749043198" lon="17.859278874563">
        <ele>17.2</ele>
        <time>2016-04-02T14:30:35Z</time>
      </trkpt>
      <trkpt lat="59.365787935214" lon="17.859219698349">
        <ele>17.6</ele>
        <time>2016-04-02T14:30:36Z</time>
      </trkpt>
      <trkpt lat="59.365829425619" lon="17.859170077501">
        <ele>18</ele>
        <time>2016-04-02T14:30:37Z</time>
      </trkpt>
      <trkpt lat="59.366090437985" lon="17.858877213915">
        <ele>18</ele>
        <time>2016-04-02T14:30:43Z</time>
      </trkpt>
      <trkpt lat="59.366133185675" lon="17.858835220596">
        <ele>18</ele>
        <time>2016-04-02T14:30:44Z</time>
      </trkpt>
      <trkpt lat="59.366310714317" lon="17.858658194868">
        <ele>18</ele>
        <time>2016-04-02T14:30:48Z</time>
      </trkpt>
      <trkpt lat="59.366355222206" lon="17.858611591504">
        <ele>18</ele>
        <time>2016-04-02T14:30:49Z</time>
      </trkpt>
      <trkpt lat="59.366440214672" lon="17.858500028415">
        <ele>18</ele>
        <time>2016-04-02T14:30:51Z</time>
      </trkpt>
      <trkpt lat="59.366507186053" lon="17.858370947155">
        <ele>18</ele>
        <time>2016-04-02T14:30:53Z</time>
      </trkpt>
      <trkpt lat="59.366563931516" lon="17.858243626094">
        <ele>18</ele>
        <time>2016-04-02T14:30:55Z</time>
      </trkpt>
      <trkpt lat="59.366656551511" lon="17.858085878736">
        <ele>18</ele>
        <time>2016-04-02T14:30:58Z</time>
      </trkpt>
      <trkpt lat="59.366686391075" lon="17.858023852676">
        <ele>18</ele>
        <time>2016-04-02T14:30:59Z</time>
      </trkpt>
      <trkpt lat="59.366715224811" lon="17.857958306218">
        <ele>18.6</ele>
        <time>2016-04-02T14:31:00Z</time>
      </trkpt>
      <trkpt lat="59.366743471814" lon="17.857892424484">
        <ele>19</ele>
        <time>2016-04-02T14:31:01Z</time>
      </trkpt>
      <trkpt lat="59.366771718817" lon="17.857821262153">
        <ele>19.4</ele>
        <time>2016-04-02T14:31:02Z</time>
      </trkpt>
      <trkpt lat="59.366800301096" lon="17.857755631876">
        <ele>19.8</ele>
        <time>2016-04-02T14:31:03Z</time>
      </trkpt>
      <trkpt lat="59.366825782072" lon="17.857695114558">
        <ele>20.2</ele>
        <time>2016-04-02T14:31:04Z</time>
      </trkpt>
      <trkpt lat="59.366974560797" lon="17.857309714796">
        <ele>20.2</ele>
        <time>2016-04-02T14:31:11Z</time>
      </trkpt>
      <trkpt lat="59.367005825284" lon="17.857190105083">
        <ele>20.2</ele>
        <time>2016-04-02T14:31:13Z</time>
      </trkpt>
      <trkpt lat="59.366997611022" lon="17.857125145358">
        <ele>20.8</ele>
        <time>2016-04-02T14:31:14Z</time>
      </trkpt>
      <trkpt lat="59.366985289629" lon="17.857060017995">
        <ele>21.2</ele>
        <time>2016-04-02T14:31:15Z</time>
      </trkpt>
      <trkpt lat="59.366977829738" lon="17.856986257275">
        <ele>21.6</ele>
        <time>2016-04-02T14:31:16Z</time>
      </trkpt>
      <trkpt lat="59.36699274952" lon="17.856917441876">
        <ele>22.6</ele>
        <time>2016-04-02T14:31:17Z</time>
      </trkpt>
      <trkpt lat="59.367017979039" lon="17.856862959526">
        <ele>22.6</ele>
        <time>2016-04-02T14:31:18Z</time>
      </trkpt>
      <trkpt lat="59.367208583445" lon="17.856436488454">
        <ele>22.6</ele>
        <time>2016-04-02T14:31:25Z</time>
      </trkpt>
      <trkpt lat="59.367404887543" lon="17.855918487034">
        <ele>22.6</ele>
        <time>2016-04-02T14:31:33Z</time>
      </trkpt>
      <trkpt lat="59.367525754541" lon="17.855557478601">
        <ele>23</ele>
        <time>2016-04-02T14:31:38Z</time>
      </trkpt>
      <trkpt lat="59.367549140042" lon="17.855487489736">
        <ele>23.4</ele>
        <time>2016-04-02T14:31:39Z</time>
      </trkpt>
      <trkpt lat="59.367571603534" lon="17.855412890826">
        <ele>23.8</ele>
        <time>2016-04-02T14:31:40Z</time>
      </trkpt>
      <trkpt lat="59.367589624619" lon="17.855336028803">
        <ele>24.4</ele>
        <time>2016-04-02T14:31:41Z</time>
      </trkpt>
      <trkpt lat="59.367606472238" lon="17.855257238943">
        <ele>24.8</ele>
        <time>2016-04-02T14:31:42Z</time>
      </trkpt>
      <trkpt lat="59.367638910191" lon="17.855097312291">
        <ele>24.8</ele>
        <time>2016-04-02T14:31:44Z</time>
      </trkpt>
      <trkpt lat="59.367696661482" lon="17.854864463109">
        <ele>24.8</ele>
        <time>2016-04-02T14:31:47Z</time>
      </trkpt>
      <trkpt lat="59.36781249934" lon="17.854719875334">
        <ele>24.8</ele>
        <time>2016-04-02T14:31:50Z</time>
      </trkpt>
      <trkpt lat="59.36785859979" lon="17.854708140674">
        <ele>24.8</ele>
        <time>2016-04-02T14:31:51Z</time>
      </trkpt>
      <trkpt lat="59.367950213957" lon="17.854676289454">
        <ele>24.8</ele>
        <time>2016-04-02T14:31:53Z</time>
      </trkpt>
      <trkpt lat="59.368044007418" lon="17.854626920063">
        <ele>24.8</ele>
        <time>2016-04-02T14:31:55Z</time>
      </trkpt>
      <trkpt lat="59.368085581642" lon="17.854577299215">
        <ele>24.8</ele>
        <time>2016-04-02T14:31:56Z</time>
      </trkpt>
      <trkpt lat="59.368200916586" lon="17.854353334847">
        <ele>24.8</ele>
        <time>2016-04-02T14:31:59Z</time>
      </trkpt>
      <trkpt lat="59.368234611824" lon="17.854278652118">
        <ele>24.8</ele>
        <time>2016-04-02T14:32:00Z</time>
      </trkpt>
      <trkpt lat="59.36829529678" lon="17.854116629991">
        <ele>24.8</ele>
        <time>2016-04-02T14:32:02Z</time>
      </trkpt>
      <trkpt lat="59.36837660121" lon="17.853860143851">
        <ele>24.8</ele>
        <time>2016-04-02T14:32:05Z</time>
      </trkpt>
      <trkpt lat="59.3684612584" lon="17.853513468467">
        <ele>24.8</ele>
        <time>2016-04-02T14:32:09Z</time>
      </trkpt>
      <trkpt lat="59.368513142361" lon="17.853363264819">
        <ele>24.8</ele>
        <time>2016-04-02T14:32:11Z</time>
      </trkpt>
      <trkpt lat="59.368542479011" lon="17.853325294812">
        <ele>24.8</ele>
        <time>2016-04-02T14:32:12Z</time>
      </trkpt>
      <trkpt lat="59.368599392112" lon="17.853301322578">
        <ele>24.8</ele>
        <time>2016-04-02T14:32:14Z</time>
      </trkpt>
      <trkpt lat="59.368704417319" lon="17.853135863872">
        <ele>24.8</ele>
        <time>2016-04-02T14:32:17Z</time>
      </trkpt>
      <trkpt lat="59.368773316537" lon="17.852960095429">
        <ele>24.4</ele>
        <time>2016-04-02T14:32:19Z</time>
      </trkpt>
      <trkpt lat="59.368806760318" lon="17.852869822366">
        <ele>23.8</ele>
        <time>2016-04-02T14:32:20Z</time>
      </trkpt>
      <trkpt lat="59.368836935158" lon="17.852775442172">
        <ele>23.4</ele>
        <time>2016-04-02T14:32:21Z</time>
      </trkpt>
      <trkpt lat="59.368869792206" lon="17.852683157453">
        <ele>23</ele>
        <time>2016-04-02T14:32:22Z</time>
      </trkpt>
      <trkpt lat="59.368903319806" lon="17.852593471123">
        <ele>22.4</ele>
        <time>2016-04-02T14:32:23Z</time>
      </trkpt>
      <trkpt lat="59.3691485742" lon="17.851945214977">
        <ele>22.4</ele>
        <time>2016-04-02T14:32:30Z</time>
      </trkpt>
      <trkpt lat="59.369402461951" lon="17.851276255538">
        <ele>22.4</ele>
        <time>2016-04-02T14:32:37Z</time>
      </trkpt>
      <trkpt lat="59.369480329802" lon="17.851083890933">
        <ele>22.4</ele>
        <time>2016-04-02T14:32:39Z</time>
      </trkpt>
      <trkpt lat="59.369599855696" lon="17.850800415075">
        <ele>22.4</ele>
        <time>2016-04-02T14:32:42Z</time>
      </trkpt>
      <trkpt lat="59.369819796752" lon="17.850242431992">
        <ele>22.4</ele>
        <time>2016-04-02T14:32:48Z</time>
      </trkpt>
      <trkpt lat="59.370118527668" lon="17.849503735145">
        <ele>22.4</ele>
        <time>2016-04-02T14:32:56Z</time>
      </trkpt>
      <trkpt lat="59.370385910278" lon="17.848807115436">
        <ele>22.4</ele>
        <time>2016-04-02T14:33:04Z</time>
      </trkpt>
      <trkpt lat="59.370633679242" lon="17.848165397172">
        <ele>22.4</ele>
        <time>2016-04-02T14:33:11Z</time>
      </trkpt>
      <trkpt lat="59.370909276114" lon="17.847489313118">
        <ele>22.4</ele>
        <time>2016-04-02T14:33:19Z</time>
      </trkpt>
      <trkpt lat="59.371181268769" lon="17.846806104449">
        <ele>22.4</ele>
        <time>2016-04-02T14:33:27Z</time>
      </trkpt>
      <trkpt lat="59.371421242566" lon="17.846191375903">
        <ele>22.4</ele>
        <time>2016-04-02T14:33:34Z</time>
      </trkpt>
      <trkpt lat="59.371513527285" lon="17.845923825655">
        <ele>22.4</ele>
        <time>2016-04-02T14:33:37Z</time>
      </trkpt>
      <trkpt lat="59.371574631336" lon="17.845738920941">
        <ele>22.4</ele>
        <time>2016-04-02T14:33:39Z</time>
      </trkpt>
      <trkpt lat="59.371633388455" lon="17.845551585476">
        <ele>22.4</ele>
        <time>2016-04-02T14:33:41Z</time>
      </trkpt>
      <trkpt lat="59.371693905773" lon="17.845390652996">
        <ele>22.4</ele>
        <time>2016-04-02T14:33:43Z</time>
      </trkpt>
      <trkpt lat="59.371863890705" lon="17.844868628264">
        <ele>22.4</ele>
        <time>2016-04-02T14:33:49Z</time>
      </trkpt>
      <trkpt lat="59.372061535907" lon="17.84438113696">
        <ele>22.4</ele>
        <time>2016-04-02T14:33:55Z</time>
      </trkpt>
      <trkpt lat="59.372246021526" lon="17.843957515734">
        <ele>22.4</ele>
        <time>2016-04-02T14:34:00Z</time>
      </trkpt>
      <trkpt lat="59.37235297457" lon="17.843712345159">
        <ele>22.4</ele>
        <time>2016-04-02T14:34:03Z</time>
      </trkpt>
      <trkpt lat="59.372416760829" lon="17.843523165676">
        <ele>22.4</ele>
        <time>2016-04-02T14:34:05Z</time>
      </trkpt>
      <trkpt lat="59.372615663316" lon="17.842950430449">
        <ele>22.4</ele>
        <time>2016-04-02T14:34:11Z</time>
      </trkpt>
      <trkpt lat="59.372713312451" lon="17.842652118628">
        <ele>22.4</ele>
        <time>2016-04-02T14:34:14Z</time>
      </trkpt>
      <trkpt lat="59.372820014038" lon="17.842349448219">
        <ele>22.4</ele>
        <time>2016-04-02T14:34:17Z</time>
      </trkpt>
      <trkpt lat="59.37300341001" lon="17.841777635001">
        <ele>23</ele>
        <time>2016-04-02T14:34:23Z</time>
      </trkpt>
      <trkpt lat="59.373033165755" lon="17.841689373594">
        <ele>23.4</ele>
        <time>2016-04-02T14:34:24Z</time>
      </trkpt>
      <trkpt lat="59.373062167129" lon="17.841609745544">
        <ele>23.8</ele>
        <time>2016-04-02T14:34:25Z</time>
      </trkpt>
      <trkpt lat="59.373091168503" lon="17.84153799648">
        <ele>24.2</ele>
        <time>2016-04-02T14:34:26Z</time>
      </trkpt>
      <trkpt lat="59.373122349171" lon="17.84146339757">
        <ele>24.6</ele>
        <time>2016-04-02T14:34:27Z</time>
      </trkpt>
      <trkpt lat="59.373188733819" lon="17.841315792311">
        <ele>24.6</ele>
        <time>2016-04-02T14:34:29Z</time>
      </trkpt>
      <trkpt lat="59.373234666631" lon="17.841162068265">
        <ele>24.6</ele>
        <time>2016-04-02T14:34:31Z</time>
      </trkpt>
      <trkpt lat="59.37322804493" lon="17.841039776344">
        <ele>24.6</ele>
        <time>2016-04-02T14:34:33Z</time>
      </trkpt>
      <trkpt lat="59.373214885347" lon="17.840996106645">
        <ele>25</ele>
        <time>2016-04-02T14:34:35Z</time>
      </trkpt>
      <trkpt lat="59.373205497619" lon="17.841010439694">
        <ele>25.6</ele>
        <time>2016-04-02T14:34:36Z</time>
      </trkpt>
      <trkpt lat="59.373195774615" lon="17.841036255946">
        <ele>26.2</ele>
        <time>2016-04-02T14:34:37Z</time>
      </trkpt>
      <trkpt lat="59.373183788498" lon="17.84107196284">
        <ele>26.6</ele>
        <time>2016-04-02T14:34:38Z</time>
      </trkpt>
      <trkpt lat="59.37317104801" lon="17.841100377481">
        <ele>27.2</ele>
        <time>2016-04-02T14:34:39Z</time>
      </trkpt>
      <trkpt lat="59.373129222329" lon="17.841157290582">
        <ele>27.2</ele>
        <time>2016-04-02T14:34:41Z</time>
      </trkpt>
      <trkpt lat="59.373033501031" lon="17.84125804102">
        <ele>27.6</ele>
        <time>2016-04-02T14:34:45Z</time>
      </trkpt>
      <trkpt lat="59.373011288996" lon="17.841297100674">
        <ele>28</ele>
        <time>2016-04-02T14:34:46Z</time>
      </trkpt>
      <trkpt lat="59.372988741685" lon="17.841331215007">
        <ele>28.4</ele>
        <time>2016-04-02T14:34:47Z</time>
      </trkpt>
      <trkpt lat="59.372961835786" lon="17.841372705412">
        <ele>29</ele>
        <time>2016-04-02T14:34:48Z</time>
      </trkpt>
      <trkpt lat="59.372941719226" lon="17.841408496125">
        <ele>29.4</ele>
        <time>2016-04-02T14:34:49Z</time>
      </trkpt>
      <trkpt lat="59.372905006504" lon="17.841467923796">
        <ele>29.4</ele>
        <time>2016-04-02T14:34:51Z</time>
      </trkpt>
      <trkpt lat="59.372959907949" lon="17.841753746586">
        <ele>29.4</ele>
        <time>2016-04-02T14:35:21Z</time>
      </trkpt>
      <trkpt lat="59.372989076961" lon="17.841796745733">
        <ele>29.4</ele>
        <time>2016-04-02T14:35:22Z</time>
      </trkpt>
      <trkpt lat="59.37321631027" lon="17.84211970034">
        <ele>29.4</ele>
        <time>2016-04-02T14:35:29Z</time>
      </trkpt>
      <trkpt lat="59.373467599632" lon="17.84247006376">
        <ele>29.4</ele>
        <time>2016-04-02T14:35:36Z</time>
      </trkpt>
      <trkpt lat="59.373503390345" lon="17.842514571649">
        <ele>29.4</ele>
        <time>2016-04-02T14:35:37Z</time>
      </trkpt>
      <trkpt lat="59.373601961489" lon="17.842585314885">
        <ele>29.4</ele>
        <time>2016-04-02T14:35:40Z</time>
      </trkpt>
      <trkpt lat="59.373712099655" lon="17.842466962457">
        <ele>29.4</ele>
        <time>2016-04-02T14:35:43Z</time>
      </trkpt>
      <trkpt lat="59.373754009155" lon="17.842427483708">
        <ele>29.4</ele>
        <time>2016-04-02T14:35:44Z</time>
      </trkpt>
      <trkpt lat="59.373798265587" lon="17.842397727963">
        <ele>29.4</ele>
        <time>2016-04-02T14:35:45Z</time>
      </trkpt>
      <trkpt lat="59.373925754286" lon="17.842344167622">
        <ele>29.4</ele>
        <time>2016-04-02T14:35:48Z</time>
      </trkpt>
      <trkpt lat="59.374016362625" lon="17.842319273379">
        <ele>29.4</ele>
        <time>2016-04-02T14:35:50Z</time>
      </trkpt>
      <trkpt lat="59.374109234077" lon="17.842286751607">
        <ele>29.4</ele>
        <time>2016-04-02T14:35:52Z</time>
      </trkpt>
      <trkpt lat="59.374139911831" lon="17.842231011972">
        <ele>28.8</ele>
        <time>2016-04-02T14:35:53Z</time>
      </trkpt>
      <trkpt lat="59.37415089212" lon="17.842140822728">
        <ele>28.4</ele>
        <time>2016-04-02T14:35:54Z</time>
      </trkpt>
      <trkpt lat="59.374147204084" lon="17.842041413394">
        <ele>28</ele>
        <time>2016-04-02T14:35:55Z</time>
      </trkpt>
      <trkpt lat="59.374136894347" lon="17.841940579137">
        <ele>27.2</ele>
        <time>2016-04-02T14:35:56Z</time>
      </trkpt>
      <trkpt lat="59.37410982081" lon="17.841866902236">
        <ele>26.4</ele>
        <time>2016-04-02T14:35:57Z</time>
      </trkpt>
      <trkpt lat="59.374078137228" lon="17.841813677171">
        <ele>25.8</ele>
        <time>2016-04-02T14:35:58Z</time>
      </trkpt>
      <trkpt lat="59.374038993755" lon="17.841750310007">
        <ele>25</ele>
        <time>2016-04-02T14:35:59Z</time>
      </trkpt>
      <trkpt lat="59.374001191386" lon="17.841675124364">
        <ele>24.2</ele>
        <time>2016-04-02T14:36:00Z</time>
      </trkpt>
      <trkpt lat="59.373939919697" lon="17.841515532988">
        <ele>24.2</ele>
        <time>2016-04-02T14:36:02Z</time>
      </trkpt>
      <trkpt lat="59.373912343246" lon="17.841434144739">
        <ele>23.8</ele>
        <time>2016-04-02T14:36:03Z</time>
      </trkpt>
      <trkpt lat="59.373890969401" lon="17.841343787857">
        <ele>23.4</ele>
        <time>2016-04-02T14:36:04Z</time>
      </trkpt>
      <trkpt lat="59.37387680399" lon="17.841248150378">
        <ele>23</ele>
        <time>2016-04-02T14:36:05Z</time>
      </trkpt>
      <trkpt lat="59.373875714343" lon="17.841147651397">
        <ele>22.6</ele>
        <time>2016-04-02T14:36:06Z</time>
      </trkpt>
      <trkpt lat="59.37388350951" lon="17.841049834624">
        <ele>22.2</ele>
        <time>2016-04-02T14:36:07Z</time>
      </trkpt>
      <trkpt lat="59.373956851135" lon="17.840776752322">
        <ele>22.2</ele>
        <time>2016-04-02T14:36:10Z</time>
      </trkpt>
      <trkpt lat="59.374027091457" lon="17.840614478738">
        <ele>22.2</ele>
        <time>2016-04-02T14:36:12Z</time>
      </trkpt>
      <trkpt lat="59.374158184373" lon="17.840291440312">
        <ele>22.2</ele>
        <time>2016-04-02T14:36:16Z</time>
      </trkpt>
      <trkpt lat="59.374389943908" lon="17.839683249648">
        <ele>22.2</ele>
        <time>2016-04-02T14:36:23Z</time>
      </trkpt>
      <trkpt lat="59.374459932773" lon="17.83950287116">
        <ele>22.2</ele>
        <time>2016-04-02T14:36:25Z</time>
      </trkpt>
      <trkpt lat="59.374550205836" lon="17.839251078884">
        <ele>22.2</ele>
        <time>2016-04-02T14:36:28Z</time>
      </trkpt>
      <trkpt lat="59.374581889418" lon="17.839172289024">
        <ele>22.2</ele>
        <time>2016-04-02T14:36:29Z</time>
      </trkpt>
      <trkpt lat="59.374697475819" lon="17.838879844533">
        <ele>22.2</ele>
        <time>2016-04-02T14:36:33Z</time>
      </trkpt>
      <trkpt lat="59.374719352578" lon="17.838804239795">
        <ele>22.2</ele>
        <time>2016-04-02T14:36:34Z</time>
      </trkpt>
      <trkpt lat="59.374858743575" lon="17.837701181755">
        <ele>22.2</ele>
        <time>2016-04-02T14:36:51Z</time>
      </trkpt>
      <trkpt lat="59.374909034975" lon="17.837543685854">
        <ele>22.2</ele>
        <time>2016-04-02T14:36:53Z</time>
      </trkpt>
      <trkpt lat="59.37496980375" lon="17.837382753374">
        <ele>22.2</ele>
        <time>2016-04-02T14:36:55Z</time>
      </trkpt>
      <trkpt lat="59.375186811141" lon="17.836738436721">
        <ele>22.2</ele>
        <time>2016-04-02T14:37:02Z</time>
      </trkpt>
      <trkpt lat="59.375367608724" lon="17.836216998722">
        <ele>22.2</ele>
        <time>2016-04-02T14:37:08Z</time>
      </trkpt>
      <trkpt lat="59.375557877854" lon="17.835618531062">
        <ele>22.2</ele>
        <time>2016-04-02T14:37:16Z</time>
      </trkpt>
      <trkpt lat="59.37561856281" lon="17.835409737933">
        <ele>22.2</ele>
        <time>2016-04-02T14:37:19Z</time>
      </trkpt>
      <trkpt lat="59.375630046013" lon="17.834576996168">
        <ele>24.6</ele>
        <time>2016-04-02T14:38:50Z</time>
      </trkpt>
      <trkpt lat="59.37560012263" lon="17.834382871364">
        <ele>24.6</ele>
        <time>2016-04-02T14:38:53Z</time>
      </trkpt>
      <trkpt lat="59.375632644402" lon="17.834242474539">
        <ele>24.6</ele>
        <time>2016-04-02T14:38:55Z</time>
      </trkpt>
      <trkpt lat="59.375709674063" lon="17.833963608726">
        <ele>24.6</ele>
        <time>2016-04-02T14:38:59Z</time>
      </trkpt>
      <trkpt lat="59.3757786571" lon="17.833693711546">
        <ele>24.6</ele>
        <time>2016-04-02T14:39:03Z</time>
      </trkpt>
      <trkpt lat="59.375798186927" lon="17.833608467623">
        <ele>24.6</ele>
        <time>2016-04-02T14:39:04Z</time>
      </trkpt>
      <trkpt lat="59.37585912334" lon="17.833363045591">
        <ele>24.6</ele>
        <time>2016-04-02T14:39:07Z</time>
      </trkpt>
      <trkpt lat="59.375935147173" lon="17.833127346563">
        <ele>24.6</ele>
        <time>2016-04-02T14:39:10Z</time>
      </trkpt>
      <trkpt lat="59.375987617867" lon="17.832963480418">
        <ele>24.6</ele>
        <time>2016-04-02T14:39:12Z</time>
      </trkpt>
      <trkpt lat="59.376050398298" lon="17.832670700651">
        <ele>24.6</ele>
        <time>2016-04-02T14:39:15Z</time>
      </trkpt>
      <trkpt lat="59.376163134853" lon="17.831998891366">
        <ele>24.6</ele>
        <time>2016-04-02T14:39:21Z</time>
      </trkpt>
      <trkpt lat="59.376236476478" lon="17.831545765852">
        <ele>24.6</ele>
        <time>2016-04-02T14:39:25Z</time>
      </trkpt>
      <trkpt lat="59.376278553616" lon="17.831339487293">
        <ele>24.6</ele>
        <time>2016-04-02T14:39:27Z</time>
      </trkpt>
      <trkpt lat="59.376371592706" lon="17.830867083409">
        <ele>24.6</ele>
        <time>2016-04-02T14:39:32Z</time>
      </trkpt>
      <trkpt lat="59.376385339022" lon="17.830765746238">
        <ele>24.6</ele>
        <time>2016-04-02T14:39:33Z</time>
      </trkpt>
      <trkpt lat="59.376389194696" lon="17.830664492886">
        <ele>24.6</ele>
        <time>2016-04-02T14:39:34Z</time>
      </trkpt>
      <trkpt lat="59.376416854966" lon="17.830489227357">
        <ele>24.6</ele>
        <time>2016-04-02T14:39:36Z</time>
      </trkpt>
      <trkpt lat="59.37643663625" lon="17.830406498004">
        <ele>24.6</ele>
        <time>2016-04-02T14:39:37Z</time>
      </trkpt>
      <trkpt lat="59.37650955878" lon="17.830085219777">
        <ele>24.6</ele>
        <time>2016-04-02T14:39:41Z</time>
      </trkpt>
      <trkpt lat="59.376526825494" lon="17.829981703312">
        <ele>24.6</ele>
        <time>2016-04-02T14:39:42Z</time>
      </trkpt>
      <trkpt lat="59.376586756079" lon="17.82965665323">
        <ele>24.6</ele>
        <time>2016-04-02T14:39:45Z</time>
      </trkpt>
      <trkpt lat="59.376683315567" lon="17.829127252426">
        <ele>24.6</ele>
        <time>2016-04-02T14:39:50Z</time>
      </trkpt>
      <trkpt lat="59.376734948071" lon="17.828827264225">
        <ele>24.6</ele>
        <time>2016-04-02T14:39:53Z</time>
      </trkpt>
      <trkpt lat="59.376778785408" lon="17.828607658445">
        <ele>24.6</ele>
        <time>2016-04-02T14:39:55Z</time>
      </trkpt>
      <trkpt lat="59.376793118457" lon="17.828491150035">
        <ele>24.6</ele>
        <time>2016-04-02T14:39:56Z</time>
      </trkpt>
      <trkpt lat="59.376866711539" lon="17.828204656693">
        <ele>24.6</ele>
        <time>2016-04-02T14:39:59Z</time>
      </trkpt>
      <trkpt lat="59.376913985455" lon="17.828006005663">
        <ele>24.6</ele>
        <time>2016-04-02T14:40:01Z</time>
      </trkpt>
      <trkpt lat="59.376976598248" lon="17.827631670009">
        <ele>24.6</ele>
        <time>2016-04-02T14:40:04Z</time>
      </trkpt>
      <trkpt lat="59.3770024145" lon="17.827500325636">
        <ele>24.6</ele>
        <time>2016-04-02T14:40:05Z</time>
      </trkpt>
      <trkpt lat="59.377078773609" lon="17.82710939382">
        <ele>24.6</ele>
        <time>2016-04-02T14:40:08Z</time>
      </trkpt>
      <trkpt lat="59.377255799337" lon="17.826254775296">
        <ele>24.6</ele>
        <time>2016-04-02T14:40:15Z</time>
      </trkpt>
      <trkpt lat="59.377416145084" lon="17.825465032678">
        <ele>24.6</ele>
        <time>2016-04-02T14:40:22Z</time>
      </trkpt>
      <trkpt lat="59.377539023738" lon="17.824818955826">
        <ele>24.6</ele>
        <time>2016-04-02T14:40:28Z</time>
      </trkpt>
      <trkpt lat="59.377552350959" lon="17.824708733841">
        <ele>24.6</ele>
        <time>2016-04-02T14:40:29Z</time>
      </trkpt>
      <trkpt lat="59.377615885761" lon="17.824260637467">
        <ele>24.6</ele>
        <time>2016-04-02T14:40:33Z</time>
      </trkpt>
      <trkpt lat="59.377631224638" lon="17.824151169853">
        <ele>24.6</ele>
        <time>2016-04-02T14:40:34Z</time>
      </trkpt>
      <trkpt lat="59.377670368111" lon="17.82393265372">
        <ele>24.6</ele>
        <time>2016-04-02T14:40:36Z</time>
      </trkpt>
      <trkpt lat="59.377715043638" lon="17.82362000885">
        <ele>24.6</ele>
        <time>2016-04-02T14:40:39Z</time>
      </trkpt>
      <trkpt lat="59.377781679743" lon="17.822996144033">
        <ele>24.6</ele>
        <time>2016-04-02T14:40:45Z</time>
      </trkpt>
      <trkpt lat="59.377819901207" lon="17.82268207424">
        <ele>24.6</ele>
        <time>2016-04-02T14:40:48Z</time>
      </trkpt>
      <trkpt lat="59.377861643069" lon="17.822380661116">
        <ele>24.6</ele>
        <time>2016-04-02T14:40:51Z</time>
      </trkpt>
      <trkpt lat="59.377940935843" lon="17.821645149391">
        <ele>24.6</ele>
        <time>2016-04-02T14:40:58Z</time>
      </trkpt>
      <trkpt lat="59.377850998056" lon="17.821351363796">
        <ele>24.6</ele>
        <time>2016-04-02T14:41:01Z</time>
      </trkpt>
      <trkpt lat="59.377811184031" lon="17.821271568108">
        <ele>24.6</ele>
        <time>2016-04-02T14:41:02Z</time>
      </trkpt>
      <trkpt lat="59.377681013124" lon="17.821062523522">
        <ele>24.6</ele>
        <time>2016-04-02T14:41:05Z</time>
      </trkpt>
      <trkpt lat="59.37759836759" lon="17.820946769483">
        <ele>24.6</ele>
        <time>2016-04-02T14:41:07Z</time>
      </trkpt>
      <trkpt lat="59.377474902203" lon="17.820739652734">
        <ele>25</ele>
        <time>2016-04-02T14:41:11Z</time>
      </trkpt>
      <trkpt lat="59.37744078787" lon="17.820688104049">
        <ele>25.8</ele>
        <time>2016-04-02T14:41:12Z</time>
      </trkpt>
      <trkpt lat="59.377406924994" lon="17.820634543708">
        <ele>26.4</ele>
        <time>2016-04-02T14:41:13Z</time>
      </trkpt>
      <trkpt lat="59.377373984127" lon="17.820584587584">
        <ele>26.8</ele>
        <time>2016-04-02T14:41:14Z</time>
      </trkpt>
      <trkpt lat="59.377240628098" lon="17.820407729494">
        <ele>26.8</ele>
        <time>2016-04-02T14:41:18Z</time>
      </trkpt>
      <trkpt lat="59.377094699219" lon="17.820213688509">
        <ele>26.8</ele>
        <time>2016-04-02T14:41:23Z</time>
      </trkpt>
      <trkpt lat="59.377032673159" lon="17.820061808481">
        <ele>27.2</ele>
        <time>2016-04-02T14:41:26Z</time>
      </trkpt>
      <trkpt lat="59.377031667331" lon="17.819996764937">
        <ele>27.6</ele>
        <time>2016-04-02T14:41:27Z</time>
      </trkpt>
      <trkpt lat="59.37704097124" lon="17.819915041412">
        <ele>28</ele>
        <time>2016-04-02T14:41:28Z</time>
      </trkpt>
      <trkpt lat="59.377049185502" lon="17.819815380621">
        <ele>28.4</ele>
        <time>2016-04-02T14:41:29Z</time>
      </trkpt>
      <trkpt lat="59.377072738641" lon="17.819722006255">
        <ele>28.8</ele>
        <time>2016-04-02T14:41:30Z</time>
      </trkpt>
      <trkpt lat="59.377191342526" lon="17.81928405198">
        <ele>28.4</ele>
        <time>2016-04-02T14:41:34Z</time>
      </trkpt>
      <trkpt lat="59.377223529022" lon="17.819165531914">
        <ele>28</ele>
        <time>2016-04-02T14:41:35Z</time>
      </trkpt>
      <trkpt lat="59.377250099645" lon="17.819033516989">
        <ele>27.6</ele>
        <time>2016-04-02T14:41:36Z</time>
      </trkpt>
      <trkpt lat="59.377278681924" lon="17.818912314715">
        <ele>26.8</ele>
        <time>2016-04-02T14:41:37Z</time>
      </trkpt>
      <trkpt lat="59.377306090737" lon="17.818787592043">
        <ele>26.2</ele>
        <time>2016-04-02T14:41:38Z</time>
      </trkpt>
      <trkpt lat="59.377331236437" lon="17.818659265154">
        <ele>25.8</ele>
        <time>2016-04-02T14:41:39Z</time>
      </trkpt>
      <trkpt lat="59.377387898081" lon="17.81840395248">
        <ele>24.8</ele>
        <time>2016-04-02T14:41:41Z</time>
      </trkpt>
      <trkpt lat="59.37741731855" lon="17.81827068027">
        <ele>24.2</ele>
        <time>2016-04-02T14:41:42Z</time>
      </trkpt>
      <trkpt lat="59.377576993745" lon="17.817561068616">
        <ele>24.2</ele>
        <time>2016-04-02T14:41:48Z</time>
      </trkpt>
      <trkpt lat="59.377700459132" lon="17.81695556016">
        <ele>24.2</ele>
        <time>2016-04-02T14:41:54Z</time>
      </trkpt>
      <trkpt lat="59.37776852016" lon="17.816616260848">
        <ele>24.2</ele>
        <time>2016-04-02T14:41:59Z</time>
      </trkpt>
      <trkpt lat="59.377762233735" lon="17.816346028392">
        <ele>24.2</ele>
        <time>2016-04-02T14:42:04Z</time>
      </trkpt>
      <trkpt lat="59.377662489125" lon="17.816230944905">
        <ele>24.2</ele>
        <time>2016-04-02T14:42:07Z</time>
      </trkpt>
      <trkpt lat="59.377578418668" lon="17.816154837253">
        <ele>24.2</ele>
        <time>2016-04-02T14:42:09Z</time>
      </trkpt>
      <trkpt lat="59.377449924141" lon="17.816021229767">
        <ele>24.2</ele>
        <time>2016-04-02T14:42:12Z</time>
      </trkpt>
      <trkpt lat="59.377268036911" lon="17.81584663479">
        <ele>24.2</ele>
        <time>2016-04-02T14:42:16Z</time>
      </trkpt>
      <trkpt lat="59.377129735561" lon="17.815729791104">
        <ele>24.2</ele>
        <time>2016-04-02T14:42:19Z</time>
      </trkpt>
      <trkpt lat="59.376991685668" lon="17.815620658766">
        <ele>24.2</ele>
        <time>2016-04-02T14:42:22Z</time>
      </trkpt>
      <trkpt lat="59.376949105616" lon="17.815594507238">
        <ele>24.6</ele>
        <time>2016-04-02T14:42:23Z</time>
      </trkpt>
      <trkpt lat="59.376901580243" lon="17.815567852796">
        <ele>25</ele>
        <time>2016-04-02T14:42:24Z</time>
      </trkpt>
      <trkpt lat="59.376853551956" lon="17.815538851422">
        <ele>25.6</ele>
        <time>2016-04-02T14:42:25Z</time>
      </trkpt>
      <trkpt lat="59.37680711623" lon="17.815506245831">
        <ele>26.4</ele>
        <time>2016-04-02T14:42:26Z</time>
      </trkpt>
      <trkpt lat="59.376712903674" lon="17.815432317473">
        <ele>26.4</ele>
        <time>2016-04-02T14:42:28Z</time>
      </trkpt>
      <trkpt lat="59.37665708022" lon="17.815249172958">
        <ele>26.4</ele>
        <time>2016-04-02T14:42:30Z</time>
      </trkpt>
      <trkpt lat="59.376655152383" lon="17.815136855498">
        <ele>26.8</ele>
        <time>2016-04-02T14:42:31Z</time>
      </trkpt>
      <trkpt lat="59.376665713577" lon="17.815026382056">
        <ele>27.2</ele>
        <time>2016-04-02T14:42:32Z</time>
      </trkpt>
      <trkpt lat="59.376672838192" lon="17.814926385989">
        <ele>27.8</ele>
        <time>2016-04-02T14:42:33Z</time>
      </trkpt>
      <trkpt lat="59.376680968635" lon="17.814834352727">
        <ele>28.2</ele>
        <time>2016-04-02T14:42:34Z</time>
      </trkpt>
      <trkpt lat="59.376690859277" lon="17.81476034055">
        <ele>28.6</ele>
        <time>2016-04-02T14:42:35Z</time>
      </trkpt>
    </trkseg>
  </trk>
</gpx>